# Wetter Temperatur Luftdruck Luftfeuchtigkeit Sichtweite Windgeschwindigkeit Windrichtung Zeit
1 Clear 27 999 36 10000 2.57 210 16:20 01.02.2023
2 Clear 21 1018 47 10000 0 0 13:43 01.02.2023
3 Clear 20 1018 51 10000 0 0 13:19 01.02.2023
4 Clear 18 1019 61 10000 0 0 12:26 01.02.2023
5 Clear 19 995 52 10000 0.57 263 09:54 01.02.2023
6 Clear 21 994 45 10000 1.04 254 06:19 01.02.2023
7 Clear 29 981 32 10000 4.63 220 22:21 31.01.2023
8 Clear 29 982 31 10000 4.12 220 20:46 31.01.2023
9 Clear 30 996 31 10000 3.6 0 19:24 31.01.2023
10 Clear 30 996 31 10000 3.6 0 19:24 31.01.2023
11 Clear 28 987 37 10000 2.06 0 16:42 31.01.2023
12 Clear 26 997 42 10000 1.54 250 15:36 31.01.2023
13 Clear 26 997 43 10000 1.54 250 15:18 31.01.2023
14 Clear 22 997 53 10000 0 0 12:48 31.01.2023
15 Clouds 20 992 56 10000 0.36 263 11:26 31.01.2023
16 Clear 21 990 54 10000 0.27 245 09:55 31.01.2023
17 Clear 21 990 55 10000 0.32 261 09:25 31.01.2023
18 Clear 21 989 53 10000 0.32 261 08:35 31.01.2023
19 Clear 22 990 51 10000 0.75 234 06:20 31.01.2023
20 Clear 28 984 37 10000 4.12 230 00:25 31.01.2023
21 Clear 29 983 36 10000 4.63 220 23:23 30.01.2023
22 Clear 30 984 34 10000 4.63 230 22:47 30.01.2023
23 Clear 31 994 30 10000 3.6 230 21:30 30.01.2023
24 Clear 30 990 30 8000 4.63 210 20:42 30.01.2023
25 Clear 29 993 30 8000 2.57 150 18:26 30.01.2023
26 Clear 28 979 33 10000 3.4 247 16:56 30.01.2023
27 Clear 23 989 41 10000 0 0 14:33 30.01.2023
28 Clear 22 993 44 10000 0 0 13:37 30.01.2023
29 Clear 20 992 49 10000 0.29 227 11:28 30.01.2023
30 Clear 20 991 47 10000 0.43 244 10:18 30.01.2023
31 Clear 20 991 45 10000 0.43 244 09:49 30.01.2023
32 Clear 21 991 47 10000 0.58 222 08:18 30.01.2023
33 Clear 25 987 33 10000 2.57 220 01:46 30.01.2023
34 Clear 28 986 26 10000 5.14 240 23:35 29.01.2023
35 Clear 29 985 23 10000 5.14 230 22:37 29.01.2023
36 Clear 29 981 23 10000 5.14 220 21:41 29.01.2023
37 Clear 31 995 22 10000 4.12 240 20:50 29.01.2023
38 Clear 31 995 21 10000 4.12 230 19:50 29.01.2023
39 Clear 30 992 21 10000 4.12 230 19:27 29.01.2023
40 Clear 31 982 18 10000 3.09 250 17:50 29.01.2023
41 Clear 28 996 24 10000 1.54 180 16:21 29.01.2023
42 Clear 27 996 26 10000 1.54 300 15:29 29.01.2023
43 Clear 24 997 33 10000 0 0 13:30 29.01.2023
44 Clear 22 994 40 10000 1.03 250 12:45 29.01.2023
45 Clear 21 994 41 10000 1.03 250 12:23 29.01.2023
46 Clear 23 972 35 10000 0.23 304 11:58 29.01.2023
47 Clear 21 972 38 10000 0.19 124 11:28 29.01.2023
48 Clear 21 991 37 10000 0.36 214 10:19 29.01.2023
49 Clear 22 991 34 10000 0.35 216 07:20 29.01.2023
50 Clear 24 992 29 10000 0.82 231 03:41 29.01.2023
51 Clear 30 985 23 10000 5.14 240 23:46 28.01.2023
52 Clear 32 995 17 10000 4.63 240 20:45 28.01.2023
53 Clear 31 993 18 10000 2.57 270 19:53 28.01.2023
54 Clear 31 996 18 10000 2.57 270 18:39 28.01.2023
55 Clear 29 987 25 10000 2.06 180 17:21 28.01.2023
56 Clear 27 997 29 10000 2.06 240 16:28 28.01.2023
57 Clear 26 998 31 10000 2.06 210 15:49 28.01.2023
58 Clear 26 998 32 10000 2.06 210 15:22 28.01.2023
59 Clear 26 998 32 10000 2.06 210 15:22 28.01.2023
60 Clear 23 1014 37 10000 1.03 250 13:44 28.01.2023
61 Clear 21 986 44 10000 0.31 243 11:55 28.01.2023
62 Clear 20 1014 41 10000 0.09 186 10:34 28.01.2023
63 Clear 20 1014 45 10000 0.42 208 08:53 28.01.2023
64 Clear 25 1014 32 10000 2.06 250 01:48 28.01.2023
65 Clear 27 982 30 10000 4.12 240 00:27 28.01.2023
66 Clear 30 993 26 10000 3.09 240 21:56 27.01.2023
67 Clear 29 1013 25 10000 3.6 240 18:57 27.01.2023
68 Clear 27 1016 26 10000 3.09 240 17:58 27.01.2023
69 Clear 26 996 28 10000 3.09 240 17:20 27.01.2023
70 Clear 26 999 27 10000 2.06 240 16:35 27.01.2023
71 Clear 24 999 29 10000 2.06 240 15:25 27.01.2023
72 Clear 23 1015 30 10000 1.54 240 14:26 27.01.2023
73 Clear 20 1016 36 10000 0 0 13:33 27.01.2023
74 Clear 18 1018 48 10000 0.39 244 09:30 27.01.2023
75 Clear 20 993 35 10000 0.62 238 06:30 27.01.2023
76 Clear 25 990 27 10000 4.63 240 00:27 27.01.2023
77 Clear 28 993 32 10000 4.12 230 21:57 26.01.2023
78 Clear 27 993 33 10000 5.14 240 20:55 26.01.2023
79 Clear 27 993 36 10000 5.14 240 19:59 26.01.2023
80 Clear 26 997 38 10000 2.57 250 17:57 26.01.2023
81 Clear 25 998 39 10000 2.57 240 16:42 26.01.2023
82 Clear 24 998 41 10000 2.57 240 16:20 26.01.2023
83 Clear 24 998 42 10000 1.54 250 15:42 26.01.2023
84 Clear 23 998 44 10000 1.54 250 15:24 26.01.2023
85 Clear 20 1015 52 10000 1.54 270 13:50 26.01.2023
86 Clear 19 1015 57 10000 1.7 255 12:31 26.01.2023
87 Clear 19 992 54 10000 0.81 256 10:35 26.01.2023
88 Clear 19 992 53 10000 1.01 254 09:44 26.01.2023
89 Clear 19 992 52 10000 0.83 252 09:19 26.01.2023
90 Clear 21 992 49 10000 1.06 253 06:39 26.01.2023
91 Clear 27 969 38 10000 5.66 240 23:41 25.01.2023
92 Clear 28 986 36 10000 5.14 230 22:48 25.01.2023
93 Clouds 29 981 35 10000 5.66 240 21:41 25.01.2023
94 Clouds 29 982 35 10000 5.66 240 21:18 25.01.2023
95 Clear 29 1014 35 8000 3.09 240 18:30 25.01.2023
96 Clear 27 997 43 8000 2.57 210 16:22 25.01.2023
97 Clear 25 998 48 8000 1.54 250 15:21 25.01.2023
98 Clear 20 1014 60 10000 1.54 240 12:29 25.01.2023
99 Clear 21 980 55 10000 0.83 260 09:53 25.01.2023
100 Clear 21 980 56 10000 0.56 266 09:29 25.01.2023
101 Clear 22 992 56 10000 1.02 252 06:52 25.01.2023
102 Clear 27 978 37 10000 4.63 240 00:33 25.01.2023
103 Clear 29 982 28 10000 5.14 240 22:39 24.01.2023
104 Clouds 30 997 28 10000 4.12 240 21:28 24.01.2023
105 Clear 28 995 31 10000 3.6 240 19:39 24.01.2023
106 Clear 28 998 33 8000 2.06 240 18:30 24.01.2023
107 Clear 27 989 36 8000 2.57 240 17:19 24.01.2023
108 Clear 26 990 39 8000 1.54 230 16:52 24.01.2023
109 Clear 23 1001 48 10000 1.54 250 14:49 24.01.2023
110 Clear 19 992 60 10000 0 0 12:29 24.01.2023
111 Clear 19 985 59 10000 1.07 225 11:20 24.01.2023
112 Clear 20 996 53 10000 0.81 231 08:21 24.01.2023
113 Clear 20 996 53 10000 0.81 231 07:50 24.01.2023
114 Clear 21 996 46 10000 1.15 252 05:22 24.01.2023
115 Clear 26 989 36 10000 3.6 240 00:46 24.01.2023
116 Clear 27 971 33 10000 4.63 240 23:43 23.01.2023
117 Clear 29 987 29 10000 5.66 240 21:50 23.01.2023
118 Clear 30 982 27 10000 6.17 240 19:45 23.01.2023
119 Clear 29 997 26 10000 0 0 17:59 23.01.2023
120 Clear 26 991 36 10000 3.14 258 15:35 23.01.2023
121 Clear 24 998 40 10000 1.54 250 14:21 23.01.2023
122 Clear 22 998 45 10000 1.03 240 13:23 23.01.2023
123 Clear 21 994 47 10000 1.03 250 12:48 23.01.2023
124 Clear 21 973 49 10000 0.73 273 11:43 23.01.2023
125 Clear 21 980 47 10000 0.18 1 08:42 23.01.2023
126 Clear 21 992 43 10000 0.68 242 06:29 23.01.2023
127 Clear 28 985 28 10000 5.14 230 23:28 22.01.2023
128 Clear 31 994 25 10000 8.23 240 21:46 22.01.2023
129 Clear 30 991 22 10000 2.57 240 20:53 22.01.2023
130 Clear 30 995 24 10000 6.17 240 19:53 22.01.2023
131 Clear 29 992 25 10000 6.17 240 19:20 22.01.2023
132 Clear 28 992 26 10000 5.66 240 18:18 22.01.2023
133 Clear 29 989 25 10000 2.57 260 17:44 22.01.2023
134 Clear 28 996 29 10000 2.57 250 16:55 22.01.2023
135 Clear 24 997 39 10000 1.54 250 14:55 22.01.2023
136 Clear 22 988 41 10000 0 0 13:49 22.01.2023
137 Clear 20 995 52 10000 1.54 240 12:53 22.01.2023
138 Clear 19 974 51 10000 0.15 122 11:39 22.01.2023
139 Clear 19 993 50 10000 0.21 224 09:55 22.01.2023
140 Clear 19 993 51 10000 0.03 231 08:44 22.01.2023
141 Clear 22 982 44 10000 1.64 236 02:54 22.01.2023
142 Clear 27 987 32 10000 4.63 240 23:42 21.01.2023
143 Clear 28 987 30 10000 5.14 240 22:47 21.01.2023
144 Clear 29 997 27 10000 5.14 240 20:48 21.01.2023
145 Clear 28 998 32 8000 4.12 240 18:49 21.01.2023
146 Clear 23 999 46 10000 1.03 250 15:19 21.01.2023
147 Clear 20 1000 54 10000 1.03 250 13:31 21.01.2023
148 Clear 18 996 63 10000 1.03 240 12:43 21.01.2023
149 Clear 18 975 59 10000 0.32 287 11:28 21.01.2023
150 Clear 18 983 59 10000 0.32 287 10:46 21.01.2023
151 Clear 19 995 55 10000 1.04 228 05:40 21.01.2023
152 Clear 24 981 39 10000 4.63 240 00:27 21.01.2023
153 Clear 27 998 34 10000 4.12 240 22:26 20.01.2023
154 Clear 27 999 35 10000 4.12 240 21:35 20.01.2023
155 Clear 27 999 37 10000 3.6 240 20:42 20.01.2023
156 Haze 25 1001 42 5000 3.09 240 18:23 20.01.2023
157 Clear 22 983 49 6000 1.54 250 15:45 20.01.2023
158 Haze 19 983 59 5000 2.06 230 14:33 20.01.2023
159 Clouds 16 997 73 7000 1.03 230 12:24 20.01.2023
160 Clear 16 995 72 10000 0.98 251 08:59 20.01.2023
161 Clear 17 995 69 10000 1.07 248 07:43 20.01.2023
162 Clear 19 997 61 10000 2.1 239 02:33 20.01.2023
163 Clear 24 990 43 10000 4.63 240 22:38 19.01.2023
164 Clear 25 1000 43 10000 4.63 240 22:18 19.01.2023
165 Clear 27 979 37 10000 4.7 242 20:21 19.01.2023
166 Clear 26 979 39 10000 3.85 245 18:57 19.01.2023
167 Clear 23 1016 47 7000 2.57 240 15:22 19.01.2023
168 Clear 18 994 56 10000 0.64 270 10:52 19.01.2023
169 Clear 19 992 53 10000 0.59 254 08:59 19.01.2023
170 Clear 19 992 53 10000 0.59 254 08:59 19.01.2023
171 Clear 29 987 30 10000 4.12 240 23:19 18.01.2023
172 Clear 30 997 27 10000 5.14 240 20:38 18.01.2023
173 Clear 30 994 27 10000 5.14 240 20:18 18.01.2023
174 Clear 29 994 29 8000 4.63 240 19:36 18.01.2023
175 Clear 30 998 28 8000 3.09 240 17:32 18.01.2023
176 Clear 24 999 42 10000 1.03 240 14:41 18.01.2023
177 Clear 20 994 54 10000 0 0 12:53 18.01.2023
178 Clear 18 993 53 10000 0.27 221 10:29 18.01.2023
179 Clear 18 993 52 10000 0.48 211 07:57 18.01.2023
180 Clear 23 1001 42 10000 3.09 240 01:26 18.01.2023
181 Clear 27 984 34 10000 4.12 240 22:49 17.01.2023
182 Clear 26 984 34 10000 5.66 240 20:27 17.01.2023
183 Clouds 27 990 34 10000 4.12 240 19:25 17.01.2023
184 Clouds 25 990 36 8000 2.06 240 17:53 17.01.2023
185 Clouds 23 1001 41 10000 1.54 240 15:38 17.01.2023
186 Clouds 21 1001 45 10000 1.03 240 14:52 17.01.2023
187 Clouds 20 995 48 10000 2.16 254 13:34 17.01.2023
188 Clouds 17 1020 55 10000 0.7 271 11:51 17.01.2023
189 Clouds 17 987 52 10000 0.75 259 10:35 17.01.2023
190 Clouds 17 995 49 10000 0.77 256 09:31 17.01.2023
191 Clouds 18 995 46 10000 0.75 240 07:50 17.01.2023
192 Clear 20 995 43 10000 1.23 234 03:52 17.01.2023
193 Clear 23 1017 42 8000 4.12 240 00:54 17.01.2023
194 Clear 27 997 34 8000 4.63 240 22:58 16.01.2023
195 Clear 27 993 34 8000 5.14 240 21:47 16.01.2023
196 Clear 28 993 32 8000 5.14 240 19:59 16.01.2023
197 Clear 28 993 31 8000 5.14 240 19:26 16.01.2023
198 Clear 28 993 31 8000 3.6 240 18:49 16.01.2023
199 Clear 27 994 31 8000 3.6 240 18:19 16.01.2023
200 Clear 27 998 32 8000 3.09 240 17:20 16.01.2023
201 Clear 23 999 38 10000 1.03 240 14:36 16.01.2023
202 Clear 21 1015 43 10000 0 0 13:37 16.01.2023
203 Clouds 18 1016 50 10000 0.69 253 10:27 16.01.2023
204 Clouds 19 1015 48 10000 0.9 266 08:53 16.01.2023
205 Clear 28 997 30 10000 5.66 240 23:21 15.01.2023
206 Clear 29 993 25 10000 5.14 240 21:32 15.01.2023
207 Clear 29 1015 22 10000 4.12 240 20:32 15.01.2023
208 Clear 29 1015 26 10000 3.09 240 19:38 15.01.2023
209 Clear 27 1016 28 10000 2.57 240 17:39 15.01.2023
210 Clear 23 1001 33 10000 1.54 240 15:22 15.01.2023
211 Clear 16 1018 50 10000 1.03 230 12:30 15.01.2023
212 Clear 16 1018 50 10000 1.03 230 12:30 15.01.2023
213 Clear 16 1019 48 10000 0.54 317 11:30 15.01.2023
214 Clear 17 1020 47 10000 0.51 267 10:27 15.01.2023
215 Clear 17 1018 48 10000 0.51 267 09:34 15.01.2023
216 Clear 22 1016 36 10000 3.09 240 01:42 15.01.2023
217 Clear 27 994 28 10000 5.14 240 22:44 14.01.2023
218 Clear 27 994 27 10000 4.63 240 21:55 14.01.2023
219 Clear 27 994 28 10000 4.63 240 21:36 14.01.2023
220 Clear 27 994 28 10000 4.63 240 21:36 14.01.2023
221 Clear 27 994 28 10000 4.63 240 21:18 14.01.2023
222 Clear 27 994 28 10000 4.63 240 21:18 14.01.2023
223 Clear 27 998 29 10000 4.63 250 20:28 14.01.2023
224 Clear 25 994 32 10000 4.12 250 18:29 14.01.2023
225 Clear 24 999 33 10000 2.06 240 15:48 14.01.2023
226 Clear 23 999 34 10000 2.06 240 15:26 14.01.2023
227 Clear 21 1016 37 10000 0 0 14:24 14.01.2023
228 Clear 21 1001 38 10000 0 0 13:32 14.01.2023
229 Clear 17 1018 47 10000 0.94 255 10:51 14.01.2023
230 Clear 17 1017 46 10000 0.52 258 09:56 14.01.2023
231 Clear 22 1016 37 10000 1.48 245 02:50 14.01.2023
232 Clear 28 996 23 10000 5.66 240 23:21 13.01.2023
233 Clear 29 992 23 10000 5.14 240 22:42 13.01.2023
234 Clear 28 992 23 10000 3.6 250 21:58 13.01.2023
235 Clear 29 1013 20 10000 4.12 240 20:52 13.01.2023
236 Clear 29 996 22 10000 3.09 250 19:35 13.01.2023
237 Clear 27 997 24 10000 2.57 250 17:59 13.01.2023
238 Clear 25 998 24 10000 1.54 240 16:24 13.01.2023
239 Clear 16 1018 44 10000 0 0 12:36 13.01.2023
240 Clear 16 1018 46 10000 0 0 12:18 13.01.2023
241 Clear 16 1018 40 10000 0.41 210 10:23 13.01.2023
242 Clear 17 1017 39 10000 0.41 210 09:45 13.01.2023
243 Clear 17 1018 39 10000 0.45 220 08:52 13.01.2023
244 Clear 18 1018 36 10000 0.55 208 07:49 13.01.2023
245 Clouds 18 1018 36 10000 0.9 223 06:52 13.01.2023
246 Clouds 21 1018 29 10000 1.51 242 03:26 13.01.2023
247 Clear 26 1015 21 10000 5.66 240 23:43 12.01.2023
248 Clouds 27 994 24 10000 6.17 240 22:40 12.01.2023
249 Clouds 27 994 26 10000 3.6 250 20:55 12.01.2023
250 Clouds 26 995 30 10000 3.6 250 18:53 12.01.2023
251 Clouds 26 999 31 10000 2.06 230 17:33 12.01.2023
252 Clouds 24 1000 33 8000 2.06 250 15:54 12.01.2023
253 Clouds 22 1001 37 10000 2.57 250 14:44 12.01.2023
254 Clouds 21 1017 39 10000 2.57 250 14:22 12.01.2023
255 Clouds 20 1017 42 10000 1.03 260 12:45 12.01.2023
256 Clouds 20 1018 43 10000 0.71 259 10:34 12.01.2023
257 Clouds 20 1017 44 10000 1.22 233 08:21 12.01.2023
258 Clouds 23 1018 39 10000 3.09 240 01:50 12.01.2023
259 Clouds 26 996 35 10000 6.17 240 23:59 11.01.2023
260 Clouds 26 1001 34 10000 6.17 240 23:40 11.01.2023
261 Clouds 26 1000 34 10000 6.17 240 23:20 11.01.2023
262 Clouds 29 995 34 10000 5.14 240 21:44 11.01.2023
263 Clouds 29 995 32 10000 3.09 240 19:59 11.01.2023
264 Clouds 29 1016 34 8000 3.6 250 18:35 11.01.2023
265 Clouds 27 1001 45 6000 1.54 230 16:47 11.01.2023
266 Clear 24 1002 53 10000 2.06 250 14:57 11.01.2023
267 Clear 19 1019 68 10000 0 0 12:50 11.01.2023
268 Clear 19 1020 65 10000 0.84 251 11:54 11.01.2023
269 Clear 18 1020 69 10000 0.87 229 10:20 11.01.2023
270 Clear 20 1019 66 10000 0.59 251 08:18 11.01.2023
271 Clouds 20 997 63 10000 0.9 234 07:25 11.01.2023
272 Clouds 25 984 48 10000 2.82 232 00:42 11.01.2023
273 Clouds 26 989 40 8000 4.12 240 22:46 10.01.2023
274 Clouds 27 990 37 10000 4.12 240 21:33 10.01.2023
275 Clouds 27 990 41 10000 5.14 240 20:42 10.01.2023
276 Clouds 27 990 45 8000 5.14 250 19:39 10.01.2023
277 Clouds 25 995 43 7000 3.6 250 18:47 10.01.2023
278 Clouds 25 992 46 7000 2.06 250 17:59 10.01.2023
279 Clouds 24 971 45 10000 3.42 251 16:39 10.01.2023
280 Clouds 23 992 51 8000 1.54 250 15:31 10.01.2023
281 Clouds 21 992 55 8000 2.06 240 14:32 10.01.2023
282 Clouds 18 1002 66 8000 0 0 12:23 10.01.2023
283 Clouds 17 996 65 10000 0.55 253 09:25 10.01.2023
284 Clouds 18 987 65 10000 0.92 267 08:29 10.01.2023
285 Clear 18 996 64 10000 0.73 272 07:27 10.01.2023
286 Clear 19 998 60 10000 1.59 244 04:54 10.01.2023
287 Clouds 25 990 46 10000 5.14 240 23:29 09.01.2023
288 Clouds 27 983 41 10000 5.66 240 21:51 09.01.2023
289 Clouds 28 983 40 10000 5.14 240 20:45 09.01.2023
290 Clouds 28 988 39 10000 5.14 240 19:22 09.01.2023
291 Clouds 28 981 39 10000 3.6 240 17:54 09.01.2023
292 Clouds 28 981 38 10000 3.6 240 17:26 09.01.2023
293 Clear 26 999 43 10000 2.06 240 16:32 09.01.2023
294 Clear 25 1000 48 10000 2.06 240 15:28 09.01.2023
295 Clear 24 992 49 10000 0 0 14:45 09.01.2023
296 Clear 22 1000 55 10000 0 0 13:38 09.01.2023
297 Clear 20 1000 61 10000 0 0 12:49 09.01.2023
298 Clouds 19 987 59 10000 0.6 247 11:42 09.01.2023
299 Clouds 19 995 61 10000 0.86 217 08:43 09.01.2023
300 Clouds 20 995 57 10000 0.96 235 06:41 09.01.2023
301 Clouds 22 996 51 10000 2.08 239 02:54 09.01.2023
302 Clouds 27 972 40 10000 4.12 240 23:52 08.01.2023
303 Clear 30 988 35 10000 4.63 240 21:24 08.01.2023
304 Clear 29 983 35 10000 5.14 240 20:58 08.01.2023
305 Clear 29 996 35 10000 4.12 240 19:48 08.01.2023
306 Clear 29 999 37 10000 3.09 240 17:42 08.01.2023
307 Clear 29 990 38 10000 3.09 240 17:19 08.01.2023
308 Clear 27 1000 42 10000 2.57 240 15:39 08.01.2023
309 Clear 26 993 44 10000 1.54 250 14:41 08.01.2023
310 Clear 23 1017 50 10000 0 0 13:56 08.01.2023
311 Clear 23 1017 53 10000 0 0 13:25 08.01.2023
312 Clear 20 1018 61 10000 0.43 274 11:51 08.01.2023
313 Clear 20 995 56 10000 0.65 249 09:38 08.01.2023
314 Clear 20 994 55 10000 0.54 233 08:42 08.01.2023
315 Clouds 21 994 54 10000 0.82 217 07:21 08.01.2023
316 Clouds 27 990 41 10000 5.66 240 23:35 07.01.2023
317 Clouds 28 990 38 10000 5.14 250 22:45 07.01.2023
318 Clouds 28 989 38 10000 5.14 250 22:18 07.01.2023
319 Clouds 29 989 35 10000 5.14 240 21:32 07.01.2023
320 Clouds 30 995 32 10000 4.63 240 20:29 07.01.2023
321 Clouds 29 996 32 10000 3.6 250 19:25 07.01.2023
322 Clouds 29 996 32 10000 3.6 240 18:21 07.01.2023
323 Clouds 29 1000 33 10000 2.57 230 17:41 07.01.2023
324 Clouds 27 1001 35 10000 3.09 250 16:49 07.01.2023
325 Clouds 27 991 38 10000 3.09 250 16:28 07.01.2023
326 Clear 25 1001 42 10000 2.06 230 15:40 07.01.2023
327 Clear 25 1002 42 10000 2.06 230 15:22 07.01.2023
328 Clear 23 1002 47 10000 2.06 200 14:25 07.01.2023
329 Clear 24 986 46 10000 2.31 254 13:43 07.01.2023
330 Clouds 22 997 49 10000 1.3 238 13:19 07.01.2023
331 Clear 18 1019 62 10000 0 0 12:21 07.01.2023
332 Clouds 19 996 56 10000 0.82 256 10:29 07.01.2023
333 Clouds 19 996 54 10000 0.82 256 09:50 07.01.2023
334 Clouds 20 996 52 10000 0.36 239 08:18 07.01.2023
335 Clouds 20 996 52 10000 0.55 244 07:42 07.01.2023
336 Clouds 21 996 50 10000 0.98 236 06:31 07.01.2023
337 Clear 27 989 34 10000 6.17 240 23:34 06.01.2023
338 Clouds 29 989 32 10000 6.17 250 22:21 06.01.2023
339 Clouds 28 984 33 10000 3.09 240 21:53 06.01.2023
340 Clouds 28 989 33 10000 5.14 240 20:38 06.01.2023
341 Clouds 28 989 32 10000 2.57 240 19:56 06.01.2023
342 Clouds 28 990 31 10000 2.57 240 19:38 06.01.2023
343 Clouds 28 985 32 10000 2.57 240 19:20 06.01.2023
344 Clouds 26 985 34 10000 3.09 240 17:55 06.01.2023
345 Clouds 25 1001 38 10000 2.06 230 16:53 06.01.2023
346 Clouds 25 991 38 10000 2.06 230 16:23 06.01.2023
347 Clear 24 1001 44 10000 2.57 240 15:52 06.01.2023
348 Clear 24 1002 47 10000 2.57 240 15:30 06.01.2023
349 Clear 21 1001 52 10000 0 0 13:42 06.01.2023
350 Clear 19 1019 61 10000 0.94 259 11:52 06.01.2023
351 Clear 18 996 60 10000 0.68 246 10:55 06.01.2023
352 Clear 19 996 58 10000 0.71 253 08:50 06.01.2023
353 Clouds 21 995 52 10000 1.5 244 05:22 06.01.2023
354 Clouds 28 1000 35 10000 4.63 240 22:57 05.01.2023
355 Clouds 28 999 35 10000 4.63 240 22:30 05.01.2023
356 Clouds 27 985 37 8000 4.12 240 20:34 05.01.2023
357 Clouds 26 991 40 8000 3.6 240 17:30 05.01.2023
358 Clouds 25 1002 46 8000 3.09 240 16:50 05.01.2023
359 Clouds 24 1002 49 8000 2.06 240 15:56 05.01.2023
360 Clouds 23 1003 51 8000 2.06 240 15:34 05.01.2023
361 Clouds 20 1003 61 8000 1.03 0 13:35 05.01.2023
362 Clouds 18 1020 69 8000 1.54 230 12:40 05.01.2023
363 Clouds 18 988 67 10000 0.86 248 10:48 05.01.2023
364 Clouds 19 995 60 10000 0.74 262 09:43 05.01.2023
365 Clear 20 995 55 10000 0.83 266 07:44 05.01.2023
366 Clouds 20 995 53 10000 1.19 257 06:42 05.01.2023
367 Clear 24 993 43 10000 1.38 216 02:23 05.01.2023
368 Clear 30 986 30 10000 5.14 240 22:26 04.01.2023
369 Clear 31 986 27 10000 6.17 240 21:30 04.01.2023
370 Clear 31 993 20 10000 5.66 240 20:21 04.01.2023
371 Clear 32 993 20 10000 6.17 250 19:45 04.01.2023
372 Clear 31 993 19 10000 6.17 250 19:27 04.01.2023
373 Clear 31 983 21 10000 4.12 240 18:18 04.01.2023
374 Clear 29 994 25 10000 2.57 240 16:30 04.01.2023
375 Clear 27 998 30 10000 1.54 230 14:50 04.01.2023
376 Clear 22 993 40 10000 1.03 180 12:36 04.01.2023
377 Clear 20 993 40 10000 0.2 324 11:23 04.01.2023
378 Clear 20 993 40 10000 0.2 324 10:44 04.01.2023
379 Clear 20 993 41 10000 0.48 43 10:25 04.01.2023
380 Clear 20 992 40 10000 0.48 43 09:40 04.01.2023
381 Clear 22 992 36 10000 0.07 167 05:39 04.01.2023
382 Clear 26 988 29 10000 2.57 240 01:40 04.01.2023
383 Clouds 28 970 23 10000 3.09 230 23:42 03.01.2023
384 Clear 29 970 23 10000 4.17 236 22:56 03.01.2023
385 Clear 29 981 24 10000 4.63 250 21:39 03.01.2023
386 Clear 29 993 24 10000 5.14 250 20:50 03.01.2023
387 Clear 27 994 29 10000 5.14 240 18:24 03.01.2023
388 Clear 26 982 32 10000 3.09 250 16:40 03.01.2023
389 Clear 22 1001 43 10000 1.54 220 14:23 03.01.2023
390 Clear 21 1001 44 10000 2.06 240 13:33 03.01.2023
391 Clear 21 1001 44 10000 2.06 240 13:32 03.01.2023
392 Clear 18 1018 54 10000 1.54 200 12:59 03.01.2023
393 Clear 17 1018 56 10000 1.54 200 12:31 03.01.2023
394 Clear 18 1020 56 10000 0.85 234 11:53 03.01.2023
395 Clear 17 996 52 10000 0.62 223 09:26 03.01.2023
396 Clouds 19 997 46 10000 1.64 233 04:26 03.01.2023
397 Clouds 20 997 45 10000 1.64 233 03:47 03.01.2023
398 Clouds 20 997 44 10000 1.72 234 03:27 03.01.2023
399 Clear 26 984 29 10000 5.14 240 23:19 02.01.2023
400 Clear 27 984 28 10000 5.66 240 22:39 02.01.2023
401 Clear 28 990 32 10000 5.14 240 20:51 02.01.2023
402 Clear 27 985 32 10000 5.14 240 20:31 02.01.2023
403 Clear 27 986 33 10000 4.12 240 18:45 02.01.2023
404 Clear 24 1003 38 10000 2.06 240 15:43 02.01.2023
405 Clear 21 1003 45 10000 0 0 13:51 02.01.2023
406 Clear 19 1004 54 10000 0 0 12:38 02.01.2023
407 Clear 18 998 53 10000 0.27 264 11:25 02.01.2023
408 Clear 19 998 52 10000 0.12 299 08:38 02.01.2023
409 Clear 21 999 48 10000 0.97 226 04:38 02.01.2023
410 Clear 27 992 29 10000 2.57 240 23:18 01.01.2023
411 Clear 27 992 24 10000 6.17 250 21:46 01.01.2023
412 Clear 27 999 26 10000 4.63 240 20:49 01.01.2023
413 Clear 28 1003 25 10000 4.63 240 20:18 01.01.2023
414 Clear 26 1000 33 10000 2.06 180 18:52 01.01.2023
415 Clear 25 1001 39 10000 2.57 250 17:24 01.01.2023
416 Clear 25 998 42 10000 2.06 180 16:49 01.01.2023
417 Clear 21 998 58 8000 0 0 15:31 01.01.2023
418 Clear 20 1000 64 10000 1.85 247 13:48 01.01.2023
419 Clear 18 1001 69 10000 1.59 250 12:57 01.01.2023
420 Clear 17 980 74 10000 0.36 78 11:40 01.01.2023
421 Clear 15 1002 81 10000 0.67 219 11:21 01.01.2023
422 Clear 16 1000 80 10000 0.15 39 09:29 01.01.2023
423 Clear 16 1000 80 10000 0.38 253 08:25 01.01.2023
424 Clear 16 1000 79 10000 0.17 166 07:30 01.01.2023
425 Clouds 17 1000 76 10000 0.5 160 06:39 01.01.2023
426 Clouds 19 999 67 6000 2.57 240 23:45 31.12.2022
427 Clouds 19 987 63 6000 2.57 240 23:21 31.12.2022
428 Clouds 19 994 67 6000 1.54 240 21:46 31.12.2022
429 Rain 19 994 68 6000 1.54 240 21:23 31.12.2022
430 Haze 19 989 68 4000 2.57 250 20:22 31.12.2022
431 Rain 18 994 71 5000 1.03 0 18:45 31.12.2022
432 Clouds 18 994 72 5000 1.03 0 18:20 31.12.2022
433 Clouds 17 1022 78 7000 2.06 240 17:56 31.12.2022
434 Clouds 17 1022 77 7000 2.06 240 17:22 31.12.2022
435 Clouds 17 1022 78 6000 2.57 240 16:31 31.12.2022
436 Rain 17 1021 75 7000 0 0 15:28 31.12.2022
437 Clouds 17 1021 71 8000 1.54 240 13:55 31.12.2022
438 Clouds 17 1021 71 8000 1.54 240 13:55 31.12.2022
439 Clouds 17 1020 70 8000 1.54 240 13:24 31.12.2022
440 Clouds 16 1020 72 8000 1.03 250 12:21 31.12.2022
441 Clouds 17 1020 71 10000 1.38 293 11:51 31.12.2022
442 Clouds 17 1020 70 10000 0.87 287 10:55 31.12.2022
443 Clouds 16 1019 71 10000 1.06 283 09:56 31.12.2022
444 Clouds 16 1019 70 10000 1.06 283 09:36 31.12.2022
445 Clouds 16 1017 68 10000 1.4 267 07:58 31.12.2022
446 Clouds 24 1013 46 8000 3.09 250 00:59 31.12.2022
447 Clouds 25 1013 43 8000 3.09 250 00:27 31.12.2022
448 Clouds 27 996 37 8000 5.14 240 22:55 30.12.2022
449 Clouds 27 996 37 8000 5.14 240 22:18 30.12.2022
450 Clouds 27 993 37 8000 4.63 230 21:37 30.12.2022
451 Clouds 27 1014 32 8000 4.12 210 20:55 30.12.2022
452 Clear 27 1013 33 8000 5.14 240 18:28 30.12.2022
453 Clear 26 1014 33 8000 4.12 240 17:34 30.12.2022
454 Clear 26 1013 32 8000 3.09 230 16:41 30.12.2022
455 Clear 23 989 37 8000 1.54 200 14:55 30.12.2022
456 Clear 21 984 44 10000 0 0 12:54 30.12.2022
457 Clear 19 1015 43 10000 0.58 257 08:23 30.12.2022
458 Clear 22 1015 36 10000 1.23 226 03:50 30.12.2022
459 Clear 24 982 33 10000 1.42 214 02:26 30.12.2022
460 Clear 27 970 29 10000 6.17 240 23:45 29.12.2022
461 Clear 30 980 26 10000 5.66 240 21:55 29.12.2022
462 Clear 31 981 23 10000 5.14 200 20:54 29.12.2022
463 Clear 30 980 23 10000 5.14 200 20:34 29.12.2022
464 Clear 31 1013 21 10000 4.12 220 18:38 29.12.2022
465 Clear 31 1013 21 10000 2.57 250 17:53 29.12.2022
466 Clear 30 1014 23 10000 2.57 250 17:25 29.12.2022
467 Clear 30 1013 24 10000 2.06 240 16:54 29.12.2022
468 Clear 28 987 28 10000 1.54 250 15:49 29.12.2022
469 Clear 25 989 34 10000 1.03 220 13:37 29.12.2022
470 Clear 21 985 43 10000 0.3 234 11:51 29.12.2022
471 Clear 20 994 42 10000 0.19 19 09:36 29.12.2022
472 Clear 23 996 37 10000 0.79 233 03:34 29.12.2022
473 Clear 29 999 24 10000 6.69 240 23:28 28.12.2022
474 Clear 29 995 24 10000 4.63 210 21:55 28.12.2022
475 Clear 29 995 24 10000 4.63 210 21:19 28.12.2022
476 Clear 29 999 23 10000 3.09 200 19:52 28.12.2022
477 Clear 28 996 28 10000 4.63 230 18:25 28.12.2022
478 Clear 27 1001 33 10000 2.57 240 16:20 28.12.2022
479 Clear 22 1002 44 10000 0 0 13:46 28.12.2022
480 Clear 20 992 51 10000 0 0 12:48 28.12.2022
481 Clear 18 997 52 10000 0.98 240 11:33 28.12.2022
482 Clear 18 996 52 10000 0.12 236 09:30 28.12.2022
483 Clear 20 997 53 10000 0.5 227 07:31 28.12.2022
484 Clear 20 996 52 10000 0.34 256 06:44 28.12.2022
485 Clouds 25 984 38 10000 5.14 240 00:46 28.12.2022
486 Clear 27 988 32 10000 5.66 240 21:18 27.12.2022
487 Clear 27 1000 30 8000 2.57 260 19:50 27.12.2022
488 Clouds 27 999 33 8000 2.57 160 18:21 27.12.2022
489 Clear 26 1003 39 10000 2.57 180 16:58 27.12.2022
490 Clear 24 993 43 10000 1.54 230 15:53 27.12.2022
491 Clear 21 994 48 10000 1.54 220 13:57 27.12.2022
492 Clouds 18 989 57 10000 0.7 220 11:42 27.12.2022
493 Clouds 17 1021 55 10000 0.48 177 09:47 27.12.2022
494 Clouds 17 1020 57 10000 0.74 217 09:23 27.12.2022
495 Clouds 17 1020 59 10000 0.74 217 08:41 27.12.2022
496 Clouds 19 1019 55 10000 0.61 247 04:32 27.12.2022
497 Clouds 24 990 41 10000 2.57 220 23:25 26.12.2022
498 Clouds 24 990 41 10000 4.12 240 21:32 26.12.2022
499 Clouds 24 983 41 10000 4.77 240 20:42 26.12.2022
500 Clouds 24 1016 42 8000 3.6 240 18:50 26.12.2022
501 Clear 24 1016 43 8000 4.12 230 17:52 26.12.2022
502 Clear 22 983 48 8000 2.57 240 16:37 26.12.2022
503 Clouds 20 992 57 8000 1.54 230 14:48 26.12.2022
504 Clouds 17 987 68 8000 1.03 230 12:52 26.12.2022
505 Clear 16 1019 73 10000 1.31 232 08:52 26.12.2022
506 Clouds 25 989 38 10000 2.57 240 00:25 26.12.2022
507 Clouds 26 979 36 10000 3.6 250 23:38 25.12.2022
508 Clouds 27 994 35 10000 4.12 240 22:38 25.12.2022
509 Clouds 27 994 34 10000 5.66 240 21:49 25.12.2022
510 Clear 29 1009 26 10000 4.63 230 18:51 25.12.2022
511 Clear 27 1011 27 10000 3.6 240 17:52 25.12.2022
512 Clear 28 1009 26 10000 3.6 240 17:34 25.12.2022
513 Clear 25 987 28 10000 1.54 200 15:50 25.12.2022
514 Clouds 23 980 43 10000 1.72 245 12:59 25.12.2022
515 Clouds 19 1012 44 10000 0.23 175 09:31 25.12.2022
516 Clear 27 994 25 10000 5.14 240 00:28 25.12.2022
517 Clear 30 988 22 10000 5.66 230 21:54 24.12.2022
518 Clear 30 1009 24 10000 1.54 250 19:36 24.12.2022
519 Clear 26 995 30 10000 2.57 260 16:46 24.12.2022
520 Clear 23 996 39 10000 2.06 190 14:54 24.12.2022
521 Clear 22 997 41 10000 0 0 13:30 24.12.2022
522 Clear 18 1016 53 10000 0.27 68 11:26 24.12.2022
523 Clear 17 1016 53 10000 0.18 98 10:22 24.12.2022
524 Clear 18 1016 52 10000 0.18 98 09:37 24.12.2022
525 Clear 19 1016 48 10000 0.68 212 06:56 24.12.2022
526 Clear 22 1017 44 10000 1.19 219 02:50 24.12.2022
527 Clear 26 991 30 10000 5.14 230 23:47 23.12.2022
528 Clouds 27 997 30 10000 5.14 220 22:28 23.12.2022
529 Clouds 27 994 36 10000 5.66 140 20:41 23.12.2022
530 Clouds 27 999 36 9000 4.12 240 19:39 23.12.2022
531 Clouds 26 995 37 9000 4.12 240 19:21 23.12.2022
532 Clouds 26 998 38 8000 4.12 230 18:46 23.12.2022
533 Clouds 26 999 40 8000 4.12 230 18:20 23.12.2022
534 Clear 25 992 42 8000 4.63 250 16:35 23.12.2022
535 Clear 23 999 48 8000 2.57 190 15:42 23.12.2022
536 Clouds 18 1018 62 10000 0.95 249 11:58 23.12.2022
537 Clouds 18 1017 65 10000 0.79 247 09:37 23.12.2022
538 Clouds 18 1017 63 10000 0.66 242 08:45 23.12.2022
539 Clear 18 1018 63 10000 1.23 234 07:18 23.12.2022
540 Clear 18 1018 62 10000 1.25 237 06:39 23.12.2022
541 Clear 27 994 31 10000 5.14 240 23:23 22.12.2022
542 Clear 27 983 30 10000 5.66 240 22:57 22.12.2022
543 Clear 27 984 28 10000 4.63 240 21:25 22.12.2022
544 Clear 27 1000 29 10000 3.6 230 19:26 22.12.2022
545 Clear 27 1000 29 10000 3.6 230 19:26 22.12.2022
546 Clear 28 1015 28 10000 3.6 240 18:51 22.12.2022
547 Clear 25 991 35 10000 3.6 240 17:29 22.12.2022
548 Clear 25 983 34 10000 2.57 190 16:39 22.12.2022
549 Clear 23 991 36 10000 2.57 220 15:35 22.12.2022
550 Clear 22 992 40 10000 1.03 0 14:51 22.12.2022
551 Clear 21 992 42 10000 1.54 170 13:34 22.12.2022
552 Clear 18 1002 47 10000 1.54 160 12:59 22.12.2022
553 Clear 16 1020 50 10000 0.81 236 10:51 22.12.2022
554 Clear 16 1020 50 10000 0.81 236 10:30 22.12.2022
555 Clear 17 1019 49 10000 0.97 240 09:21 22.12.2022
556 Clear 18 1019 47 10000 0.98 237 08:27 22.12.2022
557 Clear 19 1019 37 10000 1.34 247 05:28 22.12.2022
558 Clear 20 996 38 10000 1.36 242 04:18 22.12.2022
559 Clear 26 980 32 10000 6.17 250 23:50 21.12.2022
560 Clear 29 982 29 10000 5.14 240 21:58 21.12.2022
561 Clear 29 982 28 10000 5.14 240 21:23 21.12.2022
562 Clear 30 982 26 10000 4.12 240 20:52 21.12.2022
563 Clear 30 993 22 10000 4.12 240 20:18 21.12.2022
564 Clear 30 993 23 10000 5.66 240 19:43 21.12.2022
565 Clear 30 993 24 10000 5.66 240 19:23 21.12.2022
566 Clear 31 1014 22 10000 5.66 250 18:45 21.12.2022
567 Clear 28 998 26 10000 0 0 17:36 21.12.2022
568 Clear 24 989 34 10000 1.54 210 14:41 21.12.2022
569 Clear 19 996 47 10000 1.54 150 12:58 21.12.2022
570 Clear 19 986 49 10000 0.45 313 11:46 21.12.2022
571 Clear 18 995 50 10000 1.05 64 11:19 21.12.2022
572 Clear 18 1017 47 10000 1.11 230 09:36 21.12.2022
573 Clear 19 1017 45 10000 0.56 246 07:32 21.12.2022
574 Clear 24 984 33 10000 1.89 232 02:28 21.12.2022
575 Clear 29 998 23 10000 9.77 220 22:48 20.12.2022
576 Clear 29 999 23 10000 4.63 240 21:21 20.12.2022
577 Clear 29 999 24 10000 3.6 240 20:23 20.12.2022
578 Clear 28 996 27 10000 4.12 240 19:33 20.12.2022
579 Clear 27 986 27 10000 3.09 200 18:29 20.12.2022
580 Clear 27 1001 29 10000 3.09 220 17:55 20.12.2022
581 Clear 27 1001 29 10000 3.09 220 17:32 20.12.2022
582 Clear 25 991 33 10000 2.57 230 16:35 20.12.2022
583 Clear 24 992 35 10000 2.57 190 15:29 20.12.2022
584 Clear 23 992 37 10000 2.06 240 14:44 20.12.2022
585 Clear 23 992 38 10000 2.06 240 14:25 20.12.2022
586 Clear 18 998 51 10000 1.54 220 12:44 20.12.2022
587 Clear 17 1020 55 10000 1.54 220 12:25 20.12.2022
588 Clear 17 988 52 10000 1.05 255 11:31 20.12.2022
589 Clouds 17 997 47 10000 0.78 257 08:47 20.12.2022
590 Clear 24 1014 35 10000 4.63 240 00:35 20.12.2022
591 Clear 26 983 33 10000 5.14 230 22:37 19.12.2022
592 Clear 26 983 34 10000 5.14 240 21:44 19.12.2022
593 Clear 27 983 33 10000 5.14 240 19:56 19.12.2022
594 Clear 27 988 32 10000 5.14 240 19:38 19.12.2022
595 Clear 26 974 36 10000 4.51 242 18:24 19.12.2022
596 Clear 26 988 35 8000 4.12 240 16:35 19.12.2022
597 Clear 20 1016 50 10000 1.03 220 13:26 19.12.2022
598 Clear 18 1018 52 10000 1.1 265 11:56 19.12.2022
599 Clear 17 1016 52 10000 0.51 277 10:34 19.12.2022
600 Clear 19 1015 48 10000 0.64 273 07:41 19.12.2022
601 Clear 22 1015 41 10000 1.29 248 03:31 19.12.2022
602 Clear 27 985 28 10000 5.66 240 22:33 18.12.2022
603 Clear 28 991 25 10000 4.63 240 21:43 18.12.2022
604 Clear 29 1013 24 10000 4.63 240 21:21 18.12.2022
605 Clear 29 1012 27 10000 5.14 240 19:50 18.12.2022
606 Clear 28 1013 28 10000 5.14 240 19:31 18.12.2022
607 Clear 27 996 27 10000 2.06 210 17:53 18.12.2022
608 Clouds 26 996 32 9000 1.54 220 16:32 18.12.2022
609 Clear 24 978 37 10000 2.06 210 15:40 18.12.2022
610 Clear 23 987 40 10000 2.06 210 15:19 18.12.2022
611 Clouds 21 970 46 8000 0 0 13:40 18.12.2022
612 Clear 19 982 52 10000 0 0 12:53 18.12.2022
613 Clear 17 993 61 10000 0 0 12:19 18.12.2022
614 Clear 17 983 59 10000 0.06 137 10:22 18.12.2022
615 Clear 16 1015 59 10000 0.36 162 08:47 18.12.2022
616 Clear 17 992 58 10000 0.96 229 07:21 18.12.2022
617 Clear 17 993 58 10000 0.38 225 06:21 18.12.2022
618 Clear 18 1013 49 10000 1.15 232 03:40 18.12.2022
619 Clear 22 979 40 10000 3.09 220 00:45 18.12.2022
620 Clear 25 986 35 10000 4.63 240 22:21 17.12.2022
621 Clouds 26 1012 30 8000 5.14 240 19:27 17.12.2022
622 Clouds 25 986 39 6000 3.09 250 17:18 17.12.2022
623 Clear 21 996 48 6000 1.54 200 14:44 17.12.2022
624 Clear 19 982 50 10000 0.9 241 11:55 17.12.2022
625 Clear 17 982 60 10000 0.14 224 10:49 17.12.2022
626 Clear 17 990 55 10000 0.53 233 09:46 17.12.2022
627 Clear 17 990 55 10000 0.56 225 08:32 17.12.2022
628 Clear 18 991 54 10000 0.82 234 06:46 17.12.2022
629 Clouds 25 989 37 10000 4.12 230 23:58 16.12.2022
630 Clear 28 978 32 10000 5.14 236 21:38 16.12.2022
631 Clear 28 985 28 7000 4.63 20 20:23 16.12.2022
632 Haze 29 985 26 5000 5.14 240 17:19 16.12.2022
633 Clear 27 995 31 6000 1.54 240 14:49 16.12.2022
634 Clear 25 1011 33 6000 0 0 13:50 16.12.2022
635 Clear 21 1011 41 7000 1.03 120 12:20 16.12.2022
636 Clear 22 977 37 10000 0.19 13 10:47 16.12.2022
637 Clear 22 988 33 10000 0.41 49 09:29 16.12.2022
638 Clear 23 976 34 10000 0.23 170 08:25 16.12.2022
639 Clear 23 976 36 10000 0.23 170 07:54 16.12.2022
640 Clear 31 978 22 10000 5.14 230 23:45 15.12.2022
641 Clear 34 1009 16 10000 4.12 240 22:30 15.12.2022
642 Clear 35 1009 11 10000 4.12 170 20:40 15.12.2022
643 Clear 34 1010 13 8000 3.6 230 19:37 15.12.2022
644 Clear 32 1011 17 8000 2.57 160 18:29 15.12.2022
645 Clear 33 989 20 8000 2.06 200 17:27 15.12.2022
646 Clear 29 980 29 8000 2.06 250 15:38 15.12.2022
647 Clear 25 999 37 10000 2.06 180 13:59 15.12.2022
648 Clear 22 995 44 10000 1.03 140 12:41 15.12.2022
649 Clear 20 983 44 10000 0.51 114 10:29 15.12.2022
650 Clear 21 983 43 10000 0.46 116 08:54 15.12.2022
651 Clear 22 984 42 10000 0.86 167 06:26 15.12.2022
652 Clear 23 996 38 10000 1.29 197 05:18 15.12.2022
653 Clear 30 989 24 10000 5.14 240 21:25 14.12.2022
654 Clear 30 989 24 10000 5.14 240 21:25 14.12.2022
655 Clear 29 984 25 10000 5.66 240 20:59 14.12.2022
656 Clear 29 989 25 10000 5.66 240 20:31 14.12.2022
657 Clear 29 996 26 10000 5.14 240 18:31 14.12.2022
658 Clear 29 989 26 8000 2.57 240 16:58 14.12.2022
659 Clear 28 989 27 10000 2.57 210 15:40 14.12.2022
660 Clear 26 999 31 10000 2.06 180 14:34 14.12.2022
661 Clear 21 1016 39 10000 1.03 100 12:21 14.12.2022
662 Clear 21 992 34 10000 0.37 279 10:39 14.12.2022
663 Clear 22 981 36 10000 0.42 316 09:25 14.12.2022
664 Clear 27 1015 22 10000 4.63 250 00:51 14.12.2022
665 Clear 31 980 19 10000 4.63 240 21:49 13.12.2022
666 Clear 31 991 17 10000 4.63 240 21:19 13.12.2022
667 Clear 31 980 19 10000 5.14 240 20:46 13.12.2022
668 Clear 31 996 19 10000 3.6 220 18:40 13.12.2022
669 Clear 29 997 25 10000 2.06 220 16:22 13.12.2022
670 Clear 26 997 27 10000 1.03 0 14:53 13.12.2022
671 Clear 22 993 36 10000 0 0 12:43 13.12.2022
672 Clear 20 992 38 10000 0.1 325 10:38 13.12.2022
673 Clear 20 991 37 10000 0.13 192 09:44 13.12.2022
674 Clear 21 980 36 10000 0.18 276 07:51 13.12.2022
675 Clear 30 985 22 10000 4.63 240 22:23 12.12.2022
676 Clear 31 996 19 10000 4.63 230 21:28 12.12.2022
677 Clear 31 1012 18 8000 3.6 230 19:32 12.12.2022
678 Clear 30 991 20 8000 2.57 210 17:34 12.12.2022
679 Clear 26 999 27 8000 2.06 170 15:23 12.12.2022
680 Clear 21 996 39 10000 0 0 12:43 12.12.2022
681 Clear 20 983 36 10000 0.14 195 09:20 12.12.2022
682 Clouds 23 994 30 10000 0.59 254 05:44 12.12.2022
683 Clouds 25 993 28 10000 0.91 224 03:53 12.12.2022
684 Clear 32 986 18 10000 3.6 240 23:21 11.12.2022
685 Clear 33 991 17 10000 4.63 240 21:43 11.12.2022
686 Clear 32 992 18 10000 3.6 240 20:26 11.12.2022
687 Clear 33 990 18 10000 6.17 250 19:37 11.12.2022
688 Clear 32 990 18 10000 6.17 250 18:24 11.12.2022
689 Clear 32 991 20 10000 4.12 240 17:33 11.12.2022
690 Clear 30 998 24 10000 0 0 16:52 11.12.2022
691 Clear 27 998 29 10000 2.06 240 15:48 11.12.2022
692 Clear 27 998 32 10000 2.06 240 15:28 11.12.2022
693 Clear 23 1016 36 10000 1.54 120 13:23 11.12.2022
694 Clear 23 983 39 10000 0 0 12:40 11.12.2022
695 Clouds 22 981 43 10000 0.49 65 09:46 11.12.2022
696 Clear 29 979 33 10000 3.6 240 00:35 11.12.2022
697 Clear 30 978 31 10000 5.66 240 23:56 10.12.2022
698 Clear 31 986 31 10000 5.14 220 22:33 10.12.2022
699 Clear 32 996 28 10000 5.14 220 21:23 10.12.2022
700 Clear 32 996 28 10000 5.14 230 20:39 10.12.2022
701 Clear 31 993 30 10000 3.09 210 19:55 10.12.2022
702 Clear 30 998 35 10000 1.54 210 17:18 10.12.2022
703 Clear 29 991 35 10000 2.57 210 16:36 10.12.2022
704 Clear 26 991 44 10000 2.06 220 15:39 10.12.2022
705 Clear 25 998 47 10000 1.54 250 14:58 10.12.2022
706 Clear 20 1017 63 10000 0 0 12:55 10.12.2022
707 Clouds 20 1017 62 10000 1.4 235 11:49 10.12.2022
708 Clouds 20 994 58 10000 0.51 234 10:45 10.12.2022
709 Clouds 20 982 58 10000 0.62 220 09:38 10.12.2022
710 Clear 21 993 56 10000 0.78 224 07:20 10.12.2022
711 Clear 24 989 47 10000 2.57 230 01:58 10.12.2022
712 Clouds 28 987 38 10000 5.66 240 23:20 09.12.2022
713 Clouds 29 981 36 10000 6.17 240 22:40 09.12.2022
714 Clouds 30 987 33 10000 4.63 230 21:26 09.12.2022
715 Clouds 30 997 30 8000 3.6 220 20:42 09.12.2022
716 Clouds 30 997 30 10000 4.12 250 19:28 09.12.2022
717 Clouds 28 988 37 8000 3.09 200 17:55 09.12.2022
718 Clouds 27 999 44 8000 2.06 200 16:36 09.12.2022
719 Clouds 27 999 45 8000 2.06 200 16:18 09.12.2022
720 Clear 25 999 49 10000 2.06 190 15:19 09.12.2022
721 Clouds 20 1017 63 10000 0.95 259 11:36 09.12.2022
722 Clouds 19 993 61 10000 0.77 274 10:37 09.12.2022
723 Clouds 20 992 59 10000 0.82 241 08:55 09.12.2022
724 Clouds 23 982 50 10000 1.78 224 03:19 09.12.2022
725 Clear 26 988 41 10000 4.63 240 00:56 09.12.2022
726 Clear 31 1011 21 10000 6.17 250 22:20 08.12.2022
727 Clear 31 996 22 10000 4.98 243 20:51 08.12.2022
728 Clear 29 998 25 10000 2.57 240 17:51 08.12.2022
729 Clear 26 992 32 10000 1.54 190 15:39 08.12.2022
730 Clear 24 999 38 10000 1.54 150 14:25 08.12.2022
731 Clear 19 984 49 10000 0.46 249 11:33 08.12.2022
732 Clear 18 995 44 10000 0.35 229 09:54 08.12.2022
733 Clear 19 983 45 10000 0.85 134 09:26 08.12.2022
734 Clear 22 996 32 10000 1.78 212 02:36 08.12.2022
735 Clear 29 990 18 10000 3.6 240 22:19 07.12.2022
736 Clear 29 985 17 10000 6.69 230 21:50 07.12.2022
737 Clear 29 990 17 10000 6.69 230 21:31 07.12.2022
738 Clear 30 985 21 10000 4.63 230 19:44 07.12.2022
739 Clear 30 1000 27 10000 3.09 230 17:37 07.12.2022
740 Clear 26 1000 33 10000 1.03 250 14:41 07.12.2022
741 Clear 22 1003 41 10000 0 0 12:37 07.12.2022
742 Clear 20 983 43 10000 0.55 232 10:43 07.12.2022
743 Clear 20 994 41 10000 0.26 210 09:51 07.12.2022
744 Clear 21 993 39 10000 0.39 253 08:47 07.12.2022
745 Clear 22 994 38 10000 0.43 195 06:48 07.12.2022
746 Clear 23 983 38 10000 0.86 234 05:23 07.12.2022
747 Clear 31 993 18 10000 6.17 240 22:41 06.12.2022
748 Clear 31 993 19 10000 5.66 240 20:48 06.12.2022
749 Clear 31 997 24 10000 4.63 180 18:21 06.12.2022
750 Clear 28 999 28 10000 2.57 210 16:43 06.12.2022
751 Clear 28 999 30 10000 2.57 210 16:20 06.12.2022
752 Clear 26 999 32 10000 0 0 15:34 06.12.2022
753 Clear 25 1000 34 10000 1.54 240 14:28 06.12.2022
754 Clear 21 1017 42 10000 0 0 12:59 06.12.2022
755 Clear 21 996 41 10000 0 0 12:40 06.12.2022
756 Clear 19 982 46 10000 0.18 153 09:43 06.12.2022
757 Clear 20 994 41 10000 0.72 233 06:44 06.12.2022
758 Clear 24 984 32 10000 2.06 240 01:26 06.12.2022
759 Clear 29 982 26 10000 5.66 240 22:36 05.12.2022
760 Clear 29 981 28 10000 5.14 240 21:19 05.12.2022
761 Clear 29 981 28 10000 4.63 240 20:36 05.12.2022
762 Clear 29 981 28 10000 5.66 230 19:46 05.12.2022
763 Clear 29 992 26 10000 4.63 210 18:37 05.12.2022
764 Clear 27 993 30 10000 2.57 200 16:48 05.12.2022
765 Clear 26 997 32 10000 2.57 160 15:22 05.12.2022
766 Clear 23 1013 36 10000 0 0 13:22 05.12.2022
767 Clear 21 993 44 10000 0 0 12:52 05.12.2022
768 Clear 21 997 46 10000 0 0 12:33 05.12.2022
769 Clear 20 980 46 10000 0.24 318 10:58 05.12.2022
770 Clear 27 969 32 10000 4.12 240 00:44 05.12.2022
771 Clear 30 991 23 10000 5.66 240 22:58 04.12.2022
772 Clear 30 991 24 10000 5.66 240 22:36 04.12.2022
773 Clear 30 995 24 10000 5.66 240 22:18 04.12.2022
774 Clear 31 992 23 10000 3.6 200 20:53 04.12.2022
775 Clear 30 992 23 10000 3.6 220 19:39 04.12.2022
776 Clear 30 992 23 10000 3.6 220 19:18 04.12.2022
777 Clear 28 997 30 10000 2.57 220 17:24 04.12.2022
778 Clear 27 1014 32 10000 2.57 230 16:59 04.12.2022
779 Clear 28 998 31 10000 2.57 230 16:36 04.12.2022
780 Clear 27 988 33 10000 2.57 230 16:18 04.12.2022
781 Clear 24 998 41 10000 2.06 180 14:46 04.12.2022
782 Clear 23 994 44 10000 2.32 252 13:37 04.12.2022
783 Clear 21 1000 49 10000 0 0 12:44 04.12.2022
784 Clear 20 985 53 10000 0.39 237 11:59 04.12.2022
785 Clear 19 982 53 10000 0.76 232 09:33 04.12.2022
786 Clear 20 994 50 10000 0.3 216 07:32 04.12.2022
787 Clear 25 995 36 10000 4.12 230 00:59 04.12.2022
788 Clear 27 992 30 10000 3.09 230 23:43 03.12.2022
789 Clear 28 998 29 10000 3.09 250 22:22 03.12.2022
790 Clear 29 998 27 10000 5.14 200 21:28 03.12.2022
791 Clear 29 998 26 10000 5.66 240 20:34 03.12.2022
792 Clear 28 1015 28 10000 4.63 170 18:40 03.12.2022
793 Clear 26 1016 30 10000 2.57 270 16:57 03.12.2022
794 Clear 22 1002 39 10000 1.54 170 14:28 03.12.2022
795 Clear 19 998 46 10000 0 0 12:55 03.12.2022
796 Clear 19 998 50 10000 0 0 12:24 03.12.2022
797 Clear 17 997 51 10000 0.21 299 10:26 03.12.2022
798 Clear 18 997 49 10000 0.51 214 07:39 03.12.2022
799 Clear 23 990 34 10000 3.6 200 01:31 03.12.2022
800 Clear 28 997 27 10000 4.63 210 22:58 02.12.2022
801 Clouds 28 994 26 10000 4.63 240 20:54 02.12.2022
802 Clear 28 994 26 10000 5.14 250 19:28 02.12.2022
803 Clear 25 982 33 10000 3.09 240 15:59 02.12.2022
804 Clear 25 982 33 10000 3.09 240 15:59 02.12.2022
805 Clear 22 1001 40 10000 2.06 190 14:45 02.12.2022
806 Clear 22 1001 41 10000 2.06 190 14:26 02.12.2022
807 Clear 21 1001 42 10000 0 0 13:36 02.12.2022
808 Clear 18 987 52 10000 0.8 250 11:43 02.12.2022
809 Clear 16 995 52 10000 0.26 242 09:45 02.12.2022
810 Clear 18 995 50 10000 0.24 229 07:25 02.12.2022
811 Clear 23 969 35 10000 5.14 230 23:54 01.12.2022
812 Clear 27 997 30 10000 2.57 200 21:59 01.12.2022
813 Clear 27 997 30 10000 2.57 200 21:38 01.12.2022
814 Clear 27 997 32 8000 4.12 250 20:30 01.12.2022
815 Clear 26 983 32 8000 3.6 210 18:55 01.12.2022
816 Clear 23 993 46 8000 3.09 210 16:20 01.12.2022
817 Clear 17 997 65 10000 0 0 12:35 01.12.2022
818 Clear 15 996 72 10000 0.48 190 10:41 01.12.2022
819 Clear 15 996 71 10000 1.19 237 09:54 01.12.2022
820 Clear 15 996 71 10000 1.19 237 09:36 01.12.2022
821 Clear 18 985 62 10000 1.18 227 03:33 01.12.2022
822 Clouds 23 989 44 8000 5.66 240 22:39 30.11.2022
823 Clouds 24 999 37 8000 5.14 210 21:19 30.11.2022
824 Clouds 24 998 37 8000 2.57 210 20:47 30.11.2022
825 Clouds 25 1014 36 8000 2.57 210 20:23 30.11.2022
826 Clouds 24 1015 37 10000 2.06 160 18:34 30.11.2022
827 Clouds 23 994 43 7000 2.57 150 17:36 30.11.2022
828 Clouds 21 984 54 7000 2.06 160 16:20 30.11.2022
829 Mist 17 975 71 2000 0 0 14:39 30.11.2022
830 Mist 17 988 73 2000 0 0 14:20 30.11.2022
831 Clouds 15 997 83 10000 1.3 255 11:34 30.11.2022
832 Clear 16 996 74 10000 0.81 255 08:40 30.11.2022
833 Clear 16 996 74 10000 0.81 255 08:40 30.11.2022
834 Clear 16 1019 76 10000 0.72 247 07:58 30.11.2022
835 Clear 22 992 52 10000 4.12 260 23:42 29.11.2022
836 Clear 23 992 51 10000 4.12 260 23:21 29.11.2022
837 Clouds 24 998 48 10000 3.6 240 21:39 29.11.2022
838 Clouds 25 1014 41 10000 5.14 190 20:37 29.11.2022
839 Clouds 25 1013 45 6000 6.17 220 19:18 29.11.2022
840 Haze 24 1014 49 5000 2.57 250 17:36 29.11.2022
841 Haze 22 1014 51 5000 3.6 190 16:26 29.11.2022
842 Haze 17 1015 64 5000 2.06 230 14:50 29.11.2022
843 Haze 18 992 63 5000 0 0 13:35 29.11.2022
844 Haze 16 995 74 4000 0 0 12:22 29.11.2022
845 Clear 16 986 75 10000 0.23 256 11:24 29.11.2022
846 Clear 17 993 68 10000 0.75 249 10:22 29.11.2022
847 Clear 17 993 66 10000 0.54 269 08:42 29.11.2022
848 Clear 19 993 62 10000 0.9 216 05:49 29.11.2022
849 Clear 24 990 48 10000 4.12 230 23:35 28.11.2022
850 Clear 26 990 44 10000 4.12 235 22:57 28.11.2022
851 Clear 27 1013 42 10000 5.66 210 21:54 28.11.2022
852 Clear 27 1012 40 10000 5.66 210 21:36 28.11.2022
853 Clear 28 1012 38 10000 4.12 240 19:41 28.11.2022
854 Clear 27 1013 41 10000 4.12 230 18:30 28.11.2022
855 Clear 27 1013 40 10000 3.09 210 17:51 28.11.2022
856 Clear 25 1013 43 10000 2.06 170 16:57 28.11.2022
857 Clear 21 992 53 10000 2.57 260 14:28 28.11.2022
858 Clear 19 983 55 10000 1.54 240 13:52 28.11.2022
859 Clear 19 983 61 10000 1.03 190 12:42 28.11.2022
860 Clear 17 985 64 10000 0.41 252 10:22 28.11.2022
861 Clear 19 993 61 10000 0.7 250 07:52 28.11.2022
862 Clear 21 983 56 10000 0.84 238 04:44 28.11.2022
863 Clear 21 983 56 10000 1.16 237 03:59 28.11.2022
864 Clear 22 983 54 10000 1.63 238 03:18 28.11.2022
865 Clear 26 987 50 10000 4.63 240 22:47 27.11.2022
866 Clear 28 986 47 10000 4.63 230 21:42 27.11.2022
867 Clear 29 1012 35 10000 4.12 230 20:26 27.11.2022
868 Clear 29 1012 34 10000 3.09 230 17:56 27.11.2022
869 Clear 25 980 43 10000 2.57 250 15:28 27.11.2022
870 Clear 20 982 55 10000 0 0 12:41 27.11.2022
871 Clear 19 973 64 10000 0.62 225 10:50 27.11.2022
872 Clear 21 992 62 10000 0.59 234 08:19 27.11.2022
873 Clear 26 988 40 10000 2.57 220 00:49 27.11.2022
874 Clear 30 997 29 10000 4.63 230 22:25 26.11.2022
875 Clear 32 997 25 10000 5.14 220 20:51 26.11.2022
876 Clear 32 1013 21 10000 5.66 230 19:26 26.11.2022
877 Clear 31 994 25 10000 3.09 250 17:30 26.11.2022
878 Clear 28 998 32 10000 2.06 250 15:52 26.11.2022
879 Clear 24 992 40 10000 1.03 210 13:34 26.11.2022
880 Clear 24 948 54 10000 0.77 278 11:37 26.11.2022
881 Clear 20 993 57 10000 0.15 134 09:45 26.11.2022
882 Clear 21 981 56 10000 0.23 174 09:21 26.11.2022
883 Clear 22 993 46 10000 0.57 229 05:37 26.11.2022
884 Clouds 29 983 31 10000 5.66 200 21:43 25.11.2022
885 Clouds 30 983 36 10000 5.66 200 21:21 25.11.2022
886 Clouds 31 998 35 10000 4.12 200 19:56 25.11.2022
887 Clear 30 999 41 10000 2.57 0 16:49 25.11.2022
888 Clear 25 1001 49 10000 0 0 14:21 25.11.2022
889 Clear 20 994 55 10000 0.45 301 09:21 25.11.2022
890 Clear 21 993 56 10000 0.45 301 08:40 25.11.2022
891 Clear 21 993 54 10000 0.16 228 06:54 25.11.2022
892 Clear 22 993 53 10000 0.52 285 05:40 25.11.2022
893 Clear 26 980 39 10000 4.63 240 23:53 24.11.2022
894 Clear 28 988 37 10000 5.14 230 22:50 24.11.2022
895 Clear 28 987 35 10000 5.14 230 21:58 24.11.2022
896 Clear 29 998 32 10000 4.12 210 20:19 24.11.2022
897 Clear 28 1000 34 10000 4.12 210 18:19 24.11.2022
898 Clear 28 993 33 10000 3.6 220 17:38 24.11.2022
899 Clear 27 982 35 10000 3.6 220 17:20 24.11.2022
900 Clear 25 999 41 10000 1.54 0 14:36 24.11.2022
901 Clear 24 1000 44 10000 1.54 220 13:45 24.11.2022
902 Clouds 21 985 47 10000 1.42 290 11:54 24.11.2022
903 Clouds 19 994 53 10000 0.76 344 10:34 24.11.2022
904 Clouds 20 993 51 10000 0.22 259 07:53 24.11.2022
905 Clear 23 982 41 10000 1.08 235 03:19 24.11.2022
906 Clear 27 979 33 10000 5.14 220 23:33 23.11.2022
907 Clear 30 995 29 10000 5.14 240 21:56 23.11.2022
908 Clear 31 1011 28 10000 5.14 240 21:19 23.11.2022
909 Clear 31 1012 25 10000 4.63 240 19:58 23.11.2022
910 Clear 29 994 27 8000 2.06 250 18:58 23.11.2022
911 Clear 29 994 27 8000 2.06 250 18:33 23.11.2022
912 Clear 28 998 30 10000 2.06 220 16:22 23.11.2022
913 Clear 23 1000 38 10000 0 0 13:26 23.11.2022
914 Clear 21 995 46 10000 0 0 12:58 23.11.2022
915 Clear 21 986 41 10000 0.43 239 11:54 23.11.2022
916 Clear 19 1018 40 10000 0.58 75 11:19 23.11.2022
917 Clear 19 995 45 10000 0.58 75 10:42 23.11.2022
918 Clear 20 994 43 10000 0.47 102 09:41 23.11.2022
919 Clear 20 994 43 10000 0.25 131 09:23 23.11.2022
920 Clear 20 994 44 10000 0.25 131 08:36 23.11.2022
921 Clear 20 994 44 10000 0.25 131 08:36 23.11.2022
922 Clear 21 994 43 10000 0.47 173 05:21 23.11.2022
923 Clear 23 995 35 10000 1.28 217 02:36 23.11.2022
924 Clouds 29 979 25 10000 3.63 234 22:58 22.11.2022
925 Clear 29 981 23 10000 7.2 200 21:54 22.11.2022
926 Clear 29 981 23 10000 7.2 200 21:32 22.11.2022
927 Clear 30 992 20 10000 5.66 200 20:45 22.11.2022
928 Clear 30 1014 18 10000 2.06 160 19:52 22.11.2022
929 Clear 29 993 19 10000 3.09 230 17:55 22.11.2022
930 Clear 29 1012 20 10000 2.06 170 16:48 22.11.2022
931 Clear 25 998 28 10000 1.54 210 14:56 22.11.2022
932 Clear 23 999 30 10000 1.54 190 13:21 22.11.2022
933 Clear 18 993 39 10000 0.2 178 10:23 22.11.2022
934 Clear 20 981 36 10000 0.47 62 08:59 22.11.2022
935 Clear 20 981 45 10000 0.61 104 06:46 22.11.2022
936 Clear 25 981 35 10000 0.78 212 01:35 22.11.2022
937 Clear 29 988 19 10000 2.57 220 23:33 21.11.2022
938 Clear 30 1011 19 10000 3.6 230 22:31 21.11.2022
939 Clear 30 991 17 10000 3.6 200 21:58 21.11.2022
940 Clear 29 991 16 10000 4.12 200 20:35 21.11.2022
941 Clear 30 1011 17 10000 2.57 210 19:41 21.11.2022
942 Clear 29 1013 20 10000 2.57 250 18:53 21.11.2022
943 Clear 27 990 24 10000 1.54 250 17:46 21.11.2022
944 Clear 27 990 23 10000 2.57 210 16:51 21.11.2022
945 Clear 27 991 24 10000 2.57 210 16:33 21.11.2022
946 Clear 24 991 31 10000 0 0 15:24 21.11.2022
947 Clear 21 992 47 10000 0 0 13:55 21.11.2022
948 Clear 21 992 48 10000 0 0 13:34 21.11.2022
949 Clear 16 994 55 10000 0.51 79 10:24 21.11.2022
950 Clear 18 994 54 10000 0.33 217 08:21 21.11.2022
951 Clear 18 995 42 10000 0.76 225 05:41 21.11.2022
952 Clear 27 986 25 10000 5.66 240 22:25 20.11.2022
953 Clear 26 981 24 10000 4.63 230 21:23 20.11.2022
954 Clear 26 981 26 10000 6.17 190 20:23 20.11.2022
955 Clear 25 982 31 10000 3.6 220 18:20 20.11.2022
956 Clear 23 998 39 10000 2.06 270 15:57 20.11.2022
957 Clear 23 998 41 10000 2.06 270 15:25 20.11.2022
958 Clear 22 999 45 10000 2.06 210 14:30 20.11.2022
959 Clear 19 1016 50 10000 3.09 230 13:32 20.11.2022
960 Clear 17 1016 57 10000 0.51 310 12:31 20.11.2022
961 Clear 17 983 54 10000 0.1 240 10:59 20.11.2022
962 Clear 17 994 54 10000 0.45 237 09:55 20.11.2022
963 Clear 18 982 50 10000 0.35 72 08:59 20.11.2022
964 Clear 18 994 50 10000 0.35 72 08:34 20.11.2022
965 Clear 17 994 49 10000 0.61 233 07:28 20.11.2022
966 Clear 21 983 40 10000 1.63 236 01:50 20.11.2022
967 Clouds 21 982 39 10000 2.2 214 01:18 20.11.2022
968 Clear 22 994 39 10000 3.09 230 00:40 20.11.2022
969 Clear 23 988 37 10000 3.09 230 00:21 20.11.2022
970 Clouds 24 988 37 10000 4.63 240 23:47 19.11.2022
971 Clouds 25 987 36 10000 4.63 240 23:21 19.11.2022
972 Clouds 26 987 37 10000 5.66 240 22:28 19.11.2022
973 Clear 26 987 37 10000 5.66 230 21:31 19.11.2022
974 Clear 26 982 36 10000 4.12 230 20:42 19.11.2022
975 Clear 28 996 33 10000 4.12 230 20:23 19.11.2022
976 Clear 27 997 34 10000 3.09 230 18:54 19.11.2022
977 Clear 26 988 37 10000 3.09 160 17:39 19.11.2022
978 Clear 25 983 38 10000 3.09 160 17:19 19.11.2022
979 Clear 23 999 45 10000 3.09 230 15:34 19.11.2022
980 Clear 21 999 49 10000 0 0 13:46 19.11.2022
981 Clouds 19 985 66 10000 1.21 258 11:57 19.11.2022
982 Clouds 18 993 65 10000 0.58 266 10:19 19.11.2022
983 Clouds 19 992 56 10000 0.45 222 08:36 19.11.2022
984 Clear 21 993 52 10000 1.13 234 04:46 19.11.2022
985 Clear 24 982 52 10000 1.5 222 01:52 19.11.2022
986 Clear 27 978 33 10000 5.14 230 23:37 18.11.2022
987 Clear 27 978 33 10000 5.14 230 23:37 18.11.2022
988 Clear 27 978 33 10000 5.14 230 23:37 18.11.2022
989 Clear 27 978 33 10000 5.14 230 23:37 18.11.2022
990 Clear 29 998 36 10000 4.12 210 22:34 18.11.2022
991 Clear 28 996 28 10000 5.14 220 21:37 18.11.2022
992 Clear 29 998 33 10000 5.14 240 20:59 18.11.2022
993 Clear 28 996 35 10000 5.14 240 20:25 18.11.2022
994 Clear 28 998 35 10000 3.6 220 19:44 18.11.2022
995 Clear 27 995 45 10000 2.57 200 17:46 18.11.2022
996 Clear 26 981 45 8000 2.06 300 16:41 18.11.2022
997 Clear 21 1001 57 10000 2.57 340 13:36 18.11.2022
998 Clear 17 1019 63 10000 0.17 216 11:22 18.11.2022
999 Clear 18 995 57 10000 0.78 238 07:58 18.11.2022
1000 Clear 19 984 54 10000 1.23 238 06:18 18.11.2022
1001 Clear 20 984 53 10000 0.83 269 04:53 18.11.2022
1002 Clear 23 985 43 10000 4.12 220 00:40 18.11.2022
1003 Clear 29 994 31 10000 5.14 230 20:59 17.11.2022
1004 Clear 29 998 30 10000 5.14 230 20:26 17.11.2022
1005 Clear 28 999 32 10000 4.12 210 19:50 17.11.2022
1006 Clouds 28 1000 35 8000 3.09 250 18:34 17.11.2022
1007 Clouds 28 993 34 8000 2.57 230 17:32 17.11.2022
1008 Clouds 27 1000 38 9000 2.06 310 16:42 17.11.2022
1009 Clear 20 1001 65 10000 0 0 12:29 17.11.2022
1010 Clear 19 996 64 10000 0.27 300 11:20 17.11.2022
1011 Clear 20 995 64 10000 0.24 235 08:19 17.11.2022
1012 Clear 23 984 55 10000 1.36 243 02:35 17.11.2022
1013 Clear 25 990 49 10000 3.6 230 00:20 17.11.2022
1014 Clear 29 998 42 10000 5.14 230 22:27 16.11.2022
1015 Clear 29 999 31 10000 4.63 220 20:35 16.11.2022
1016 Clear 29 984 46 10000 4.12 200 19:29 16.11.2022
1017 Clear 29 1017 58 10000 3.6 210 18:33 16.11.2022
1018 Clear 27 1016 51 8000 2.06 0 16:36 16.11.2022
1019 Clear 21 1019 60 10000 0.51 210 13:30 16.11.2022
1020 Clear 18 996 54 10000 0.18 222 08:45 16.11.2022
1021 Clear 24 985 42 10000 1.14 231 01:54 16.11.2022
1022 Clear 25 998 41 10000 4.12 230 00:40 16.11.2022
1023 Clear 30 1012 20 10000 5.14 240 21:54 15.11.2022
1024 Clear 30 1015 20 10000 5.66 230 20:32 15.11.2022
1025 Clear 31 994 19 10000 4.63 210 19:18 15.11.2022
1026 Clear 30 980 20 10000 2.57 240 17:38 15.11.2022
1027 Clear 29 1013 21 10000 2.57 190 16:52 15.11.2022
1028 Clear 29 1015 21 10000 2.57 190 16:18 15.11.2022
1029 Clear 25 991 31 10000 1.54 200 14:42 15.11.2022
1030 Clear 19 982 50 10000 0 0 12:59 15.11.2022
1031 Clouds 18 973 44 10000 0.87 91 11:29 15.11.2022
1032 Clouds 17 973 47 10000 0.87 91 10:35 15.11.2022
1033 Clear 19 982 41 10000 0.81 93 06:33 15.11.2022
1034 Clear 25 1000 23 10000 3.09 220 00:32 15.11.2022
1035 Clear 28 997 18 10000 4.63 190 22:52 14.11.2022
1036 Clear 28 997 19 10000 4.12 210 21:18 14.11.2022
1037 Clear 27 994 20 10000 4.63 200 20:30 14.11.2022
1038 Clear 26 999 24 10000 2.57 230 18:29 14.11.2022
1039 Clear 22 1016 34 10000 1.03 160 15:40 14.11.2022
1040 Clear 16 951 48 10000 0.83 107 11:50 14.11.2022
1041 Clear 12 1023 62 10000 1.51 97 11:28 14.11.2022
1042 Clear 12 1023 62 10000 1.51 97 11:28 14.11.2022
1043 Clear 12 1023 62 10000 1.51 97 11:28 14.11.2022
1044 Clear 13 991 56 10000 1.24 94 08:48 14.11.2022
1045 Clear 13 991 56 10000 1.24 94 08:48 14.11.2022
1046 Clear 13 999 55 10000 0.66 105 07:53 14.11.2022
1047 Clear 14 999 53 10000 0.4 172 05:59 14.11.2022
1048 Clear 21 992 35 10000 3.09 200 23:51 13.11.2022
1049 Clouds 22 997 28 10000 1.54 290 21:46 13.11.2022
1050 Clouds 23 1002 28 10000 4.12 230 20:55 13.11.2022
1051 Clouds 22 998 31 10000 3.09 250 19:25 13.11.2022
1052 Clouds 21 993 38 10000 1.54 210 17:55 13.11.2022
1053 Clouds 19 998 44 10000 3.08 253 17:00 13.11.2022
1054 Clear 16 1005 59 10000 0 0 14:58 13.11.2022
1055 Clear 13 1022 69 10000 0 0 13:26 13.11.2022
1056 Clear 10 1023 86 10000 0 0 12:35 13.11.2022
1057 Clear 10 1002 79 10000 0.71 86 10:51 13.11.2022
1058 Clear 11 1001 75 10000 0.16 222 07:39 13.11.2022
1059 Clouds 13 1004 74 10000 5.14 210 00:44 13.11.2022
1060 Clouds 16 1002 59 10000 3.09 220 22:19 12.11.2022
1061 Clouds 17 1018 50 10000 4.12 230 21:24 12.11.2022
1062 Clouds 19 984 43 10000 3.96 223 19:55 12.11.2022
1063 Clouds 18 991 43 10000 3.16 237 17:56 12.11.2022
1064 Rain 17 992 50 10000 2.06 0 16:22 12.11.2022
1065 Clouds 16 992 60 10000 1.03 0 15:18 12.11.2022
1066 Clouds 13 998 62 10000 0.69 287 11:59 12.11.2022
1067 Clouds 13 997 62 10000 0.68 281 08:47 12.11.2022
1068 Clouds 16 997 64 10000 0.81 214 01:59 12.11.2022
1069 Rain 18 991 54 8000 4.12 230 21:46 11.11.2022
1070 Rain 18 992 51 8000 3.6 210 20:45 11.11.2022
1071 Clouds 19 991 54 8000 3.09 250 19:39 11.11.2022
1072 Rain 19 992 50 8000 3.09 250 19:19 11.11.2022
1073 Clouds 19 991 53 8000 2.57 190 17:54 11.11.2022
1074 Clouds 17 1001 65 7000 1.54 80 15:50 11.11.2022
1075 Clouds 15 992 70 7000 0 0 14:20 11.11.2022
1076 Clouds 14 992 74 6000 1.54 190 13:28 11.11.2022
1077 Clouds 13 997 75 10000 0.93 265 09:37 11.11.2022
1078 Clouds 13 997 75 10000 0.93 265 09:37 11.11.2022
1079 Clouds 13 997 75 10000 0.93 265 09:37 11.11.2022
1080 Clouds 13 997 73 10000 0.86 268 08:27 11.11.2022
1081 Clouds 14 998 68 10000 1.12 255 05:28 11.11.2022
1082 Clear 18 990 54 10000 4.12 230 23:21 10.11.2022
1083 Clouds 20 990 46 10000 4.12 170 22:27 10.11.2022
1084 Clouds 21 990 40 10000 4.63 200 21:32 10.11.2022
1085 Clouds 21 990 38 10000 5.14 220 20:50 10.11.2022
1086 Clouds 21 984 38 10000 5.14 220 20:21 10.11.2022
1087 Clouds 22 990 38 10000 4.12 230 19:42 10.11.2022
1088 Clouds 21 990 39 10000 3.09 180 18:32 10.11.2022
1089 Clouds 18 1001 52 10000 2.06 260 16:26 10.11.2022
1090 Clouds 14 993 65 10000 1.54 200 13:56 10.11.2022
1091 Clouds 13 978 67 10000 0.36 294 11:40 10.11.2022
1092 Clouds 12 999 72 10000 0.11 263 08:44 10.11.2022
1093 Clear 14 1000 66 10000 1.13 239 01:34 10.11.2022
1094 Clouds 16 985 61 10000 3.09 20 23:39 09.11.2022
1095 Clouds 16 985 61 8000 2.57 100 22:38 09.11.2022
1096 Clouds 15 994 70 6000 3.6 180 20:48 09.11.2022
1097 Clouds 15 994 72 6000 3.6 180 20:29 09.11.2022
1098 Clouds 15 994 72 6000 3.6 180 20:29 09.11.2022
1099 Clouds 14 1004 77 6000 2.06 180 19:43 09.11.2022
1100 Clouds 14 1005 77 6000 2.06 180 19:18 09.11.2022
1101 Haze 14 988 80 2000 2.57 200 16:31 09.11.2022
1102 Haze 14 986 74 3000 2.57 220 14:48 09.11.2022
1103 Haze 14 974 74 3000 2.57 220 14:25 09.11.2022
1104 Haze 14 974 76 3000 2.57 210 13:30 09.11.2022
1105 Clouds 14 996 82 10000 1.58 268 11:46 09.11.2022
1106 Clouds 14 995 80 10000 1.14 272 08:44 09.11.2022
1107 Clouds 14 994 79 10000 0.95 270 07:46 09.11.2022
1108 Clouds 14 994 79 10000 0.95 270 07:46 09.11.2022
1109 Clouds 14 994 79 10000 0.95 270 07:46 09.11.2022
1110 Clouds 16 996 71 10000 1.68 250 01:44 09.11.2022
1111 Clouds 21 992 50 7000 4.12 230 21:49 08.11.2022
1112 Clouds 21 1000 53 7000 4.12 230 21:31 08.11.2022
1113 Clouds 22 993 62 7000 4.12 230 20:41 08.11.2022
1114 Clouds 21 1014 51 7000 4.63 240 19:40 08.11.2022
1115 Clouds 22 1014 47 7000 4.12 220 18:57 08.11.2022
1116 Clouds 22 979 45 10000 3.88 247 17:26 08.11.2022
1117 Clouds 20 989 59 6000 2.57 230 14:57 08.11.2022
1118 Clouds 19 989 60 7000 0 0 13:44 08.11.2022
1119 Clouds 19 989 61 7000 0 0 13:25 08.11.2022
1120 Clouds 17 985 62 10000 0.74 275 10:26 08.11.2022
1121 Clouds 19 982 56 10000 1.22 243 07:30 08.11.2022
1122 Clouds 22 984 47 10000 1.32 229 01:41 08.11.2022
1123 Clouds 22 984 47 10000 1.32 229 01:41 08.11.2022
1124 Clouds 24 989 41 10000 3.6 230 22:51 07.11.2022
1125 Clear 26 1015 34 10000 4.63 220 21:38 07.11.2022
1126 Clouds 29 1015 30 8000 4.12 210 20:45 07.11.2022
1127 Clouds 29 1014 30 8000 4.63 220 19:33 07.11.2022
1128 Clouds 27 992 32 8000 3.6 230 17:39 07.11.2022
1129 Clear 26 1014 39 10000 3.01 248 15:36 07.11.2022
1130 Clouds 20 1016 50 10000 0 0 14:55 07.11.2022
1131 Clouds 18 987 57 10000 0 0 13:20 07.11.2022
1132 Clouds 16 976 62 10000 0.49 162 11:50 07.11.2022
1133 Clouds 15 976 62 10000 0.52 174 09:49 07.11.2022
1134 Clouds 17 975 59 10000 1.02 254 08:18 07.11.2022
1135 Clouds 16 996 60 10000 0.94 238 06:29 07.11.2022
1136 Clouds 20 985 51 10000 1.04 236 01:43 07.11.2022
1137 Clouds 24 989 41 10000 4.12 240 23:19 06.11.2022
1138 Clear 27 999 31 10000 3.09 220 21:21 06.11.2022
1139 Clear 26 999 32 10000 3.6 210 20:36 06.11.2022
1140 Clear 26 1016 35 10000 3.6 220 19:56 06.11.2022
1141 Clear 25 1016 35 10000 3.09 260 18:48 06.11.2022
1142 Clear 25 1016 35 10000 3.09 260 18:20 06.11.2022
1143 Clear 24 1017 36 10000 2.06 220 17:22 06.11.2022
1144 Clear 23 1016 37 10000 2.06 260 16:46 06.11.2022
1145 Clear 21 1017 42 10000 2.06 160 15:54 06.11.2022
1146 Clear 18 985 52 10000 2.06 220 14:43 06.11.2022
1147 Clear 14 986 64 10000 0 0 12:43 06.11.2022
1148 Clouds 15 989 69 10000 0.23 172 10:49 06.11.2022
1149 Clouds 15 988 68 10000 0.38 212 09:51 06.11.2022
1150 Clouds 15 1020 69 10000 0.64 216 06:40 06.11.2022
1151 Clear 24 999 45 10000 3.6 240 23:22 05.11.2022
1152 Clouds 25 1017 52 10000 3.76 240 19:59 05.11.2022
1153 Clouds 25 1015 36 10000 3.95 248 18:21 05.11.2022
1154 Clouds 20 984 46 7000 2.57 180 16:21 05.11.2022
1155 Clouds 17 975 54 8000 2.57 210 14:34 05.11.2022
1156 Clouds 16 975 54 9000 1.03 230 13:18 05.11.2022
1157 Clouds 15 979 59 10000 0.47 116 10:42 05.11.2022
1158 Clouds 13 1024 68 10000 0.42 215 08:48 05.11.2022
1159 Clouds 13 1024 66 10000 0.67 210 07:22 05.11.2022
1160 Clouds 13 1022 65 10000 0.67 210 06:54 05.11.2022
1161 Clear 21 991 45 10000 2.57 210 23:36 04.11.2022
1162 Clear 22 990 42 10000 4.12 200 22:43 04.11.2022
1163 -273 0 0 0 0 0 20:30 04.11.2022
1164 Clouds 25 1015 35 8000 4.63 230 20:26 04.11.2022
1165 Clouds 24 1015 39 6000 3.6 220 17:46 04.11.2022
1166 Clouds 24 1016 39 6000 3.6 220 17:19 04.11.2022
1167 Clouds 18 983 50 8000 0 0 13:46 04.11.2022
1168 Clouds 15 997 65 8000 1.54 250 12:26 04.11.2022
1169 Clouds 16 1020 64 10000 0.42 223 10:38 04.11.2022
1170 Clouds 15 1019 76 10000 0.42 232 08:39 04.11.2022
1171 Clouds 15 1018 69 10000 0.48 246 07:42 04.11.2022
1172 Clouds 15 1018 69 10000 0.48 246 07:42 04.11.2022
1173 Clouds 18 1019 62 10000 1.45 234 02:29 04.11.2022
1174 Clear 24 989 40 10000 3.6 200 22:47 03.11.2022
1175 Clear 25 986 34 10000 5.66 200 20:50 03.11.2022
1176 Clear 25 986 34 10000 5.66 200 20:50 03.11.2022
1177 Clear 26 990 31 10000 5.14 230 19:53 03.11.2022
1178 Clear 25 986 32 10000 5.14 230 19:27 03.11.2022
1179 Clouds 24 986 30 8000 3.6 220 17:43 03.11.2022
1180 Clouds 25 999 39 8000 2.57 230 16:51 03.11.2022
1181 Clouds 21 991 46 8000 2.06 0 14:18 03.11.2022
1182 Clear 17 972 59 10000 0 0 12:38 03.11.2022
1183 Clouds 18 988 57 10000 0.36 285 11:44 03.11.2022
1184 Clouds 16 986 51 10000 0.21 226 09:19 03.11.2022
1185 Clouds 17 986 49 10000 0.27 126 07:34 03.11.2022
1186 Clear 29 1015 17 10000 4.12 200 21:29 02.11.2022
1187 Clear 29 1015 17 10000 3.6 210 20:39 02.11.2022
1188 Clear 28 1016 16 10000 3.6 210 19:55 02.11.2022
1189 Clear 25 993 20 10000 2.06 230 16:37 02.11.2022
1190 Clear 22 1017 24 10000 2.06 220 15:50 02.11.2022
1191 Clear 21 984 28 10000 1.54 220 14:32 02.11.2022
1192 Clear 17 973 38 10000 0 0 12:44 02.11.2022
1193 Clear 14 1022 60 10000 1.78 94 11:25 02.11.2022
1194 Clear 15 1018 47 10000 1.51 83 08:51 02.11.2022
1195 Clear 17 1019 47 10000 1.27 84 05:30 02.11.2022
1196 Clear 24 975 26 10000 1.84 216 23:53 01.11.2022
1197 Clear 26 995 24 10000 5.14 250 22:19 01.11.2022
1198 Clear 28 994 20 10000 6.17 240 21:37 01.11.2022
1199 Clear 30 1014 15 10000 5.66 220 20:25 01.11.2022
1200 Clear 29 1015 16 10000 5 239 19:42 01.11.2022
1201 Clear 31 1014 11 10000 3.09 240 18:36 01.11.2022
1202 Clear 28 1016 8 10000 5.14 170 17:28 01.11.2022
1203 Clear 27 999 10 10000 2.57 250 16:18 01.11.2022
1204 Clear 24 1000 15 10000 0 0 14:20 01.11.2022
1205 Clear 17 1000 30 10000 0 0 12:27 01.11.2022
1206 Clear 16 973 42 10000 3.96 78 11:22 01.11.2022
1207 Clear 17 982 35 10000 3.91 79 09:54 01.11.2022
1208 Clear 17 983 34 10000 3.82 80 08:38 01.11.2022
1209 Clear 18 982 24 10000 3.5 81 07:29 01.11.2022
1210 Clear 18 982 33 10000 3.5 81 06:47 01.11.2022
1211 Clear 18 983 33 10000 3.5 83 05:56 01.11.2022
1212 Clear 20 984 31 10000 3.38 88 03:32 01.11.2022
1213 Clear 27 1015 13 10000 3.6 210 21:36 31.10.2022
1214 Clear 26 1016 15 10000 4.63 220 20:30 31.10.2022
1215 Clear 25 1014 15 10000 3.09 190 18:50 31.10.2022
1216 Clear 23 1015 21 10000 2.57 240 17:26 31.10.2022
1217 Clear 21 1016 25 10000 1.54 200 16:39 31.10.2022
1218 Clear 15 987 40 10000 1.54 100 13:23 31.10.2022
1219 Clear 11 999 50 10000 1.88 102 09:54 31.10.2022
1220 Clear 11 999 49 10000 0.99 114 08:24 31.10.2022
1221 Clouds 13 1022 44 10000 0.28 233 04:48 31.10.2022
1222 Clouds 15 1023 38 10000 1.03 263 02:20 31.10.2022
1223 Clouds 18 986 41 10000 2.06 260 22:59 30.10.2022
1224 Clouds 18 992 47 10000 3.09 140 20:46 30.10.2022
1225 Clouds 17 992 49 10000 1.54 180 19:54 30.10.2022
1226 Clouds 16 987 52 10000 2.51 244 18:20 30.10.2022
1227 Drizzle 12 1022 75 1500 1.54 300 15:29 30.10.2022
1228 Mist 12 1022 80 1000 0 0 13:52 30.10.2022
1229 Clouds 12 1022 73 7792 2.09 241 12:46 30.10.2022
1230 Clouds 14 1021 73 10000 0.83 273 11:21 30.10.2022
1231 Clouds 14 1017 68 10000 0.89 242 09:37 30.10.2022
1232 Clear 14 1020 70 10000 0.45 272 08:25 30.10.2022
1233 Clear 23 989 38 10000 5.14 220 00:50 30.10.2022
1234 Clear 23 984 38 10000 5.14 220 00:27 30.10.2022
1235 Clear 24 983 32 10000 4.12 230 23:44 29.10.2022
1236 Clear 25 996 29 10000 3.09 250 20:54 29.10.2022
1237 Clear 23 1001 35 8000 2.06 200 17:47 29.10.2022
1238 Clear 21 992 41 8000 2.06 250 16:22 29.10.2022
1239 Clear 21 983 43 10000 0 0 15:37 29.10.2022
1240 Clear 19 992 46 10000 0 0 14:47 29.10.2022
1241 Clear 15 998 55 10000 0.08 145 12:34 29.10.2022
1242 Clear 14 1021 57 10000 0.22 80 10:40 29.10.2022
1243 Clouds 15 1021 58 10000 0.18 138 07:37 29.10.2022
1244 Clouds 16 1021 55 10000 0.65 260 05:56 29.10.2022
1245 Clouds 18 1021 49 10000 0.92 245 03:58 29.10.2022
1246 Clouds 23 992 33 10000 4.63 200 23:32 28.10.2022
1247 Clouds 24 1002 30 10000 2.06 210 20:46 28.10.2022
1248 Clouds 23 1002 34 10000 3.06 245 19:26 28.10.2022
1249 Clouds 22 996 34 10000 1.54 200 18:31 28.10.2022
1250 Clouds 18 987 44 10000 0 0 15:33 28.10.2022
1251 Clouds 17 994 46 10000 0 0 14:43 28.10.2022
1252 Clouds 13 1025 57 10000 0.14 29 12:53 28.10.2022
1253 Clouds 13 1023 59 10000 0.32 338 11:34 28.10.2022
1254 Clouds 13 1022 59 10000 0.2 223 10:59 28.10.2022
1255 Clouds 14 1022 56 10000 0.63 240 09:48 28.10.2022
1256 Clouds 14 1022 56 10000 0.98 241 08:29 28.10.2022
1257 Clear 18 1021 45 10000 1.32 247 03:51 28.10.2022
1258 Clear 18 1021 45 10000 1.32 247 03:51 28.10.2022
1259 Clear 23 984 34 10000 5.66 220 23:49 27.10.2022
1260 Clear 25 989 32 10000 5.66 220 22:41 27.10.2022
1261 Clear 25 999 28 10000 5.14 220 21:55 27.10.2022
1262 Clear 25 995 27 10000 4.12 240 20:30 27.10.2022
1263 Clear 25 995 27 10000 4.12 240 20:30 27.10.2022
1264 Clear 25 995 27 10000 4.12 240 20:30 27.10.2022
1265 Clear 25 992 34 10000 2.06 220 18:23 27.10.2022
1266 Clear 18 973 43 10000 0 0 14:30 27.10.2022
1267 Clear 15 984 45 10000 1.35 73 11:33 27.10.2022
1268 Clear 16 997 49 10000 0.42 111 07:30 27.10.2022
1269 Clear 22 992 31 10000 3.6 230 00:22 27.10.2022
1270 Clear 23 991 29 10000 4.12 230 23:46 26.10.2022
1271 Clear 23 986 27 10000 4.12 200 22:38 26.10.2022
1272 Clear 22 998 29 10000 3.09 230 20:36 26.10.2022
1273 Clear 19 994 43 10000 2.57 170 17:27 26.10.2022
1274 Clouds 15 1006 56 10000 0 0 14:53 26.10.2022
1275 Clear 12 1026 64 10000 0.22 191 12:52 26.10.2022
1276 Clear 13 1025 69 10000 0.42 128 11:35 26.10.2022
1277 Clear 12 1025 69 10000 0.5 178 09:18 26.10.2022
1278 Clear 12 1003 67 10000 0.5 178 08:44 26.10.2022
1279 Clouds 16 1021 53 10000 5.66 220 00:50 26.10.2022
1280 Clouds 17 1004 51 10000 5.66 220 00:29 26.10.2022
1281 Clouds 20 992 44 10000 6.17 230 21:58 25.10.2022
1282 Clouds 20 983 42 10000 6.17 230 21:25 25.10.2022
1283 Clouds 20 987 40 10000 5.14 210 20:27 25.10.2022
1284 Clear 20 991 36 10000 3.6 210 18:40 25.10.2022
1285 Clear 18 1002 45 10000 1.54 0 15:48 25.10.2022
1286 Clouds 13 1018 55 10000 0.83 267 11:40 25.10.2022
1287 Clouds 13 1017 55 10000 0.61 285 10:46 25.10.2022
1288 Clouds 13 1017 55 10000 0.61 285 10:46 25.10.2022
1289 Clouds 13 1017 55 10000 0.81 284 10:28 25.10.2022
1290 Clouds 14 1018 53 10000 0.95 275 08:36 25.10.2022
1291 Clouds 14 1017 53 10000 0.48 281 08:18 25.10.2022
1292 Clouds 15 1018 52 10000 0.48 281 07:44 25.10.2022
1293 Clouds 15 1018 50 10000 0.53 249 06:41 25.10.2022
1294 Clouds 19 1018 41 10000 1.39 248 03:25 25.10.2022
1295 Clear 23 991 29 10000 3.6 230 00:32 25.10.2022
1296 Clear 24 995 25 10000 3.09 200 22:26 24.10.2022
1297 Clear 25 994 25 10000 2.57 220 21:34 24.10.2022
1298 Clear 24 995 28 10000 2.57 220 20:49 24.10.2022
1299 Clear 25 999 28 10000 2.57 220 20:19 24.10.2022
1300 Clear 22 993 32 10000 0 0 17:53 24.10.2022
1301 Clouds 21 981 31 10000 2.8 248 16:54 24.10.2022
1302 Clear 19 995 40 10000 0 0 15:19 24.10.2022
1303 Clear 15 986 47 10000 0 0 14:18 24.10.2022
1304 Clouds 12 1023 57 10000 0.52 96 12:26 24.10.2022
1305 Clouds 13 1023 60 10000 0.49 218 09:18 24.10.2022
1306 Clouds 18 1021 36 10000 1.44 242 02:58 24.10.2022
1307 Clear 24 1002 26 10000 3.09 200 22:19 23.10.2022
1308 Clear 23 987 32 10000 2.57 240 20:38 23.10.2022
1309 Clear 23 991 37 10000 1.54 170 18:37 23.10.2022
1310 Clear 21 993 39 10000 2.06 240 17:28 23.10.2022
1311 Clear 20 985 42 10000 1.54 230 15:39 23.10.2022
1312 Clear 17 1003 47 10000 0 0 14:52 23.10.2022
1313 Clouds 13 1022 59 10000 0.27 54 11:27 23.10.2022
1314 Clouds 14 1021 59 10000 0.24 42 09:55 23.10.2022
1315 Clouds 18 1021 44 10000 0.94 242 04:29 23.10.2022
1316 Clear 24 983 34 10000 5.66 230 22:48 22.10.2022
1317 Clear 25 994 27 10000 4.63 220 21:43 22.10.2022
1318 Clear 26 1016 25 10000 3.6 230 20:57 22.10.2022
1319 Clear 26 998 25 10000 3.09 250 19:57 22.10.2022
1320 Clear 25 998 26 10000 3.09 250 19:30 22.10.2022
1321 Clear 24 993 31 10000 2.57 240 17:39 22.10.2022
1322 Clear 20 991 41 10000 1.54 250 15:58 22.10.2022
1323 Clear 19 982 43 10000 0 0 14:47 22.10.2022
1324 Clear 15 996 58 10000 1.54 40 13:57 22.10.2022
1325 Clouds 14 996 54 10000 0.9 74 10:30 22.10.2022
1326 Clouds 14 1019 51 10000 0.63 78 09:39 22.10.2022
1327 Clouds 14 1019 51 10000 0.52 84 08:37 22.10.2022
1328 Clear 17 1020 49 10000 0.58 240 04:21 22.10.2022
1329 Clear 22 984 34 10000 2.06 240 00:18 22.10.2022
1330 Clear 23 985 24 10000 3.6 230 21:41 21.10.2022
1331 Clear 23 985 24 10000 3.6 230 21:41 21.10.2022
1332 Clear 23 985 25 10000 3.6 230 21:23 21.10.2022
1333 Clear 23 996 27 10000 3.09 300 19:56 21.10.2022
1334 Clear 22 991 36 10000 2.06 0 17:20 21.10.2022
1335 Clear 17 993 46 10000 0 0 14:30 21.10.2022
1336 Clear 14 993 55 10000 1.54 30 13:22 21.10.2022
1337 Clouds 14 998 49 10000 0.48 30 11:33 21.10.2022
1338 Clouds 16 985 46 10000 0.17 153 10:21 21.10.2022
1339 Clouds 16 987 50 10000 0.68 252 08:39 21.10.2022
1340 Clouds 17 985 46 10000 0.65 40 07:32 21.10.2022
1341 Clear 20 987 37 10000 1.23 194 02:29 21.10.2022
1342 Clear 24 1018 23 10000 0 0 22:26 20.10.2022
1343 Clear 23 1021 23 10000 3.2 247 20:38 20.10.2022
1344 Clear 23 1020 22 10000 0 0 19:39 20.10.2022
1345 Clear 22 1007 28 10000 0 0 17:54 20.10.2022
1346 Clear 22 999 30 10000 0 0 17:33 20.10.2022
1347 Clear 12 1003 60 10000 0 0 13:22 20.10.2022
1348 Clear 11 1004 47 10000 1.01 81 12:28 20.10.2022
1349 Clear 12 1004 50 10000 0.83 100 11:23 20.10.2022
1350 Clear 11 1027 49 10000 0.83 100 10:50 20.10.2022
1351 Clear 12 1027 57 10000 0.61 92 08:22 20.10.2022
1352 Clear 14 1027 56 10000 0.43 179 05:45 20.10.2022
1353 Clouds 17 1007 50 10000 4.12 240 01:52 20.10.2022
1354 Clouds 20 1005 40 10000 4.12 220 22:46 19.10.2022
1355 Clouds 20 989 39 10000 4.12 240 21:58 19.10.2022
1356 Clouds 20 994 41 10000 4.12 240 21:18 19.10.2022
1357 Clouds 18 994 47 10000 2.57 230 18:51 19.10.2022
1358 Clouds 17 995 49 8000 2.57 200 17:38 19.10.2022
1359 Clouds 15 995 54 10000 1.54 220 16:21 19.10.2022
1360 Clouds 10 1023 70 10000 1.03 20 13:53 19.10.2022
1361 Clouds 10 1022 67 10000 0.38 234 10:18 19.10.2022
1362 Clouds 11 1022 67 10000 1.01 234 08:35 19.10.2022
1363 Clear 12 1023 63 10000 1.05 238 06:31 19.10.2022
1364 Clear 17 1021 48 10000 2.33 230 01:27 19.10.2022
1365 Clear 20 983 38 10000 4.63 240 23:21 18.10.2022
1366 Clear 20 985 37 10000 3.6 230 21:48 18.10.2022
1367 Clear 19 985 38 10000 4.12 210 20:59 18.10.2022
1368 Clear 20 990 38 10000 4.12 210 20:19 18.10.2022
1369 Clear 18 985 45 10000 3.42 250 18:25 18.10.2022
1370 Clear 16 992 53 10000 1.54 220 16:55 18.10.2022
1371 Clouds 14 993 63 7000 0 0 14:53 18.10.2022
1372 Clear 11 1021 72 10000 0.75 276 12:35 18.10.2022
1373 Clear 11 1020 72 10000 0.33 328 11:22 18.10.2022
1374 Clear 12 1020 71 10000 0.62 285 09:59 18.10.2022
1375 Clear 11 1021 72 10000 0.98 270 07:58 18.10.2022
1376 Clear 12 997 65 10000 0.96 248 05:42 18.10.2022
1377 Clouds 21 985 37 10000 5.14 200 22:54 17.10.2022
1378 Clear 20 983 39 10000 3.6 220 20:55 17.10.2022
1379 Clear 20 985 38 10000 3.6 220 20:33 17.10.2022
1380 Clear 20 984 42 10000 3.6 200 19:52 17.10.2022
1381 Clear 20 989 42 10000 3.6 200 19:30 17.10.2022
1382 Clear 18 1000 47 10000 2.57 240 17:28 17.10.2022
1383 Clear 17 1004 50 10000 1.54 220 15:53 17.10.2022
1384 Clear 15 1001 58 10000 0 0 14:35 17.10.2022
1385 Clear 13 1019 65 10000 0.5 304 12:25 17.10.2022
1386 Clouds 16 1018 57 10000 0.87 259 06:42 17.10.2022
1387 Clear 23 1002 35 10000 2.06 190 00:24 17.10.2022
1388 Clear 26 998 27 10000 4.63 220 22:21 16.10.2022
1389 Clear 25 999 25 10000 2.06 210 20:59 16.10.2022
1390 Clear 26 1014 25 10000 2.06 190 19:47 16.10.2022
1391 Clear 24 1003 29 10000 0 0 17:58 16.10.2022
1392 Clear 24 999 29 10000 0 0 17:39 16.10.2022
1393 Clear 20 1005 35 10000 0 0 15:58 16.10.2022
1394 Clear 19 1006 38 10000 0 0 14:45 16.10.2022
1395 Clear 14 1021 49 10000 0.74 87 12:23 16.10.2022
1396 Clear 14 1020 49 10000 0.44 107 10:28 16.10.2022
1397 Clear 15 1020 48 10000 0.44 107 09:39 16.10.2022
1398 Clear 19 1021 37 10000 1.1 220 03:22 16.10.2022
1399 Clear 24 991 29 10000 5.14 230 23:41 15.10.2022
1400 Clear 27 1016 23 10000 4.63 220 21:29 15.10.2022
1401 Clear 27 1016 21 10000 3.09 200 20:57 15.10.2022
1402 Clear 27 1003 20 10000 2.57 270 19:28 15.10.2022
1403 Clear 22 990 34 10000 0 0 15:59 15.10.2022
1404 Clear 22 990 42 10000 0 0 15:38 15.10.2022
1405 Clear 17 997 39 10000 1.57 79 13:18 15.10.2022
1406 Clear 15 988 41 10000 2.04 75 11:37 15.10.2022
1407 Clear 16 996 39 10000 1.69 87 09:22 15.10.2022
1408 Clear 17 1019 37 10000 1 98 05:46 15.10.2022
1409 Clear 23 987 25 10000 4.63 200 00:40 15.10.2022
1410 Clear 25 1000 20 10000 3.6 220 22:25 14.10.2022
1411 Clear 25 1000 20 10000 4.12 210 21:37 14.10.2022
1412 Clear 24 1003 22 10000 3.6 240 20:28 14.10.2022
1413 Clear 22 1001 28 10000 1.54 340 17:35 14.10.2022
1414 Clear 19 992 34 10000 2.26 248 15:30 14.10.2022
1415 Clear 14 994 49 10000 0.57 104 12:45 14.10.2022
1416 Clear 12 1024 54 10000 0.78 85 10:53 14.10.2022
1417 Clear 14 1000 47 10000 0.22 82 08:25 14.10.2022
1418 Clear 15 1000 42 10000 0.13 193 06:18 14.10.2022
1419 Clear 15 1000 41 10000 0.13 193 05:59 14.10.2022
1420 Clear 15 1023 45 10000 0.13 193 05:41 14.10.2022
1421 Clear 20 994 33 10000 4.12 210 01:30 14.10.2022
1422 Clear 23 994 34 10000 4.63 200 23:20 13.10.2022
1423 Clear 23 987 32 10000 3.09 200 21:31 13.10.2022
1424 Clear 22 999 29 10000 2.57 220 20:20 13.10.2022
1425 Clear 22 999 30 10000 3.09 190 19:41 13.10.2022
1426 Clear 21 1003 36 10000 1.03 200 18:45 13.10.2022
1427 Clear 20 986 40 10000 2.06 230 17:52 13.10.2022
1428 Clear 18 994 48 10000 1.03 0 15:49 13.10.2022
1429 Clear 15 996 58 10000 1.54 220 14:30 13.10.2022
1430 Clear 11 1024 73 10000 0 0 13:26 13.10.2022
1431 Clear 12 1002 65 10000 0.72 68 11:40 13.10.2022
1432 Clear 12 1000 62 10000 0.27 91 09:57 13.10.2022
1433 Clear 13 1000 62 10000 0.61 66 08:33 13.10.2022
1434 Clouds 14 1000 61 10000 0.58 221 07:36 13.10.2022
1435 Clear 18 988 49 10000 1 238 03:23 13.10.2022
1436 Clear 19 994 50 10000 4.12 240 01:38 13.10.2022
1437 Clear 22 996 34 10000 4.12 220 23:32 12.10.2022
1438 Clear 22 993 34 10000 4.12 230 22:44 12.10.2022
1439 Clear 22 992 34 10000 2.06 200 21:25 12.10.2022
1440 Clouds 22 993 34 8000 3.6 200 20:54 12.10.2022
1441 Clouds 22 993 36 8000 3.6 200 20:26 12.10.2022
1442 Clouds 21 998 39 8000 2.57 220 18:51 12.10.2022
1443 Clear 20 998 45 8000 2.57 200 17:54 12.10.2022
1444 Clear 18 999 49 8000 1.54 230 16:29 12.10.2022
1445 Clear 14 997 63 10000 1.03 20 13:58 12.10.2022
1446 Clear 13 1007 67 10000 1.03 20 13:36 12.10.2022
1447 Clear 12 1002 66 10000 0.87 113 10:51 12.10.2022
1448 Clear 12 1002 62 10000 0.68 117 08:54 12.10.2022
1449 Clear 13 1002 62 10000 0.58 92 07:41 12.10.2022
1450 Clear 14 1002 62 10000 0.56 189 06:43 12.10.2022
1451 Clouds 17 1001 53 10000 0.81 231 02:46 12.10.2022
1452 Clear 21 989 38 10000 3.09 250 22:43 11.10.2022
1453 Clear 21 1021 35 10000 2.57 200 20:58 11.10.2022
1454 Clear 20 1006 38 10000 3.09 220 19:59 11.10.2022
1455 Clear 19 995 45 8000 2.57 180 17:38 11.10.2022
1456 Clear 15 999 54 10000 3.09 210 15:34 11.10.2022
1457 Clear 11 1002 70 10000 1.03 20 13:29 11.10.2022
1458 Clear 9 1002 71 10000 1.01 104 10:32 11.10.2022
1459 Clear 10 1002 70 10000 0.85 99 09:58 11.10.2022
1460 Clear 11 1002 65 10000 0.47 102 08:28 11.10.2022
1461 Clear 15 1000 53 10000 1.42 229 02:49 11.10.2022
1462 Clear 18 988 45 10000 4.12 250 00:34 11.10.2022
1463 Clear 19 988 38 10000 2.57 220 22:45 10.10.2022
1464 Clear 20 991 34 10000 3.09 210 20:43 10.10.2022
1465 Clear 19 986 34 10000 3.09 210 19:21 10.10.2022
1466 Clear 19 1002 37 10000 2.06 230 17:25 10.10.2022
1467 Clear 18 1002 39 10000 0 0 16:28 10.10.2022
1468 Clear 11 1020 55 10000 2.06 90 13:53 10.10.2022
1469 Clear 12 997 46 10000 0.46 90 12:22 10.10.2022
1470 Clear 13 996 44 10000 0.24 230 09:32 10.10.2022
1471 Clear 15 995 38 10000 0.33 11 06:22 10.10.2022
1472 Clear 16 995 37 10000 0.33 11 05:33 10.10.2022
1473 Clear 19 984 28 10000 3.09 230 01:30 10.10.2022
1474 Clear 22 988 24 10000 3.09 190 23:37 09.10.2022
1475 Clear 24 997 18 10000 3.09 170 22:26 09.10.2022
1476 Clear 24 996 24 10000 2.57 200 21:30 09.10.2022
1477 Clear 23 998 19 10000 2.57 220 20:43 09.10.2022
1478 Clear 23 998 21 10000 2.57 250 19:48 09.10.2022
1479 Clear 22 988 25 10000 3.09 200 18:49 09.10.2022
1480 Clear 21 1013 25 10000 2.06 260 17:44 09.10.2022
1481 Clear 20 1014 29 10000 1.54 210 16:48 09.10.2022
1482 Clear 19 998 33 10000 1.54 210 16:19 09.10.2022
1483 Clear 16 1003 38 10000 0 0 14:54 09.10.2022
1484 Clear 15 1001 43 10000 0 0 14:26 09.10.2022
1485 Clear 11 991 59 10000 1.49 77 12:49 09.10.2022
1486 Clear 11 997 60 10000 1.76 88 11:27 09.10.2022
1487 Clear 12 998 59 10000 1.47 75 08:33 09.10.2022
1488 Clear 13 999 47 10000 1.1 106 05:59 09.10.2022
1489 Clear 15 1000 51 10000 0.69 174 03:26 09.10.2022
1490 Clouds 18 988 44 10000 4.12 220 00:47 09.10.2022
1491 Clouds 20 993 42 10000 4.12 220 23:33 08.10.2022
1492 Clear 19 976 40 10000 3.53 226 22:51 08.10.2022
1493 Clouds 20 994 46 10000 2.57 210 20:43 08.10.2022
1494 Clouds 19 993 49 10000 2.57 230 19:48 08.10.2022
1495 Clouds 17 994 60 8000 2.06 260 17:45 08.10.2022
1496 Clouds 14 996 67 7000 1.54 210 15:36 08.10.2022
1497 Haze 12 1005 76 4000 0 0 13:53 08.10.2022
1498 Clouds 12 1000 74 10000 0.94 217 12:30 08.10.2022
1499 Clouds 12 999 74 9825 1.35 243 10:35 08.10.2022
1500 Clouds 13 999 71 10000 1.22 251 09:43 08.10.2022
1501 Clouds 13 999 74 5637 1.3 248 07:32 08.10.2022
1502 Clouds 14 1018 83 10000 1.66 240 02:45 08.10.2022
1503 Clouds 20 986 40 10000 4.12 220 00:24 08.10.2022
1504 Clouds 21 986 38 10000 5.14 240 23:20 07.10.2022
1505 Clouds 22 985 38 10000 5.14 230 22:19 07.10.2022
1506 Clouds 24 999 29 10000 3.09 220 20:37 07.10.2022
1507 Clear 24 997 29 10000 2.57 210 18:40 07.10.2022
1508 Clear 21 1004 39 10000 0 0 16:59 07.10.2022
1509 Clear 19 1005 43 10000 2.06 190 15:56 07.10.2022
1510 Clouds 17 1006 49 8000 0 0 14:42 07.10.2022
1511 Clear 12 999 59 10000 1.13 61 12:23 07.10.2022
1512 Clear 13 999 59 10000 0.65 65 09:26 07.10.2022
1513 Clear 14 999 56 10000 0.65 65 08:49 07.10.2022
1514 Clouds 14 1001 57 10000 0.71 56 06:23 07.10.2022
1515 Clear 20 990 46 10000 3.09 200 00:46 07.10.2022
1516 Clear 21 999 34 10000 3.09 220 22:50 06.10.2022
1517 Clear 21 1000 33 10000 3.09 220 21:44 06.10.2022
1518 Clear 21 1000 33 10000 3.09 220 21:22 06.10.2022
1519 Clear 20 1001 37 10000 4.12 200 19:55 06.10.2022
1520 Clouds 20 1006 37 8000 3.09 220 18:37 06.10.2022
1521 Clouds 18 1007 44 8000 3.09 220 18:18 06.10.2022
1522 Clouds 13 1010 66 8000 2.06 270 14:42 06.10.2022
1523 Clouds 11 1006 70 10000 0.43 95 11:30 06.10.2022
1524 Clouds 11 1007 71 10000 0.47 115 06:53 06.10.2022
1525 Clouds 12 1006 71 10000 0.87 223 03:34 06.10.2022
1526 Clouds 16 1003 49 7000 3.09 200 23:44 05.10.2022
1527 Haze 16 997 50 5000 3.09 180 21:21 05.10.2022
1528 Haze 15 1001 57 5000 0 0 18:57 05.10.2022
1529 Haze 12 997 67 5000 2.06 170 17:35 05.10.2022
1530 Clouds 12 996 69 8000 4.12 280 15:55 05.10.2022
1531 Rain 11 996 72 8000 3.09 100 14:47 05.10.2022
1532 Clouds 10 1006 77 7000 2.06 230 13:55 05.10.2022
1533 Rain 10 1000 73 10000 0.39 355 12:20 05.10.2022
1534 Rain 11 998 68 10000 0.87 229 09:21 05.10.2022
1535 Clouds 11 998 66 10000 1.09 247 07:42 05.10.2022
1536 Clouds 12 998 64 10000 1.1 234 05:36 05.10.2022
1537 Clouds 12 999 61 10000 1.62 242 03:33 05.10.2022
1538 Clouds 14 1003 50 8000 5.14 210 00:46 05.10.2022
1539 Clouds 14 1003 50 8000 5.14 210 00:24 05.10.2022
1540 Clouds 16 992 48 8000 6.17 190 22:34 04.10.2022
1541 Haze 17 992 46 5000 2.57 250 20:32 04.10.2022
1542 Haze 15 992 57 4000 3.09 120 18:58 04.10.2022
1543 Haze 15 992 57 4000 3.09 120 18:58 04.10.2022
1544 Haze 14 993 58 4000 3.09 120 18:36 04.10.2022
1545 Haze 14 994 63 4000 1.03 250 17:45 04.10.2022
1546 Haze 13 998 63 5000 0 0 16:33 04.10.2022
1547 Clouds 11 998 79 10000 0.82 276 12:56 04.10.2022
1548 Clouds 10 997 77 10000 0.74 301 09:45 04.10.2022
1549 Clouds 10 998 78 10000 1.1 248 07:23 04.10.2022
1550 Clouds 13 986 72 10000 2.11 241 02:19 04.10.2022
1551 Clouds 15 991 60 10000 2.06 100 23:40 03.10.2022
1552 Clouds 15 991 60 10000 2.06 100 23:40 03.10.2022
1553 Haze 16 996 61 5000 3.09 200 21:52 03.10.2022
1554 Mist 13 985 72 3000 1.03 200 20:56 03.10.2022
1555 Mist 16 997 64 2000 5.14 210 19:38 03.10.2022
1556 Mist 15 1016 67 1500 4.12 220 17:58 03.10.2022
1557 Mist 15 995 67 1500 4.12 220 17:18 03.10.2022
1558 Mist 14 996 69 1200 3.09 200 15:42 03.10.2022
1559 Mist 13 998 83 1500 1.03 120 13:45 03.10.2022
1560 Clouds 11 996 72 10000 0.27 268 12:24 03.10.2022
1561 Clouds 12 994 73 10000 0.3 6 10:39 03.10.2022
1562 Clouds 12 995 72 10000 0.21 18 09:37 03.10.2022
1563 Clear 15 995 65 10000 0.69 245 06:29 03.10.2022
1564 Clear 19 983 58 10000 0.35 221 02:52 03.10.2022
1565 Clear 26 1000 26 10000 5.14 200 22:29 02.10.2022
1566 Clear 25 999 38 10000 5.14 230 20:50 02.10.2022
1567 Clear 25 1002 26 10000 5.14 250 18:42 02.10.2022
1568 Clear 25 998 28 10000 3.09 220 17:52 02.10.2022
1569 Clear 23 998 32 10000 3.09 220 16:33 02.10.2022
1570 Clear 21 998 45 10000 2.06 210 15:50 02.10.2022
1571 Clear 14 995 57 10000 2.06 30 13:51 02.10.2022
1572 Clear 14 992 52 10000 2.06 30 13:21 02.10.2022
1573 Clear 13 988 60 10000 2.61 67 12:28 02.10.2022
1574 Clear 13 976 64 10000 2.61 67 11:39 02.10.2022
1575 Clear 13 976 64 10000 2.41 68 10:59 02.10.2022
1576 Clear 14 976 63 10000 2.05 73 09:27 02.10.2022
1577 Clear 14 977 63 10000 1.79 87 07:39 02.10.2022
1578 Clear 18 987 56 10000 0.58 179 02:55 02.10.2022
1579 Clear 20 987 52 10000 8.23 230 00:46 02.10.2022
1580 Clear 21 996 46 10000 8.23 230 00:21 02.10.2022
1581 Clear 24 997 33 10000 8.23 220 22:43 01.10.2022
1582 Clear 23 996 34 10000 3.42 238 20:36 01.10.2022
1583 Clouds 25 993 35 10000 3.41 248 18:40 01.10.2022
1584 Clouds 22 994 40 10000 2.26 245 16:36 01.10.2022
1585 Clouds 17 992 50 10000 1.69 244 14:41 01.10.2022
1586 Clouds 14 973 71 8000 0.2 256 13:31 01.10.2022
1587 Clouds 14 985 57 10000 1.57 64 12:33 01.10.2022
1588 Clouds 14 975 63 10000 1.33 69 11:21 01.10.2022
1589 Clouds 15 984 58 10000 1.33 69 10:32 01.10.2022
1590 Clouds 15 984 59 10000 1.62 75 09:28 01.10.2022
1591 Clouds 15 975 65 10000 1.62 75 08:58 01.10.2022
1592 Clouds 16 985 62 10000 1.34 91 05:28 01.10.2022
1593 Clouds 17 985 61 10000 1.13 100 03:32 01.10.2022
1594 Clouds 22 1000 41 10000 2.65 219 00:29 01.10.2022
1595 Clouds 23 996 38 10000 3.27 227 22:48 30.09.2022
1596 Haze 24 1018 33 5000 3.6 210 21:31 30.09.2022
1597 Haze 24 1017 33 5000 2.06 240 20:44 30.09.2022
1598 Haze 24 1017 34 5000 2.06 240 20:18 30.09.2022
1599 Haze 20 1001 47 5000 2.57 190 17:38 30.09.2022
1600 Haze 16 986 61 4000 1.54 300 15:58 30.09.2022
1601 Mist 12 989 85 1000 0.53 144 13:34 30.09.2022
1602 Clear 12 981 76 10000 1.23 87 11:58 30.09.2022
1603 Clear 12 980 78 10000 1.37 97 11:28 30.09.2022
1604 Clear 12 980 77 10000 0.76 90 08:37 30.09.2022
1605 Clouds 13 989 74 10000 0.57 166 06:27 30.09.2022
1606 Clouds 15 988 66 10000 0.76 228 02:42 30.09.2022
1607 Clear 17 993 60 10000 4.12 240 23:35 29.09.2022
1608 Clear 21 1018 48 7000 4.12 240 21:29 29.09.2022
1609 Haze 22 1018 42 5000 3.09 230 20:57 29.09.2022
1610 Haze 21 1001 44 4000 2.57 270 18:45 29.09.2022
1611 Haze 20 1002 48 4000 4.12 210 17:32 29.09.2022
1612 Haze 18 992 53 3500 0 0 16:28 29.09.2022
1613 Haze 16 1002 60 3000 0 0 15:36 29.09.2022
1614 Mist 16 998 62 1500 0 0 14:35 29.09.2022
1615 Clouds 11 991 83 10000 0.77 82 10:33 29.09.2022
1616 Clouds 12 978 74 10000 0.47 184 07:26 29.09.2022
1617 Clouds 15 987 62 10000 0.89 240 02:52 29.09.2022
1618 Clear 18 992 52 10000 4.12 240 23:56 28.09.2022
1619 Clear 20 991 48 10000 4.12 260 22:58 28.09.2022
1620 Clouds 21 991 43 6000 5.14 200 21:30 28.09.2022
1621 Clouds 21 991 43 6000 5.14 200 21:30 28.09.2022
1622 Clouds 21 991 43 6000 5.14 200 21:30 28.09.2022
1623 Clouds 20 988 45 6000 3.09 180 20:26 28.09.2022
1624 Clear 19 988 47 10000 1.54 140 18:42 28.09.2022
1625 Clear 16 1005 56 10000 1.54 270 15:34 28.09.2022
1626 Clear 10 1021 64 10000 0 0 13:27 28.09.2022
1627 Clear 10 1000 64 10000 1.23 77 11:23 28.09.2022
1628 Clear 11 1000 64 10000 1.09 87 09:18 28.09.2022
1629 Clouds 13 1000 63 10000 1.16 113 07:39 28.09.2022
1630 Clouds 15 989 60 10000 0.76 122 04:34 28.09.2022
1631 Clear 17 988 51 10000 3.09 230 01:36 28.09.2022
1632 Clear 21 1002 37 10000 3.6 220 23:27 27.09.2022
1633 Clouds 21 1002 37 10000 4.12 200 21:47 27.09.2022
1634 Clear 21 1004 36 10000 0 0 20:44 27.09.2022
1635 Clear 20 985 35 10000 4.12 260 19:49 27.09.2022
1636 Clear 20 994 37 10000 3.09 230 18:49 27.09.2022
1637 Clear 19 984 46 10000 4.12 220 17:46 27.09.2022
1638 Clear 15 985 54 10000 2.06 140 15:59 27.09.2022
1639 Clear 13 1004 63 10000 0 0 14:59 27.09.2022
1640 Clear 9 1000 74 10000 2.06 50 13:28 27.09.2022
1641 Clouds 9 999 71 10000 0.64 87 12:22 27.09.2022
1642 Clouds 10 999 70 10000 0.41 192 09:46 27.09.2022
1643 Clouds 11 999 71 10000 0.36 209 07:28 27.09.2022
1644 Clouds 14 987 60 10000 0.99 226 02:51 27.09.2022
1645 Clouds 15 993 59 10000 4.12 230 01:35 27.09.2022
1646 Clouds 17 987 50 10000 7.2 200 23:38 26.09.2022
1647 Clouds 16 987 49 10000 7.2 200 23:18 26.09.2022
1648 Clouds 16 987 52 8000 4.12 280 20:47 26.09.2022
1649 Clouds 16 993 53 8000 4.12 150 19:34 26.09.2022
1650 Clouds 16 993 56 8000 4.12 210 18:34 26.09.2022
1651 Clouds 14 994 64 8000 4.12 200 16:58 26.09.2022
1652 Haze 11 989 71 5000 4.12 60 14:46 26.09.2022
1653 Clouds 10 992 74 10000 0.39 103 11:36 26.09.2022
1654 Clouds 9 1001 74 10000 0.22 164 10:41 26.09.2022
1655 Clouds 9 1001 73 10000 0.37 121 10:21 26.09.2022
1656 Clouds 10 992 73 10000 0.37 121 09:56 26.09.2022
1657 Clouds 9 1001 73 10000 0.69 215 09:24 26.09.2022
1658 Clouds 10 1001 71 10000 0.82 223 08:57 26.09.2022
1659 Clear 13 1001 63 10000 0.79 221 02:59 26.09.2022
1660 Clear 14 1005 59 10000 4.12 250 01:31 26.09.2022
1661 Clouds 17 993 45 8000 8.75 220 23:20 25.09.2022
1662 Clouds 17 988 47 7000 7.2 210 21:44 25.09.2022
1663 Clouds 17 989 45 7000 4.12 200 20:54 25.09.2022
1664 Clouds 17 1004 45 7000 4.12 200 20:31 25.09.2022
1665 Clouds 15 992 54 8000 3.09 300 18:44 25.09.2022
1666 Clouds 15 993 55 8000 3.09 300 18:21 25.09.2022
1667 Clouds 13 1008 63 7000 2.06 30 16:55 25.09.2022
1668 Clouds 12 1009 66 7000 2.06 120 15:46 25.09.2022
1669 Clouds 10 1026 75 7000 0 0 14:31 25.09.2022
1670 Clouds 9 1026 77 10000 0 0 13:45 25.09.2022
1671 Clouds 10 1027 80 10000 0.24 187 10:37 25.09.2022
1672 Clouds 11 1003 76 10000 0.19 192 08:25 25.09.2022
1673 Clouds 11 1027 78 10000 1.15 240 06:28 25.09.2022
1674 Clouds 12 1003 77 10000 1.04 225 03:40 25.09.2022
1675 Haze 12 1024 81 5000 6.17 190 23:36 24.09.2022
1676 Haze 12 1006 80 2500 6.17 180 21:19 24.09.2022
1677 Haze 12 1006 83 3000 5.14 230 19:24 24.09.2022
1678 Mist 11 1023 89 3000 6.17 230 18:25 24.09.2022
1679 Mist 12 1023 85 1500 5.14 240 16:37 24.09.2022
1680 Mist 12 1022 87 1500 3.09 220 15:23 24.09.2022
1681 Mist 11 1022 85 2500 3.09 220 14:18 24.09.2022
1682 Rain 12 1023 77 10000 0.7 333 12:59 24.09.2022
1683 Clouds 12 1022 75 10000 0.95 329 12:20 24.09.2022
1684 Clouds 12 1020 69 10000 0.41 351 09:57 24.09.2022
1685 Clouds 12 1021 70 10000 0.72 280 08:50 24.09.2022
1686 Clouds 12 1022 70 10000 0.59 260 07:39 24.09.2022
1687 Clouds 13 1022 67 10000 0.81 236 04:50 24.09.2022
1688 Clouds 14 1022 66 10000 0.83 263 03:43 24.09.2022
1689 Clouds 19 1018 42 8000 4.12 220 22:39 23.09.2022
1690 Clouds 18 1018 37 8000 1.03 130 21:31 23.09.2022
1691 Clouds 19 1019 36 8000 1.03 130 20:57 23.09.2022
1692 Clouds 18 1019 36 8000 1.03 130 20:23 23.09.2022
1693 Clouds 17 1020 40 10000 2.06 220 18:51 23.09.2022
1694 Clear 14 1021 48 10000 2.57 320 15:23 23.09.2022
1695 Clouds 11 1021 46 10000 0.35 83 10:55 23.09.2022
1696 Clouds 11 1020 44 10000 0.36 72 09:34 23.09.2022
1697 Clouds 14 1021 39 10000 0.58 81 05:59 23.09.2022
1698 Clear 19 1019 25 10000 3.09 230 00:36 23.09.2022
1699 Clear 20 1019 20 10000 7.2 210 23:22 22.09.2022
1700 Clear 21 1019 18 10000 6.17 220 22:27 22.09.2022
1701 Clear 20 1018 21 10000 5.14 230 21:18 22.09.2022
1702 Clear 20 1019 23 10000 4.12 220 19:56 22.09.2022
1703 Clear 15 1023 30 10000 3.09 120 17:26 22.09.2022
1704 Clear 6 1031 50 10000 1.8 76 12:52 22.09.2022
1705 Clear 6 1031 52 10000 1.75 78 10:33 22.09.2022
1706 Clear 6 1032 53 10000 1.46 82 08:56 22.09.2022
1707 Clear 8 1032 49 10000 1.17 108 06:57 22.09.2022
1708 Clear 9 1033 46 10000 0.49 127 04:36 22.09.2022
1709 Clear 14 1029 28 10000 8.23 220 23:31 21.09.2022
1710 Clouds 14 1029 26 10000 5.14 200 21:50 21.09.2022
1711 Clouds 14 1030 29 10000 4.12 150 20:34 21.09.2022
1712 Clear 11 1031 45 10000 4.12 230 17:50 21.09.2022
1713 Clear 10 1030 51 10000 2.06 220 16:53 21.09.2022
1714 Clear 6 1032 69 10000 3.09 40 14:37 21.09.2022
1715 Clouds 4 1035 74 10000 0.77 84 12:58 21.09.2022
1716 Clouds 5 1034 75 10000 0.51 112 11:30 21.09.2022
1717 Clouds 6 1033 72 10000 0.4 81 10:29 21.09.2022
1718 Clouds 6 1032 72 10000 0.5 224 09:21 21.09.2022
1719 Clouds 7 1032 72 10000 0.43 209 07:57 21.09.2022
1720 Clouds 8 1031 62 10000 1.83 230 02:49 21.09.2022
1721 Clouds 8 1031 63 10000 2.24 235 02:28 21.09.2022
1722 Clouds 10 1028 60 10000 7.2 220 00:44 21.09.2022
1723 Clouds 10 1027 59 8000 4.12 190 23:18 20.09.2022
1724 Clouds 11 1027 56 10000 3.09 180 20:52 20.09.2022
1725 Clouds 10 1027 59 10000 3.6 170 19:37 20.09.2022
1726 Clouds 9 1027 66 10000 4.12 200 16:28 20.09.2022
1727 Clouds 9 1027 69 8000 2.57 210 14:46 20.09.2022
1728 Clouds 8 1026 73 8000 0 0 13:28 20.09.2022
1729 Clouds 10 1025 64 10000 1.07 285 10:33 20.09.2022
1730 Clouds 10 1024 63 10000 0.95 279 08:28 20.09.2022
1731 Clouds 10 1024 63 10000 1.21 262 05:48 20.09.2022
1732 Clouds 11 1023 61 10000 1.29 256 04:27 20.09.2022
1733 Clouds 15 1019 47 10000 6.17 200 22:59 19.09.2022
1734 Clouds 15 1019 46 10000 6.17 200 22:18 19.09.2022
1735 Clouds 15 1020 48 8000 4.12 170 20:57 19.09.2022
1736 Clouds 15 1019 49 8000 4.12 170 20:38 19.09.2022
1737 Clouds 12 1022 59 7000 4.12 190 17:46 19.09.2022
1738 Clouds 10 1024 68 7000 2.06 280 15:37 19.09.2022
1739 Clouds 6 1025 78 8000 3.09 70 13:33 19.09.2022
1740 Clouds 8 1027 74 10000 0.36 59 11:29 19.09.2022
1741 Clear 10 1027 76 10000 0.33 278 08:51 19.09.2022
1742 Clouds 10 1027 75 10000 0.15 109 08:18 19.09.2022
1743 Clouds 11 1027 69 10000 1.69 236 01:58 19.09.2022
1744 Clouds 11 1024 64 8000 7.2 230 23:22 18.09.2022
1745 Clouds 12 1024 62 7000 7.2 220 21:45 18.09.2022
1746 Clouds 12 1024 61 6000 6.17 170 20:33 18.09.2022
1747 Clouds 12 1024 67 6000 2.06 240 18:34 18.09.2022
1748 Clouds 11 1025 72 6000 4.12 220 17:39 18.09.2022
1749 Haze 10 1024 80 5000 2.06 230 15:53 18.09.2022
1750 Haze 10 1024 81 5000 0 0 14:23 18.09.2022
1751 Clouds 9 1025 83 10000 0.18 266 12:35 18.09.2022
1752 Clouds 9 1025 83 7672 0.29 243 11:39 18.09.2022
1753 Clouds 10 1026 80 5544 2.43 235 05:24 18.09.2022
1754 Clouds 12 1024 68 10000 1.63 243 01:27 18.09.2022
1755 Clouds 14 1022 57 10000 6.17 240 00:27 18.09.2022
1756 Clouds 14 1021 58 7000 4.12 200 21:52 17.09.2022
1757 Clouds 13 1023 68 6192 1.52 239 19:51 17.09.2022
1758 Haze 11 1022 79 3000 2.06 170 18:59 17.09.2022
1759 Drizzle 10 1022 87 1000 4.12 230 16:52 17.09.2022
1760 Mist 10 1021 85 1000 2.06 230 13:57 17.09.2022
1761 Clouds 10 1021 80 10000 0.65 279 11:55 17.09.2022
1762 Clouds 10 1020 77 10000 1.04 278 09:37 17.09.2022
1763 Clouds 11 1021 75 10000 0.98 262 06:27 17.09.2022
1764 Rain 12 1021 73 10000 1.02 251 02:34 17.09.2022
1765 Clouds 16 1018 59 6000 9.26 220 22:56 16.09.2022
1766 Clouds 18 1015 50 6000 8.23 250 21:29 16.09.2022
1767 Clouds 18 1016 53 6000 8.23 240 20:24 16.09.2022
1768 Clouds 17 1017 54 7000 4.12 210 17:50 16.09.2022
1769 Clouds 14 1017 65 7000 3.09 240 15:43 16.09.2022
1770 Clouds 11 1017 71 8000 3.09 30 14:28 16.09.2022
1771 Clouds 12 1019 62 10000 0.35 352 11:45 16.09.2022
1772 Rain 13 1019 63 10000 0.05 215 08:53 16.09.2022
1773 Clouds 14 1019 56 10000 0.27 348 07:19 16.09.2022
1774 Clouds 14 1019 59 10000 0.27 348 06:47 16.09.2022
1775 Clouds 16 1019 57 10000 0.63 263 02:52 16.09.2022
1776 Clear 21 1019 34 10000 0 0 23:48 15.09.2022
1777 Clear 23 1014 27 10000 7.72 230 21:19 15.09.2022
1778 Clear 23 1015 26 10000 3.09 270 19:57 15.09.2022
1779 Clear 20 1018 30 10000 4.12 220 18:30 15.09.2022
1780 Clouds 22 1014 28 10000 2.08 252 17:33 15.09.2022
1781 Clear 19 1016 37 10000 3.09 170 16:51 15.09.2022
1782 Clouds 16 1015 34 10000 0.68 244 14:41 15.09.2022
1783 Clouds 10 1018 33 10000 2.02 78 12:29 15.09.2022
1784 Clouds 11 1021 42 10000 1.46 85 10:21 15.09.2022
1785 Clouds 12 1022 40 10000 1.04 70 07:51 15.09.2022
1786 Clouds 15 1022 41 10000 0.86 84 03:56 15.09.2022
1787 Clouds 18 1023 43 10000 0.93 208 01:20 15.09.2022
1788 Clear 22 1019 25 10000 2.57 240 21:39 14.09.2022
1789 Clouds 20 1021 29 6000 2.57 180 19:34 14.09.2022
1790 Clear 17 1024 39 10000 0 0 18:32 14.09.2022
1791 Clear 15 1022 48 10000 0 0 16:46 14.09.2022
1792 Clear 14 1023 48 10000 0 0 15:38 14.09.2022
1793 Clear 8 1023 68 10000 1.32 75 13:54 14.09.2022
1794 Clear 8 1030 62 10000 1.76 87 11:30 14.09.2022
1795 Clear 8 1029 63 10000 1.57 78 09:48 14.09.2022
1796 Clear 9 1031 67 10000 0.81 83 07:29 14.09.2022
1797 Clear 9 1030 64 10000 0.81 83 06:34 14.09.2022
1798 Clear 11 1030 66 10000 0.6 215 04:24 14.09.2022
1799 Clouds 13 1028 56 10000 1.18 200 01:46 14.09.2022
1800 Clouds 14 1027 54 10000 1.69 222 01:27 14.09.2022
1801 Clouds 15 1025 47 8000 0 0 00:42 14.09.2022
1802 Clouds 15 1025 46 7000 0 0 23:54 13.09.2022
1803 Clouds 16 1025 46 7000 0 0 23:36 13.09.2022
1804 Clouds 16 1025 46 7000 0 0 23:18 13.09.2022
1805 Clouds 15 1026 53 7000 2.06 180 21:45 13.09.2022
1806 Clouds 13 1026 60 6000 0 0 19:38 13.09.2022
1807 Mist 12 1027 69 3000 0 0 17:44 13.09.2022
1808 Mist 9 1028 82 1500 1.54 210 15:55 13.09.2022
1809 Mist 8 1027 87 1500 2.06 190 14:36 13.09.2022
1810 Clouds 9 1027 84 10000 0.84 238 12:32 13.09.2022
1811 Clouds 10 1026 82 10000 0.95 254 08:43 13.09.2022
1812 Clouds 11 1026 77 10000 1.53 241 05:45 13.09.2022
1813 Clouds 14 1020 58 10000 3.09 250 00:19 13.09.2022
1814 Clouds 16 1020 46 6000 3.09 230 22:49 12.09.2022
1815 Clouds 17 1020 45 6000 3.09 220 21:37 12.09.2022
1816 Clouds 17 1021 45 7000 3.09 250 20:25 12.09.2022
1817 Clear 15 1022 52 6000 1.54 250 18:44 12.09.2022
1818 Clear 13 1022 58 6000 0 0 16:32 12.09.2022
1819 Clear 13 1022 58 6000 0 0 16:32 12.09.2022
1820 Clear 13 1022 58 6000 0 0 16:32 12.09.2022
1821 Clear 7 1023 72 10000 0.49 49 13:57 12.09.2022
1822 Clear 6 1028 70 10000 0.84 91 11:29 12.09.2022
1823 Clear 7 1028 72 10000 0.71 96 09:45 12.09.2022
1824 Clear 9 1029 73 10000 0.36 221 04:50 12.09.2022
1825 Clear 9 1029 72 10000 0.64 228 04:20 12.09.2022
1826 Clouds 14 1026 57 10000 0 0 23:23 11.09.2022
1827 Clouds 14 1026 57 10000 0 0 22:18 11.09.2022
1828 Clouds 13 1026 61 7000 0 0 20:48 11.09.2022
1829 Clouds 13 1027 67 7000 0 0 19:56 11.09.2022
1830 Clouds 11 1027 75 7000 0 0 19:22 11.09.2022
1831 Haze 10 1028 79 4000 2.06 180 18:21 11.09.2022
1832 Mist 9 1028 87 2000 2.06 240 16:36 11.09.2022
1833 Drizzle 9 1027 88 1500 2.06 190 14:39 11.09.2022
1834 Clouds 9 1028 85 10000 0.6 244 12:42 11.09.2022
1835 Clouds 10 1026 82 10000 0.81 248 08:59 11.09.2022
1836 Clear 10 1026 79 10000 0.86 252 07:18 11.09.2022
1837 Clear 15 1021 62 10000 2.57 270 00:50 11.09.2022
1838 Clear 18 1019 49 8000 3.6 250 22:56 10.09.2022
1839 Clear 19 1018 40 10000 2.57 240 21:33 10.09.2022
1840 Clear 20 1017 31 8000 2.57 240 19:48 10.09.2022
1841 Clear 20 1017 33 8000 2.57 240 19:29 10.09.2022
1842 Clear 20 1016 32 8000 2.57 180 18:54 10.09.2022
1843 Clear 16 1017 39 10000 0 0 16:51 10.09.2022
1844 Clear 10 1019 59 10000 0.37 266 14:43 10.09.2022
1845 Clear 7 1023 53 10000 2.55 73 12:53 10.09.2022
1846 Clear 7 1023 54 10000 2.52 76 11:19 10.09.2022
1847 Clear 8 1022 54 10000 2.53 77 09:50 10.09.2022
1848 Clear 9 1023 54 10000 2.56 79 08:37 10.09.2022
1849 Clear 9 1024 56 10000 2.75 85 07:22 10.09.2022
1850 Clear 17 1021 39 10000 1.54 210 00:51 10.09.2022
1851 Clear 18 1019 35 10000 2.06 240 23:33 09.09.2022
1852 Clear 17 1021 36 8000 2.57 240 22:19 09.09.2022
1853 Clear 18 1018 35 8000 2.06 240 20:47 09.09.2022
1854 Clear 16 1019 39 10000 2.06 270 19:25 09.09.2022
1855 Clear 14 1019 46 10000 1.54 180 18:53 09.09.2022
1856 Clear 7 1020 70 10000 0 0 16:28 09.09.2022
1857 Clear 1 1020 46 10000 1.79 80 13:50 09.09.2022
1858 Clear 4 1028 73 10000 2.29 79 12:32 09.09.2022
1859 Clear 5 1027 73 10000 1.8 79 09:55 09.09.2022
1860 Clear 6 1028 74 10000 1.45 81 05:38 09.09.2022
1861 Clear 7 1029 73 10000 1 95 03:20 09.09.2022
1862 Clouds 9 1025 68 8000 0 0 21:53 08.09.2022
1863 Clouds 8 1026 73 7000 2.06 360 20:56 08.09.2022
1864 Clouds 6 1023 81 7000 2.06 360 20:32 08.09.2022
1865 Clouds 5 1025 84 6000 0 0 19:57 08.09.2022
1866 Clouds 6 1027 80 5000 2.57 300 18:26 08.09.2022
1867 Clouds 5 1027 86 3000 2.57 270 16:21 08.09.2022
1868 Mist 6 1025 82 1500 1.56 246 14:40 08.09.2022
1869 Clouds 6 1027 82 4296 1.98 242 13:27 08.09.2022
1870 Clouds 7 1024 76 3282 2.52 248 12:24 08.09.2022
1871 Clouds 8 1023 80 3803 2.27 251 10:57 08.09.2022
1872 Clouds 9 1023 74 2415 1.15 238 08:51 08.09.2022
1873 Clouds 9 1023 73 1838 2.23 236 06:42 08.09.2022
1874 Clouds 11 1023 64 7976 2.76 239 02:37 08.09.2022
1875 Clouds 11 1023 65 6612 2.8 236 02:18 08.09.2022
1876 Clouds 13 1018 49 8000 2.57 270 00:56 08.09.2022
1877 Clouds 15 1018 42 10000 3.09 270 22:54 07.09.2022
1878 Clouds 14 1020 47 10000 1.54 300 21:42 07.09.2022
1879 Clouds 15 1022 46 10000 1.26 206 20:49 07.09.2022
1880 Clouds 11 1019 61 10000 0 0 19:42 07.09.2022
1881 Clouds 10 1021 73 8000 1.54 240 18:27 07.09.2022
1882 Haze 8 1021 85 1500 1.9 256 14:26 07.09.2022
1883 Clouds 11 1021 75 10000 0.98 323 10:48 07.09.2022
1884 Clear 11 1019 74 10000 0.54 307 09:39 07.09.2022
1885 Clear 11 1022 76 10000 0.95 263 07:23 07.09.2022
1886 Clear 15 1018 54 10000 1.56 247 03:33 07.09.2022
1887 Clear 20 1017 48 10000 2.92 238 23:38 06.09.2022
1888 Clear 23 1015 30 10000 3.72 238 21:42 06.09.2022
1889 Clear 24 1016 28 10000 3.5 241 20:45 06.09.2022
1890 Clear 23 1017 28 10000 0 0 18:49 06.09.2022
1891 Clear 23 1017 30 10000 0 0 18:22 06.09.2022
1892 Clear 22 1016 31 10000 0 0 17:22 06.09.2022
1893 Clear 21 1016 31 10000 0 0 16:37 06.09.2022
1894 Clear 18 1017 33 10000 0 0 15:22 06.09.2022
1895 Clear 16 1016 28 10000 1.31 78 13:45 06.09.2022
1896 Clear 16 1016 28 10000 1.31 78 13:45 06.09.2022
1897 Clear 15 1018 33 10000 2.54 71 13:24 06.09.2022
1898 Clear 15 1015 35 10000 2.65 74 11:59 06.09.2022
1899 Clear 15 1017 35 10000 2.71 70 10:41 06.09.2022
1900 Clear 16 1018 37 10000 0.9 88 08:50 06.09.2022
1901 Clear 16 1018 38 10000 1.88 76 07:49 06.09.2022
1902 Clear 18 1020 38 10000 0.92 94 03:31 06.09.2022
1903 Clear 25 1015 22 10000 0 0 23:27 05.09.2022
1904 Clear 26 1015 17 10000 0 0 22:21 05.09.2022
1905 Clear 26 1016 16 8000 0 0 20:35 05.09.2022
1906 Clear 25 1015 21 7000 0 0 19:20 05.09.2022
1907 Clear 25 1015 21 10000 0 0 18:45 05.09.2022
1908 Clear 25 1015 22 10000 0 0 18:21 05.09.2022
1909 Clear 21 1016 27 10000 0 0 16:43 05.09.2022
1910 Clear 17 1017 35 10000 0 0 15:47 05.09.2022
1911 Clear 14 1019 32 10000 3.04 71 13:26 05.09.2022
1912 Clear 14 1018 30 10000 3 73 12:27 05.09.2022
1913 Clear 15 1018 33 10000 2.06 84 09:44 05.09.2022
1914 Clear 16 1019 37 10000 2.45 72 06:41 05.09.2022
1915 Clear 18 1019 34 10000 0.96 113 02:19 05.09.2022
1916 Clear 24 1016 25 10000 2.1 239 23:18 04.09.2022
1917 Clear 24 1015 20 10000 0 0 22:27 04.09.2022
1918 Clear 23 1016 24 10000 2.06 270 20:50 04.09.2022
1919 Clear 22 1017 28 10000 2.63 242 19:32 04.09.2022
1920 Clear 22 1016 27 10000 2.06 210 17:55 04.09.2022
1921 Clear 20 1016 28 10000 0 0 16:44 04.09.2022
1922 Clear 13 1019 43 10000 0.53 96 14:30 04.09.2022
1923 Clear 11 1022 33 10000 2.28 74 13:28 04.09.2022
1924 Clear 12 1020 29 10000 2.24 74 11:54 04.09.2022
1925 Clear 13 1019 34 10000 2.04 80 10:28 04.09.2022
1926 Clear 14 1020 37 10000 1.53 88 08:20 04.09.2022
1927 Clear 14 1022 40 10000 1.36 86 05:19 04.09.2022
1928 Clear 21 1020 31 10000 2.57 240 00:47 04.09.2022
1929 Clear 23 1017 21 7000 3.09 240 22:22 03.09.2022
1930 Clear 23 1017 19 8000 2.06 240 21:23 03.09.2022
1931 Clear 22 1019 23 7000 0 0 19:39 03.09.2022
1932 Clear 20 1020 27 10000 0 0 17:26 03.09.2022
1933 Clear 18 1020 33 10000 0 0 16:27 03.09.2022
1934 Clear 12 1020 38 10000 0.25 87 14:45 03.09.2022
1935 Clear 10 1022 42 10000 2.18 69 14:22 03.09.2022
1936 Clear 12 1022 28 10000 2.47 75 12:24 03.09.2022
1937 Clear 12 1021 35 10000 2.38 77 10:41 03.09.2022
1938 Clear 12 1022 40 10000 2.06 83 08:28 03.09.2022
1939 Clear 13 1022 41 10000 2.17 81 06:58 03.09.2022
1940 Clear 14 1023 44 10000 2.03 76 04:34 03.09.2022
1941 Haze 20 1019 38 5000 0 0 00:29 03.09.2022
1942 Haze 21 1019 28 5000 2.57 240 22:57 02.09.2022
1943 Haze 21 1018 28 5000 0 0 20:59 02.09.2022
1944 Haze 20 1018 29 5000 0 0 20:28 02.09.2022
1945 Haze 21 1016 33 5000 0 0 19:22 02.09.2022
1946 Clear 20 1017 34 7000 1.54 280 18:28 02.09.2022
1947 Clear 18 1018 37 7000 0 0 17:53 02.09.2022
1948 Clear 16 1018 42 6000 0 0 16:47 02.09.2022
1949 Mist 8 1022 68 4000 0.74 107 14:33 02.09.2022
1950 Clear 8 1026 68 10000 2.15 87 12:36 02.09.2022
1951 Clear 7 1027 69 10000 1.83 80 10:19 02.09.2022
1952 Clear 7 1027 68 10000 1.83 80 09:39 02.09.2022
1953 Clear 8 1028 69 10000 1.09 94 07:32 02.09.2022
1954 Clear 8 1028 68 10000 0.94 99 06:38 02.09.2022
1955 Clouds 10 1030 67 10000 0.75 215 02:52 02.09.2022
1956 Clouds 13 1026 54 7000 0 0 22:30 01.09.2022
1957 Clouds 13 1026 57 7000 0 0 21:43 01.09.2022
1958 Clouds 13 1027 56 7000 0 0 21:25 01.09.2022
1959 Clouds 12 1027 59 7000 0 0 20:43 01.09.2022
1960 Clouds 13 1026 57 8000 0 0 18:54 01.09.2022
1961 Clouds 12 1026 63 8000 2.06 280 17:21 01.09.2022
1962 Clouds 10 1027 74 7000 0 0 15:56 01.09.2022
1963 Clouds 9 1026 76 7000 0.12 79 14:22 01.09.2022
1964 Clouds 10 1027 78 10000 0.31 16 12:58 01.09.2022
1965 Clouds 10 1027 78 10000 0.35 282 11:52 01.09.2022
1966 Clouds 10 1027 78 10000 0.35 282 11:31 01.09.2022
1967 Clouds 10 1026 77 10000 0.7 223 10:19 01.09.2022
1968 Clouds 10 1026 76 10000 0.94 234 07:51 01.09.2022
1969 Clouds 10 1026 75 8929 0.98 232 06:21 01.09.2022
1970 Clouds 11 1027 75 10000 1.53 235 01:32 01.09.2022
1971 Haze 11 1024 77 4000 1.54 210 23:29 31.08.2022
1972 Mist 10 1024 84 2000 1.54 240 21:30 31.08.2022
1973 Drizzle 10 1023 91 1500 1.54 210 19:46 31.08.2022
1974 Drizzle 8 1020 93 1500 2.57 240 17:52 31.08.2022
1975 Haze 9 1019 93 2500 0 0 15:44 31.08.2022
1976 Clouds 10 1024 85 10000 0.55 274 13:57 31.08.2022
1977 Clouds 11 1021 76 10000 0.46 332 12:20 31.08.2022
1978 Clouds 11 1022 79 10000 0.4 311 10:30 31.08.2022
1979 Clouds 11 1023 79 10000 0.74 247 08:34 31.08.2022
1980 Clouds 11 1024 79 10000 1.11 247 03:46 31.08.2022
1981 Clouds 21 1014 46 10000 2.51 241 22:58 30.08.2022
1982 Clear 20 1016 45 10000 2.84 243 21:33 30.08.2022
1983 Clear 21 1016 44 10000 2.98 239 20:47 30.08.2022
1984 Clear 20 1017 50 10000 2.06 247 17:25 30.08.2022
1985 Fog 12 1017 76 50 0.31 222 14:42 30.08.2022
1986 Clouds 8 1015 37 10000 2.14 65 13:24 30.08.2022
1987 Clouds 11 1022 82 10000 1.54 82 11:21 30.08.2022
1988 Clouds 12 1020 65 10000 1.54 82 10:35 30.08.2022
1989 Clear 14 1019 54 10000 0.75 76 06:50 30.08.2022
1990 Clear 18 1018 52 10000 0.31 155 01:45 30.08.2022
1991 Clear 18 1018 52 10000 0.31 155 01:45 30.08.2022
1992 Clear 18 1018 52 10000 0.31 155 01:45 30.08.2022
1993 Clear 23 1017 35 7000 0 0 22:47 29.08.2022
1994 Clear 23 1015 34 7000 0 0 22:20 29.08.2022
1995 Clear 23 1015 29 6000 3.6 270 21:23 29.08.2022
1996 Clear 24 1015 26 7000 0 0 19:48 29.08.2022
1997 Clear 22 1014 20 10000 0 0 17:43 29.08.2022
1998 Clear 22 1015 22 10000 0 0 17:24 29.08.2022
1999 Clear 18 1014 33 10000 0 0 15:42 29.08.2022
2000 Clear 14 1014 33 10000 1.25 83 14:43 29.08.2022
2001 Clear 13 1019 24 10000 3.21 76 12:42 29.08.2022
2002 Clear 13 1019 26 10000 3.42 77 10:51 29.08.2022
2003 Clear 14 1018 27 10000 3.33 81 09:41 29.08.2022
2004 Clear 16 1016 26 10000 3.82 81 08:28 29.08.2022
2005 Clear 20 1019 28 10000 3.59 85 02:48 29.08.2022
2006 Clear 25 1015 21 10000 0 0 23:52 28.08.2022
2007 Clear 26 1015 20 10000 2.06 240 22:36 28.08.2022
2008 Clear 26 1017 20 10000 0 0 21:40 28.08.2022
2009 Clear 25 1017 20 10000 0 0 20:43 28.08.2022
2010 Clear 24 1015 24 10000 0 0 18:51 28.08.2022
2011 Clear 24 1016 25 10000 0 0 18:20 28.08.2022
2012 Clear 19 1017 33 10000 0 0 16:57 28.08.2022
2013 Clear 16 1018 35 10000 1.16 94 15:50 28.08.2022
2014 Clear 16 1018 30 10000 3.5 79 13:47 28.08.2022
2015 Clear 13 1018 42 10000 3.52 83 12:31 28.08.2022
2016 Clear 12 1018 43 10000 3.12 80 10:40 28.08.2022
2017 Clear 13 1018 44 10000 2.53 82 09:40 28.08.2022
2018 Clear 12 1022 51 10000 2.35 79 08:32 28.08.2022
2019 Clear 11 1027 59 10000 2.07 80 07:34 28.08.2022
2020 Clear 15 1024 40 10000 0.61 110 01:31 28.08.2022
2021 Clear 18 1023 32 10000 2.06 270 00:22 28.08.2022
2022 Haze 19 1021 42 3000 0 0 22:31 27.08.2022
2023 Haze 19 1020 44 3000 1.54 240 20:53 27.08.2022
2024 Haze 19 1021 48 3000 1.54 360 19:39 27.08.2022
2025 Haze 14 1023 60 4000 2.06 270 16:42 27.08.2022
2026 Haze 13 1025 71 4000 1.54 30 15:39 27.08.2022
2027 Mist 10 1026 82 3000 1.06 222 14:35 27.08.2022
2028 Clouds 10 1027 78 10000 0.61 68 12:22 27.08.2022
2029 Clouds 11 1026 73 10000 0.4 73 11:24 27.08.2022
2030 Clouds 11 1027 76 10000 0.28 174 09:40 27.08.2022
2031 Clouds 11 1027 76 10000 0.28 174 09:40 27.08.2022
2032 Clouds 12 1026 75 10000 0.93 231 06:55 27.08.2022
2033 Clouds 14 1023 67 10000 1.32 237 02:31 27.08.2022
2034 Haze 15 1020 61 4000 0 0 23:53 26.08.2022
2035 Haze 16 1020 58 4000 0 0 22:24 26.08.2022
2036 Clouds 18 1019 45 6000 0 0 20:25 26.08.2022
2037 Clouds 16 1019 49 8000 0 0 18:59 26.08.2022
2038 Clouds 15 1019 49 8000 1.54 210 16:42 26.08.2022
2039 Clouds 14 1018 53 8000 1.54 330 15:27 26.08.2022
2040 Clouds 13 1020 49 10000 0.29 54 13:44 26.08.2022
2041 Clouds 11 1021 46 10000 0.69 89 12:35 26.08.2022
2042 Clouds 13 1019 50 10000 1 74 11:22 26.08.2022
2043 Clouds 14 1016 44 10000 1.09 82 10:25 26.08.2022
2044 Clear 13 1021 49 10000 0.87 79 05:26 26.08.2022
2045 Clear 17 1020 44 10000 0.48 170 01:18 26.08.2022
2046 Haze 22 1017 31 5000 2.57 270 23:29 25.08.2022
2047 Haze 21 1018 34 5000 1.54 180 20:59 25.08.2022
2048 Haze 21 1017 32 5000 3.09 180 19:55 25.08.2022
2049 Haze 21 1017 35 5000 0 0 18:47 25.08.2022
2050 Haze 19 1019 40 5000 0 0 17:32 25.08.2022
2051 Haze 16 1019 44 5000 0 0 16:49 25.08.2022
2052 Clouds 12 1020 62 6000 0 0 15:37 25.08.2022
2053 Clouds 11 1022 61 7000 0.49 99 14:30 25.08.2022
2054 Clear 9 1025 61 10000 2.36 70 11:34 25.08.2022
2055 Clear 4 1018 38 10000 2.19 78 10:46 25.08.2022
2056 Clear 10 1026 69 10000 1.49 81 08:41 25.08.2022
2057 Clear 12 1027 65 10000 1.21 78 04:40 25.08.2022
2058 Clouds 17 1020 44 6000 2.57 210 23:56 24.08.2022
2059 Clouds 18 1019 44 6000 2.57 210 23:25 24.08.2022
2060 Haze 19 1018 48 2000 2.57 270 22:18 24.08.2022
2061 Haze 20 1017 44 2000 2.06 260 21:32 24.08.2022
2062 Haze 20 1018 46 3000 0 0 20:23 24.08.2022
2063 Haze 17 1018 53 3000 0 0 17:38 24.08.2022
2064 Haze 14 1018 63 3000 0 0 16:22 24.08.2022
2065 Haze 13 1019 72 3000 0 0 15:40 24.08.2022
2066 Clouds 16 1018 54 10000 1.24 83 12:52 24.08.2022
2067 Clouds 16 1018 56 10000 1.24 90 11:22 24.08.2022
2068 Clouds 16 1018 56 10000 1.24 90 11:22 24.08.2022
2069 Clouds 14 1021 67 10000 1.29 78 09:19 24.08.2022
2070 Clouds 15 1022 65 10000 1.25 85 07:33 24.08.2022
2071 Clouds 15 1024 69 10000 0.16 215 01:43 24.08.2022
2072 Haze 20 1019 54 3000 2.57 250 22:51 23.08.2022
2073 Haze 21 1018 48 3000 2.57 250 22:21 23.08.2022
2074 Haze 22 1017 47 2000 1.54 270 21:21 23.08.2022
2075 Haze 21 1017 50 2000 3.09 240 19:43 23.08.2022
2076 Haze 18 1020 65 2000 0 0 18:30 23.08.2022
2077 Haze 17 1020 69 2000 0 0 17:43 23.08.2022
2078 Haze 14 1021 65 2000 0 0 16:33 23.08.2022
2079 Haze 12 1021 72 2000 0.47 127 14:55 23.08.2022
2080 Clouds 10 1027 79 10000 1.92 75 13:25 23.08.2022
2081 Clouds 12 1023 70 10000 1.74 74 11:19 23.08.2022
2082 Clouds 12 1023 71 10000 1.74 74 10:33 23.08.2022
2083 Clouds 11 1026 78 10000 1.32 80 09:46 23.08.2022
2084 Clouds 11 1026 82 10000 1.08 85 08:47 23.08.2022
2085 Clear 11 1027 85 10000 0.92 86 08:19 23.08.2022
2086 Clear 12 1023 71 10000 0.92 86 07:33 23.08.2022
2087 Clear 12 1023 70 10000 1.18 82 06:26 23.08.2022
2088 Haze 12 1021 79 4000 0 0 01:55 23.08.2022
2089 Haze 15 1018 66 4000 0 0 00:27 23.08.2022
2090 Haze 16 1017 62 4000 0 0 23:32 22.08.2022
2091 Haze 18 1017 64 4000 0 0 22:29 22.08.2022
2092 Mist 17 1018 67 5000 0 0 20:58 22.08.2022
2093 Mist 16 1018 70 3000 0 0 19:47 22.08.2022
2094 Mist 13 1019 73 3000 0 0 18:38 22.08.2022
2095 Mist 13 1019 73 3000 0 0 18:38 22.08.2022
2096 Mist 13 1019 72 1500 0 0 16:26 22.08.2022
2097 Fog 12 1018 73 200 0 0 15:36 22.08.2022
2098 Clear 10 1023 79 10000 1.23 78 12:57 22.08.2022
2099 Clear 11 1023 81 10000 1.14 75 10:20 22.08.2022
2100 Clear 12 1021 65 10000 0.75 79 07:40 22.08.2022
2101 Clear 16 1020 61 10000 0.57 120 02:55 22.08.2022
2102 Clear 19 1016 51 6000 0 0 00:37 22.08.2022
2103 Clear 21 1014 48 6000 4.12 240 23:58 21.08.2022
2104 Haze 22 1014 42 5000 3.09 260 21:57 21.08.2022
2105 Haze 22 1014 43 5000 3.09 260 21:21 21.08.2022
2106 Haze 22 1014 43 5000 2.06 240 20:26 21.08.2022
2107 Haze 22 1015 44 5000 2.06 230 19:18 21.08.2022
2108 Clear 18 1015 50 10000 0 0 16:54 21.08.2022
2109 Clear 16 1017 56 10000 0 0 15:53 21.08.2022
2110 Clear 15 1017 52 10000 0 0 15:18 21.08.2022
2111 Clouds 15 1018 45 10000 2.5 79 13:51 21.08.2022
2112 Clouds 12 1021 47 10000 2.7 75 12:57 21.08.2022
2113 Clouds 12 1021 47 10000 2.7 75 12:57 21.08.2022
2114 Clouds 13 1020 54 10000 2.29 82 10:48 21.08.2022
2115 Clouds 14 1020 48 10000 2.35 78 09:24 21.08.2022
2116 Clouds 14 1020 48 10000 2.35 78 08:56 21.08.2022
2117 Clouds 16 1018 47 10000 2.35 78 08:38 21.08.2022
2118 Clouds 15 1019 51 10000 1.82 84 07:26 21.08.2022
2119 Clouds 18 1019 42 10000 1.29 85 02:52 21.08.2022
2120 Clear 22 1017 31 10000 2.06 250 23:44 20.08.2022
2121 Clear 23 1016 38 10000 2.06 270 22:23 20.08.2022
2122 Clear 23 1016 37 10000 0 0 21:26 20.08.2022
2123 Clear 22 1018 40 6000 0 0 19:58 20.08.2022
2124 Clear 22 1017 44 6000 0 0 19:39 20.08.2022
2125 Clear 22 1017 44 6000 0 0 19:39 20.08.2022
2126 Clear 21 1019 45 10000 1.48 234 18:27 20.08.2022
2127 Clear 20 1018 45 10000 0 0 17:38 20.08.2022
2128 Clear 19 1018 48 10000 1.54 240 16:35 20.08.2022
2129 Clear 11 1019 56 10000 1.89 79 14:55 20.08.2022
2130 Clear 10 1025 46 10000 3.37 76 12:46 20.08.2022
2131 Clear 11 1024 46 10000 2.99 79 11:47 20.08.2022
2132 Clear 14 1018 39 10000 3.04 77 09:29 20.08.2022
2133 Clouds 11 1024 54 10000 3.05 79 08:25 20.08.2022
2134 Clouds 15 1021 51 10000 2.31 84 05:48 20.08.2022
2135 Clouds 20 1020 39 8000 0 0 00:58 20.08.2022
2136 Clouds 21 1020 36 8000 0 0 00:30 20.08.2022
2137 Clouds 24 1018 38 8000 2.06 270 22:50 19.08.2022
2138 Clear 23 1016 35 10000 0 0 21:34 19.08.2022
2139 Clear 23 1017 41 10000 2.06 270 19:41 19.08.2022
2140 Clear 13 1019 41 10000 0 0 16:32 19.08.2022
2141 Clear 9 1018 54 10000 1.62 86 14:37 19.08.2022
2142 Clear 13 1018 41 10000 3 79 12:45 19.08.2022
2143 Clear 2 1018 35 10000 2.99 78 10:41 19.08.2022
2144 Clear 3 1018 37 10000 2.56 79 09:39 19.08.2022
2145 Clear 10 1028 65 10000 1.42 77 04:59 19.08.2022
2146 Clear 14 1025 38 8000 0 0 00:45 19.08.2022
2147 Clear 15 1025 33 8000 0 0 00:20 19.08.2022
2148 Haze 15 1025 46 5000 3.09 240 22:59 18.08.2022
2149 Haze 15 1025 44 5000 3.09 240 22:30 18.08.2022
2150 Haze 15 1025 46 5000 0 0 21:53 18.08.2022
2151 Haze 15 1025 47 5000 0 0 21:18 18.08.2022
2152 Haze 12 1027 57 5000 0 0 19:54 18.08.2022
2153 Haze 12 1027 57 5000 0 0 19:21 18.08.2022
2154 Haze 10 1029 71 4000 0 0 17:41 18.08.2022
2155 Haze 9 1030 73 4000 0 0 16:19 18.08.2022
2156 Mist 4 1030 84 4000 1.56 89 14:22 18.08.2022
2157 Clear 5 1034 77 10000 1.56 89 13:44 18.08.2022
2158 Clear 5 1034 77 10000 1.56 89 13:44 18.08.2022
2159 Clear 5 1035 78 10000 1.74 81 12:30 18.08.2022
2160 Clear 6 1035 76 10000 1.37 90 11:21 18.08.2022
2161 Clear 6 1035 78 10000 1.41 94 09:43 18.08.2022
2162 Clear 7 1035 76 10000 2.01 83 07:53 18.08.2022
2163 Clear 8 1035 77 10000 2.05 86 06:37 18.08.2022
2164 Clouds 10 1033 70 10000 0.66 94 02:22 18.08.2022
2165 Clouds 12 1030 67 10000 2.01 229 22:50 17.08.2022
2166 Haze 11 1027 72 4000 1.54 230 20:37 17.08.2022
2167 Haze 11 1026 74 3000 0 0 19:59 17.08.2022
2168 Haze 11 1027 76 3000 0 0 18:37 17.08.2022
2169 Mist 10 1026 80 1500 2.06 230 17:21 17.08.2022
2170 Fog 9 1026 88 800 0 0 16:20 17.08.2022
2171 Fog 8 1024 90 800 0 0 14:41 17.08.2022
2172 Clouds 9 1026 86 10000 0.76 122 12:30 17.08.2022
2173 Clouds 9 1026 86 10000 0.8 221 11:25 17.08.2022
2174 Clouds 9 1026 86 10000 1.1 230 09:22 17.08.2022
2175 Rain 10 1025 80 10000 1.06 325 06:34 17.08.2022
2176 Clouds 9 1023 83 10000 2.06 258 01:23 17.08.2022
2177 Clouds 11 1019 75 10000 0 0 23:32 16.08.2022
2178 Rain 13 1019 65 10000 0 0 21:33 16.08.2022
2179 Rain 13 1020 66 10000 1.54 180 20:22 16.08.2022
2180 Clouds 12 1021 65 10000 0 0 19:27 16.08.2022
2181 Clouds 11 1023 70 10000 0 0 17:56 16.08.2022
2182 Clouds 11 1023 70 10000 0 0 17:56 16.08.2022
2183 Clouds 11 1023 70 10000 1.54 220 16:55 16.08.2022
2184 Clouds 10 1024 75 10000 0 0 15:45 16.08.2022
2185 Clouds 10 1024 73 10000 0 0 14:54 16.08.2022
2186 Clouds 10 1024 72 10000 0 0 14:36 16.08.2022
2187 Clouds 10 1027 78 10000 0.58 164 12:39 16.08.2022
2188 Clouds 10 1028 73 10000 1.15 71 10:23 16.08.2022
2189 Clouds 10 1028 73 10000 0.66 132 08:55 16.08.2022
2190 Clouds 10 1029 69 10000 1.4 58 08:26 16.08.2022
2191 Clouds 10 1029 72 10000 1.37 66 07:20 16.08.2022
2192 Clouds 12 1028 62 10000 0.38 167 01:20 16.08.2022
2193 Clouds 13 1026 54 10000 0 0 22:26 15.08.2022
2194 Clouds 13 1027 54 10000 0 0 21:51 15.08.2022
2195 Clouds 12 1027 59 10000 0 0 20:35 15.08.2022
2196 Clouds 11 1027 62 10000 1.54 260 19:59 15.08.2022
2197 Clouds 11 1030 69 10000 1.04 230 18:00 15.08.2022
2198 Clouds 8 1029 80 8000 2.06 10 16:25 15.08.2022
2199 Clouds 7 1029 84 7000 0 0 15:54 15.08.2022
2200 Clouds 6 1031 82 10000 0.45 91 13:54 15.08.2022
2201 Clouds 6 1030 81 6303 0.72 106 11:25 15.08.2022
2202 Clouds 6 1029 81 4672 0.45 130 09:42 15.08.2022
2203 Rain 6 1029 80 3848 0.98 220 07:44 15.08.2022
2204 Rain 7 1029 81 2454 2.83 257 04:34 15.08.2022
2205 Clouds 12 1024 64 8000 2.57 290 00:33 15.08.2022
2206 Clouds 12 1022 61 6000 0 0 22:30 14.08.2022
2207 Clouds 12 1022 63 6000 0 0 21:37 14.08.2022
2208 Rain 11 1024 72 6000 2.57 220 19:48 14.08.2022
2209 Haze 11 1024 68 5000 1.54 260 18:57 14.08.2022
2210 Haze 11 1024 66 5000 1.54 260 18:18 14.08.2022
2211 Haze 11 1023 62 5000 1.54 230 16:52 14.08.2022
2212 Clouds 8 1023 68 6000 1.54 330 15:48 14.08.2022
2213 Clouds 6 1023 71 6000 1.54 350 14:24 14.08.2022
2214 Clouds 7 1027 68 10000 1.53 24 13:49 14.08.2022
2215 Clouds 7 1025 61 10000 0.91 10 13:19 14.08.2022
2216 Clouds 8 1026 67 10000 0.58 350 11:56 14.08.2022
2217 Clear 7 1027 65 10000 0.68 17 10:49 14.08.2022
2218 Clear 8 1025 58 10000 0.67 5 08:50 14.08.2022
2219 Clouds 9 1025 61 10000 0.31 292 06:21 14.08.2022
2220 Clouds 11 1024 58 10000 0.8 245 02:48 14.08.2022
2221 Clear 15 1023 41 7000 2.06 240 23:53 13.08.2022
2222 Clear 17 1021 37 6000 2.06 240 22:52 13.08.2022
2223 Clear 17 1021 37 8000 1.54 300 20:58 13.08.2022
2224 Clear 17 1021 37 8000 1.54 300 20:31 13.08.2022
2225 Clear 15 1022 48 8000 0 0 19:37 13.08.2022
2226 Haze 12 1022 57 5000 3.09 220 17:42 13.08.2022
2227 Clouds 12 1022 47 10000 0.63 29 15:26 13.08.2022
2228 Clear 4 1025 79 10000 1.69 56 14:28 13.08.2022
2229 Clouds 8 1029 62 10000 1.78 60 13:39 13.08.2022
2230 Clouds 6 1029 66 10000 0.62 131 11:52 13.08.2022
2231 Clouds 8 1028 66 10000 0.79 56 10:31 13.08.2022
2232 Clouds 7 1029 66 10000 1.48 76 08:45 13.08.2022
2233 Clouds 8 1029 68 10000 0.5 96 05:34 13.08.2022
2234 Clouds 12 1024 55 7000 1.54 240 23:58 12.08.2022
2235 Clouds 14 1024 48 7000 1.54 250 21:46 12.08.2022
2236 Clouds 13 1025 54 8000 3.09 180 20:53 12.08.2022
2237 Clouds 12 1024 57 7000 2.8 262 19:40 12.08.2022
2238 Haze 12 1024 60 5000 1.49 263 18:48 12.08.2022
2239 Haze 10 1026 74 5000 2.48 256 17:25 12.08.2022
2240 Mist 8 1025 84 4000 1.03 0 15:52 12.08.2022
2241 Mist 8 1025 85 2000 0 0 14:41 12.08.2022
2242 Clouds 9 1025 80 10000 0.72 271 12:55 12.08.2022
2243 Clouds 8 1025 85 10000 0.22 318 10:45 12.08.2022
2244 Clouds 9 1026 82 10000 0.61 269 08:31 12.08.2022
2245 Clouds 9 1026 83 10000 0.64 258 06:56 12.08.2022
2246 Clear 11 1023 73 10000 0.82 268 03:20 12.08.2022
2247 Clear 14 1017 57 7000 0 0 00:27 12.08.2022
2248 Clear 16 1016 50 7000 3.09 240 23:35 11.08.2022
2249 Clear 19 1015 35 7000 3.09 240 22:28 11.08.2022
2250 Clear 19 1017 31 7000 2.06 270 21:43 11.08.2022
2251 Clear 18 1017 34 7000 1.54 250 20:59 11.08.2022
2252 Clouds 19 1015 33 7000 1.54 250 20:20 11.08.2022
2253 Clouds 17 1017 37 7000 1.54 200 19:32 11.08.2022
2254 Clouds 16 1016 38 9000 2.06 240 18:36 11.08.2022
2255 Clear 14 1017 46 10000 0 0 16:38 11.08.2022
2256 Clear 10 1020 57 10000 0 0 15:25 11.08.2022
2257 Clouds 2 1016 33 10000 2.41 67 13:37 11.08.2022
2258 Clouds 8 1019 69 10000 1.99 79 10:58 11.08.2022
2259 Clouds 10 1020 55 10000 1.14 87 07:47 11.08.2022
2260 Clouds 13 1020 45 10000 0.63 83 03:57 11.08.2022
2261 Clear 14 1019 38 10000 0.49 75 01:33 11.08.2022
2262 Clear 19 1020 27 10000 3.6 210 22:36 10.08.2022
2263 Clear 19 1018 30 10000 3.6 240 21:34 10.08.2022
2264 Clear 19 1019 33 10000 2.43 241 20:55 10.08.2022
2265 Clouds 18 1020 29 7000 2.06 240 19:32 10.08.2022
2266 Clouds 18 1019 28 7000 2.57 110 18:42 10.08.2022
2267 Clear 16 1019 34 10000 2.57 280 16:55 10.08.2022
2268 Clouds 14 1017 26 10000 2.5 59 13:36 10.08.2022
2269 Clouds 14 1017 26 10000 2.5 59 13:36 10.08.2022
2270 Clouds 14 1017 30 10000 1.57 70 12:46 10.08.2022
2271 Clouds 13 1016 33 10000 2.04 68 09:55 10.08.2022
2272 Clouds 13 1017 32 10000 2.29 67 08:35 10.08.2022
2273 Clouds 14 1020 30 10000 2.53 68 07:21 10.08.2022
2274 Clouds 16 1018 34 10000 2.61 74 03:35 10.08.2022
2275 Clear 21 1018 21 10000 0 0 23:58 09.08.2022
2276 Clear 21 1019 22 10000 0 0 23:25 09.08.2022
2277 Clear 21 1020 21 10000 2.06 230 21:37 09.08.2022
2278 Clear 21 1019 22 10000 0 0 20:40 09.08.2022
2279 Clear 18 1020 29 10000 0 0 18:45 09.08.2022
2280 Clear 17 1021 30 10000 0 0 17:31 09.08.2022
2281 Clear 16 1021 25 10000 0.71 226 16:42 09.08.2022
2282 Clear 15 1021 24 10000 1.16 85 15:59 09.08.2022
2283 Clear 7 1024 43 10000 0 0 14:28 09.08.2022
2284 Clear 8 1020 45 10000 3.19 78 10:39 09.08.2022
2285 Clear 7 1025 51 10000 3.19 76 08:51 09.08.2022
2286 Clear 7 1025 65 10000 2.59 81 07:54 09.08.2022
2287 Clear 8 1024 63 10000 2.46 85 04:31 09.08.2022
2288 Clear 14 1024 44 10000 0 0 23:46 08.08.2022
2289 Clear 14 1024 39 10000 1.54 0 22:57 08.08.2022
2290 Clear 14 1024 40 10000 1.54 0 22:35 08.08.2022
2291 Clear 15 1021 38 10000 1.54 180 21:30 08.08.2022
2292 Clear 13 1024 48 10000 1.54 230 19:57 08.08.2022
2293 Clear 12 1024 49 10000 1.54 230 19:22 08.08.2022
2294 Clear 10 1026 59 10000 0 0 17:34 08.08.2022
2295 Clear 5 1027 74 10000 0 0 15:46 08.08.2022
2296 Clear 3 1026 82 10000 0 0 14:33 08.08.2022
2297 Clear 4 1026 76 10000 1.93 88 12:29 08.08.2022
2298 Clear 5 1026 82 10000 1.69 88 10:23 08.08.2022
2299 Clear 7 1027 74 10000 2.97 79 06:56 08.08.2022
2300 Clouds 8 1023 77 10000 2.34 79 03:39 08.08.2022
2301 Clouds 11 1025 59 10000 1.54 210 22:52 07.08.2022
2302 Clouds 11 1021 62 10000 0 0 21:41 07.08.2022
2303 Clouds 12 1024 58 10000 1.54 0 20:54 07.08.2022
2304 Clouds 12 1024 58 10000 1.54 0 20:18 07.08.2022
2305 Clouds 11 1024 64 10000 1.54 180 19:50 07.08.2022
2306 Clouds 10 1025 69 10000 2.06 240 18:40 07.08.2022
2307 Clouds 9 1026 71 10000 2.06 0 17:18 07.08.2022
2308 Clear 9 1025 65 10000 2.06 330 16:38 07.08.2022
2309 Clouds 6 1026 81 10000 1.54 350 15:25 07.08.2022
2310 Clouds 6 1028 79 10000 1.66 62 13:44 07.08.2022
2311 Clouds 6 1027 77 10000 1.51 67 12:19 07.08.2022
2312 Clouds 7 1026 80 10000 0.85 59 10:37 07.08.2022
2313 Clouds 8 1027 80 10000 1.1 334 08:26 07.08.2022
2314 Rain 8 1027 78 5546 2.04 29 04:26 07.08.2022
2315 Rain 10 1024 81 1611 3.45 258 01:58 07.08.2022
2316 Rain 12 1020 65 7000 1.03 0 22:30 06.08.2022
2317 Clouds 12 1019 63 7000 1.54 200 21:43 06.08.2022
2318 Haze 12 1021 65 5000 1.03 100 19:42 06.08.2022
2319 Haze 11 1022 68 5000 1.03 0 18:33 06.08.2022
2320 Haze 10 1022 68 5000 1.03 0 17:39 06.08.2022
2321 Rain 9 1021 74 6000 0 0 15:21 06.08.2022
2322 Rain 9 1024 81 10000 0.48 356 13:50 06.08.2022
2323 Clouds 9 1022 64 10000 0.84 274 12:21 06.08.2022
2324 Rain 8 1022 59 10000 0.68 327 10:37 06.08.2022
2325 Clouds 8 1022 62 10000 0.56 326 09:21 06.08.2022
2326 Clouds 10 1022 55 10000 0.74 256 03:56 06.08.2022
2327 Clear 14 1019 42 10000 1.54 230 00:27 06.08.2022
2328 Clouds 16 1017 35 8000 1.03 250 22:34 05.08.2022
2329 Haze 15 1018 39 5000 2.06 270 20:30 05.08.2022
2330 Haze 13 1019 47 5000 1.03 270 18:55 05.08.2022
2331 Haze 13 1017 46 5000 1.03 270 18:36 05.08.2022
2332 Clear 9 1018 54 10000 1.54 230 16:52 05.08.2022
2333 Clear 8 1021 61 10000 0 0 15:24 05.08.2022
2334 Clear 8 1018 65 10000 1.03 70 14:34 05.08.2022
2335 Clear 5 1026 61 10000 0.65 106 13:26 05.08.2022
2336 Clear 6 1026 63 10000 0.65 106 12:59 05.08.2022
2337 Clear 6 1026 59 10000 0.48 81 11:20 05.08.2022
2338 Clear 7 1027 59 10000 0.76 92 08:46 05.08.2022
2339 Clouds 7 1027 59 10000 0.82 93 07:34 05.08.2022
2340 Clear 9 1027 59 10000 0.35 121 04:19 05.08.2022
2341 Haze 15 1022 44 5000 2.57 240 23:18 04.08.2022
2342 Haze 15 1021 45 5000 1.54 0 21:28 04.08.2022
2343 Haze 14 1022 50 5000 1.54 220 20:57 04.08.2022
2344 Haze 14 1022 51 5000 1.54 220 20:37 04.08.2022
2345 Haze 12 1022 57 5000 1.54 260 18:59 04.08.2022
2346 Haze 12 1024 59 5000 1.54 260 18:34 04.08.2022
2347 Haze 4 1023 93 5000 0 0 15:53 04.08.2022
2348 Clear 5 1032 71 10000 0.85 104 13:32 04.08.2022
2349 Clear 6 1031 73 10000 1 90 11:40 04.08.2022
2350 Clear 6 1031 73 10000 0.59 103 10:22 04.08.2022
2351 Clear 6 1031 73 10000 0.59 103 10:22 04.08.2022
2352 Clouds 8 1030 71 10000 0.47 158 07:47 04.08.2022
2353 Clouds 10 1031 68 10000 1.11 209 02:50 04.08.2022
2354 Rain 11 1027 62 5000 2.06 240 00:52 04.08.2022
2355 Haze 11 1026 60 5000 2.06 210 23:41 03.08.2022
2356 Haze 13 1024 60 4000 2.57 230 21:34 03.08.2022
2357 Haze 13 1023 58 4000 2.06 0 20:21 03.08.2022
2358 Haze 13 1023 60 4000 2.06 240 19:24 03.08.2022
2359 Mist 9 1027 82 3000 1.03 280 16:53 03.08.2022
2360 Mist 8 1027 83 3000 1.03 280 16:23 03.08.2022
2361 Clear 7 1026 73 10000 1.16 49 13:53 03.08.2022
2362 Clear 6 1025 71 10000 1.07 92 10:57 03.08.2022
2363 Clear 8 1025 69 10000 0.64 123 07:32 03.08.2022
2364 Clear 10 1024 69 10000 0.44 139 04:22 03.08.2022
2365 Clear 10 1024 70 10000 0.49 186 03:23 03.08.2022
2366 Haze 13 1019 57 4000 1.54 0 00:54 03.08.2022
2367 Haze 15 1017 51 2000 2.57 260 22:43 02.08.2022
2368 Haze 15 1018 52 3000 2.06 0 21:52 02.08.2022
2369 Haze 15 1017 53 3000 1.54 210 20:32 02.08.2022
2370 Haze 11 1017 71 3000 2.06 240 18:34 02.08.2022
2371 Haze 10 1020 69 3000 0 0 15:27 02.08.2022
2372 Clear 10 1024 74 10000 0.83 82 11:30 02.08.2022
2373 Clear 9 1022 79 10000 0.51 83 08:59 02.08.2022
2374 Clouds 9 1022 79 10000 0.32 221 07:52 02.08.2022
2375 Clouds 9 1022 79 10000 0.19 201 06:41 02.08.2022
2376 Clouds 10 1023 80 10000 0.43 222 04:31 02.08.2022
2377 Haze 12 1019 71 3000 2.57 260 23:35 01.08.2022
2378 Haze 14 1016 61 3000 2.57 230 22:22 01.08.2022
2379 Haze 13 1018 62 3000 2.06 0 20:47 01.08.2022
2380 Haze 14 1019 63 3000 1.54 0 19:23 01.08.2022
2381 Haze 11 1018 67 3000 0 0 17:57 01.08.2022
2382 Haze 11 1020 68 3000 0 0 16:52 01.08.2022
2383 Haze 10 1020 69 3000 0 0 15:52 01.08.2022
2384 Haze 10 1020 70 3000 0 0 15:30 01.08.2022
2385 Clouds 8 1024 70 10000 0.53 73 13:48 01.08.2022
2386 Clouds 9 1021 53 10000 0.46 64 11:50 01.08.2022
2387 Clouds 9 1021 53 10000 0.46 64 11:50 01.08.2022
2388 Clouds 8 1024 63 10000 0.47 76 09:39 01.08.2022
2389 Clouds 9 1024 61 10000 0.67 68 08:22 01.08.2022
2390 Clouds 10 1024 65 10000 0.72 105 04:47 01.08.2022
2391 Clouds 12 1024 69 10000 0.23 173 02:32 01.08.2022
2392 Haze 16 1021 50 5000 2.06 250 23:54 31.07.2022
2393 Haze 17 1019 39 5000 1.54 270 22:36 31.07.2022
2394 Haze 17 1019 39 5000 1.54 270 22:36 31.07.2022
2395 Haze 16 1019 39 5000 1.54 280 20:50 31.07.2022
2396 Clouds 16 1020 38 10000 1.96 248 19:40 31.07.2022
2397 Clouds 12 1019 62 6000 0 0 17:44 31.07.2022
2398 Haze 9 1020 59 5000 0 0 15:35 31.07.2022
2399 Clear 12 1019 52 10000 1.65 76 13:41 31.07.2022
2400 Clear 7 1018 48 10000 1.68 71 11:52 31.07.2022
2401 Clear 10 1026 76 10000 1.73 80 09:28 31.07.2022
2402 Clouds 10 1027 77 10000 0.79 87 06:43 31.07.2022
2403 Clouds 11 1025 76 10000 0.57 103 02:57 31.07.2022
2404 Mist 10 1019 81 3000 1.54 240 23:30 30.07.2022
2405 Haze 14 1018 63 4000 1.03 210 22:19 30.07.2022
2406 Haze 13 1020 68 4000 2.06 220 21:47 30.07.2022
2407 Haze 13 1017 61 4000 1.03 0 20:56 30.07.2022
2408 Haze 12 1016 63 4000 1.03 280 19:58 30.07.2022
2409 Mist 13 1016 65 3000 1.03 180 18:51 30.07.2022
2410 Mist 12 1017 68 3000 1.03 190 17:41 30.07.2022
2411 Mist 11 1017 72 4000 0 0 15:38 30.07.2022
2412 Mist 6 1016 100 4000 1.54 60 14:53 30.07.2022
2413 Clouds 15 1016 50 10000 1.8 95 12:55 30.07.2022
2414 Clouds 10 1020 60 10000 0.3 88 11:55 30.07.2022
2415 Clouds 10 1020 57 10000 0.59 101 10:28 30.07.2022
2416 Clouds 10 1018 50 10000 0.59 101 09:46 30.07.2022
2417 Clouds 10 1021 57 10000 1.03 81 07:54 30.07.2022
2418 Clouds 13 1014 61 10000 1.14 72 02:36 30.07.2022
2419 Clouds 14 1014 54 10000 0.47 42 01:46 30.07.2022
2420 Clouds 21 1013 27 7000 2.57 250 22:25 29.07.2022
2421 Clouds 21 1013 24 10000 2.06 260 20:59 29.07.2022
2422 Clear 20 1014 25 10000 0 0 19:48 29.07.2022
2423 Clear 19 1013 32 10000 0 0 17:52 29.07.2022
2424 Clouds 17 1014 26 10000 2.88 79 15:21 29.07.2022
2425 Clear 14 1016 29 10000 3.96 77 12:59 29.07.2022
2426 Clear 15 1015 26 10000 3.78 77 10:35 29.07.2022
2427 Clear 15 1016 28 10000 3.62 75 08:49 29.07.2022
2428 Clear 14 1017 29 10000 2.86 71 07:40 29.07.2022
2429 Clear 12 1020 61 10000 2.35 76 01:47 29.07.2022
2430 Clear 15 1023 49 6000 1.03 190 22:41 28.07.2022
2431 Haze 15 1022 47 5000 0 0 20:59 28.07.2022
2432 Haze 15 1024 50 5000 0 0 20:30 28.07.2022
2433 Haze 14 1025 54 5000 1.54 240 19:42 28.07.2022
2434 Haze 14 1025 55 4000 0 0 18:48 28.07.2022
2435 Haze 13 1025 65 4000 1.03 230 17:43 28.07.2022
2436 Haze 8 1024 87 4000 1.03 120 16:42 28.07.2022
2437 Haze 7 1028 83 4000 1.03 150 15:29 28.07.2022
2438 Clouds 7 1027 88 10000 1.02 100 12:58 28.07.2022
2439 Clouds 8 1027 86 10000 0.34 114 10:36 28.07.2022
2440 Clouds 9 1026 81 10000 0.38 67 06:25 28.07.2022
2441 Clouds 10 1025 79 10000 0.21 145 05:27 28.07.2022
2442 Clouds 11 1024 69 8000 2.06 150 00:45 28.07.2022
2443 Haze 12 1024 72 4000 2.57 200 22:34 27.07.2022
2444 Haze 12 1026 72 4000 0 0 21:27 27.07.2022
2445 Haze 11 1024 78 4000 2.06 200 19:37 27.07.2022
2446 Haze 11 1025 81 4000 1.54 220 17:39 27.07.2022
2447 Mist 11 1024 79 3500 0 0 15:52 27.07.2022
2448 Clouds 10 1024 84 6000 0 0 14:57 27.07.2022
2449 Clouds 9 1024 88 6000 0 0 14:34 27.07.2022
2450 Clouds 10 1024 86 10000 0.3 211 12:49 27.07.2022
2451 Clouds 10 1024 79 10000 0.26 276 07:53 27.07.2022
2452 Clouds 10 1024 78 10000 0.9 280 06:21 27.07.2022
2453 Clouds 12 1023 71 10000 1 236 01:35 27.07.2022
2454 Clouds 15 1023 51 6000 2.06 230 22:26 26.07.2022
2455 Clouds 15 1023 51 8000 2.57 260 21:20 26.07.2022
2456 Clouds 14 1025 55 10000 1.89 254 20:28 26.07.2022
2457 Haze 13 1024 58 5000 0 0 18:43 26.07.2022
2458 Clouds 12 1024 66 6000 1.54 220 17:58 26.07.2022
2459 Clouds 11 1024 69 6000 0 0 16:31 26.07.2022
2460 Haze 9 1023 73 4000 0 0 15:30 26.07.2022
2461 Clouds 7 1021 83 10000 0.62 12 13:38 26.07.2022
2462 Clouds 7 1027 75 10000 0.63 10 11:38 26.07.2022
2463 Clouds 8 1026 75 10000 0.45 306 08:57 26.07.2022
2464 Clouds 9 1024 73 10000 0.58 289 05:53 26.07.2022
2465 Clouds 12 1018 70 10000 1.54 230 00:44 26.07.2022
2466 Haze 13 1017 67 3000 1.54 240 23:32 25.07.2022
2467 Haze 14 1017 64 3000 2.06 210 22:26 25.07.2022
2468 Mist 13 1018 67 2000 2.06 240 21:43 25.07.2022
2469 Haze 14 1016 65 2000 2.57 230 20:41 25.07.2022
2470 Mist 13 1018 70 2000 2.06 240 19:46 25.07.2022
2471 Mist 13 1016 68 2500 2.57 210 18:19 25.07.2022
2472 Mist 13 1016 70 2000 1.03 180 17:27 25.07.2022
2473 Mist 13 1016 70 2000 1.03 180 17:27 25.07.2022
2474 Fog 9 1017 91 300 0 0 14:59 25.07.2022
2475 Clouds 12 1019 75 10000 0.28 340 12:22 25.07.2022
2476 Clouds 10 1017 93 10000 0.17 76 09:58 25.07.2022
2477 Clouds 11 1017 80 10000 0.45 310 04:38 25.07.2022
2478 Haze 13 1019 72 4000 2.57 240 23:54 24.07.2022
2479 Haze 15 1016 60 4000 2.57 240 23:18 24.07.2022
2480 Haze 17 1014 54 4000 2.05 240 22:29 24.07.2022
2481 Haze 18 1016 50 5000 2.57 240 21:23 24.07.2022
2482 Haze 17 1018 52 5000 1.54 260 20:50 24.07.2022
2483 Haze 16 1018 52 5000 1.54 260 20:26 24.07.2022
2484 Haze 15 1020 60 4000 1.54 180 18:48 24.07.2022
2485 Haze 13 1020 63 5000 0 0 16:32 24.07.2022
2486 Haze 11 1020 70 5000 0 0 15:50 24.07.2022
2487 Haze 9 1018 73 5000 1.03 60 14:35 24.07.2022
2488 Clouds 10 1021 60 10000 0.66 67 12:55 24.07.2022
2489 Clouds 9 1023 71 10000 0.94 60 11:40 24.07.2022
2490 Rain 9 1023 71 10000 0.48 60 11:18 24.07.2022
2491 Clouds 10 1021 63 10000 0.79 81 08:48 24.07.2022
2492 Clouds 10 1023 67 10000 0.37 67 07:52 24.07.2022
2493 Clouds 10 1023 70 10000 0.28 16 06:27 24.07.2022
2494 Clear 14 1020 64 10000 0.42 221 01:50 24.07.2022
2495 Haze 19 1017 41 5000 2.06 240 22:25 23.07.2022
2496 Haze 18 1018 45 5000 1.54 0 20:31 23.07.2022
2497 Clouds 17 1019 48 10000 1.34 252 18:51 23.07.2022
2498 Clear 15 1020 49 10000 0 0 17:41 23.07.2022
2499 Clear 15 1020 49 10000 0 0 17:41 23.07.2022
2500 Clear 15 1020 52 10000 0 0 17:23 23.07.2022
2501 Clear 9 1018 72 10000 2.06 60 15:32 23.07.2022
2502 Clear 9 1018 71 10000 0 0 14:59 23.07.2022
2503 Clear 10 1018 69 10000 0 0 14:35 23.07.2022
2504 Clear 9 1024 71 10000 2.03 59 13:39 23.07.2022
2505 Clear 9 1023 68 10000 0.49 98 11:19 23.07.2022
2506 Clear 9 1023 70 10000 1.07 77 10:23 23.07.2022
2507 Clear 11 1020 59 10000 0.76 85 08:55 23.07.2022
2508 Clear 13 1022 54 10000 0.66 171 03:40 23.07.2022
2509 Clear 14 1020 51 10000 0.36 86 01:58 23.07.2022
2510 Clear 20 1016 32 8000 0 0 23:19 22.07.2022
2511 Clear 20 1015 32 10000 1.54 0 20:57 22.07.2022
2512 Clear 19 1015 33 10000 0 0 19:47 22.07.2022
2513 Clear 20 1015 31 10000 1.32 241 18:29 22.07.2022
2514 Clear 17 1016 38 10000 1.03 240 17:28 22.07.2022
2515 Clear 10 1015 57 10000 1.54 30 14:57 22.07.2022
2516 Clear 11 1018 53 10000 2.48 75 11:49 22.07.2022
2517 Clear 4 1017 39 10000 2.39 76 09:43 22.07.2022
2518 Clear 10 1024 55 10000 2.02 81 09:18 22.07.2022
2519 Clear 12 1019 52 10000 1.69 80 07:21 22.07.2022
2520 Clear 12 1019 58 10000 1.55 85 03:59 22.07.2022
2521 Haze 18 1017 37 4000 1.54 290 22:53 21.07.2022
2522 Haze 19 1017 38 4000 1.54 0 21:34 21.07.2022
2523 Clear 18 1019 39 10000 1.77 229 19:31 21.07.2022
2524 Haze 16 1019 39 5000 2.06 340 18:28 21.07.2022
2525 Clouds 15 1016 47 6000 2.06 220 17:20 21.07.2022
2526 Clear 10 1016 62 6000 1.54 0 15:39 21.07.2022
2527 Clear 10 1018 56 8000 1.54 300 14:44 21.07.2022
2528 Clear 12 1018 52 10000 3.07 78 12:54 21.07.2022
2529 Clear 11 1017 47 10000 3.01 77 11:23 21.07.2022
2530 Clear 12 1017 48 10000 3.11 71 09:44 21.07.2022
2531 Clear 11 1019 60 10000 2.88 71 08:53 21.07.2022
2532 Clear 9 1020 67 10000 2.15 77 07:50 21.07.2022
2533 Clear 10 1019 67 10000 1.56 88 06:25 21.07.2022
2534 Clear 14 1017 52 10000 2.05 75 01:54 21.07.2022
2535 Clear 18 1017 37 8000 2.06 240 22:24 20.07.2022
2536 Clear 19 1014 37 8000 3.09 240 21:49 20.07.2022
2537 Clear 19 1016 34 10000 1.54 0 20:45 20.07.2022
2538 Clear 18 1017 36 10000 0 0 19:46 20.07.2022
2539 Clear 16 1018 37 10000 1.54 290 18:53 20.07.2022
2540 Clear 16 1019 38 10000 1.54 290 18:30 20.07.2022
2541 Clear 14 1017 45 10000 1.54 230 16:49 20.07.2022
2542 Clear 10 1018 54 10000 1.54 30 15:32 20.07.2022
2543 Clear 9 1015 57 10000 0 0 14:35 20.07.2022
2544 Clear 11 1015 39 10000 3.09 71 12:41 20.07.2022
2545 Clear 12 1014 35 10000 3.14 71 10:29 20.07.2022
2546 Clear 13 1018 45 10000 2.6 70 05:52 20.07.2022
2547 Clear 16 1018 40 10000 0 0 00:58 20.07.2022
2548 Clear 17 1018 39 10000 0 0 00:40 20.07.2022
2549 Clear 19 1017 27 10000 2.06 240 22:35 19.07.2022
2550 Clear 20 1018 29 10000 1.03 250 21:54 19.07.2022
2551 Clear 20 1017 27 10000 1.54 270 20:49 19.07.2022
2552 Clear 18 1019 28 10000 1.54 230 19:22 19.07.2022
2553 Clear 18 1018 28 10000 1.03 210 18:35 19.07.2022
2554 Clear 17 1018 30 10000 0 0 17:53 19.07.2022
2555 Clear 13 1021 38 10000 2.96 75 15:27 19.07.2022
2556 Clear 10 1021 36 10000 3.53 74 13:33 19.07.2022
2557 Clear 10 1019 37 10000 3.51 76 11:32 19.07.2022
2558 Clear 11 1022 39 10000 3.47 74 09:52 19.07.2022
2559 Clear 11 1020 36 10000 3.43 73 08:47 19.07.2022
2560 Clear 11 1021 38 10000 3.36 73 07:46 19.07.2022
2561 Clear 12 1021 38 10000 3.42 75 07:18 19.07.2022
2562 Clear 11 1024 42 10000 3.21 73 05:18 19.07.2022
2563 Clear 11 1026 46 10000 2.91 72 02:38 19.07.2022
2564 Clear 16 1023 36 10000 1.54 260 23:57 18.07.2022
2565 Clear 17 1023 28 10000 1.54 260 23:20 18.07.2022
2566 Clear 17 1023 26 10000 1.54 220 22:27 18.07.2022
2567 Clear 16 1023 28 10000 1.54 240 21:24 18.07.2022
2568 Clear 15 1023 31 10000 0 0 20:34 18.07.2022
2569 Clear 14 1024 34 10000 1.54 220 18:50 18.07.2022
2570 Clouds 11 1024 44 10000 0 0 16:45 18.07.2022
2571 Clouds 6 1022 58 10000 0 0 15:34 18.07.2022
2572 Clouds 9 1026 48 10000 2.23 76 13:32 18.07.2022
2573 Clouds 9 1024 45 10000 3.1 66 11:44 18.07.2022
2574 Clear 9 1024 49 10000 2.6 70 09:56 18.07.2022
2575 Clouds 9 1026 49 10000 2.91 62 08:19 18.07.2022
2576 Clouds 10 1026 51 10000 2.23 69 05:35 18.07.2022
2577 Clouds 11 1023 49 10000 0 0 23:19 17.07.2022
2578 Clouds 11 1023 50 10000 1.03 200 22:32 17.07.2022
2579 Clouds 10 1023 48 10000 1.54 270 21:40 17.07.2022
2580 Clouds 11 1023 48 10000 1.03 200 20:46 17.07.2022
2581 Clouds 10 1023 44 10000 1.03 200 20:18 17.07.2022
2582 Clouds 10 1024 51 10000 1.54 220 19:25 17.07.2022
2583 Clouds 8 1025 48 10000 0 0 17:55 17.07.2022
2584 Clouds 9 1024 44 10000 0 0 17:36 17.07.2022
2585 Clouds 8 1023 50 10000 1.54 30 16:45 17.07.2022
2586 Clouds 8 1023 54 10000 1.54 30 16:22 17.07.2022
2587 Clouds 6 1027 45 10000 1.69 49 13:58 17.07.2022
2588 Clouds 5 1029 56 10000 1.34 58 13:24 17.07.2022
2589 Clouds 6 1028 54 10000 1.46 68 10:23 17.07.2022
2590 Clouds 6 1029 48 10000 2.35 90 07:55 17.07.2022
2591 Clouds 5 1030 48 10000 2.98 81 02:36 17.07.2022
2592 Clear 9 1026 46 10000 1.54 240 00:33 17.07.2022
2593 Clouds 11 1025 43 10000 1.54 260 23:18 16.07.2022
2594 Clouds 10 1026 50 10000 0 0 20:53 16.07.2022
2595 Clouds 8 1031 57 10000 1.54 160 18:59 16.07.2022
2596 Clouds 8 1030 63 10000 0 0 17:48 16.07.2022
2597 Clear 6 1031 71 10000 0 0 16:23 16.07.2022
2598 Clouds 1 1033 66 10000 2.5 77 13:36 16.07.2022
2599 Clouds 3 1030 64 10000 1.82 68 10:35 16.07.2022
2600 Clouds 4 1029 81 3281 2.43 77 09:29 16.07.2022
2601 Clouds 4 1029 82 3281 2.43 77 08:42 16.07.2022
2602 Clouds 4 1029 82 4116 1.87 84 07:41 16.07.2022
2603 Rain 5 1026 73 10000 0.36 23 03:39 16.07.2022
2604 Clouds 6 1024 77 10000 1.29 34 01:39 16.07.2022
2605 Clouds 8 1022 70 10000 0 0 23:21 15.07.2022
2606 Clouds 8 1022 73 8000 2.06 280 22:37 15.07.2022
2607 Rain 8 1021 76 6000 0 0 20:47 15.07.2022
2608 Mist 8 1020 79 4000 1.03 180 19:51 15.07.2022
2609 Rain 8 1020 77 4000 1.54 250 18:32 15.07.2022
2610 Snow 7 1020 78 8000 1.03 100 17:25 15.07.2022
2611 Clouds 5 1018 81 8000 0 0 14:35 15.07.2022
2612 Clouds 5 1021 79 10000 0.89 74 12:43 15.07.2022
2613 Rain 5 1019 79 10000 1.63 80 10:53 15.07.2022
2614 Rain 5 1020 75 10000 1.51 76 07:55 15.07.2022
2615 Clouds 6 1022 81 10000 1.85 73 05:55 15.07.2022
2616 Clouds 7 1020 79 10000 2.57 210 00:51 15.07.2022
2617 Clouds 8 1018 74 10000 2.57 50 23:25 14.07.2022
2618 Clouds 9 1017 66 8000 2.57 0 22:42 14.07.2022
2619 Clouds 9 1016 64 10000 2.06 330 21:42 14.07.2022
2620 Clouds 9 1016 64 10000 2.06 330 21:24 14.07.2022
2621 Clouds 10 1015 57 10000 1.54 350 20:43 14.07.2022
2622 Clouds 10 1015 57 10000 1.54 350 20:43 14.07.2022
2623 Clouds 10 1015 57 10000 1.54 350 20:19 14.07.2022
2624 Clouds 9 1016 57 10000 2.06 20 18:38 14.07.2022
2625 Clouds 5 1018 89 8000 2.06 0 16:21 14.07.2022
2626 Clouds 5 1020 86 7000 0.51 0 15:26 14.07.2022
2627 Clouds 6 1022 82 2435 0.97 75 13:52 14.07.2022
2628 Rain 5 1021 82 2549 1.2 197 12:40 14.07.2022
2629 Rain 5 1023 80 167 3.61 251 11:41 14.07.2022
2630 Rain 6 1023 83 640 3.67 264 11:21 14.07.2022
2631 Rain 7 1018 86 1286 2.54 289 09:49 14.07.2022
2632 Clouds 9 1018 81 10000 1.34 10 05:20 14.07.2022
2633 Rain 10 1019 67 10000 0.38 186 01:22 14.07.2022
2634 Clouds 9 1017 68 8000 0 0 00:52 14.07.2022
2635 Rain 10 1017 65 8000 3.6 180 22:32 13.07.2022
2636 Clouds 10 1017 63 8000 3.6 180 21:54 13.07.2022
2637 Clouds 10 1016 63 6000 3.09 200 20:45 13.07.2022
2638 Clouds 12 1013 55 8000 4.63 190 19:19 13.07.2022
2639 Clouds 11 1015 57 10000 1.03 0 17:42 13.07.2022
2640 Clouds 11 1014 55 10000 1.03 0 16:29 13.07.2022
2641 Clouds 8 1015 65 10000 1.03 0 15:24 13.07.2022
2642 Clouds 7 1018 58 10000 2.5 57 12:55 13.07.2022
2643 Clouds 6 1022 66 10000 2.44 57 10:45 13.07.2022
2644 Clouds 3 1014 44 10000 2.38 60 09:58 13.07.2022
2645 Clouds 3 1015 44 10000 2.28 61 09:21 13.07.2022
2646 Clouds 8 1024 65 10000 2.36 60 06:19 13.07.2022
2647 Clouds 11 1022 59 10000 1.39 65 01:27 13.07.2022
2648 Clear 15 1019 45 10000 1.03 0 23:42 12.07.2022
2649 Clear 16 1019 43 10000 1.54 240 21:55 12.07.2022
2650 Clear 15 1020 42 10000 1.54 240 21:29 12.07.2022
2651 Clouds 14 1020 44 10000 1.03 150 20:41 12.07.2022
2652 Clouds 13 1021 50 10000 1.54 280 19:26 12.07.2022
2653 Clouds 12 1022 49 10000 0 0 17:49 12.07.2022
2654 Clouds 9 1024 66 10000 1.03 0 15:57 12.07.2022
2655 Clouds 6 1025 70 10000 0 0 14:30 12.07.2022
2656 Clouds 6 1028 55 10000 1.98 65 12:29 12.07.2022
2657 Clouds 6 1028 64 10000 1.82 71 11:22 12.07.2022
2658 Clouds 6 1030 65 10000 1.8 75 09:42 12.07.2022
2659 Clouds 6 1030 58 10000 2.08 81 08:23 12.07.2022
2660 Clouds 6 1032 59 10000 2.79 75 06:49 12.07.2022
2661 Clear 6 1032 58 10000 2.7 78 05:42 12.07.2022
2662 Clouds 6 1030 64 10000 2.83 78 02:32 12.07.2022
2663 Clouds 11 1029 66 10000 0 0 23:28 11.07.2022
2664 Clouds 11 1029 64 10000 1.03 0 22:30 11.07.2022
2665 Clouds 10 1029 71 10000 1.03 0 20:41 11.07.2022
2666 Clouds 10 1029 70 8000 0.51 0 19:44 11.07.2022
2667 Clouds 9 1030 77 7000 1.54 0 18:32 11.07.2022
2668 Clouds 9 1030 77 7000 1.54 0 18:32 11.07.2022
2669 Mist 9 1030 83 5000 0 0 17:49 11.07.2022
2670 Clouds 7 1029 85 4000 1.03 0 16:20 11.07.2022
2671 Haze 8 1027 79 5000 0 0 14:41 11.07.2022
2672 Clouds 7 1026 86 6199 0.14 261 11:58 11.07.2022
2673 Clouds 7 1025 86 6184 0.41 286 10:35 11.07.2022
2674 Rain 6 1025 85 6329 0.8 243 09:43 11.07.2022
2675 Clouds 7 1025 85 9396 0.53 216 08:34 11.07.2022
2676 Rain 7 1024 84 6161 1.33 41 05:52 11.07.2022
2677 Clouds 7 1022 84 5000 0 0 00:22 11.07.2022
2678 Rain 7 1021 84 6000 0 0 23:28 10.07.2022
2679 Rain 7 1020 82 5000 3.6 230 21:55 10.07.2022
2680 Rain 9 1020 78 10000 1.54 0 20:54 10.07.2022
2681 Rain 10 1017 76 10000 0 0 19:50 10.07.2022
2682 Rain 9 1017 84 10000 1.54 0 18:50 10.07.2022
2683 Rain 9 1020 82 6000 1.03 0 17:41 10.07.2022
2684 Clouds 8 1022 81 9827 1.31 18 16:58 10.07.2022
2685 Clouds 9 1022 79 7674 1.59 15 16:20 10.07.2022
2686 Clouds 7 1022 83 8405 2.05 54 14:33 10.07.2022
2687 Clouds 7 1021 84 10000 2.59 61 12:33 10.07.2022
2688 Clouds 7 1021 85 10000 2.37 60 11:34 10.07.2022
2689 Clouds 7 1021 84 10000 1.9 37 09:28 10.07.2022
2690 Clouds 7 1022 83 10000 1.9 37 08:38 10.07.2022
2691 Rain 7 1022 83 10000 2.05 42 05:36 10.07.2022
2692 Clouds 9 1017 69 10000 4.12 350 23:32 09.07.2022
2693 Clouds 8 1016 77 10000 3.09 360 22:26 09.07.2022
2694 Clouds 8 1016 77 10000 3.09 360 22:26 09.07.2022
2695 Rain 8 1017 79 3000 2.06 290 21:31 09.07.2022
2696 Haze 10 1015 64 5000 2.06 210 19:19 09.07.2022
2697 Clouds 11 1013 61 7000 2.57 0 18:23 09.07.2022
2698 Clouds 11 1011 64 7000 2.06 0 17:18 09.07.2022
2699 Haze 9 1015 78 4000 0 0 15:56 09.07.2022
2700 Haze 9 1012 77 4000 0 0 15:36 09.07.2022
2701 Clear 8 1014 80 10000 1.54 25 13:54 09.07.2022
2702 Clear 8 1014 81 10000 0.85 19 13:28 09.07.2022
2703 Clear 9 1012 80 10000 1.64 34 11:40 09.07.2022
2704 Clear 9 1013 81 10000 0.96 11 10:25 09.07.2022
2705 Clear 9 1014 81 10000 1.17 37 09:23 09.07.2022
2706 Clear 10 1015 82 10000 0.75 37 07:43 09.07.2022
2707 Clear 10 1016 80 10000 0.79 53 04:38 09.07.2022
2708 Clear 13 1015 68 8000 2.57 250 23:33 08.07.2022
2709 Clear 14 1016 64 8000 2.57 250 22:18 08.07.2022
2710 Clear 17 1013 53 8000 3.6 250 21:21 08.07.2022
2711 Clear 16 1015 56 8000 2.06 240 20:35 08.07.2022
2712 Clear 16 1016 58 10000 2.57 0 18:45 08.07.2022
2713 Clear 15 1015 61 10000 1.54 0 17:45 08.07.2022
2714 Clouds 13 1016 64 10000 2.06 0 16:24 08.07.2022
2715 Haze 10 1015 81 8000 2.57 30 14:50 08.07.2022
2716 Clouds 10 1018 58 10000 2.49 35 12:31 08.07.2022
2717 Clouds 10 1013 59 10000 1.97 13 10:46 08.07.2022
2718 Clouds 8 1013 62 10000 1.91 80 09:42 08.07.2022
2719 Clouds 4 1013 30 10000 2.06 74 06:55 08.07.2022
2720 Clouds 11 1014 26 10000 2.29 68 05:33 08.07.2022
2721 Clear 12 1014 55 10000 2.09 69 00:30 08.07.2022
2722 Clear 17 1013 42 10000 1.54 270 22:47 07.07.2022
2723 Clear 16 1013 40 10000 1.03 280 21:41 07.07.2022
2724 Clear 16 1013 40 10000 1.54 250 19:34 07.07.2022
2725 Clear 11 1017 62 10000 1.03 240 17:43 07.07.2022
2726 Clear 14 1014 45 10000 1.46 70 15:58 07.07.2022
2727 Clouds -1 1018 37 10000 3.12 71 13:32 07.07.2022
2728 Clouds 0 1018 37 10000 2.95 75 12:40 07.07.2022
2729 Clouds 0 1018 38 10000 2.77 75 12:21 07.07.2022
2730 Clouds -1 1018 38 10000 2.77 75 11:32 07.07.2022
2731 Clear 1 1018 38 10000 2.47 73 10:45 07.07.2022
2732 Clear 1 1019 38 10000 2.53 74 10:26 07.07.2022
2733 Clouds 6 1029 67 10000 2.4 75 08:21 07.07.2022
2734 Clouds 6 1025 81 10000 2.62 79 05:23 07.07.2022
2735 Clouds 9 1024 72 10000 1.25 97 23:54 06.07.2022
2736 Clouds 8 1024 74 10000 1.25 97 23:36 06.07.2022
2737 Clouds 8 1024 73 10000 0.91 141 23:18 06.07.2022
2738 Clouds 8 1023 75 7000 0.91 141 22:46 06.07.2022
2739 Clouds 8 1022 75 7000 0.26 354 22:28 06.07.2022
2740 Clouds 9 1021 67 6000 2.06 210 19:45 06.07.2022
2741 Clouds 8 1021 69 6000 1.54 180 18:41 06.07.2022
2742 Haze 6 1021 78 5000 1.03 0 16:45 06.07.2022
2743 Clouds 7 1022 67 10000 2.06 350 15:39 06.07.2022
2744 Clouds 5 1022 76 10000 1.34 51 12:44 06.07.2022
2745 Clouds 5 1021 73 10000 0.35 24 11:49 06.07.2022
2746 Clouds 5 1020 73 10000 0.65 7 10:33 06.07.2022
2747 Clear 6 1020 71 10000 1.26 35 08:43 06.07.2022
2748 Clouds 6 1021 73 10000 0.45 317 07:39 06.07.2022
2749 Clouds 7 1021 64 10000 1.61 45 05:37 06.07.2022
2750 Clear 14 1020 38 7000 2.06 270 22:49 05.07.2022
2751 Clear 14 1020 37 7000 2.06 270 22:28 05.07.2022
2752 Clear 14 1021 37 10000 1.54 260 20:42 05.07.2022
2753 Clear 13 1022 40 10000 1.54 240 19:44 05.07.2022
2754 Clear 13 1022 39 10000 1.54 240 19:26 05.07.2022
2755 Clear 11 1023 44 10000 0 0 17:48 05.07.2022
2756 Clear 8 1024 51 10000 0 0 16:57 05.07.2022
2757 Clear 4 1025 70 10000 0 0 15:38 05.07.2022
2758 Clear 3 1026 72 10000 0 0 14:33 05.07.2022
2759 Clear 4 1030 61 10000 1.78 69 12:52 05.07.2022
2760 Clear 5 1028 55 10000 1.73 66 12:19 05.07.2022
2761 Clear 5 1028 54 10000 1.73 64 10:44 05.07.2022
2762 Clear 6 1031 57 10000 1.38 85 09:28 05.07.2022
2763 Clear 6 1031 56 10000 0.8 96 08:18 05.07.2022
2764 Clear 7 1029 54 10000 0.85 93 05:45 05.07.2022
2765 Clear 8 1028 50 10000 0.86 91 04:26 05.07.2022
2766 Haze 12 1025 48 5000 0 0 00:38 05.07.2022
2767 Haze 13 1025 41 5000 0 0 23:34 04.07.2022
2768 Clear 13 1028 45 10000 1.55 235 22:50 04.07.2022
2769 Clear 13 1025 41 6000 0 0 21:48 04.07.2022
2770 Clear 13 1025 42 10000 1.54 0 20:54 04.07.2022
2771 Clear 13 1025 42 10000 1.54 0 20:34 04.07.2022
2772 Clear 12 1025 42 10000 1.54 0 19:55 04.07.2022
2773 Clear 12 1026 42 10000 1.54 0 19:36 04.07.2022
2774 Clear 11 1027 47 10000 0 0 18:18 04.07.2022
2775 Clear 5 1027 61 10000 0 0 15:58 04.07.2022
2776 Clear 4 1028 69 10000 0 0 15:33 04.07.2022
2777 Clear 5 1029 51 10000 1.8 79 13:29 04.07.2022
2778 Clear 5 1028 59 10000 1.8 79 12:30 04.07.2022
2779 Clear 7 1027 52 10000 1.61 67 10:34 04.07.2022
2780 Clear 7 1028 53 10000 1.54 63 09:52 04.07.2022
2781 Clouds 7 1028 60 10000 1.1 57 08:24 04.07.2022
2782 Clouds 8 1027 55 10000 0.94 19 04:57 04.07.2022
2783 Clouds 7 1022 73 10000 0 0 00:39 04.07.2022
2784 Clouds 8 1021 68 10000 1.03 0 22:59 03.07.2022
2785 Clouds 9 1023 68 10000 0 0 20:58 03.07.2022
2786 Clouds 9 1023 68 10000 0 0 20:31 03.07.2022
2787 Clouds 8 1021 68 10000 0 0 19:28 03.07.2022
2788 Clouds 8 1023 73 10000 1.03 0 18:43 03.07.2022
2789 Clouds 7 1024 71 10000 1.03 0 17:44 03.07.2022
2790 Clouds 6 1020 74 10000 1.03 0 15:55 03.07.2022
2791 Clouds 5 1022 79 10000 0 0 14:59 03.07.2022
2792 Clouds 5 1019 80 10000 0 0 14:20 03.07.2022
2793 Clouds 6 1021 74 10000 0.77 71 13:48 03.07.2022
2794 Clouds 6 1020 71 10000 0.78 76 12:33 03.07.2022
2795 Clouds 6 1020 73 10000 1.22 68 11:29 03.07.2022
2796 Clouds 6 1020 72 10000 1.22 68 10:39 03.07.2022
2797 Clouds 6 1020 73 10000 0.87 79 09:55 03.07.2022
2798 Clouds 6 1022 66 10000 1.97 72 07:35 03.07.2022
2799 Clouds 7 1023 70 10000 3.22 77 04:22 03.07.2022
2800 Clear 10 1021 62 10000 1.03 230 00:22 03.07.2022
2801 Clouds 12 1022 52 10000 2.57 0 22:34 02.07.2022
2802 Clouds 12 1023 55 10000 2.06 250 21:28 02.07.2022
2803 Clear 10 1024 64 10000 2.06 150 19:52 02.07.2022
2804 Clear 10 1023 60 10000 2.06 150 19:23 02.07.2022
2805 Clear 9 1024 65 10000 0 0 17:51 02.07.2022
2806 Clear 9 1025 63 10000 0 0 17:33 02.07.2022
2807 Clouds 4 1023 78 10000 0 0 14:52 02.07.2022
2808 Clouds 4 1023 76 10000 2.5 63 12:22 02.07.2022
2809 Clouds 4 1023 73 10000 2.78 61 11:27 02.07.2022
2810 Clouds 4 1024 73 10000 2.78 61 10:43 02.07.2022
2811 Clouds 4 1024 78 10000 2.92 72 09:25 02.07.2022
2812 Clouds 5 1024 76 10000 2.92 72 08:36 02.07.2022
2813 Clouds 5 1024 75 10000 2.81 78 08:18 02.07.2022
2814 Clouds 7 1021 81 10000 2.6 61 02:51 02.07.2022
2815 Clouds 8 1019 69 10000 0 0 00:26 02.07.2022
2816 Clouds 9 1021 77 10000 3.09 20 22:58 01.07.2022
2817 Clouds 7 1019 79 10000 3.09 40 21:49 01.07.2022
2818 Clouds 7 1019 81 10000 3.09 40 21:29 01.07.2022
2819 Clouds 6 1019 83 5000 3.09 50 20:56 01.07.2022
2820 Clouds 7 1020 85 4000 2.57 70 19:47 01.07.2022
2821 Clouds 7 1021 85 6000 2.06 100 17:58 01.07.2022
2822 Rain 7 1020 82 5000 3.09 120 16:24 01.07.2022
2823 Rain 9 1022 75 7095 2.31 285 13:55 01.07.2022
2824 Clouds 11 1022 49 10000 2.73 268 12:59 01.07.2022
2825 Clouds 12 1020 64 10000 2.68 1 10:46 01.07.2022
2826 Clouds 12 1020 63 10000 1.95 340 10:18 01.07.2022
2827 Clear 12 1021 70 10000 1.04 339 05:27 01.07.2022
2828 Clouds 15 1020 50 10000 0.57 2 01:27 01.07.2022
2829 Clear 18 1017 29 10000 1.54 160 23:26 30.06.2022
2830 Clouds 18 1017 30 8000 2.06 200 22:44 30.06.2022
2831 Clouds 18 1017 30 8000 2.06 200 22:26 30.06.2022
2832 Clouds 19 1017 33 8000 1.03 0 21:48 30.06.2022
2833 Clouds 17 1018 36 8000 2.57 250 20:30 30.06.2022
2834 Clouds 16 1019 40 8000 2.06 170 19:55 30.06.2022
2835 Clouds 16 1017 41 8000 2.06 170 19:32 30.06.2022
2836 Clouds 15 1017 39 8000 1.54 230 18:43 30.06.2022
2837 Clouds 14 1017 44 10000 1.03 350 17:49 30.06.2022
2838 Clouds 7 1016 29 10000 0.58 301 16:55 30.06.2022
2839 Clouds 7 1018 70 10000 0 0 15:44 30.06.2022
2840 Clouds 10 1024 51 10000 2.32 64 13:50 30.06.2022
2841 Clouds 9 1025 58 10000 2.1 66 12:36 30.06.2022
2842 Clouds 10 1025 54 10000 1.76 70 11:59 30.06.2022
2843 Clouds 10 1025 54 10000 1.1 64 09:55 30.06.2022
2844 Clouds 10 1025 51 10000 1.1 64 09:37 30.06.2022
2845 Clouds 10 1027 57 10000 1.77 47 08:19 30.06.2022
2846 Clouds 10 1027 57 10000 1.59 50 07:40 30.06.2022
2847 Clouds 13 1027 56 10000 0.72 65 02:49 30.06.2022
2848 Clouds 16 1024 36 6000 2.06 210 23:38 29.06.2022
2849 Clouds 17 1024 25 10000 2.06 180 22:41 29.06.2022
2850 Clouds 16 1024 34 9000 2.57 0 21:58 29.06.2022
2851 Clouds 17 1024 33 9000 2.57 240 20:34 29.06.2022
2852 Clouds 16 1024 32 10000 0 0 19:55 29.06.2022
2853 Clear 12 1025 44 10000 1.54 260 17:55 29.06.2022
2854 Clear 10 1025 53 10000 0 0 16:51 29.06.2022
2855 Clear 8 1025 61 10000 1.54 30 15:33 29.06.2022
2856 Clouds 1 1021 43 10000 1.24 45 13:36 29.06.2022
2857 Clouds 8 1027 57 10000 0.45 78 12:24 29.06.2022
2858 Clouds 9 1028 54 10000 0.83 48 09:43 29.06.2022
2859 Clouds 8 1028 56 10000 0.94 46 09:21 29.06.2022
2860 Clouds 9 1028 54 10000 1.23 49 06:28 29.06.2022
2861 Clouds 11 1029 46 10000 1.21 60 02:59 29.06.2022
2862 Clouds 14 1026 41 8000 0 0 00:52 29.06.2022
2863 Clouds 14 1026 41 8000 0 0 00:33 29.06.2022
2864 Clouds 18 1023 23 10000 0 0 22:49 28.06.2022
2865 Clear 17 1024 31 10000 0 0 21:57 28.06.2022
2866 Clear 17 1024 31 10000 0 0 21:38 28.06.2022
2867 Clear 15 1027 39 10000 0 0 20:57 28.06.2022
2868 Clouds 13 1029 41 10000 0 0 19:50 28.06.2022
2869 Clouds 13 1029 42 10000 0 0 19:24 28.06.2022
2870 Clear 12 1026 48 10000 2.06 0 18:38 28.06.2022
2871 Clear 10 1030 49 10000 0 0 16:47 28.06.2022
2872 Clear 6 1031 70 10000 0 0 15:54 28.06.2022
2873 Clear 5 1032 71 10000 0 0 14:48 28.06.2022
2874 Clear 4 1032 73 10000 0 0 14:18 28.06.2022
2875 Clouds 7 1036 60 10000 2.25 82 13:45 28.06.2022
2876 Clouds 7 1035 56 10000 3.06 75 11:58 28.06.2022
2877 Clouds 7 1036 67 10000 2.52 77 09:52 28.06.2022
2878 Clear 8 1035 56 10000 2.84 74 08:55 28.06.2022
2879 Clouds 8 1035 60 10000 2.8 78 08:26 28.06.2022
2880 Clouds 8 1036 64 10000 1.61 83 07:20 28.06.2022
2881 Clouds 11 1034 68 10000 1.42 343 02:42 28.06.2022
2882 Clouds 11 1024 58 8000 1.03 0 23:49 27.06.2022
2883 Clouds 12 1024 57 8000 1.03 0 23:25 27.06.2022
2884 Clouds 12 1027 54 10000 4.63 210 21:53 27.06.2022
2885 Clouds 12 1026 53 10000 4.63 210 21:21 27.06.2022
2886 Clouds 13 1025 46 10000 2.57 210 19:54 27.06.2022
2887 Clear 12 1025 49 10000 2.57 240 18:45 27.06.2022
2888 Clear 13 1024 44 10000 1.54 220 17:33 27.06.2022
2889 Clear 9 1026 53 10000 0.88 350 15:44 27.06.2022
2890 Clear 4 1023 65 10000 0 0 14:18 27.06.2022
2891 Clouds 4 1020 57 10000 2.12 68 12:58 27.06.2022
2892 Clouds 6 1027 55 10000 1.65 63 11:30 27.06.2022
2893 Clouds 6 1027 58 10000 1.39 77 09:45 27.06.2022
2894 Clouds 7 1026 59 10000 1.22 77 08:43 27.06.2022
2895 Clouds 7 1027 58 10000 1.08 94 07:39 27.06.2022
2896 Clouds 8 1027 62 10000 1.05 70 05:22 27.06.2022
2897 Clouds 10 1026 63 10000 0.69 216 01:22 27.06.2022
2898 Clouds 12 1021 60 6000 0 0 22:59 26.06.2022
2899 Clouds 12 1022 61 7000 1.54 240 21:38 26.06.2022
2900 Clouds 12 1022 59 7000 1.54 190 20:28 26.06.2022
2901 Clouds 10 1023 63 6000 0 0 18:33 26.06.2022
2902 Clouds 10 1023 65 7000 0 0 17:40 26.06.2022
2903 Clouds 6 1024 78 7000 0 0 15:36 26.06.2022
2904 Clouds 6 1023 75 7000 0 0 14:22 26.06.2022
2905 Clouds 7 1026 63 10000 0.07 336 13:24 26.06.2022
2906 Clouds 7 1025 60 10000 0.69 38 11:41 26.06.2022
2907 Clouds 7 1024 57 10000 1.01 47 10:42 26.06.2022
2908 Clouds 8 1024 57 10000 1 20 09:58 26.06.2022
2909 Clouds 8 1024 56 10000 0.31 359 07:47 26.06.2022
2910 Clouds 9 1024 56 10000 0.84 50 06:19 26.06.2022
2911 Clear 13 1019 52 10000 0 0 00:37 26.06.2022
2912 Clear 13 1019 52 10000 0 0 00:37 26.06.2022
2913 Clear 13 1018 52 10000 0 0 00:18 26.06.2022
2914 Clear 15 1018 46 10000 0 0 23:31 25.06.2022
2915 Clear 15 1018 41 10000 1.54 250 22:46 25.06.2022
2916 Clear 15 1018 42 10000 1.54 250 22:24 25.06.2022
2917 Clouds 15 1019 44 10000 1.54 220 21:21 25.06.2022
2918 Clear 15 1019 41 10000 1.54 0 20:36 25.06.2022
2919 Clear 14 1016 38 10000 2.06 0 19:59 25.06.2022
2920 Clouds 14 1021 42 10000 0.57 273 18:22 25.06.2022
2921 Clear 13 1019 47 10000 0.51 0 17:26 25.06.2022
2922 Clear 10 1019 60 10000 0 0 16:26 25.06.2022
2923 Clear 6 1020 72 10000 1.54 30 14:31 25.06.2022
2924 Clouds 8 1023 67 10000 1.92 67 12:46 25.06.2022
2925 Clouds 8 1023 68 10000 1.6 71 11:55 25.06.2022
2926 Clouds 9 1023 69 10000 1.31 51 09:24 25.06.2022
2927 Clouds 9 1023 69 10000 1.31 51 09:24 25.06.2022
2928 Clouds 10 1023 68 10000 1.31 51 08:49 25.06.2022
2929 Clouds 10 1023 69 10000 1.25 56 08:20 25.06.2022
2930 Clouds 10 1025 65 10000 1.19 69 06:34 25.06.2022
2931 Clouds 10 1023 70 9000 0 0 00:45 25.06.2022
2932 Clouds 11 1024 64 9000 0 0 23:54 24.06.2022
2933 Clouds 11 1023 59 10000 0 0 22:25 24.06.2022
2934 Clouds 11 1023 57 10000 1.54 230 21:22 24.06.2022
2935 Clouds 12 1022 55 10000 0 0 20:23 24.06.2022
2936 Clouds 13 1025 48 10000 0.96 239 19:24 24.06.2022
2937 Clouds 12 1023 53 10000 0 0 18:51 24.06.2022
2938 Clouds 12 1023 53 10000 0 0 18:31 24.06.2022
2939 Clouds 11 1023 55 10000 0 0 17:49 24.06.2022
2940 Clouds 11 1026 52 10000 0.56 283 16:45 24.06.2022
2941 Clouds 11 1026 52 10000 0.56 283 16:45 24.06.2022
2942 Clear 6 1023 72 10000 1.54 50 14:30 24.06.2022
2943 Clouds 8 1026 59 10000 2.49 72 13:58 24.06.2022
2944 Clouds 8 1027 61 10000 2.51 70 12:49 24.06.2022
2945 Clouds 8 1026 65 10000 2.64 73 11:40 24.06.2022
2946 Clouds 9 1026 62 10000 2.42 72 10:34 24.06.2022
2947 Clouds 9 1025 65 10000 2.14 77 09:41 24.06.2022
2948 Clouds 9 1026 65 10000 2.15 70 08:53 24.06.2022
2949 Clouds 9 1026 65 10000 2.15 70 08:53 24.06.2022
2950 Clouds 9 1026 61 10000 1.89 74 07:39 24.06.2022
2951 Clouds 9 1026 62 10000 1.46 70 06:42 24.06.2022
2952 Clouds 10 1026 59 10000 1.92 79 06:18 24.06.2022
2953 Clouds 10 1026 69 10000 1.8 73 03:47 24.06.2022
2954 Clouds 12 1017 62 10000 0 0 23:19 23.06.2022
2955 Clouds 12 1017 62 10000 2.06 120 22:40 23.06.2022
2956 Clouds 11 1017 76 10000 0 0 20:59 23.06.2022
2957 Clouds 11 1017 76 10000 0 0 20:35 23.06.2022
2958 Rain 11 1017 76 10000 0 0 19:40 23.06.2022
2959 Clouds 9 1017 93 10000 2.57 80 17:53 23.06.2022
2960 Clouds 9 1017 93 10000 2.57 80 17:33 23.06.2022
2961 Clouds 9 1021 87 8000 2.06 0 15:57 23.06.2022
2962 Clouds 9 1021 86 8000 2.06 0 15:24 23.06.2022
2963 Clouds 10 1021 81 10000 1.51 272 13:45 23.06.2022
2964 Rain 10 1020 80 9720 0.36 74 11:27 23.06.2022
2965 Clouds 10 1021 80 9720 0.36 74 10:40 23.06.2022
2966 Rain 11 1019 69 10000 0.33 160 09:18 23.06.2022
2967 Rain 11 1018 65 10000 1.87 295 03:40 23.06.2022
2968 Clouds 12 1014 58 7000 3.6 310 00:27 23.06.2022
2969 Clouds 13 1012 54 8000 2.06 290 23:41 22.06.2022
2970 Rain 13 1014 54 8000 0 0 22:48 22.06.2022
2971 Rain 13 1014 54 8000 0 0 22:48 22.06.2022
2972 Clouds 13 1014 52 8000 2.06 270 21:22 22.06.2022
2973 Clouds 13 1015 54 6000 2.06 0 20:45 22.06.2022
2974 Clouds 12 1016 54 8000 2.06 200 19:58 22.06.2022
2975 Clouds 11 1016 59 7000 1.54 220 18:50 22.06.2022
2976 Clouds 10 1017 62 7000 0 0 17:29 22.06.2022
2977 Clouds 9 1017 64 8000 0 0 16:33 22.06.2022
2978 Clouds 8 1016 69 7000 0 0 15:27 22.06.2022
2979 Clouds 7 1016 76 7000 0 0 14:31 22.06.2022
2980 Clouds 8 1019 68 10000 1.43 314 13:44 22.06.2022
2981 Clouds 8 1019 67 10000 0.33 130 13:23 22.06.2022
2982 Clouds 8 1018 65 10000 0.33 159 11:50 22.06.2022
2983 Clouds 8 1018 65 10000 0.33 159 11:50 22.06.2022
2984 Clouds 8 1018 62 10000 1 226 10:57 22.06.2022
2985 Rain 8 1019 65 10000 0.63 90 10:19 22.06.2022
2986 Rain 8 1019 67 10000 0.52 306 08:37 22.06.2022
2987 Clouds 9 1018 66 10000 0.71 228 05:38 22.06.2022
2988 Clouds 11 1020 64 10000 0.57 205 01:49 22.06.2022
2989 Haze 10 1018 65 4000 2.06 200 00:36 22.06.2022
2990 Haze 11 1017 62 4000 2.06 230 22:37 21.06.2022
2991 Haze 11 1016 58 4000 1.03 100 20:39 21.06.2022
2992 Haze 10 1018 61 4000 0 0 18:51 21.06.2022
2993 Haze 9 1018 63 4000 0 0 17:40 21.06.2022
2994 Haze 6 1019 70 4000 1.03 120 14:42 21.06.2022
2995 Clouds 7 1022 59 10000 0.18 266 11:55 21.06.2022
2996 Clouds 7 1022 58 10000 0.05 270 10:20 21.06.2022
2997 Clouds 8 1022 58 10000 0.31 219 08:50 21.06.2022
2998 Clouds 7 1023 57 10000 0.43 278 07:35 21.06.2022
2999 Clouds 9 1023 58 10000 0.14 18 03:21 21.06.2022
3000 Haze 12 1019 49 4000 1.54 230 23:27 20.06.2022
3001 Haze 12 1018 47 4000 2.57 230 21:58 20.06.2022
3002 Haze 12 1018 47 4000 2.57 230 21:31 20.06.2022
3003 Haze 12 1018 46 4000 1.54 210 19:57 20.06.2022
3004 Haze 12 1019 48 4000 0 0 18:54 20.06.2022
3005 Haze 12 1019 46 4000 0 0 18:24 20.06.2022
3006 Haze 11 1019 49 4000 1.03 0 17:41 20.06.2022
3007 Haze 10 1019 55 4000 0 0 16:21 20.06.2022
3008 Haze 8 1019 58 4000 0.51 360 14:29 20.06.2022
3009 Clouds 9 1021 49 10000 0.81 23 11:46 20.06.2022
3010 Clouds 9 1022 47 10000 0.44 332 09:55 20.06.2022
3011 Clouds 9 1022 55 10000 0.32 338 08:45 20.06.2022
3012 Clouds 10 1022 52 10000 0.52 92 07:35 20.06.2022
3013 Clouds 11 1025 50 10000 0.08 266 03:52 20.06.2022
3014 Haze 12 1021 47 4000 0 0 00:52 20.06.2022
3015 Haze 14 1021 41 4000 1.54 250 23:48 19.06.2022
3016 Haze 14 1021 37 4000 1.54 260 22:19 19.06.2022
3017 Haze 15 1021 34 5000 0 0 21:42 19.06.2022
3018 Haze 15 1021 34 5000 1.54 260 20:48 19.06.2022
3019 Haze 14 1022 36 5000 0 0 19:49 19.06.2022
3020 Haze 14 1022 36 5000 0 0 19:24 19.06.2022
3021 Clouds 13 1023 39 10000 0 0 18:31 19.06.2022
3022 Clouds 12 1023 44 9000 1.03 190 17:42 19.06.2022
3023 Clouds 10 1023 48 10000 0 0 16:47 19.06.2022
3024 Clouds 10 1023 48 10000 0 0 16:23 19.06.2022
3025 Clouds 9 1023 51 10000 0 0 15:29 19.06.2022
3026 Clouds 8 1023 55 7000 0 0 14:42 19.06.2022
3027 Clouds 9 1026 45 10000 0.61 49 13:52 19.06.2022
3028 Clouds 9 1026 48 10000 0.44 213 12:22 19.06.2022
3029 Clouds 9 1026 51 10000 0.36 33 10:53 19.06.2022
3030 Clouds 10 1026 51 10000 0.04 25 09:21 19.06.2022
3031 Clouds 10 1026 46 10000 0.1 277 08:32 19.06.2022
3032 Clouds 10 1026 45 10000 0.13 239 07:26 19.06.2022
3033 Clouds 12 1025 48 10000 0.25 74 04:27 19.06.2022
3034 Clouds 13 1024 47 10000 1 314 01:28 19.06.2022
3035 Haze 13 1020 43 4000 0 0 00:23 19.06.2022
3036 Haze 14 1020 38 4000 1.54 220 23:35 18.06.2022
3037 Haze 15 1020 34 5000 0 0 22:33 18.06.2022
3038 Haze 12 1020 44 5000 2.57 210 20:54 18.06.2022
3039 Haze 12 1020 44 5000 2.57 210 20:24 18.06.2022
3040 Clouds 10 1017 51 7000 1.54 200 19:21 18.06.2022
3041 Clouds 9 1018 53 7000 0 0 18:42 18.06.2022
3042 Clouds 9 1018 53 7000 0 0 17:29 18.06.2022
3043 Clouds 8 1019 53 7000 0 0 16:18 18.06.2022
3044 Clouds 8 1025 49 10000 1 73 15:18 18.06.2022
3045 Haze 2 1019 77 5000 0 0 14:41 18.06.2022
3046 Clouds 8 1018 49 10000 1.11 96 12:46 18.06.2022
3047 Clouds 9 1017 48 10000 0.87 59 11:29 18.06.2022
3048 Clouds 10 1026 54 10000 0.72 71 10:23 18.06.2022
3049 Clouds 10 1027 50 10000 0.83 73 09:19 18.06.2022
3050 Clouds 10 1027 49 10000 0.45 64 07:58 18.06.2022
3051 Clouds 9 1027 47 10000 0.49 101 06:24 18.06.2022
3052 Clouds 10 1028 49 10000 1.29 85 02:53 18.06.2022
3053 Clouds 12 1024 46 10000 0.77 89 01:23 18.06.2022
3054 Clouds 13 1023 47 7000 0 0 00:39 18.06.2022
3055 Clouds 15 1021 40 6000 0.51 0 23:42 17.06.2022
3056 Haze 15 1021 39 5000 1.54 0 22:49 17.06.2022
3057 Clouds 13 1026 46 6000 2.06 230 20:33 17.06.2022
3058 Clouds 12 1027 48 6000 1.54 0 19:24 17.06.2022
3059 Clouds 11 1025 55 6000 1.54 0 18:24 17.06.2022
3060 Clouds 10 1028 57 6000 1.03 240 17:22 17.06.2022
3061 Haze 8 1028 60 5000 1.03 220 16:37 17.06.2022
3062 Haze 8 1027 57 5000 0 0 15:41 17.06.2022
3063 Clouds 2 1025 79 6000 1.54 20 14:37 17.06.2022
3064 Clouds 4 1029 70 6000 1.54 20 14:18 17.06.2022
3065 Clouds 6 1033 56 10000 1.13 96 13:41 17.06.2022
3066 Clouds 6 1033 58 10000 1.21 108 12:42 17.06.2022
3067 Clouds 6 1034 61 10000 0.93 101 11:56 17.06.2022
3068 Clouds 6 1033 61 10000 0.93 101 11:34 17.06.2022
3069 Clouds 7 1034 61 10000 1.37 53 09:49 17.06.2022
3070 Clouds 7 1034 62 10000 0.86 204 08:27 17.06.2022
3071 Clouds 9 1034 62 10000 0.33 226 06:51 17.06.2022
3072 Clouds 9 1034 61 10000 0.78 215 04:49 17.06.2022
3073 Clouds 10 1033 58 10000 1.19 225 02:41 17.06.2022
3074 Clouds 11 1027 58 6000 1.03 180 00:26 17.06.2022
3075 Haze 13 1026 54 5000 1.54 0 22:43 16.06.2022
3076 Haze 13 1027 55 5000 0.51 0 21:23 16.06.2022
3077 Haze 13 1027 55 5000 1.54 290 20:56 16.06.2022
3078 Haze 12 1027 55 5000 1.54 290 20:36 16.06.2022
3079 Haze 12 1027 55 5000 1.54 290 20:36 16.06.2022
3080 Haze 12 1026 62 5000 1.54 320 19:53 16.06.2022
3081 Haze 12 1027 66 5000 2.06 300 18:27 16.06.2022
3082 Haze 10 1027 71 5000 1.03 0 17:43 16.06.2022
3083 Haze 11 1028 70 5000 0 0 16:39 16.06.2022
3084 Haze 9 1027 75 5000 0 0 15:22 16.06.2022
3085 Haze 9 1027 76 4000 0 0 14:46 16.06.2022
3086 Clouds 9 1029 68 10000 0.63 194 13:32 16.06.2022
3087 Clouds 10 1029 70 10000 1.15 238 12:36 16.06.2022
3088 Clouds 9 1028 65 10000 0.69 261 11:52 16.06.2022
3089 Clouds 9 1028 62 10000 0.02 57 10:56 16.06.2022
3090 Clouds 9 1028 62 10000 0.59 234 10:27 16.06.2022
3091 Clouds 9 1028 62 10000 0.55 230 09:21 16.06.2022
3092 Clouds 9 1028 63 10000 0.55 230 08:30 16.06.2022
3093 Clouds 9 1028 63 10000 0.79 250 07:26 16.06.2022
3094 Clear 9 1027 66 10000 0.91 245 04:50 16.06.2022
3095 Clouds 11 1027 60 10000 1.11 229 02:21 16.06.2022
3096 Clouds 11 1027 60 10000 1.11 229 01:42 16.06.2022
3097 Clouds 12 1026 60 10000 1.68 228 01:21 16.06.2022
3098 Clouds 12 1026 60 10000 1.68 228 01:21 16.06.2022
3099 Haze 12 1022 54 5000 2.57 240 23:47 15.06.2022
3100 Haze 12 1022 54 5000 2.57 240 23:47 15.06.2022
3101 Haze 13 1022 50 5000 2.57 270 22:38 15.06.2022
3102 Haze 13 1021 53 5000 1.54 290 21:22 15.06.2022
3103 Haze 13 1022 53 5000 2.06 180 20:45 15.06.2022
3104 Haze 13 1022 55 5000 2.06 180 20:27 15.06.2022
3105 Haze 12 1022 57 5000 2.06 240 19:30 15.06.2022
3106 Haze 10 1023 62 5000 0 0 17:56 15.06.2022
3107 Haze 10 1023 60 5000 0 0 17:32 15.06.2022
3108 Clear 5 1023 71 6000 0.51 0 15:38 15.06.2022
3109 Clouds 4 1023 72 7000 0 0 14:23 15.06.2022
3110 Clouds 6 1027 58 10000 0.23 84 12:54 15.06.2022
3111 Clouds 6 1027 58 10000 0.15 209 12:28 15.06.2022
3112 Clouds 6 1026 60 10000 0.17 233 10:24 15.06.2022
3113 Clouds 7 1026 58 10000 0.17 233 09:45 15.06.2022
3114 Clouds 7 1026 60 10000 0.25 244 08:50 15.06.2022
3115 Clouds 8 1027 61 10000 0.3 247 06:36 15.06.2022
3116 Clouds 9 1027 66 10000 0.34 251 04:46 15.06.2022
3117 Clear 10 1026 61 10000 0.6 234 01:55 15.06.2022
3118 Haze 10 1023 69 4000 0 0 00:51 15.06.2022
3119 Haze 11 1019 58 3000 1.54 250 23:40 14.06.2022
3120 Haze 11 1019 58 3000 1.54 250 23:21 14.06.2022
3121 Haze 11 1019 58 3000 1.03 0 22:23 14.06.2022
3122 Haze 10 1019 61 3000 1.54 290 21:40 14.06.2022
3123 Haze 10 1019 61 2000 0 0 20:56 14.06.2022
3124 Haze 10 1019 61 2000 0 0 20:31 14.06.2022
3125 Haze 9 1023 71 1500 1.54 240 19:22 14.06.2022
3126 Haze 8 1024 75 1000 1.03 0 18:25 14.06.2022
3127 Mist 6 1021 84 1000 1.54 190 16:48 14.06.2022
3128 Mist 7 1024 79 1000 1.03 0 15:50 14.06.2022
3129 Mist 7 1024 80 1000 1.03 0 15:28 14.06.2022
3130 Fog 7 1024 81 800 0 0 14:40 14.06.2022
3131 Clouds 8 1026 72 10000 0.38 272 13:46 14.06.2022
3132 Clouds 8 1025 72 10000 0.82 280 12:48 14.06.2022
3133 Clouds 8 1025 73 10000 0.69 293 11:41 14.06.2022
3134 Clouds 8 1024 72 10000 0.32 291 10:49 14.06.2022
3135 Clouds 8 1024 72 10000 0.32 291 10:49 14.06.2022
3136 Clouds 8 1024 73 10000 0.66 259 10:24 14.06.2022
3137 Clouds 9 1025 74 10000 0.9 271 08:49 14.06.2022
3138 Clouds 9 1024 72 10000 0.7 260 07:50 14.06.2022
3139 Clouds 10 1023 66 10000 0.96 264 05:46 14.06.2022
3140 Clouds 11 1022 62 10000 0.77 274 03:20 14.06.2022
3141 Clouds 11 1022 62 10000 0.63 283 01:31 14.06.2022
3142 Haze 14 1018 47 5000 1.54 230 23:48 13.06.2022
3143 Haze 16 1017 45 4000 1.54 280 22:27 13.06.2022
3144 Haze 16 1017 44 4000 1.03 0 21:54 13.06.2022
3145 Haze 18 912 41 4000 3.09 240 20:43 13.06.2022
3146 Clouds 20 932 33 6000 1.54 230 19:39 13.06.2022
3147 Clouds 18 912 35 6000 1.03 0 18:36 13.06.2022
3148 Clouds 16 1017 33 6000 1.03 0 17:48 13.06.2022
3149 Clear 16 1019 25 10000 0 0 16:54 13.06.2022
3150 Clouds 2 1015 26 10000 0.47 52 15:53 13.06.2022
3151 Clouds 6 1015 58 10000 0.9 75 14:47 13.06.2022
3152 Clouds 6 1015 58 10000 1.31 74 13:59 13.06.2022
3153 Clouds 7 1015 58 10000 1.68 77 12:59 13.06.2022
3154 Clouds 10 1015 58 10000 1.48 71 11:45 13.06.2022
3155 Clouds 11 1015 59 10000 1.44 77 10:34 13.06.2022
3156 Clouds 11 1015 59 10000 1.27 74 09:42 13.06.2022
3157 Clear 11 1015 59 10000 1 76 08:27 13.06.2022
3158 Clear 12 1016 58 10000 0.91 79 06:34 13.06.2022
3159 Clear 10 1017 61 10000 0.61 98 04:23 13.06.2022
3160 Clear 14 1021 50 10000 0.76 87 01:44 13.06.2022
3161 Clear 14 1022 53 10000 0.44 193 01:18 13.06.2022
3162 Haze 20 1018 34 5000 1.03 0 23:37 12.06.2022
3163 Haze 21 915 31 4000 0 0 22:29 12.06.2022
3164 Haze 20 915 32 4000 1.03 0 21:41 12.06.2022
3165 Haze 20 916 35 4000 1.54 250 20:49 12.06.2022
3166 Haze 19 858 38 4000 1.03 270 19:43 12.06.2022
3167 Haze 17 858 41 5000 2.06 230 18:46 12.06.2022
3168 Haze 16 858 50 5000 0 0 17:20 12.06.2022
3169 Clear 2 1018 21 10000 0.34 215 15:34 12.06.2022
3170 Clear 9 1018 55 10000 1.51 74 14:48 12.06.2022
3171 Clouds 6 1018 52 10000 1.95 76 14:18 12.06.2022
3172 Clouds 9 1018 51 10000 1.98 75 13:43 12.06.2022
3173 Clouds 11 1023 39 10000 1.92 79 11:58 12.06.2022
3174 Clouds 10 1017 51 10000 1.86 82 10:46 12.06.2022
3175 Clouds 10 1017 50 10000 2 74 09:36 12.06.2022
3176 Clouds 11 1017 51 10000 2.02 80 08:49 12.06.2022
3177 Clouds 7 1018 52 10000 1.37 83 07:49 12.06.2022
3178 Clouds 12 1024 40 10000 1.46 85 06:21 12.06.2022
3179 Clear 13 1024 42 10000 1.2 83 03:38 12.06.2022
3180 Clear 15 1024 41 10000 0.39 115 01:49 12.06.2022
3181 Clear 16 1023 40 10000 0.84 101 01:23 12.06.2022
3182 Clear 17 1020 38 7000 0 0 00:43 12.06.2022
3183 Clear 18 1020 37 7000 0 0 00:18 12.06.2022
3184 Clear 21 916 29 7000 2.57 260 22:58 11.06.2022
3185 Clear 21 916 28 7000 2.57 260 22:31 11.06.2022
3186 Clear 22 914 25 7000 2.57 250 21:18 11.06.2022
3187 Clear 21 915 27 10000 0 0 20:26 11.06.2022
3188 Clear 20 916 29 10000 1.54 250 19:33 11.06.2022
3189 Clear 20 917 29 10000 1.54 240 18:42 11.06.2022
3190 Clear 19 915 29 10000 1.54 240 18:24 11.06.2022
3191 Clear 18 858 32 10000 0 0 17:38 11.06.2022
3192 Clear 19 917 30 10000 0 0 17:19 11.06.2022
3193 Clear 18 905 37 10000 0 0 16:42 11.06.2022
3194 Clear 20 849 35 10000 0.73 116 15:47 11.06.2022
3195 Clear 7 1018 53 10000 1.54 50 14:23 11.06.2022
3196 Clear 6 1018 47 10000 3.34 73 13:47 11.06.2022
3197 Clear 14 1020 28 10000 2.98 77 11:46 11.06.2022
3198 Clear 11 1018 31 10000 2.89 77 10:30 11.06.2022
3199 Clear 11 1018 30 10000 2.93 74 09:40 11.06.2022
3200 Clear 13 1021 30 10000 2.75 75 08:21 11.06.2022
3201 Clear 13 1018 29 10000 2.38 79 06:32 11.06.2022
3202 Clear 14 1020 32 10000 2.38 77 05:26 11.06.2022
3203 Clear 15 1022 39 10000 2.38 76 02:42 11.06.2022
3204 Clouds 15 1022 39 10000 1.97 91 01:41 11.06.2022
3205 Clouds 18 1019 34 8000 1.03 100 00:37 11.06.2022
3206 Clear 21 915 28 10000 1.03 190 22:55 10.06.2022
3207 Clear 22 915 27 10000 1.03 190 22:20 10.06.2022
3208 Clear 22 936 26 10000 1.54 0 21:22 10.06.2022
3209 Clear 21 934 27 10000 1.54 0 20:36 10.06.2022
3210 Clear 21 934 26 10000 1.54 0 20:18 10.06.2022
3211 Clear 20 935 28 10000 0 0 19:19 10.06.2022
3212 Clear 20 927 33 10000 1.03 0 18:20 10.06.2022
3213 Clear 19 932 33 10000 0 0 17:41 10.06.2022
3214 Clear 17 932 36 10000 0 0 16:59 10.06.2022
3215 Clear 13 1019 37 10000 0 0 16:23 10.06.2022
3216 Clouds 13 1018 21 10000 1.19 79 15:37 10.06.2022
3217 Clouds 9 1019 56 10000 2.29 75 13:55 10.06.2022
3218 Clouds 6 1018 55 10000 2.21 78 12:48 10.06.2022
3219 Clouds 7 1018 56 10000 2.22 79 11:41 10.06.2022
3220 Clouds 6 1018 56 10000 2.08 82 10:45 10.06.2022
3221 Clouds 7 1019 55 10000 2.09 78 09:48 10.06.2022
3222 Clouds 9 1019 55 10000 2.16 76 08:33 10.06.2022
3223 Clouds 9 1020 56 10000 2.31 77 07:24 10.06.2022
3224 Clouds 9 1020 56 10000 2.31 77 06:43 10.06.2022
3225 Clouds 9 1020 56 10000 1.87 78 06:25 10.06.2022
3226 Clouds 10 1021 56 10000 1.65 91 03:55 10.06.2022
3227 Clouds 12 1028 64 10000 1.26 96 01:41 10.06.2022
3228 Haze 14 1025 61 4000 0 0 00:32 10.06.2022
3229 Haze 15 1025 58 4000 0 0 23:38 09.06.2022
3230 Haze 16 1025 56 4000 2.06 250 22:18 09.06.2022
3231 Haze 15 1022 52 4000 1.54 270 21:33 09.06.2022
3232 Haze 17 860 46 5000 2.06 260 20:54 09.06.2022
3233 Haze 14 1022 51 5000 2.06 260 20:21 09.06.2022
3234 Haze 13 1023 58 5000 1.54 0 19:19 09.06.2022
3235 Haze 10 1023 70 5000 1.03 310 18:28 09.06.2022
3236 Haze 7 1024 78 3000 1.54 230 16:51 09.06.2022
3237 Clear 7 1023 59 10000 0.38 180 15:48 09.06.2022
3238 Mist 3 1024 90 2000 0 0 14:35 09.06.2022
3239 Clouds 5 1023 49 10000 1.72 83 13:54 09.06.2022
3240 Clouds 11 1023 61 10000 1.3 89 13:28 09.06.2022
3241 Clouds 9 1031 65 10000 0.97 93 11:54 09.06.2022
3242 Clouds 4 1022 53 10000 1.78 64 11:18 09.06.2022
3243 Clouds 8 1031 67 10000 1.08 70 09:44 09.06.2022
3244 Clouds 9 1031 67 10000 0.53 109 09:23 09.06.2022
3245 Clouds 10 1030 65 10000 0.33 137 07:45 09.06.2022
3246 Clouds 10 1030 65 10000 0.33 137 07:45 09.06.2022
3247 Clouds 10 1030 68 10000 0.43 219 06:33 09.06.2022
3248 Clear 12 1028 64 10000 0.74 222 02:52 09.06.2022
3249 Haze 15 1024 56 5000 1.54 220 23:39 08.06.2022
3250 Haze 15 1023 51 5000 1.54 270 22:58 08.06.2022
3251 Haze 16 1023 48 5000 1.54 270 22:27 08.06.2022
3252 Clouds 16 1023 48 6000 2.57 240 21:54 08.06.2022
3253 Clouds 16 1024 47 6000 2.57 240 21:21 08.06.2022
3254 Clouds 16 1024 49 6000 2.06 0 20:20 08.06.2022
3255 Haze 16 1023 50 5000 2.06 240 19:38 08.06.2022
3256 Haze 14 1024 54 5000 0 0 18:43 08.06.2022
3257 Clear 12 1025 58 6000 0 0 17:18 08.06.2022
3258 Clear 9 1025 75 10000 0 0 15:44 08.06.2022
3259 Clouds 8 1028 59 10000 0.65 90 13:51 08.06.2022
3260 Clouds 9 1026 58 10000 0.95 64 12:20 08.06.2022
3261 Clouds 10 1026 60 10000 0.95 64 11:33 08.06.2022
3262 Clouds 11 1025 59 10000 0.54 70 09:59 08.06.2022
3263 Clouds 10 1025 57 10000 0.5 52 09:21 08.06.2022
3264 Clouds 10 1025 58 10000 1.14 66 08:26 08.06.2022
3265 Clear 11 1025 61 10000 0.42 69 05:51 08.06.2022
3266 Clear 12 1024 67 10000 0.46 96 03:55 08.06.2022
3267 Clear 15 1019 55 7000 1.54 210 00:38 08.06.2022
3268 Haze 18 1018 52 5000 1.03 250 23:28 07.06.2022
3269 Haze 18 1018 47 5000 1.03 300 22:45 07.06.2022
3270 Haze 18 1018 48 5000 1.03 300 22:23 07.06.2022
3271 Haze 17 1018 49 4000 2.06 220 21:33 07.06.2022
3272 Haze 17 1018 50 5000 1.54 150 20:58 07.06.2022
3273 Haze 17 1018 49 5000 1.54 150 20:32 07.06.2022
3274 Clouds 15 1016 46 10000 1.87 245 19:38 07.06.2022
3275 Clear 15 1020 52 10000 1.54 220 18:23 07.06.2022
3276 Clear 13 1021 58 10000 0 0 17:26 07.06.2022
3277 Clear 10 1018 65 10000 0 0 16:43 07.06.2022
3278 Clouds 6 1017 77 10000 1.03 350 15:47 07.06.2022
3279 Clouds 8 1021 69 10000 1.03 350 15:26 07.06.2022
3280 Clouds 8 1021 69 10000 1.03 350 15:26 07.06.2022
3281 Clouds 10 1017 56 10000 0.42 97 14:47 07.06.2022
3282 Clouds 9 1023 58 10000 0.71 94 14:29 07.06.2022
3283 Clouds 7 1017 57 10000 0.84 91 13:30 07.06.2022
3284 Clouds 7 1016 58 10000 1.19 72 12:45 07.06.2022
3285 Clouds 7 1016 57 10000 1.36 74 11:47 07.06.2022
3286 Clouds 7 1016 55 10000 1.6 73 10:26 07.06.2022
3287 Clouds 11 1017 56 10000 1.87 69 08:49 07.06.2022
3288 Clouds 9 1017 55 10000 1.74 74 07:33 07.06.2022
3289 Clear 11 1025 56 10000 1.74 77 05:58 07.06.2022
3290 Clear 13 1025 56 10000 1.36 81 03:31 07.06.2022
3291 Clear 13 1025 56 10000 1.36 81 03:31 07.06.2022
3292 Clear 16 1022 49 10000 0 0 00:45 07.06.2022
3293 Clear 18 1021 42 10000 1.54 250 23:41 06.06.2022
3294 Clear 19 1021 38 10000 1.54 230 22:47 06.06.2022
3295 Clear 19 869 41 10000 1.65 238 21:56 06.06.2022
3296 Clear 19 869 39 10000 1.83 241 20:42 06.06.2022
3297 Clear 18 916 42 10000 1.54 220 19:24 06.06.2022
3298 Clear 17 859 44 10000 1.54 260 18:47 06.06.2022
3299 Clear 14 1024 49 10000 1.54 210 17:55 06.06.2022
3300 Clear 11 1022 58 10000 0 0 16:55 06.06.2022
3301 Clear 5 1022 75 10000 1.54 10 15:45 06.06.2022
3302 Clear 8 1018 68 10000 0 0 14:59 06.06.2022
3303 Clear 9 1028 58 10000 2.93 75 13:43 06.06.2022
3304 Clear 9 1022 63 10000 2.82 76 13:20 06.06.2022
3305 Clear 9 1029 58 10000 2.82 76 12:34 06.06.2022
3306 Clear 9 1028 56 10000 2.68 79 11:47 06.06.2022
3307 Clear 9 1023 61 10000 2.4 78 09:53 06.06.2022
3308 Clear 10 1023 62 10000 2.24 79 08:57 06.06.2022
3309 Clear 9 1024 63 10000 2.06 79 08:28 06.06.2022
3310 Clear 10 1023 63 10000 1.57 88 07:19 06.06.2022
3311 Clear 12 1023 60 10000 1.1 101 04:39 06.06.2022
3312 Clouds 13 1022 53 10000 1.18 102 01:57 06.06.2022
3313 Clear 15 1022 46 10000 1.03 0 00:57 06.06.2022
3314 Clear 15 1021 44 10000 1.03 0 00:34 06.06.2022
3315 Clear 16 1023 40 10000 3.09 240 23:20 05.06.2022
3316 Clouds 17 1023 34 10000 2.06 220 22:26 05.06.2022
3317 Clouds 17 1022 36 10000 2.57 170 20:29 05.06.2022
3318 Clouds 16 1023 39 10000 1.54 170 19:26 05.06.2022
3319 Clouds 16 1024 40 10000 3.09 260 18:20 05.06.2022
3320 Clouds 16 1024 40 10000 1.03 290 17:39 05.06.2022
3321 Clouds 15 1021 42 10000 1.03 290 17:21 05.06.2022
3322 Clouds 14 1024 53 10000 1.03 0 16:47 05.06.2022
3323 Clouds 13 1021 59 10000 1.54 190 15:41 05.06.2022
3324 Rain 12 1022 66 10000 2.06 120 14:21 05.06.2022
3325 Rain 11 1020 70 10000 1.08 68 12:23 05.06.2022
3326 Clouds 12 1019 69 10000 0.56 99 10:51 05.06.2022
3327 Clouds 12 1018 71 10000 1.33 247 10:24 05.06.2022
3328 Clouds 12 1018 72 10000 1.33 247 09:44 05.06.2022
3329 Clouds 12 1019 73 10000 0.18 279 08:25 05.06.2022
3330 Clouds 12 1018 70 10000 0.53 347 06:47 05.06.2022
3331 Clouds 13 1017 69 10000 0.72 77 05:20 05.06.2022
3332 Clouds 14 1016 56 10000 0.57 239 02:57 05.06.2022
3333 Clouds 15 1016 54 10000 0.31 156 01:24 05.06.2022
3334 Clouds 15 1016 54 10000 0.31 156 01:24 05.06.2022
3335 Rain 14 1015 70 10000 3.09 80 23:43 04.06.2022
3336 Clouds 15 1014 60 10000 1.03 10 21:31 04.06.2022
3337 Clouds 15 1015 69 10000 1.54 0 19:46 04.06.2022
3338 Clouds 13 1019 70 10000 2.57 250 17:28 04.06.2022
3339 Clouds 13 1015 73 10000 1.03 350 16:22 04.06.2022
3340 Clouds 12 1013 73 10000 2.06 20 15:51 04.06.2022
3341 Clouds 11 1015 77 10000 1.54 340 14:22 04.06.2022
3342 Clouds 11 1013 76 10000 2.14 72 11:45 04.06.2022
3343 Rain 10 1015 80 10000 2.03 60 10:56 04.06.2022
3344 Clouds 10 1016 81 10000 1.93 60 10:20 04.06.2022
3345 Rain 10 1015 79 10000 1.93 60 09:41 04.06.2022
3346 Clouds 10 1015 79 10000 1.96 87 08:40 04.06.2022
3347 Rain 11 1015 78 10000 2.17 91 07:27 04.06.2022
3348 Clouds 11 1017 80 6190 1.44 64 04:33 04.06.2022
3349 Clouds 11 1017 80 6190 1.44 64 04:33 04.06.2022
3350 Clouds 11 1017 80 6190 1.44 64 04:33 04.06.2022
3351 Rain 9 1015 89 6000 1.54 50 00:37 04.06.2022
3352 Rain 11 1018 81 7000 1.54 180 23:31 03.06.2022
3353 Clouds 10 1017 81 8000 0 0 22:28 03.06.2022
3354 Clouds 10 1019 81 4000 2.57 150 20:42 03.06.2022
3355 Clouds 10 1019 81 4000 2.57 150 20:42 03.06.2022
3356 Rain 10 1018 80 4000 2.57 150 20:18 03.06.2022
3357 Rain 13 1017 54 10000 1.54 170 17:32 03.06.2022
3358 Rain 12 1017 56 10000 1.03 170 16:34 03.06.2022
3359 Clouds 11 1016 64 10000 1.03 150 14:52 03.06.2022
3360 Rain 11 1016 61 10000 1.23 38 12:52 03.06.2022
3361 Clouds 10 1015 66 10000 0.71 16 10:36 03.06.2022
3362 Clouds 10 1015 67 10000 0.76 319 09:30 03.06.2022
3363 Clouds 10 1016 68 10000 0.49 43 07:54 03.06.2022
3364 Clouds 10 1017 69 10000 0.19 76 07:20 03.06.2022
3365 Clouds 10 1016 68 10000 0.19 76 06:30 03.06.2022
3366 Clouds 11 1017 67 10000 0.54 55 04:40 03.06.2022
3367 Haze 11 1018 63 5000 1.03 350 00:22 03.06.2022
3368 Haze 13 1018 57 5000 1.54 210 22:35 02.06.2022
3369 Haze 13 1019 56 5000 0 0 21:29 02.06.2022
3370 Haze 12 1022 63 5000 2.06 220 20:22 02.06.2022
3371 Clouds 12 1023 61 6000 1.54 300 19:41 02.06.2022
3372 Clouds 12 1023 61 6000 1.54 300 19:41 02.06.2022
3373 Clouds 12 1023 63 6000 1.54 300 19:19 02.06.2022
3374 Haze 10 1021 70 4000 1.03 270 16:46 02.06.2022
3375 Haze 9 1024 75 4000 1.03 270 16:20 02.06.2022
3376 Clouds 8 1022 78 10000 0.73 158 13:47 02.06.2022
3377 Clouds 8 1022 75 10000 0.74 226 13:26 02.06.2022
3378 Clouds 9 1021 78 6310 1.2 248 11:22 02.06.2022
3379 Clouds 8 1021 78 5965 0.89 258 10:19 02.06.2022
3380 Clouds 8 1022 77 4380 0.53 227 09:27 02.06.2022
3381 Rain 8 1021 77 5211 0.99 210 08:26 02.06.2022
3382 Rain 8 1020 74 2910 1.21 236 06:59 02.06.2022
3383 Rain 8 1021 62 10000 1.21 239 04:40 02.06.2022
3384 Clouds 10 1019 55 10000 1.57 233 02:30 02.06.2022
3385 Clouds 11 1018 48 7000 2.57 240 23:43 01.06.2022
3386 Clouds 11 1018 48 7000 2.57 240 23:43 01.06.2022
3387 Clouds 11 1018 48 7000 2.57 240 23:43 01.06.2022
3388 Clouds 11 1018 48 7000 2.57 240 23:43 01.06.2022
3389 Clouds 11 1018 48 7000 2.57 240 23:43 01.06.2022
3390 Clouds 11 1018 48 7000 2.57 240 23:43 01.06.2022
3391 Clouds 13 1017 42 6000 2.57 260 22:23 01.06.2022
3392 Haze 12 1020 44 5000 2.57 240 21:32 01.06.2022
3393 Haze 12 1020 43 5000 2.06 0 20:40 01.06.2022
3394 Haze 11 1021 44 5000 2.43 248 19:53 01.06.2022
3395 Haze 10 1022 45 5000 1.54 270 18:58 01.06.2022
3396 Haze 7 1019 50 5000 1.03 280 17:44 01.06.2022
3397 Clouds 7 1019 52 7000 0 0 16:33 01.06.2022
3398 Clouds 1 1018 72 10000 0 0 14:52 01.06.2022
3399 Clouds 7 1018 45 10000 1.67 61 13:45 01.06.2022
3400 Clear 2 1017 44 10000 1.56 74 12:25 01.06.2022
3401 Clear 6 1025 48 10000 1.36 75 09:40 01.06.2022
3402 Clear 6 1026 47 10000 0.98 68 08:38 01.06.2022
3403 Clear 7 1025 46 10000 0.13 43 07:22 01.06.2022
3404 Clear 7 1026 47 10000 0.21 309 05:22 01.06.2022
3405 Clouds 12 1020 32 6000 1.03 240 00:20 01.06.2022
3406 Clouds 12 1019 30 6000 2.06 260 23:26 31.05.2022
3407 Clouds 14 1019 28 6000 3.09 250 22:36 31.05.2022
3408 Haze 13 1018 29 5000 2.57 240 21:45 31.05.2022
3409 Haze 13 1018 31 5000 1.54 0 20:45 31.05.2022
3410 Haze 13 1018 31 5000 1.54 0 20:45 31.05.2022
3411 Haze 12 1019 34 5000 2.06 240 19:57 31.05.2022
3412 Haze 11 1020 36 5000 1.03 0 18:50 31.05.2022
3413 Clouds 10 1020 39 6000 1.54 280 17:50 31.05.2022
3414 Clouds 8 1020 45 6000 0 0 16:53 31.05.2022
3415 Clouds 5 1020 53 10000 1.03 50 15:40 31.05.2022
3416 Clear 5 1023 48 10000 0.9 64 13:45 31.05.2022
3417 Clouds 5 1023 46 10000 0.77 81 12:20 31.05.2022
3418 Clouds 6 1023 44 10000 0.61 87 10:53 31.05.2022
3419 Clear 7 1023 44 10000 0.49 67 08:49 31.05.2022
3420 Clouds 7 1023 43 10000 0.61 79 07:24 31.05.2022
3421 Clouds 8 1024 42 10000 0.31 113 05:19 31.05.2022
3422 Clouds 13 1020 39 6000 1.03 0 00:36 31.05.2022
3423 Clear 14 1022 32 10000 2.06 226 23:26 30.05.2022
3424 Clear 15 1019 29 6000 3.09 240 22:53 30.05.2022
3425 Haze 15 1020 29 5000 2.06 230 21:52 30.05.2022
3426 Haze 15 1020 29 5000 2.06 230 21:32 30.05.2022
3427 Clear 14 1020 33 10000 1.03 170 19:57 30.05.2022
3428 Clear 12 1021 39 6000 2.06 210 18:39 30.05.2022
3429 Clear 10 1021 43 7000 0 0 17:35 30.05.2022
3430 Clear 9 1022 46 7000 0 0 16:41 30.05.2022
3431 Clear 7 1018 42 10000 1.03 40 14:35 30.05.2022
3432 Clear 5 1025 52 10000 0.81 88 12:24 30.05.2022
3433 Clear 6 1025 50 10000 1.25 88 10:41 30.05.2022
3434 Clear 6 1025 49 10000 0.91 92 09:21 30.05.2022
3435 Clear 7 1025 50 10000 0.84 98 07:18 30.05.2022
3436 Clear 8 1026 48 10000 0.84 108 05:48 30.05.2022
3437 Clouds 11 1024 44 10000 0.9 203 01:42 30.05.2022
3438 Haze 14 1020 34 5000 3.09 250 22:57 29.05.2022
3439 Haze 14 1020 35 5000 3.09 250 22:36 29.05.2022
3440 Haze 14 1020 34 4000 0 0 20:54 29.05.2022
3441 Haze 13 1020 45 4000 2.06 0 19:32 29.05.2022
3442 Haze 12 1020 52 5000 2.06 230 18:53 29.05.2022
3443 Haze 10 1021 57 5000 0 0 17:31 29.05.2022
3444 Haze 7 1021 72 5000 0 0 15:48 29.05.2022
3445 Mist 6 1021 72 4000 0 0 14:58 29.05.2022
3446 Clouds 8 1024 51 10000 0.16 341 13:53 29.05.2022
3447 Clouds 7 1025 52 10000 0.21 53 11:42 29.05.2022
3448 Clouds 8 1023 51 10000 0.19 8 10:39 29.05.2022
3449 Clouds 8 1024 50 10000 0.16 115 09:18 29.05.2022
3450 Clouds 9 1024 64 10000 0.68 231 06:18 29.05.2022
3451 Clouds 10 1024 61 10000 0.87 235 04:45 29.05.2022
3452 Clouds 11 1024 55 10000 1.15 242 03:53 29.05.2022
3453 Haze 12 1020 54 1300 1.54 260 23:50 28.05.2022
3454 Haze 12 1020 58 1300 1.54 260 23:26 28.05.2022
3455 Haze 12 1019 62 1300 0 0 22:39 28.05.2022
3456 Haze 12 1019 62 1500 0 0 21:38 28.05.2022
3457 Haze 13 1019 65 2000 1.03 20 19:49 28.05.2022
3458 Haze 13 1019 67 2000 0 0 18:54 28.05.2022
3459 Haze 11 1019 68 2000 0 0 17:37 28.05.2022
3460 Haze 11 1019 72 2000 1.54 180 16:43 28.05.2022
3461 Mist 10 1020 75 3000 0 0 15:43 28.05.2022
3462 Haze 9 1019 77 3000 0 0 14:26 28.05.2022
3463 Clouds 11 1021 58 10000 0.44 309 12:57 28.05.2022
3464 Clouds 11 1021 54 10000 0.44 309 12:35 28.05.2022
3465 Clouds 11 1021 62 10000 0.57 260 11:22 28.05.2022
3466 Clouds 11 1022 58 10000 0.42 276 09:59 28.05.2022
3467 Clouds 11 1021 57 10000 0.45 287 09:21 28.05.2022
3468 Clouds 11 1023 61 10000 0.08 311 07:23 28.05.2022
3469 Clouds 11 1023 59 10000 0.65 261 05:36 28.05.2022
3470 Clouds 12 1024 64 10000 0.29 288 02:52 28.05.2022
3471 Haze 12 1020 66 3000 1.03 30 00:33 28.05.2022
3472 Haze 13 1019 62 4000 1.54 350 23:20 27.05.2022
3473 Haze 13 1020 58 3000 1.03 0 21:46 27.05.2022
3474 Haze 13 1020 58 4000 1.03 180 20:56 27.05.2022
3475 Haze 13 1020 58 4000 1.03 180 20:25 27.05.2022
3476 Haze 13 1021 61 4000 1.03 330 19:43 27.05.2022
3477 Haze 13 1021 62 4000 1.03 330 19:24 27.05.2022
3478 Haze 9 1019 71 3000 1.03 0 17:58 27.05.2022
3479 Haze 11 1022 72 3000 0 0 16:39 27.05.2022
3480 Haze 7 1019 84 4000 0 0 15:33 27.05.2022
3481 Haze 9 1022 74 4000 0 0 14:26 27.05.2022
3482 Clouds 11 1025 64 10000 0.33 49 13:18 27.05.2022
3483 Clouds 11 1025 68 10000 0.29 21 11:34 27.05.2022
3484 Clouds 11 1026 67 10000 0.39 48 10:57 27.05.2022
3485 Clouds 10 1026 63 10000 0.39 48 10:31 27.05.2022
3486 Clouds 10 1025 61 10000 0.22 14 09:37 27.05.2022
3487 Clouds 11 1026 64 10000 0.3 349 07:55 27.05.2022
3488 Clouds 11 1027 62 10000 0.08 347 05:47 27.05.2022
3489 Clouds 13 1026 60 10000 0.3 269 02:47 27.05.2022
3490 Haze 14 1022 63 4000 0 0 00:29 27.05.2022
3491 Haze 15 1021 62 4000 3.09 230 22:43 26.05.2022
3492 Haze 17 1020 55 4000 2.57 230 21:40 26.05.2022
3493 Haze 17 1020 54 5000 2.06 220 20:59 26.05.2022
3494 Clouds 17 1021 52 10000 1.68 258 19:24 26.05.2022
3495 Clouds 17 1021 52 10000 1.68 258 19:24 26.05.2022
3496 Clouds 16 1020 53 6000 0.51 20 18:18 26.05.2022
3497 Clouds 11 1018 62 8000 0 0 16:42 26.05.2022
3498 Clouds 7 1018 76 8000 1.03 20 15:46 26.05.2022
3499 Clouds 6 1018 80 7000 1.54 20 14:46 26.05.2022
3500 Clouds 11 1023 53 10000 0.36 72 12:50 26.05.2022
3501 Clouds 11 1023 56 10000 0.39 72 11:29 26.05.2022
3502 Clouds 11 1022 53 10000 0.43 82 10:19 26.05.2022
3503 Clouds 11 1023 54 10000 0.43 82 09:33 26.05.2022
3504 Clouds 11 1023 59 10000 0.22 53 08:35 26.05.2022
3505 Clouds 13 1024 58 10000 0.07 15 05:22 26.05.2022
3506 Clear 18 1021 52 10000 0 0 00:57 26.05.2022
3507 Clouds 19 1020 42 10000 1.54 0 23:40 25.05.2022
3508 Clear 20 873 40 10000 1.54 0 22:22 25.05.2022
3509 Clouds 20 874 42 8000 2.57 0 21:33 25.05.2022
3510 Haze 19 874 46 5000 2.06 190 20:38 25.05.2022
3511 Haze 19 874 47 5000 1.54 210 19:29 25.05.2022
3512 Clouds 16 1021 58 6000 0 0 17:43 25.05.2022
3513 Clouds 14 1022 59 10000 0 0 16:38 25.05.2022
3514 Clouds 13 1023 63 10000 0 0 15:54 25.05.2022
3515 Clouds 11 1023 65 10000 0 0 14:54 25.05.2022
3516 Clouds 12 1023 67 10000 0 0 14:33 25.05.2022
3517 Clouds 12 1025 57 10000 0.65 28 13:56 25.05.2022
3518 Clouds 12 1025 58 10000 0.44 50 12:39 25.05.2022
3519 Clouds 13 1025 55 10000 0.11 91 10:49 25.05.2022
3520 Clouds 13 1025 55 10000 0.37 70 10:18 25.05.2022
3521 Clouds 14 1026 54 10000 0.37 252 08:41 25.05.2022
3522 Clouds 14 1026 57 10000 0.26 342 07:23 25.05.2022
3523 Clouds 15 1026 60 10000 0.9 263 04:23 25.05.2022
3524 Clouds 17 1023 54 8000 1.03 0 00:23 25.05.2022
3525 Clouds 17 1022 53 6000 0 0 23:47 24.05.2022
3526 Clouds 18 1022 49 8000 0.51 0 22:33 24.05.2022
3527 Clouds 18 1021 46 8000 1.03 0 21:41 24.05.2022
3528 Clouds 19 875 44 8000 1.03 0 21:21 24.05.2022
3529 Clouds 19 875 45 10000 1.54 0 20:23 24.05.2022
3530 Clouds 18 875 46 10000 0 0 18:56 24.05.2022
3531 Clouds 14 1023 61 10000 1.03 80 16:58 24.05.2022
3532 Clouds 14 1023 62 10000 1.03 80 16:28 24.05.2022
3533 Clouds 14 1020 61 10000 1.03 250 15:18 24.05.2022
3534 Clouds 12 1022 64 10000 0 0 14:25 24.05.2022
3535 Clouds 13 1025 61 10000 0.3 63 13:18 24.05.2022
3536 Clouds 13 1024 56 10000 0.19 306 11:49 24.05.2022
3537 Clouds 13 1024 55 10000 0.96 40 09:47 24.05.2022
3538 Clouds 14 1024 58 10000 0.17 76 08:51 24.05.2022
3539 Clouds 14 1024 54 10000 0.59 303 06:58 24.05.2022
3540 Clouds 14 1025 56 10000 0.43 293 04:59 24.05.2022
3541 Clouds 15 1025 48 10000 0.65 269 02:42 24.05.2022
3542 Clouds 16 1024 49 10000 0.47 295 01:43 24.05.2022
3543 Clouds 16 1021 46 10000 0.51 0 23:43 23.05.2022
3544 Clouds 17 1018 39 8000 1.03 0 21:59 23.05.2022
3545 Clouds 18 1018 38 8000 1.03 0 21:41 23.05.2022
3546 Clouds 18 1018 36 8000 1.54 180 20:45 23.05.2022
3547 Clouds 18 1018 36 8000 2.06 210 19:41 23.05.2022
3548 Clouds 18 1018 38 10000 1.02 267 19:00 23.05.2022
3549 Clouds 18 1019 40 8000 2.06 300 18:37 23.05.2022
3550 Clouds 16 1022 47 8000 1.03 0 17:55 23.05.2022
3551 Clouds 15 1019 51 10000 0.8 87 15:53 23.05.2022
3552 Clouds 14 1020 55 10000 0.55 73 13:44 23.05.2022
3553 Clouds 14 1020 55 10000 2.07 91 11:40 23.05.2022
3554 Clouds 14 1019 56 10000 0.88 130 10:44 23.05.2022
3555 Rain 14 1019 54 10000 0.88 80 09:45 23.05.2022
3556 Clouds 14 1019 55 10000 0.78 71 08:44 23.05.2022
3557 Clouds 15 1020 56 10000 0.95 173 06:48 23.05.2022
3558 Clouds 14 1022 57 10000 0.52 46 06:24 23.05.2022
3559 Clouds 16 1021 56 10000 0.81 207 02:55 23.05.2022
3560 Clouds 16 1023 54 10000 0.88 183 01:50 23.05.2022
3561 Clouds 16 1023 55 10000 0.9 221 01:23 23.05.2022
3562 Clouds 16 1024 49 6000 1.03 0 22:48 22.05.2022
3563 Clouds 17 1020 46 6000 1.03 0 22:22 22.05.2022
3564 Clouds 16 1026 49 8000 2.06 0 21:51 22.05.2022
3565 Clouds 17 1021 47 8000 1.03 0 20:43 22.05.2022
3566 Clouds 18 940 45 8000 1.03 0 20:20 22.05.2022
3567 Clouds 18 941 46 10000 5.66 250 18:58 22.05.2022
3568 Clouds 18 941 45 10000 5.66 250 18:37 22.05.2022
3569 Clouds 15 1027 49 10000 5.66 250 18:19 22.05.2022
3570 Clouds 14 1027 52 10000 0 0 16:51 22.05.2022
3571 Clouds 12 1027 52 10000 0 0 15:24 22.05.2022
3572 Clouds 11 1026 53 10000 2.06 50 14:44 22.05.2022
3573 Clouds 12 1028 47 10000 0.22 174 12:54 22.05.2022
3574 Clouds 12 1028 47 10000 0.22 174 12:31 22.05.2022
3575 Clouds 13 1027 47 10000 0.6 304 10:45 22.05.2022
3576 Clouds 13 1027 48 10000 0.23 29 09:29 22.05.2022
3577 Clouds 13 1027 44 10000 0.96 270 07:49 22.05.2022
3578 Clouds 13 1028 49 10000 0.33 347 07:20 22.05.2022
3579 Clouds 14 1027 51 10000 0.16 312 04:19 22.05.2022
3580 Clear 17 1025 49 10000 1.54 220 00:59 22.05.2022
3581 Clear 18 1024 44 10000 2.06 270 23:57 21.05.2022
3582 Clear 19 917 41 10000 2.06 270 23:29 21.05.2022
3583 Clear 19 916 40 10000 1.54 0 21:59 21.05.2022
3584 Clear 19 916 40 10000 1.54 0 21:38 21.05.2022
3585 Clear 19 859 42 10000 1.54 220 20:47 21.05.2022
3586 Clear 19 859 43 10000 2.06 210 19:55 21.05.2022
3587 Clear 19 859 45 10000 2.06 210 19:20 21.05.2022
3588 Clear 14 1023 57 10000 0.51 120 17:29 21.05.2022
3589 Clear 6 1022 72 10000 2.06 40 14:58 21.05.2022
3590 Clear 8 1026 67 10000 2.06 40 14:19 21.05.2022
3591 Clear 9 1029 57 10000 1.41 91 13:34 21.05.2022
3592 Clear 10 1029 59 10000 0.7 129 12:39 21.05.2022
3593 Clear 10 1029 59 10000 0.86 104 11:45 21.05.2022
3594 Clear 11 1028 59 10000 1.1 70 10:22 21.05.2022
3595 Clear 11 1028 60 10000 0.65 83 08:59 21.05.2022
3596 Clear 11 1029 61 10000 0.65 83 08:39 21.05.2022
3597 Clear 13 1028 64 10000 0.68 136 06:21 21.05.2022
3598 Clouds 14 1028 69 10000 0.6 176 01:59 21.05.2022
3599 Clouds 17 1025 57 10000 3.09 240 23:36 20.05.2022
3600 Clouds 18 1024 49 8000 2.06 230 22:40 20.05.2022
3601 Clouds 18 1024 47 8000 2.06 230 22:18 20.05.2022
3602 Clouds 18 1024 44 8000 2.57 210 21:19 20.05.2022
3603 Clouds 18 1024 46 7000 2.57 210 20:47 20.05.2022
3604 Clouds 17 1025 47 8000 2.06 230 19:47 20.05.2022
3605 Haze 16 1025 51 5000 1.54 190 18:53 20.05.2022
3606 Haze 15 1026 52 5000 1.54 190 18:23 20.05.2022
3607 Clouds 13 1026 63 7000 1.03 300 16:27 20.05.2022
3608 Rain 13 1025 62 7000 0.51 310 15:54 20.05.2022
3609 Rain 12 1025 64 7000 0.51 310 15:20 20.05.2022
3610 Clouds 12 1025 65 7000 1.03 150 14:27 20.05.2022
3611 Clouds 13 1027 56 10000 0.44 308 12:37 20.05.2022
3612 Rain 13 1027 54 10000 0.57 317 10:47 20.05.2022
3613 Rain 13 1026 53 10000 0.73 295 09:27 20.05.2022
3614 Clouds 13 1026 54 10000 0.63 295 08:24 20.05.2022
3615 Clouds 14 1026 53 10000 0.67 288 06:42 20.05.2022
3616 Clouds 14 1026 52 10000 0.62 314 05:40 20.05.2022
3617 Clouds 14 1026 57 10000 0.93 296 02:41 20.05.2022
3618 Clouds 16 1025 45 10000 1.69 239 23:47 19.05.2022
3619 Clouds 17 1022 43 7000 1.54 210 22:36 19.05.2022
3620 Clouds 17 1023 45 7000 1.54 230 21:50 19.05.2022
3621 Clouds 17 1023 46 7000 1.54 230 21:24 19.05.2022
3622 Clouds 16 1023 48 6000 2.06 210 20:47 19.05.2022
3623 Clouds 15 1024 53 6000 1.54 240 19:54 19.05.2022
3624 Clouds 15 1019 45 10000 2.64 252 19:00 19.05.2022
3625 Haze 12 1021 65 5000 2.06 230 17:44 19.05.2022
3626 Mist 7 1020 84 3000 1.54 210 15:51 19.05.2022
3627 Haze 8 1018 76 4000 1.54 310 14:47 19.05.2022
3628 Haze 7 1018 76 4000 1.54 310 14:20 19.05.2022
3629 Clouds 11 1024 66 10000 0.94 24 11:55 19.05.2022
3630 Clouds 13 1023 62 10000 0.86 110 10:31 19.05.2022
3631 Clouds 12 1024 61 10000 1.75 54 08:44 19.05.2022
3632 Clouds 12 1026 67 10000 1.43 261 07:18 19.05.2022
3633 Clouds 13 1024 58 10000 0.49 158 03:52 19.05.2022
3634 Haze 17 1018 46 4000 1.03 290 00:58 19.05.2022
3635 Haze 20 915 41 3000 1.03 250 23:40 18.05.2022
3636 Haze 21 912 35 4000 2.06 250 22:43 18.05.2022
3637 Haze 22 914 34 4000 2.06 230 21:45 18.05.2022
3638 Haze 22 912 34 4000 2.06 230 21:23 18.05.2022
3639 Haze 21 1014 30 4000 0 0 20:21 18.05.2022
3640 Haze 19 857 36 5000 1.54 200 18:56 18.05.2022
3641 Clear 18 795 40 6000 1.03 270 17:57 18.05.2022
3642 Clear 18 946 40 6000 1.03 270 17:36 18.05.2022
3643 Clear 18 795 40 6000 1.03 270 17:18 18.05.2022
3644 Clear 21 573 41 10000 0.29 245 15:58 18.05.2022
3645 Clear 21 875 41 10000 0.29 245 15:35 18.05.2022
3646 Clear 2 1017 20 10000 1.9 81 14:21 18.05.2022
3647 Clear 9 1016 52 10000 1.9 81 12:55 18.05.2022
3648 Clear 12 1016 20 10000 1.65 79 12:25 18.05.2022
3649 Clear 10 1016 51 10000 1.65 79 11:33 18.05.2022
3650 Clear 9 1016 51 10000 1.79 79 10:48 18.05.2022
3651 Clear 11 1017 50 10000 1.31 87 08:25 18.05.2022
3652 Clear 9 1017 51 10000 1.24 71 07:27 18.05.2022
3653 Clear 10 1017 48 10000 1.68 83 03:59 18.05.2022
3654 Haze 18 873 48 4000 1.03 0 00:51 18.05.2022
3655 Haze 20 876 40 4000 1.54 260 23:41 17.05.2022
3656 Haze 22 876 33 4000 1.54 210 21:23 17.05.2022
3657 Haze 21 876 34 4000 2.06 270 20:44 17.05.2022
3658 Haze 21 795 34 5000 1.54 270 19:45 17.05.2022
3659 Haze 20 946 34 5000 1.54 270 19:24 17.05.2022
3660 Clear 19 930 34 8000 1.54 0 17:49 17.05.2022
3661 Clear 18 864 38 10000 0 0 16:57 17.05.2022
3662 Clear 21 940 38 10000 0.87 218 15:59 17.05.2022
3663 Clear 20 1009 40 10000 1.02 80 14:56 17.05.2022
3664 Clear 15 1018 18 10000 1.84 74 14:29 17.05.2022
3665 Clear 9 1018 50 10000 2.22 77 13:24 17.05.2022
3666 Clear 10 1018 52 10000 1.69 87 10:42 17.05.2022
3667 Clear 12 1018 51 10000 1.35 89 08:53 17.05.2022
3668 Clear 9 1018 52 10000 1.58 93 07:56 17.05.2022
3669 Clear 13 1018 49 10000 1.89 83 06:26 17.05.2022
3670 Clear 15 1024 50 10000 0.71 166 01:34 17.05.2022
3671 Haze 19 974 42 5000 2.06 270 23:59 16.05.2022
3672 Haze 20 874 37 5000 2.57 250 22:40 16.05.2022
3673 Haze 20 874 36 5000 2.06 260 21:31 16.05.2022
3674 Haze 20 874 35 5000 2.06 250 20:43 16.05.2022
3675 Clear 19 892 36 10000 1.03 270 18:53 16.05.2022
3676 Clear 17 947 38 10000 1.03 200 17:26 16.05.2022
3677 Clear 18 573 41 10000 0.89 236 15:36 16.05.2022
3678 Clear 11 1018 48 10000 1.55 84 13:48 16.05.2022
3679 Clouds 11 1010 48 10000 1.15 86 12:44 16.05.2022
3680 Clouds 11 1011 50 10000 1.28 77 10:38 16.05.2022
3681 Clear 13 1017 41 10000 0.77 94 08:32 16.05.2022
3682 Clouds 14 1018 40 10000 0.81 105 06:30 16.05.2022
3683 Clouds 18 804 41 10000 0.45 214 01:44 16.05.2022
3684 Clouds 22 935 26 8000 2.06 220 22:52 15.05.2022
3685 Clouds 22 971 25 8000 2.06 220 22:25 15.05.2022
3686 Clouds 22 872 27 8000 2.57 240 21:38 15.05.2022
3687 Clouds 23 927 28 7000 2.06 230 20:53 15.05.2022
3688 Clear 20 946 34 10000 1.03 0 18:53 15.05.2022
3689 Clear 19 795 36 10000 1.03 0 17:45 15.05.2022
3690 Clear 9 1016 57 10000 1.03 50 15:26 15.05.2022
3691 Clouds 15 1008 46 10000 1.97 69 13:47 15.05.2022
3692 Clear 7 1016 51 10000 1.55 76 12:21 15.05.2022
3693 Clear 13 1008 46 10000 1.56 70 11:29 15.05.2022
3694 Clear 13 1008 46 10000 1.61 71 10:20 15.05.2022
3695 Clouds 14 1008 48 10000 1.11 69 07:36 15.05.2022
3696 Clouds 15 1009 48 10000 0.77 79 06:57 15.05.2022
3697 Clouds 13 1023 50 10000 0.28 38 04:26 15.05.2022
3698 Haze 17 1019 49 4000 0 0 00:47 15.05.2022
3699 Haze 18 1019 46 4000 1.54 300 23:38 14.05.2022
3700 Haze 19 873 45 5000 1.54 0 22:41 14.05.2022
3701 Haze 19 873 44 3000 1.54 190 21:27 14.05.2022
3702 Haze 19 872 43 3000 1.54 10 20:30 14.05.2022
3703 Haze 18 873 45 4000 2.57 0 19:21 14.05.2022
3704 Clouds 18 803 46 10000 1.06 228 18:59 14.05.2022
3705 Haze 17 936 47 5000 0 0 17:53 14.05.2022
3706 Clouds 13 1020 60 6000 0 0 16:23 14.05.2022
3707 Clouds 8 1017 74 6000 0 0 14:50 14.05.2022
3708 Clouds 9 1017 67 6000 0 0 14:26 14.05.2022
3709 Clouds 9 1015 52 10000 0.44 76 11:51 14.05.2022
3710 Clouds 12 1022 57 10000 0.56 71 10:45 14.05.2022
3711 Clouds 11 1015 52 10000 0.88 74 10:19 14.05.2022
3712 Clouds 11 1015 52 10000 0.88 74 09:46 14.05.2022
3713 Clouds 12 1022 58 10000 0.46 95 07:59 14.05.2022
3714 Clear 14 1022 58 10000 0.76 78 05:21 14.05.2022
3715 Clear 15 1022 55 10000 0.63 234 01:57 14.05.2022
3716 Clear 20 971 42 7000 1.54 220 23:28 13.05.2022
3717 Haze 20 873 41 4000 2.57 210 22:56 13.05.2022
3718 Haze 20 971 42 4000 2.57 210 22:22 13.05.2022
3719 Haze 20 872 41 4000 2.06 240 21:24 13.05.2022
3720 Haze 19 971 41 4000 2.06 0 20:43 13.05.2022
3721 Haze 19 873 42 4000 2.06 0 20:22 13.05.2022
3722 Haze 19 972 44 4000 0 0 19:19 13.05.2022
3723 Haze 18 796 48 4000 2.06 240 17:50 13.05.2022
3724 Haze 16 1018 51 4000 2.06 240 17:24 13.05.2022
3725 Haze 10 1018 73 4000 0 0 15:53 13.05.2022
3726 Haze 9 1017 75 5000 0 0 14:47 13.05.2022
3727 Clouds 12 1022 63 10000 0.23 130 12:54 13.05.2022
3728 Clouds 12 1022 62 10000 0.27 216 12:25 13.05.2022
3729 Clouds 12 1022 70 10000 0.27 198 10:35 13.05.2022
3730 Clouds 13 1022 62 10000 0.14 78 09:29 13.05.2022
3731 Clouds 14 1021 60 10000 0.53 261 08:20 13.05.2022
3732 Clouds 14 1021 60 10000 0.53 261 07:30 13.05.2022
3733 Clouds 15 1022 62 10000 0.93 215 05:46 13.05.2022
3734 Clouds 16 1022 62 10000 0.98 224 01:48 13.05.2022
3735 Haze 17 1018 60 3000 2.06 240 23:43 12.05.2022
3736 Haze 17 1018 56 3000 2.06 220 22:42 12.05.2022
3737 Haze 18 1018 51 3000 0 0 21:36 12.05.2022
3738 Haze 19 876 48 3000 1.54 210 20:22 12.05.2022
3739 Haze 17 1020 57 3000 0 0 18:30 12.05.2022
3740 Haze 15 1019 60 4000 1.54 310 16:52 12.05.2022
3741 Haze 14 1018 64 4500 0 0 15:30 12.05.2022
3742 Clouds 15 1020 56 10000 0.78 273 13:58 12.05.2022
3743 Clouds 14 1021 60 10000 0.53 306 13:21 12.05.2022
3744 Clouds 15 1020 57 10000 0.59 296 10:35 12.05.2022
3745 Clouds 15 1020 58 10000 0.43 260 08:58 12.05.2022
3746 Clouds 15 1021 59 10000 0.43 260 08:39 12.05.2022
3747 Clouds 15 1021 58 10000 0.64 271 07:36 12.05.2022
3748 Clouds 16 1021 61 10000 0.63 245 05:30 12.05.2022
3749 Clouds 19 952 50 10000 0.36 273 02:21 12.05.2022
3750 Haze 20 875 46 4000 1.03 270 23:55 11.05.2022
3751 Haze 20 972 42 4000 1.03 270 22:29 11.05.2022
3752 Haze 20 972 41 4000 1.03 180 21:29 11.05.2022
3753 Haze 21 875 40 4000 1.03 240 20:48 11.05.2022
3754 Clouds 20 796 43 6000 1.03 180 17:54 11.05.2022
3755 Clouds 19 796 42 7000 1.54 240 16:49 11.05.2022
3756 Clouds 21 875 42 10000 0.34 275 14:50 11.05.2022
3757 Clouds 15 1016 53 10000 0.27 57 14:26 11.05.2022
3758 Clouds 15 1016 52 10000 0.27 57 13:44 11.05.2022
3759 Clouds 15 1015 52 10000 0.66 62 11:50 11.05.2022
3760 Clouds 15 1021 52 10000 0.37 23 09:39 11.05.2022
3761 Clouds 16 1022 54 10000 0.51 55 07:52 11.05.2022
3762 Rain 19 764 42 10000 0.31 321 04:43 11.05.2022
3763 Haze 21 873 41 4000 2.57 240 23:48 10.05.2022
3764 Haze 22 872 36 4000 2.07 240 22:30 10.05.2022
3765 Clouds 22 971 34 6000 2.57 230 21:43 10.05.2022
3766 Haze 22 872 33 4000 2.06 250 20:48 10.05.2022
3767 Clouds 21 972 35 6000 2.06 240 19:25 10.05.2022
3768 Clouds 19 795 43 8000 1.03 0 17:44 10.05.2022
3769 Clear 17 796 45 10000 1.03 0 16:39 10.05.2022
3770 Clouds 12 1016 52 10000 1.01 73 13:54 10.05.2022
3771 Clouds 12 1017 52 10000 0.37 169 12:36 10.05.2022
3772 Clouds 13 1016 51 10000 0.79 70 11:49 10.05.2022
3773 Clouds 13 1016 50 10000 0.38 116 11:18 10.05.2022
3774 Clouds 13 1016 53 10000 0.28 84 09:52 10.05.2022
3775 Clouds 13 1017 53 10000 0.4 94 09:18 10.05.2022
3776 Clouds 13 1017 50 10000 0.44 83 06:35 10.05.2022
3777 Clouds 16 1017 45 10000 0.17 171 02:48 10.05.2022
3778 Haze 19 973 45 5000 0 0 00:23 10.05.2022
3779 Haze 20 874 40 5000 1.03 0 22:42 09.05.2022
3780 Haze 19 973 40 5000 0 0 21:48 09.05.2022
3781 Haze 19 875 42 5000 2.06 270 20:22 09.05.2022
3782 Haze 17 948 48 5000 1.54 210 18:35 09.05.2022
3783 Haze 13 1021 57 5000 0 0 17:33 09.05.2022
3784 Clear 12 1020 50 10000 1.27 237 16:21 09.05.2022
3785 Haze 9 1021 74 5000 2.06 340 15:47 09.05.2022
3786 Haze 6 1022 89 5000 0 0 14:46 09.05.2022
3787 Clouds 12 1021 54 10000 0.13 273 13:59 09.05.2022
3788 Clouds 12 1021 52 10000 0.13 273 13:32 09.05.2022
3789 Clouds 10 1028 68 10000 0.37 96 11:54 09.05.2022
3790 Clouds 10 1027 68 10000 0.29 45 10:50 09.05.2022
3791 Clouds 13 1020 52 10000 1.48 233 10:29 09.05.2022
3792 Clouds 12 1028 67 10000 1.38 235 07:57 09.05.2022
3793 Clouds 12 1029 69 10000 0.57 74 06:42 09.05.2022
3794 Clouds 13 1029 67 10000 1.13 243 02:37 09.05.2022
3795 Clouds 13 1029 67 10000 1.13 243 02:37 09.05.2022
3796 Clouds 13 1029 67 10000 1.13 243 02:37 09.05.2022
3797 Clouds 13 1029 67 10000 1.13 243 02:37 09.05.2022
3798 Mist 11 1023 73 4000 1.54 210 23:29 08.05.2022
3799 Mist 11 1023 79 4000 1.54 230 22:47 08.05.2022
3800 Mist 11 1022 74 4500 0 0 21:47 08.05.2022
3801 Mist 11 1022 79 4000 0 0 20:31 08.05.2022
3802 Mist 11 1022 79 4000 2.06 240 19:37 08.05.2022
3803 Mist 10 1022 84 4000 0 0 18:49 08.05.2022
3804 Fog 10 1023 89 800 0 0 17:52 08.05.2022
3805 Drizzle 11 1026 83 700 0 0 16:30 08.05.2022
3806 Fog 11 1026 84 800 1.54 240 15:25 08.05.2022
3807 Fog 10 1026 81 800 0 0 14:23 08.05.2022
3808 Clouds 12 1026 75 10000 0.55 277 11:53 08.05.2022
3809 Clouds 12 1026 75 10000 0.48 249 10:27 08.05.2022
3810 Clouds 13 1026 68 10000 0.48 249 09:55 08.05.2022
3811 Clouds 12 1026 69 10000 0.75 259 08:37 08.05.2022
3812 Clouds 13 1026 67 10000 0.91 252 06:31 08.05.2022
3813 Clouds 14 1022 59 10000 1.19 224 03:23 08.05.2022
3814 Clear 16 1020 53 10000 0.99 237 01:25 08.05.2022
3815 Haze 20 1017 37 5000 1.54 240 00:20 08.05.2022
3816 Clear 21 1016 32 7000 1.31 234 23:41 07.05.2022
3817 Haze 22 1016 32 5000 1.03 300 22:46 07.05.2022
3818 Haze 22 1015 30 5000 1.54 0 21:57 07.05.2022
3819 Haze 22 1015 30 5000 1.54 0 21:31 07.05.2022
3820 Haze 21 1015 35 5000 1.54 240 20:25 07.05.2022
3821 Haze 18 1017 39 5000 2.06 230 18:59 07.05.2022
3822 Clear 14 1017 49 10000 2.06 230 16:51 07.05.2022
3823 Clear 10 1016 61 10000 0 0 15:18 07.05.2022
3824 Clear 13 1015 52 10000 1.16 62 12:23 07.05.2022
3825 Clear 14 1015 51 10000 0.71 75 10:18 07.05.2022
3826 Clear 12 1016 50 10000 0.64 111 08:34 07.05.2022
3827 Clear 12 1016 49 10000 0.28 69 07:37 07.05.2022
3828 Clear 13 1017 50 10000 0.41 81 06:42 07.05.2022
3829 Clear 19 697 43 10000 0.58 186 04:21 07.05.2022
3830 Clear 21 914 38 10000 0 0 00:49 07.05.2022
3831 Clear 22 913 30 7000 2.06 0 22:41 06.05.2022
3832 Clear 22 913 31 7000 2.06 0 22:21 06.05.2022
3833 Haze 23 1017 29 5000 1.54 0 21:32 06.05.2022
3834 Clear 21 796 39 7000 2.06 250 19:49 06.05.2022
3835 Clear 21 796 39 7000 2.06 250 19:27 06.05.2022
3836 Clear 20 796 39 10000 1.03 0 18:43 06.05.2022
3837 Clear 18 858 45 10000 1.54 200 17:37 06.05.2022
3838 Clear 18 697 41 10000 1.12 244 15:54 06.05.2022
3839 Clear 17 697 48 10000 1.12 244 15:30 06.05.2022
3840 Clear 9 1018 48 10000 0 0 14:22 06.05.2022
3841 Clouds 13 1017 60 10000 0.99 82 12:52 06.05.2022
3842 Clouds 13 1017 63 10000 0.99 92 11:58 06.05.2022
3843 Clouds 10 1017 62 10000 0.7 108 11:27 06.05.2022
3844 Clouds 13 1017 64 10000 0.73 91 09:48 06.05.2022
3845 Clear 13 1017 62 10000 0.67 74 09:18 06.05.2022
3846 Clear 14 1017 61 10000 0.73 100 07:55 06.05.2022
3847 Clear 14 1018 62 10000 0.45 158 06:27 06.05.2022
3848 Clear 14 1019 59 10000 0.5 199 03:44 06.05.2022
3849 Clear 12 1019 59 10000 0.54 198 02:38 06.05.2022
3850 Haze 18 796 54 3000 2.06 240 23:24 05.05.2022
3851 Clear 19 697 41 10000 2.63 240 21:51 05.05.2022
3852 Haze 18 892 52 3000 2.06 210 20:37 05.05.2022
3853 Clear 20 1018 32 10000 2.74 242 19:19 05.05.2022
3854 Clear 21 875 41 10000 1.88 246 16:42 05.05.2022
3855 Clear 11 1019 60 10000 1.5 243 15:31 05.05.2022
3856 Clouds 14 1017 60 10000 0.47 113 13:30 05.05.2022
3857 Clouds 14 1017 58 10000 0.47 113 12:56 05.05.2022
3858 Clouds 15 1017 56 10000 0.51 103 11:35 05.05.2022
3859 Clouds 12 1016 57 10000 0.44 101 09:41 05.05.2022
3860 Clouds 12 1016 57 10000 0.44 101 09:41 05.05.2022
3861 Clouds 14 1022 56 10000 0.55 93 08:40 05.05.2022
3862 Clouds 15 1022 50 10000 0.25 254 06:28 05.05.2022
3863 Clouds 19 803 45 10000 1.2 241 02:25 05.05.2022
3864 Clouds 20 803 43 10000 1.02 240 01:41 05.05.2022
3865 Clouds 21 971 39 7000 1.54 200 00:49 05.05.2022
3866 Clear 23 872 34 10000 3.09 220 23:18 04.05.2022
3867 Clouds 25 1016 23 7000 2.57 0 21:59 04.05.2022
3868 Clouds 26 1016 23 7000 2.57 0 21:34 04.05.2022
3869 Clouds 25 1016 21 7000 2.57 240 20:52 04.05.2022
3870 Clouds 25 1016 22 7000 2.57 240 20:18 04.05.2022
3871 Haze 24 1015 26 5000 2.57 200 19:35 04.05.2022
3872 Clouds 23 1017 27 6000 2.57 240 18:42 04.05.2022
3873 Clouds 23 1015 25 6000 2.57 240 18:18 04.05.2022
3874 Clear 19 1015 30 10000 0 0 16:36 04.05.2022
3875 Clear 12 1015 52 10000 0 0 15:32 04.05.2022
3876 Clouds 6 1014 16 10000 0.98 63 14:38 04.05.2022
3877 Clouds 11 1014 46 10000 1.33 78 14:19 04.05.2022
3878 Clouds 11 1013 46 10000 1.27 83 12:36 04.05.2022
3879 Clouds 11 1012 47 10000 0.98 49 11:28 04.05.2022
3880 Clouds 12 1012 45 10000 1 45 09:57 04.05.2022
3881 Clouds 15 1018 39 10000 1.18 56 09:20 04.05.2022
3882 Clouds 14 1012 43 10000 0.79 67 07:33 04.05.2022
3883 Clouds 17 1019 40 10000 0.75 107 04:45 04.05.2022
3884 Clouds 18 1019 40 10000 0.53 125 02:33 04.05.2022
3885 Clear 25 1016 20 7000 1.03 210 22:59 03.05.2022
3886 Clear 24 1017 23 7000 1.03 350 21:50 03.05.2022
3887 Clear 24 1017 23 7000 1.03 350 21:23 03.05.2022
3888 Clear 24 1016 22 7000 1.54 230 20:39 03.05.2022
3889 Clear 23 1017 27 8000 1.54 0 19:32 03.05.2022
3890 Clear 21 1018 30 8000 1.54 230 18:43 03.05.2022
3891 Clear 20 859 37 9000 1.54 190 17:21 03.05.2022
3892 Clear 15 858 52 10000 0 0 15:51 03.05.2022
3893 Clear 9 1017 47 10000 0.94 89 14:23 03.05.2022
3894 Clear 9 1017 49 10000 1.35 89 12:35 03.05.2022
3895 Clear 10 1017 48 10000 0.55 82 11:35 03.05.2022
3896 Clear 10 1017 48 10000 0.79 76 10:26 03.05.2022
3897 Clear 13 1024 47 10000 0.49 127 08:19 03.05.2022
3898 Clear 13 1024 47 10000 0.51 127 08:19 03.05.2022
3899 Clear 14 1024 45 10000 0.93 113 06:45 03.05.2022
3900 Clear 16 1024 49 10000 0.45 140 02:39 03.05.2022
3901 Clear 20 915 35 7000 1.54 230 23:19 02.05.2022
3902 Clear 21 915 36 7000 1.03 330 22:28 02.05.2022
3903 Clear 21 915 36 6000 1.54 270 21:37 02.05.2022
3904 Clear 19 915 42 7000 1.54 320 19:26 02.05.2022
3905 Clear 18 917 46 8000 1.03 170 18:26 02.05.2022
3906 Clear 17 859 47 8000 1.54 150 17:39 02.05.2022
3907 Clear 14 1020 50 10000 0.51 0 16:42 02.05.2022
3908 Clear 12 1023 61 10000 0 0 15:41 02.05.2022
3909 Clear 8 1019 74 10000 1.03 50 14:45 02.05.2022
3910 Clouds 12 1018 51 10000 0.35 122 13:42 02.05.2022
3911 Clouds 11 1024 60 10000 0.66 188 11:41 02.05.2022
3912 Clouds 12 1024 59 10000 0.72 204 09:42 02.05.2022
3913 Clouds 13 1023 62 10000 0.72 231 08:29 02.05.2022
3914 Clouds 13 1023 62 10000 0.16 177 06:53 02.05.2022
3915 Clear 16 1021 49 10000 1.35 231 00:46 02.05.2022
3916 Clear 17 1020 47 10000 2.33 230 00:22 02.05.2022
3917 Clear 20 912 37 8000 2.57 210 22:54 01.05.2022
3918 Clear 20 912 34 8000 2.06 210 21:43 01.05.2022
3919 Haze 20 912 36 5000 2.06 0 20:36 01.05.2022
3920 Clear 19 913 38 7000 2.06 280 19:22 01.05.2022
3921 Clear 19 913 41 7000 1.03 180 18:52 01.05.2022
3922 Clear 17 913 43 10000 0 0 17:49 01.05.2022
3923 Clear 14 1016 48 8000 0 0 16:37 01.05.2022
3924 Clear 10 1015 66 10000 0 0 15:51 01.05.2022
3925 Clear 8 1015 70 10000 1.54 50 14:45 01.05.2022
3926 Clear 11 1021 53 10000 0.3 100 12:40 01.05.2022
3927 Clear 12 1021 50 10000 0.29 207 10:22 01.05.2022
3928 Clear 13 1021 51 10000 0.16 97 08:50 01.05.2022
3929 Clear 13 1022 50 10000 0.2 170 06:50 01.05.2022
3930 Clear 16 1022 46 10000 0.5 258 02:31 01.05.2022
3931 Clear 21 913 32 7000 2.06 260 22:51 30.04.2022
3932 Haze 21 914 34 5000 2.06 270 21:33 30.04.2022
3933 Haze 20 914 37 5000 0 0 20:19 30.04.2022
3934 Clear 20 858 37 6000 1.54 0 19:25 30.04.2022
3935 Clear 18 858 46 8000 1.54 0 17:31 30.04.2022
3936 Clear 10 1018 70 10000 0 0 15:53 30.04.2022
3937 Clear 10 1018 71 10000 0 0 15:18 30.04.2022
3938 Clear 13 1017 52 10000 0.64 104 13:59 30.04.2022
3939 Clear 13 1024 57 10000 0.74 117 11:58 30.04.2022
3940 Clear 12 1024 56 10000 0.74 117 11:31 30.04.2022
3941 Clear 14 1016 50 10000 0.54 117 10:23 30.04.2022
3942 Clear 13 1024 62 10000 0.28 4 07:47 30.04.2022
3943 Clouds 14 1024 64 10000 0.64 211 04:58 30.04.2022
3944 Clouds 20 914 41 7000 2.57 180 00:25 30.04.2022
3945 Haze 23 913 33 5000 2.06 270 22:56 29.04.2022
3946 Haze 23 912 33 5000 2.06 270 22:21 29.04.2022
3947 Haze 25 1015 25 4000 1.54 210 21:26 29.04.2022
3948 Haze 23 1015 31 4000 1.54 0 20:24 29.04.2022
3949 Haze 21 1016 36 4000 0 0 19:28 29.04.2022
3950 Clear 18 857 48 8000 0 0 17:37 29.04.2022
3951 Clear 17 1017 49 10000 0 0 16:42 29.04.2022
3952 Fog 18 1016 41 2000 0.51 0 14:37 29.04.2022
3953 Clouds 18 1015 42 10000 1.14 90 13:51 29.04.2022
3954 Clouds 18 1015 42 10000 1.55 79 12:38 29.04.2022
3955 Clouds 18 1015 42 10000 1.96 81 10:44 29.04.2022
3956 Clouds 18 1016 43 10000 1.97 80 07:57 29.04.2022
3957 Clouds 19 1016 43 10000 1.79 78 07:26 29.04.2022
3958 Clouds 19 1017 43 10000 1.79 78 06:32 29.04.2022
3959 Clear 17 1020 52 10000 0.83 143 02:23 29.04.2022
3960 Clear 19 1018 46 10000 1.54 190 00:18 29.04.2022
3961 Clear 20 1017 41 10000 2.06 200 23:26 28.04.2022
3962 Clear 20 1018 42 10000 1.54 220 22:33 28.04.2022
3963 Haze 20 1017 42 5000 1.54 240 21:43 28.04.2022
3964 Haze 20 1017 43 5000 1.54 0 20:48 28.04.2022
3965 Clear 19 1018 44 10000 2.06 220 19:55 28.04.2022
3966 Clear 19 1018 44 10000 2.06 220 19:25 28.04.2022
3967 Clear 18 1018 48 10000 0 0 18:52 28.04.2022
3968 Clear 15 1019 60 10000 1.03 300 17:54 28.04.2022
3969 Haze 15 1020 63 4000 1.03 110 16:52 28.04.2022
3970 Haze 14 1021 63 4000 1.03 110 16:20 28.04.2022
3971 Mist 14 1021 69 2000 0 0 15:49 28.04.2022
3972 Mist 14 1021 69 2000 0 0 15:49 28.04.2022
3973 Mist 8 1021 81 2000 2.06 40 14:58 28.04.2022
3974 Clear 12 1019 57 10000 2.13 76 13:37 28.04.2022
3975 Clear 10 1028 72 10000 2.17 82 12:30 28.04.2022
3976 Clear 10 1028 72 10000 2.17 82 12:30 28.04.2022
3977 Clear 11 1027 71 10000 1.98 84 11:37 28.04.2022
3978 Clear 9 1027 72 10000 1.84 91 10:26 28.04.2022
3979 Clear 9 1027 72 10000 1.84 91 09:50 28.04.2022
3980 Clear 10 1029 73 10000 1.9 85 07:41 28.04.2022
3981 Clear 11 1029 74 10000 2.05 77 06:43 28.04.2022
3982 Clear 11 1028 74 10000 1.91 79 05:52 28.04.2022
3983 Clear 12 1028 74 10000 1.53 85 04:43 28.04.2022
3984 Clear 13 1027 72 10000 1.18 84 02:41 28.04.2022
3985 Clouds 13 1024 77 7000 2.06 210 23:32 27.04.2022
3986 Clouds 13 1024 72 7000 2.57 210 22:20 27.04.2022
3987 Clouds 13 1023 75 7000 3.09 230 21:43 27.04.2022
3988 Clouds 13 1023 73 7000 2.06 250 20:45 27.04.2022
3989 Clouds 15 1025 66 10000 3.03 240 19:55 27.04.2022
3990 Clouds 15 1025 67 10000 2.97 240 19:34 27.04.2022
3991 Haze 13 1023 76 5000 2.06 150 18:41 27.04.2022
3992 Haze 13 1023 78 5000 2.06 150 18:20 27.04.2022
3993 Clouds 14 1025 74 10000 1.05 261 16:18 27.04.2022
3994 Clouds 12 1025 78 10000 1.5 67 13:18 27.04.2022
3995 Clouds 13 1024 79 10000 0.82 61 11:25 27.04.2022
3996 Clouds 13 1024 78 10000 0.82 61 10:45 27.04.2022
3997 Clouds 14 1024 78 10000 0.59 26 08:28 27.04.2022
3998 Clouds 14 1025 79 10000 1.93 356 06:41 27.04.2022
3999 Rain 11 1019 92 1670 1.88 191 02:35 27.04.2022
4000 Rain 12 1017 91 791 4.54 247 01:23 27.04.2022
4001 Clouds 13 1018 81 4000 2.57 240 00:27 27.04.2022
4002 Clouds 16 1017 62 8000 4.12 300 23:24 26.04.2022
4003 Clouds 17 1015 57 7000 1.54 310 22:45 26.04.2022
4004 Clouds 17 1015 54 7000 1.54 310 22:19 26.04.2022
4005 Clouds 17 1015 53 7000 2.57 210 21:24 26.04.2022
4006 Clouds 18 1016 47 10000 5.14 290 20:38 26.04.2022
4007 Rain 18 1013 45 10000 4.63 300 19:45 26.04.2022
4008 Clouds 19 1015 44 10000 4.63 300 19:26 26.04.2022
4009 Clouds 18 1015 49 10000 2.06 0 18:39 26.04.2022
4010 Clouds 17 1016 56 10000 3.6 40 17:41 26.04.2022
4011 Clouds 14 1018 73 10000 0.51 90 15:41 26.04.2022
4012 Clouds 14 1019 78 10000 1.94 274 13:51 26.04.2022
4013 Clouds 14 1020 77 10000 1.72 295 12:57 26.04.2022
4014 Clouds 14 1019 77 10000 1.11 297 11:24 26.04.2022
4015 Clouds 14 1019 79 10000 1.11 297 10:30 26.04.2022
4016 Clouds 14 1019 75 10000 1.08 291 08:34 26.04.2022
4017 Clouds 15 1021 70 10000 0.83 269 04:59 26.04.2022
4018 Clouds 15 1021 73 10000 1.31 253 04:22 26.04.2022
4019 Clouds 18 1017 56 10000 2.57 190 00:51 26.04.2022
4020 Clouds 19 1017 52 10000 3.6 210 23:50 25.04.2022
4021 Clouds 21 1014 41 10000 2.06 300 21:53 25.04.2022
4022 Clouds 21 1014 40 10000 2.06 300 21:26 25.04.2022
4023 Clouds 21 1015 40 10000 2.57 0 19:53 25.04.2022
4024 Clouds 19 1017 46 10000 2.57 0 18:34 25.04.2022
4025 Clear 18 1019 50 10000 2.54 282 17:39 25.04.2022
4026 Clouds 16 1019 65 10000 0 0 16:35 25.04.2022
4027 Clouds 14 1020 71 10000 1.03 0 15:21 25.04.2022
4028 Clouds 12 1020 81 10000 1.03 20 14:32 25.04.2022
4029 Clouds 13 1021 70 10000 0.75 268 12:47 25.04.2022
4030 Clouds 14 1021 69 10000 0.7 349 10:42 25.04.2022
4031 Clouds 15 1021 69 10000 0.45 16 09:41 25.04.2022
4032 Rain 15 1021 67 10000 0.6 301 07:38 25.04.2022
4033 Rain 16 1021 64 10000 1.81 251 05:54 25.04.2022
4034 Clouds 17 1020 59 10000 1.77 241 01:28 25.04.2022
4035 Clouds 19 1018 55 10000 3.09 230 23:54 24.04.2022
4036 Clouds 19 1018 55 10000 3.09 230 23:54 24.04.2022
4037 Clouds 19 1018 51 10000 3.09 230 23:24 24.04.2022
4038 Clouds 20 1017 49 10000 3.6 240 22:39 24.04.2022
4039 Clouds 20 1017 47 10000 4.12 240 21:55 24.04.2022
4040 Clouds 20 1017 47 10000 4.12 240 21:21 24.04.2022
4041 Clouds 20 1017 44 10000 3.6 240 20:44 24.04.2022
4042 Clouds 20 1018 46 10000 2.57 230 19:57 24.04.2022
4043 Clear 19 1018 46 10000 2.06 250 18:37 24.04.2022
4044 Clear 18 1018 52 10000 2.06 230 17:42 24.04.2022
4045 Clear 18 1018 53 10000 2.06 230 17:20 24.04.2022
4046 Clear 17 1018 57 10000 0 0 16:51 24.04.2022
4047 Clear 17 1018 55 10000 0 0 16:23 24.04.2022
4048 Clear 14 1018 61 10000 1.54 150 15:39 24.04.2022
4049 Clear 12 1017 66 10000 1.54 30 14:31 24.04.2022
4050 Clear 13 1020 57 10000 0.55 308 13:26 24.04.2022
4051 Clear 13 1020 56 10000 0.55 308 12:46 24.04.2022
4052 Clear 14 1020 57 10000 0.69 341 11:46 24.04.2022
4053 Clear 14 1019 57 10000 0.58 354 10:37 24.04.2022
4054 Clear 14 1020 63 10000 0.55 348 09:42 24.04.2022
4055 Clouds 14 1020 64 10000 0.45 320 07:42 24.04.2022
4056 Clouds 16 1020 63 10000 0.52 321 05:38 24.04.2022
4057 Clouds 20 862 46 10000 0.65 241 01:51 24.04.2022
4058 Clear 21 912 42 10000 3.09 250 00:45 24.04.2022
4059 Clouds 21 911 38 8000 3.6 260 23:46 23.04.2022
4060 Clouds 22 911 38 8000 3.6 260 23:25 23.04.2022
4061 Clouds 22 912 35 8000 2.57 0 21:56 23.04.2022
4062 Clouds 22 912 35 8000 2.57 0 21:36 23.04.2022
4063 Clouds 21 914 39 6000 2.57 240 20:58 23.04.2022
4064 Haze 20 914 44 5000 3.09 230 19:55 23.04.2022
4065 Haze 20 856 43 5000 3.09 230 19:20 23.04.2022
4066 Clear 20 857 45 8000 2.06 230 18:53 23.04.2022
4067 Clear 19 913 48 8000 2.06 230 18:28 23.04.2022
4068 Clear 19 857 46 10000 2.06 0 17:43 23.04.2022
4069 Clear 18 857 49 10000 1.03 350 16:43 23.04.2022
4070 Clear 13 1019 67 10000 0 0 15:32 23.04.2022
4071 Clear 12 1022 59 10000 0.85 32 12:54 23.04.2022
4072 Clear 13 1021 57 10000 0.45 354 10:52 23.04.2022
4073 Clear 14 1021 57 10000 0.39 53 09:38 23.04.2022
4074 Clear 14 1022 61 10000 0.8 68 07:38 23.04.2022
4075 Clear 15 1022 63 10000 0.4 153 03:54 23.04.2022
4076 Clouds 18 1023 53 10000 0.56 194 01:32 23.04.2022
4077 Clouds 20 915 41 10000 3.09 230 23:32 22.04.2022
4078 Clouds 21 914 37 10000 3.09 240 22:28 22.04.2022
4079 Clouds 21 914 37 10000 2.06 200 21:44 22.04.2022
4080 Clouds 20 915 39 8000 1.54 20 20:55 22.04.2022
4081 Clouds 20 915 40 8000 1.54 20 20:28 22.04.2022
4082 Clouds 19 916 43 8000 2.06 190 19:22 22.04.2022
4083 Clouds 18 916 45 8000 2.06 200 18:46 22.04.2022
4084 Clouds 16 1023 53 8000 0 0 17:50 22.04.2022
4085 Clouds 16 1023 64 8000 0 0 16:52 22.04.2022
4086 Clouds 14 1024 68 10000 0 0 15:47 22.04.2022
4087 Rain 14 1023 70 10000 0 0 15:21 22.04.2022
4088 Rain 14 1026 67 10000 0.68 347 13:54 22.04.2022
4089 Clouds 13 1027 73 10000 1.75 28 12:59 22.04.2022
4090 Rain 14 1025 59 10000 2.64 54 12:28 22.04.2022
4091 Rain 14 1026 66 10000 1.25 101 11:22 22.04.2022
4092 Rain 14 1026 66 10000 1.25 101 10:51 22.04.2022
4093 Rain 14 1026 66 10000 1.25 101 10:31 22.04.2022
4094 Rain 15 1026 65 10000 1.07 166 09:53 22.04.2022
4095 Clouds 15 1025 65 10000 0.97 197 08:56 22.04.2022
4096 Clouds 15 1026 53 10000 0.82 291 07:44 22.04.2022
4097 Clouds 16 1027 52 10000 1.42 233 04:24 22.04.2022
4098 Haze 18 1024 52 5000 0 0 00:52 22.04.2022
4099 Clouds 19 917 47 8000 2.06 250 23:26 21.04.2022
4100 Clouds 20 917 45 8000 2.57 250 22:29 21.04.2022
4101 Rain 19 917 44 8000 1.54 270 20:46 21.04.2022
4102 Clouds 19 917 44 8000 1.54 270 20:26 21.04.2022
4103 Clouds 18 918 48 10000 1.54 210 18:47 21.04.2022
4104 Clouds 18 919 49 10000 1.54 210 18:19 21.04.2022
4105 Clouds 17 918 49 6000 1.03 110 16:47 21.04.2022
4106 Clouds 14 1025 54 10000 0 0 15:22 21.04.2022
4107 Clouds 14 1025 57 10000 0 0 14:50 21.04.2022
4108 Clouds 14 1027 51 10000 0.42 25 13:44 21.04.2022
4109 Clouds 13 1027 46 10000 0.52 39 13:18 21.04.2022
4110 Clear 13 1027 52 10000 0.42 46 11:19 21.04.2022
4111 Clear 13 1027 58 10000 0.17 25 08:57 21.04.2022
4112 Clear 14 1027 57 10000 0.38 71 07:55 21.04.2022
4113 Clear 14 1027 53 10000 0.38 233 06:21 21.04.2022
4114 Clear 16 1027 56 10000 0.14 191 03:35 21.04.2022
4115 Clear 17 1027 55 10000 1.07 235 02:48 21.04.2022
4116 Clouds 18 1026 50 10000 0.67 212 01:50 21.04.2022
4117 Clouds 20 917 40 8000 2.57 0 23:53 20.04.2022
4118 Clouds 20 916 39 8000 2.57 0 23:23 20.04.2022
4119 Clouds 21 916 36 7000 2.06 240 22:51 20.04.2022
4120 Clouds 21 916 36 7000 2.06 240 22:32 20.04.2022
4121 Clouds 21 916 37 7000 2.57 200 21:33 20.04.2022
4122 Clouds 20 917 41 6000 2.06 0 20:42 20.04.2022
4123 Clear 20 917 44 6000 1.54 180 19:53 20.04.2022
4124 Clear 19 917 45 6000 1.54 180 19:25 20.04.2022
4125 Clear 19 918 48 7000 2.57 240 18:26 20.04.2022
4126 Clear 16 1025 55 7000 1.03 0 16:57 20.04.2022
4127 Clear 16 1025 55 7000 1.03 0 16:38 20.04.2022
4128 Clear 11 1024 71 8000 1.54 30 14:48 20.04.2022
4129 Clouds 13 1026 59 10000 0.13 276 11:56 20.04.2022
4130 Clouds 13 1026 59 10000 0.27 316 11:29 20.04.2022
4131 Clouds 13 1026 64 10000 0.12 86 10:27 20.04.2022
4132 Clouds 13 1026 62 10000 0.39 127 09:26 20.04.2022
4133 Clouds 14 1026 57 10000 1.09 244 08:24 20.04.2022
4134 Clouds 14 1025 61 10000 1.13 242 07:42 20.04.2022
4135 Clouds 14 1025 61 10000 1.13 242 07:42 20.04.2022
4136 Clouds 15 1024 60 10000 0.73 268 04:37 20.04.2022
4137 Clouds 18 1021 48 7000 2.06 240 00:38 20.04.2022
4138 Clouds 19 915 45 7000 2.06 240 00:20 20.04.2022
4139 Clouds 21 913 38 8000 2.91 242 22:28 19.04.2022
4140 Clouds 21 913 39 7000 2.57 230 21:57 19.04.2022
4141 Clouds 21 913 39 7000 2.57 230 21:34 19.04.2022
4142 Haze 20 915 40 5000 1.54 270 20:50 19.04.2022
4143 Haze 20 915 40 5000 1.54 270 20:32 19.04.2022
4144 Clouds 19 914 41 8000 3.09 240 19:24 19.04.2022
4145 Clouds 17 914 48 8000 1.54 270 17:59 19.04.2022
4146 Clouds 17 858 50 10000 0 0 16:44 19.04.2022
4147 Clouds 15 1020 55 10000 0 0 16:24 19.04.2022
4148 Clouds 12 1020 61 10000 0 0 14:51 19.04.2022
4149 Clouds 12 1021 61 10000 0 0 14:31 19.04.2022
4150 Clouds 13 1023 50 10000 0.37 329 12:52 19.04.2022
4151 Clouds 13 1022 50 10000 0.47 261 12:26 19.04.2022
4152 Clouds 13 1022 48 10000 0.46 275 11:22 19.04.2022
4153 Clouds 13 1022 48 10000 0.26 256 09:25 19.04.2022
4154 Clouds 15 1022 51 10000 0.51 226 06:34 19.04.2022
4155 Clouds 15 1021 53 10000 1.02 246 04:19 19.04.2022
4156 Clouds 20 913 43 7000 1.54 230 00:56 19.04.2022
4157 Clear 21 913 40 10000 3.09 240 23:38 18.04.2022
4158 Clouds 22 912 35 7000 3.09 270 21:48 18.04.2022
4159 Clouds 22 912 35 7000 3.09 270 21:24 18.04.2022
4160 Clouds 21 862 37 10000 3.07 243 20:38 18.04.2022
4161 Haze 21 912 36 5000 2.57 250 19:59 18.04.2022
4162 Haze 21 912 36 5000 2.57 250 19:28 18.04.2022
4163 Clouds 20 857 39 8000 2.06 210 18:34 18.04.2022
4164 Clear 19 857 42 10000 1.54 0 17:39 18.04.2022
4165 Clear 19 857 42 10000 1.54 0 17:19 18.04.2022
4166 Clear 18 857 45 10000 1.54 240 16:35 18.04.2022
4167 Clear 18 857 45 10000 1.54 240 16:35 18.04.2022
4168 Clear 15 913 50 10000 0 0 15:28 18.04.2022
4169 Clear 5 1015 35 10000 0.22 82 13:44 18.04.2022
4170 Clear 5 1014 40 10000 0.35 47 12:40 18.04.2022
4171 Clear 12 1020 46 10000 0.37 62 11:43 18.04.2022
4172 Clear 12 1020 43 10000 0.14 130 10:43 18.04.2022
4173 Clear 14 1020 47 10000 0.11 110 09:31 18.04.2022
4174 Clear 14 1020 47 10000 0.11 110 09:31 18.04.2022
4175 Clear 8 1015 42 10000 0.22 51 08:29 18.04.2022
4176 Clear 14 1021 53 10000 0.2 223 06:25 18.04.2022
4177 Clear 19 864 47 10000 0.73 233 02:22 18.04.2022
4178 Clouds 22 913 36 8000 3.09 270 22:53 17.04.2022
4179 Clouds 22 1017 35 8000 3.09 270 22:31 17.04.2022
4180 Clouds 23 1017 30 8000 2.57 250 21:32 17.04.2022
4181 Clouds 22 1018 31 10000 3.2 244 20:50 17.04.2022
4182 Clear 22 1017 29 8000 1.54 230 19:55 17.04.2022
4183 Clear 21 857 36 10000 1.54 180 18:34 17.04.2022
4184 Clear 18 857 43 10000 0 0 16:44 17.04.2022
4185 Clear 18 697 43 10000 1.76 250 15:33 17.04.2022
4186 Clear 18 697 41 10000 0.67 228 14:38 17.04.2022
4187 Clear 13 1016 49 10000 0.86 94 13:23 17.04.2022
4188 Clear 10 1016 47 10000 0.86 94 12:30 17.04.2022
4189 Clear 11 1015 47 10000 0.52 97 10:48 17.04.2022
4190 Clear 11 1015 47 10000 0.65 74 10:29 17.04.2022
4191 Clear 11 1015 47 10000 0.65 74 09:50 17.04.2022
4192 Clear 13 1021 44 10000 0.65 100 08:58 17.04.2022
4193 Clear 12 1016 46 10000 0.35 111 08:27 17.04.2022
4194 Clear 15 1022 45 10000 0.51 197 05:20 17.04.2022
4195 Clear 19 864 42 10000 1.05 212 01:40 17.04.2022
4196 Clear 22 913 36 7000 2.57 230 23:59 16.04.2022
4197 Clear 22 913 34 6000 2.57 270 22:56 16.04.2022
4198 Clear 22 915 36 6000 2.06 240 21:44 16.04.2022
4199 Clear 21 697 38 10000 2.76 247 20:54 16.04.2022
4200 Clear 20 857 40 7000 2.06 260 19:21 16.04.2022
4201 Clear 19 857 45 6000 1.54 0 18:33 16.04.2022
4202 Clear 16 858 54 10000 1.54 210 16:44 16.04.2022
4203 Clear 15 858 64 10000 0 0 15:46 16.04.2022
4204 Clear 10 1017 58 10000 0.77 249 14:57 16.04.2022
4205 Clear 9 1017 57 10000 0.23 81 14:30 16.04.2022
4206 Clear 12 1017 59 10000 0.35 82 13:41 16.04.2022
4207 Clear 11 1024 62 10000 0.23 33 12:35 16.04.2022
4208 Clear 12 1016 53 10000 0.19 146 11:26 16.04.2022
4209 Clear 12 1016 53 10000 0.2 200 10:25 16.04.2022
4210 Clear 12 1016 53 10000 0.2 200 09:32 16.04.2022
4211 Clear 12 1024 63 10000 0.49 195 08:41 16.04.2022
4212 Clear 13 1024 66 10000 0.68 220 06:59 16.04.2022
4213 Clear 14 1024 66 10000 0.82 223 04:36 16.04.2022
4214 Clouds 15 1021 63 7000 2.06 220 00:40 16.04.2022
4215 Clouds 18 858 50 7000 2.57 250 23:40 15.04.2022
4216 Haze 18 858 50 5000 2.06 230 22:45 15.04.2022
4217 Haze 18 858 50 5000 2.06 230 22:27 15.04.2022
4218 Haze 18 857 50 5000 2.57 220 21:20 15.04.2022
4219 Clouds 19 697 41 10000 3.09 241 20:36 15.04.2022
4220 Haze 16 858 56 5000 2.06 270 19:43 15.04.2022
4221 Haze 16 858 59 4000 1.54 230 18:57 15.04.2022
4222 Haze 15 858 59 4000 1.54 230 18:26 15.04.2022
4223 Haze 15 858 59 4000 2.57 260 17:56 15.04.2022
4224 Haze 11 1019 79 4000 2.57 260 17:23 15.04.2022
4225 Haze 10 1019 84 4000 1.54 230 16:24 15.04.2022
4226 Mist 10 1018 84 4000 1.54 210 15:40 15.04.2022
4227 Clouds 13 1024 65 10000 0.6 235 13:55 15.04.2022
4228 Clouds 13 1023 65 10000 0.43 204 12:50 15.04.2022
4229 Clouds 13 1023 64 10000 0.7 234 12:21 15.04.2022
4230 Clouds 13 1023 67 10000 0.7 234 11:42 15.04.2022
4231 Clouds 13 1023 63 10000 0.67 213 10:46 15.04.2022
4232 Clouds 14 1022 66 10000 0.6 235 09:59 15.04.2022
4233 Clouds 14 1022 66 10000 0.78 252 09:22 15.04.2022
4234 Clouds 13 1023 63 10000 0.78 252 08:37 15.04.2022
4235 Clouds 14 1022 60 10000 1.1 235 06:47 15.04.2022
4236 Clouds 16 1020 53 10000 1.18 238 04:42 15.04.2022
4237 Clear 20 862 40 10000 1.51 230 00:34 15.04.2022
4238 Clear 22 910 32 8000 2.57 240 23:22 14.04.2022
4239 Clear 23 910 30 10000 3.09 230 22:45 14.04.2022
4240 Clear 24 1014 25 10000 3.09 230 22:26 14.04.2022
4241 Clear 24 1014 26 10000 3.09 220 21:47 14.04.2022
4242 Clear 22 913 31 7000 2.57 250 19:24 14.04.2022
4243 Clear 21 856 31 7000 2.06 200 18:53 14.04.2022
4244 Clear 20 856 33 8000 1.54 200 17:45 14.04.2022
4245 Clear 20 856 35 10000 0 0 16:51 14.04.2022
4246 Clear 17 856 43 10000 0 0 15:51 14.04.2022
4247 Clear 14 1013 37 10000 0.44 82 13:53 14.04.2022
4248 Clear 14 1013 37 10000 0.81 95 13:20 14.04.2022
4249 Clear 14 1018 36 10000 0.81 95 12:32 14.04.2022
4250 Clear 15 1018 36 10000 0.87 99 11:43 14.04.2022
4251 Clear 15 1018 35 10000 0.77 96 11:18 14.04.2022
4252 Clear 16 1013 35 10000 0.77 96 10:31 14.04.2022
4253 Clear 17 1012 34 10000 0.89 87 09:30 14.04.2022
4254 Clear 21 697 40 10000 1.18 89 08:23 14.04.2022
4255 Clear 21 697 40 10000 0.8 108 05:52 14.04.2022
4256 Clear 24 913 27 10000 1.54 240 00:59 14.04.2022
4257 Clear 26 1014 17 10000 2.57 230 22:38 13.04.2022
4258 Clear 26 1014 15 10000 2.06 0 21:43 13.04.2022
4259 Clear 24 1016 17 10000 2.51 239 20:41 13.04.2022
4260 Clear 24 1015 19 10000 2.06 180 19:49 13.04.2022
4261 Clear 22 1015 28 10000 1.54 240 18:37 13.04.2022
4262 Clear 20 795 36 10000 1.54 230 17:25 13.04.2022
4263 Clear 19 795 39 10000 1.03 230 16:53 13.04.2022
4264 Clear 19 891 39 10000 1.03 230 16:18 13.04.2022
4265 Clear 16 946 47 10000 0 0 15:29 13.04.2022
4266 Clear 21 875 40 10000 0.43 238 14:40 13.04.2022
4267 Clear 13 1015 38 10000 1.44 62 13:43 13.04.2022
4268 Clear 13 1022 45 10000 1.03 89 12:57 13.04.2022
4269 Clear 13 1021 45 10000 1.23 54 11:58 13.04.2022
4270 Clear 13 1021 41 10000 1.08 70 10:34 13.04.2022
4271 Clear 13 1022 43 10000 0.6 73 08:49 13.04.2022
4272 Clouds 13 1022 42 10000 0.29 72 08:24 13.04.2022
4273 Clouds 14 1022 40 10000 0.38 71 06:50 13.04.2022
4274 Clouds 14 1022 43 10000 0.47 159 06:24 13.04.2022
4275 Clouds 17 1022 31 10000 0.78 230 02:27 13.04.2022
4276 Clouds 19 972 33 10000 2.06 240 00:20 13.04.2022
4277 Clouds 20 873 33 8000 2.57 220 22:36 12.04.2022
4278 Clouds 20 873 35 8000 2.57 230 21:56 12.04.2022
4279 Clouds 20 803 36 10000 2.92 232 20:48 12.04.2022
4280 Clouds 20 809 38 10000 2.77 248 20:22 12.04.2022
4281 Clouds 20 876 38 8000 0 0 19:40 12.04.2022
4282 Clouds 20 876 38 8000 0 0 19:18 12.04.2022
4283 Clear 18 936 40 10000 0 0 17:49 12.04.2022
4284 Clear 17 874 44 10000 1.54 0 16:48 12.04.2022
4285 Clouds 14 1021 51 10000 0 0 15:38 12.04.2022
4286 Clouds 14 1021 52 10000 0 0 15:20 12.04.2022
4287 Clouds 14 1023 49 10000 0.57 229 13:53 12.04.2022
4288 Clouds 14 1023 48 10000 0.8 226 13:27 12.04.2022
4289 Clouds 14 1022 48 10000 0.55 233 12:21 12.04.2022
4290 Clouds 14 1022 48 10000 0.55 233 11:39 12.04.2022
4291 Clouds 14 1021 52 10000 0.36 223 09:52 12.04.2022
4292 Clouds 15 1023 54 10000 0.27 229 08:51 12.04.2022
4293 Clouds 15 1022 53 10000 1.15 222 07:20 12.04.2022
4294 Clouds 15 1023 53 10000 0.74 237 05:41 12.04.2022
4295 Clouds 17 1022 47 10000 1.1 241 02:49 12.04.2022
4296 Clear 21 971 38 10000 3.6 250 23:25 11.04.2022
4297 Clear 21 872 38 10000 2.57 230 22:33 11.04.2022
4298 Clear 21 872 38 10000 2.57 270 21:23 11.04.2022
4299 Clear 20 802 40 10000 3.06 245 20:35 11.04.2022
4300 Clear 20 873 42 10000 2.06 210 19:59 11.04.2022
4301 Clear 19 873 43 10000 2.06 210 19:27 11.04.2022
4302 Clear 19 873 45 10000 1.54 0 18:54 11.04.2022
4303 Clear 18 973 48 10000 1.03 300 17:58 11.04.2022
4304 Clear 17 874 48 10000 1.03 300 17:39 11.04.2022
4305 Clear 17 874 48 10000 1.03 300 17:39 11.04.2022
4306 Clear 15 1021 55 10000 0 0 16:36 11.04.2022
4307 Clear 13 1023 54 10000 1.24 247 14:59 11.04.2022
4308 Clear 13 1024 61 10000 0.13 217 13:36 11.04.2022
4309 Clear 11 1023 60 10000 0.12 147 12:39 11.04.2022
4310 Clear 11 1023 60 10000 0.42 213 12:20 11.04.2022
4311 Clear 12 1023 59 10000 0.38 218 10:41 11.04.2022
4312 Clear 12 1023 60 10000 0.41 243 09:57 11.04.2022
4313 Clear 13 1024 59 10000 0.24 284 07:59 11.04.2022
4314 Clear 15 1024 56 10000 1.07 249 04:35 11.04.2022
4315 Clouds 20 873 43 10000 4.12 240 23:30 10.04.2022
4316 Clouds 20 873 40 10000 4.63 240 22:27 10.04.2022
4317 Clear 21 873 39 10000 2.57 250 21:49 10.04.2022
4318 Clear 21 808 40 10000 3.24 250 20:52 10.04.2022
4319 Clouds 20 936 45 10000 0 0 19:56 10.04.2022
4320 Clouds 19 873 46 10000 0 0 19:34 10.04.2022
4321 Clouds 18 874 49 10000 2.57 0 18:48 10.04.2022
4322 Clouds 18 874 49 10000 2.57 0 18:48 10.04.2022
4323 Clouds 17 1021 52 10000 2.57 0 18:24 10.04.2022
4324 Clouds 16 1021 55 8000 1.54 0 17:42 10.04.2022
4325 Clear 15 1021 59 10000 1.54 0 16:52 10.04.2022
4326 Clear 14 1020 60 8000 1.03 280 15:38 10.04.2022
4327 Clear 14 1023 54 10000 2.1 255 14:40 10.04.2022
4328 Clouds 13 1023 58 10000 0.63 265 12:58 10.04.2022
4329 Clouds 13 1022 56 10000 0.62 274 12:26 10.04.2022
4330 Clouds 13 1022 56 10000 0.62 274 11:36 10.04.2022
4331 Clouds 14 1021 55 10000 0.69 271 10:58 10.04.2022
4332 Clouds 14 1021 56 10000 0.89 267 10:23 10.04.2022
4333 Clouds 14 1021 56 10000 0.89 267 09:41 10.04.2022
4334 Clouds 14 1021 55 10000 0.83 266 08:26 10.04.2022
4335 Clouds 15 1021 55 10000 0.83 266 07:53 10.04.2022
4336 Clear 15 1021 56 10000 0.88 263 06:48 10.04.2022
4337 Clear 17 1021 52 10000 1.17 253 03:36 10.04.2022
4338 Clear 17 1021 52 10000 1.17 253 03:36 10.04.2022
4339 Clear 19 873 42 10000 2.06 240 01:29 10.04.2022
4340 Clouds 21 971 37 10000 3.6 210 23:52 09.04.2022
4341 Clouds 21 971 38 10000 3.09 230 22:52 09.04.2022
4342 Clouds 21 875 37 10000 2.57 240 21:51 09.04.2022
4343 Clouds 22 949 35 10000 3.14 245 20:58 09.04.2022
4344 Clouds 22 802 37 10000 3.15 250 20:26 09.04.2022
4345 Clear 21 873 41 10000 2.57 240 19:43 09.04.2022
4346 Clear 21 873 42 10000 2.57 240 19:21 09.04.2022
4347 Clear 20 874 45 10000 1.54 270 18:22 09.04.2022
4348 Clear 19 873 49 10000 0 0 17:42 09.04.2022
4349 Clear 18 873 49 10000 0 0 16:55 09.04.2022
4350 Clear 17 1019 52 10000 0 0 16:28 09.04.2022
4351 Clear 16 1021 51 10000 2.33 250 15:48 09.04.2022
4352 Clear 15 1021 49 10000 1.87 256 14:45 09.04.2022
4353 Clear 15 1021 48 10000 0.51 262 14:24 09.04.2022
4354 Clear 14 1021 51 10000 0.75 259 13:24 09.04.2022
4355 Clear 14 1020 50 10000 0.75 259 12:53 09.04.2022
4356 Clear 15 1020 48 10000 0.6 283 11:44 09.04.2022
4357 Clear 15 1019 49 10000 0.63 282 10:22 09.04.2022
4358 Clear 16 1019 48 10000 0.63 282 09:53 09.04.2022
4359 Clear 17 1018 46 10000 0.79 253 08:59 09.04.2022
4360 Clear 17 1018 46 10000 0.89 253 07:44 09.04.2022
4361 Clear 20 802 42 10000 1.46 246 03:22 09.04.2022
4362 Clear 24 1015 32 10000 2.57 240 00:32 09.04.2022
4363 Clear 27 1013 26 10000 3.09 240 22:58 08.04.2022
4364 Clear 27 1013 25 8000 2.57 250 21:35 08.04.2022
4365 Clear 26 1014 26 10000 3.11 248 20:41 08.04.2022
4366 Clear 26 1014 27 8000 2.06 270 19:41 08.04.2022
4367 Clear 24 1015 30 10000 0 0 18:34 08.04.2022
4368 Clear 23 1015 33 10000 1.54 280 17:59 08.04.2022
4369 Clear 22 874 36 10000 1.54 280 17:27 08.04.2022
4370 Clear 21 871 36 10000 0 0 16:52 08.04.2022
4371 Clear 20 970 37 10000 0 0 16:22 08.04.2022
4372 Clear 18 970 41 10000 0 0 15:28 08.04.2022
4373 Clear 19 875 40 10000 1.09 248 14:40 08.04.2022
4374 Clear 18 802 38 10000 0.14 43 13:55 08.04.2022
4375 Clear 16 1018 37 10000 0.38 34 13:30 08.04.2022
4376 Clear 16 1018 36 10000 0.7 56 12:42 08.04.2022
4377 Clear 18 802 38 10000 0.62 81 10:56 08.04.2022
4378 Clear 19 802 38 10000 0.47 81 09:41 08.04.2022
4379 Clear 19 802 38 10000 0.25 109 08:58 08.04.2022
4380 Clear 19 949 39 10000 0.16 145 07:42 08.04.2022
4381 Clear 19 802 38 10000 0.18 208 06:44 08.04.2022
4382 Clear 22 949 38 10000 0.91 200 02:29 08.04.2022
4383 Clear 26 1016 26 10000 2.57 220 00:28 08.04.2022
4384 Clear 27 1015 23 10000 3.6 240 23:41 07.04.2022
4385 Clear 28 1015 20 10000 2.57 240 22:41 07.04.2022
4386 Clear 28 1015 18 10000 2.57 240 22:22 07.04.2022
4387 Clear 27 1015 20 10000 1.54 180 21:56 07.04.2022
4388 Clear 27 1015 20 10000 1.54 180 21:28 07.04.2022
4389 Clear 25 1016 23 10000 3.11 246 20:42 07.04.2022
4390 Clear 25 1017 26 8000 2.06 270 19:25 07.04.2022
4391 Clear 22 876 35 10000 1.54 180 17:28 07.04.2022
4392 Clear 21 873 36 10000 0 0 16:51 07.04.2022
4393 Clear 20 796 36 10000 0 0 16:33 07.04.2022
4394 Clear 18 796 45 10000 0 0 15:40 07.04.2022
4395 Clear 18 897 39 10000 0.86 77 13:52 07.04.2022
4396 Clear 16 1022 37 10000 1.1 68 13:23 07.04.2022
4397 Clear 16 1021 37 10000 0.87 67 11:49 07.04.2022
4398 Clear 17 1021 37 10000 0.32 70 10:40 07.04.2022
4399 Clear 19 803 39 10000 0.16 38 08:43 07.04.2022
4400 Clear 19 803 41 10000 0.14 13 06:59 07.04.2022
4401 Clouds 19 950 45 10000 0.28 256 05:21 07.04.2022
4402 Clouds 21 802 39 10000 1.39 234 02:34 07.04.2022
4403 Clear 24 872 31 10000 3.09 240 00:43 07.04.2022
4404 Clear 26 1016 23 10000 3.6 140 23:28 06.04.2022
4405 Clear 27 1016 19 10000 2.57 220 22:44 06.04.2022
4406 Clear 28 1016 20 10000 2.57 220 22:19 06.04.2022
4407 Clear 26 1017 22 10000 3.02 247 20:47 06.04.2022
4408 Clear 25 1017 22 10000 1.54 0 19:59 06.04.2022
4409 Clear 25 1017 24 10000 1.54 0 19:20 06.04.2022
4410 Clear 24 1016 26 10000 2.06 0 18:48 06.04.2022
4411 Clear 23 1015 28 10000 2.42 244 17:36 06.04.2022
4412 Clear 20 795 36 10000 0 0 16:39 06.04.2022
4413 Clear 20 795 36 10000 0 0 16:19 06.04.2022
4414 Clear 19 795 40 10000 1.03 0 15:40 06.04.2022
4415 Clear 21 573 41 10000 0.35 171 13:34 06.04.2022
4416 Clear 21 573 41 10000 0.35 171 13:34 06.04.2022
4417 Clear 15 1020 40 10000 0.38 127 12:30 06.04.2022
4418 Clear 16 1020 38 10000 0.15 62 10:57 06.04.2022
4419 Clear 16 1020 37 10000 0.15 62 10:33 06.04.2022
4420 Clear 17 1020 38 10000 0.32 63 09:46 06.04.2022
4421 Clear 19 950 40 10000 0.14 68 08:59 06.04.2022
4422 Clear 19 803 40 10000 0.15 310 07:59 06.04.2022
4423 Clear 20 950 38 10000 0.35 246 05:45 06.04.2022
4424 Clear 25 970 30 10000 2.57 240 00:45 06.04.2022
4425 Clear 27 1016 20 10000 3.09 210 23:48 05.04.2022
4426 Clear 28 1016 18 10000 3.6 250 21:51 05.04.2022
4427 Clear 28 1016 19 10000 3.6 250 21:18 05.04.2022
4428 Clear 27 1016 21 10000 3.02 248 20:24 05.04.2022
4429 Clear 24 1017 26 10000 2.06 250 18:32 05.04.2022
4430 Clear 22 1017 31 10000 1.54 280 17:22 05.04.2022
4431 Clear 20 1016 33 10000 1.03 200 16:43 05.04.2022
4432 Clear 18 890 41 10000 0 0 15:51 05.04.2022
4433 Clear 18 872 40 10000 0 0 15:31 05.04.2022
4434 Clear 18 573 40 10000 0.67 58 13:49 05.04.2022
4435 Clear 16 1020 42 10000 0.86 65 12:33 05.04.2022
4436 Clear 15 1020 42 10000 0.64 72 11:43 05.04.2022
4437 Clear 16 1020 42 10000 0.45 86 11:25 05.04.2022
4438 Clear 16 1020 42 10000 0.45 86 11:25 05.04.2022
4439 Clear 16 1019 41 10000 0.26 84 09:40 05.04.2022
4440 Clear 18 949 42 10000 0.43 57 08:47 05.04.2022
4441 Clear 20 803 42 10000 0.9 224 04:19 05.04.2022
4442 Clear 26 1015 24 10000 4.12 240 23:45 04.04.2022
4443 Clear 23 1015 28 10000 2.57 0 22:38 04.04.2022
4444 Clear 27 1015 23 10000 3.09 190 21:51 04.04.2022
4445 Clear 27 1015 22 10000 3.09 190 21:20 04.04.2022
4446 Clear 25 1016 24 10000 3.06 248 20:48 04.04.2022
4447 Clear 24 1016 29 10000 1.03 190 19:38 04.04.2022
4448 Clear 22 1016 33 10000 1.54 330 18:46 04.04.2022
4449 Clear 20 1015 39 10000 1.03 150 17:33 04.04.2022
4450 Clear 19 946 44 10000 1.54 0 16:36 04.04.2022
4451 Clear 17 795 48 10000 0 0 15:34 04.04.2022
4452 Clear 18 573 40 10000 0.77 244 14:49 04.04.2022
4453 Clear 15 1020 46 10000 0.42 114 14:31 04.04.2022
4454 Clear 14 1020 47 10000 0.42 83 13:18 04.04.2022
4455 Clear 14 1020 48 10000 0.2 138 11:29 04.04.2022
4456 Clear 14 1020 47 10000 0.2 138 10:49 04.04.2022
4457 Clear 15 1021 55 10000 0.18 197 07:36 04.04.2022
4458 Clear 20 803 43 10000 1.3 224 03:19 04.04.2022
4459 Clear 22 872 38 10000 2.57 230 00:25 04.04.2022
4460 Clear 24 1017 34 8000 3.09 220 22:31 03.04.2022
4461 Clear 23 1017 33 8000 2.06 260 21:37 03.04.2022
4462 Clear 22 1019 35 10000 3.28 247 20:40 03.04.2022
4463 Clear 22 1019 37 8000 2.06 280 19:45 03.04.2022
4464 Clear 20 914 42 8000 1.54 250 18:29 03.04.2022
4465 Clear 19 796 44 8000 2.06 230 17:44 03.04.2022
4466 Clear 19 796 44 8000 2.06 230 17:44 03.04.2022
4467 Clear 18 937 47 10000 1.54 360 16:50 03.04.2022
4468 Clear 18 937 48 10000 1.54 360 16:21 03.04.2022
4469 Clear 14 1023 53 10000 1.62 237 14:32 03.04.2022
4470 Clouds 14 1023 55 10000 0.35 219 13:45 03.04.2022
4471 Clouds 14 1024 51 10000 0.02 3 12:21 03.04.2022
4472 Clouds 14 1023 55 10000 0.57 174 10:54 03.04.2022
4473 Clouds 15 1023 52 10000 1.01 227 09:23 03.04.2022
4474 Clouds 16 1022 46 10000 0.4 312 07:24 03.04.2022
4475 Clear 17 1022 44 10000 1.29 246 04:18 03.04.2022
4476 Clear 21 872 38 10000 3.6 240 00:41 03.04.2022
4477 Clear 24 1016 25 10000 2.57 220 22:54 02.04.2022
4478 Clear 24 1016 23 10000 2.57 210 21:57 02.04.2022
4479 Clear 24 1016 23 10000 2.57 210 21:33 02.04.2022
4480 Clear 24 1017 24 10000 3.42 248 20:52 02.04.2022
4481 Clear 23 1017 25 8000 1.54 200 19:32 02.04.2022
4482 Clear 23 1017 25 8000 1.54 200 19:32 02.04.2022
4483 Clear 21 875 35 8000 2.06 180 18:21 02.04.2022
4484 Clear 21 795 35 8000 2.06 0 17:52 02.04.2022
4485 Clear 20 795 36 10000 1.54 220 16:23 02.04.2022
4486 Clear 18 872 38 10000 1.03 220 15:21 02.04.2022
4487 Clear 18 802 36 10000 1.25 250 14:49 02.04.2022
4488 Clear 18 802 36 10000 1.25 250 14:49 02.04.2022
4489 Clear 16 876 45 10000 1.54 20 13:35 02.04.2022
4490 Clear 14 1020 36 10000 0.05 291 12:38 02.04.2022
4491 Clear 15 1020 36 10000 0.12 172 11:23 02.04.2022
4492 Clear 16 1019 36 10000 0.29 12 08:50 02.04.2022
4493 Clear 17 1020 38 10000 0.2 76 06:51 02.04.2022
4494 Clear 19 802 42 10000 0.76 239 03:52 02.04.2022
4495 Clear 26 1014 15 10000 3.09 220 23:57 01.04.2022
4496 Clear 26 1014 16 10000 3.09 220 23:22 01.04.2022
4497 Clear 27 1014 15 8000 2.57 0 21:42 01.04.2022
4498 Clear 26 1015 14 10000 2.78 249 20:51 01.04.2022
4499 Clear 26 1014 14 10000 2.81 247 20:28 01.04.2022
4500 Clear 25 1015 17 10000 1.54 200 19:34 01.04.2022
4501 Clear 24 1016 18 8000 2.06 240 18:48 01.04.2022
4502 Clear 22 1016 20 10000 1.54 0 17:47 01.04.2022
4503 Clear 21 871 28 10000 0 0 16:53 01.04.2022
4504 Clear 18 872 32 10000 0 0 15:41 01.04.2022
4505 Clear 18 802 31 10000 0.27 65 14:25 01.04.2022
4506 Clear 15 794 43 10000 1.03 50 13:34 01.04.2022
4507 Clear 14 1019 25 10000 0.39 98 12:32 01.04.2022
4508 Clear 14 1019 26 10000 0.35 87 11:41 01.04.2022
4509 Clear 15 1018 26 10000 0.57 74 10:19 01.04.2022
4510 Clear 15 1019 28 10000 0.35 96 09:19 01.04.2022
4511 Clear 16 1019 26 10000 0.25 183 06:54 01.04.2022
4512 Clear 20 802 32 10000 0.39 187 04:51 01.04.2022
4513 Clear 20 802 32 10000 0.39 187 04:33 01.04.2022
4514 Clear 22 872 26 10000 0 0 01:58 01.04.2022
4515 Clear 24 871 21 10000 2.57 220 00:44 01.04.2022
4516 Clear 26 1016 11 10000 2.57 230 21:54 31.03.2022
4517 Clear 26 1016 10 10000 2.57 230 21:32 31.03.2022
4518 Clear 25 1017 12 10000 2.67 242 20:29 31.03.2022
4519 Clear 24 1017 14 10000 2.06 260 19:50 31.03.2022
4520 Clear 22 1017 20 10000 1.54 240 18:51 31.03.2022
4521 Clear 21 1018 20 10000 1.03 0 17:50 31.03.2022
4522 Clear 20 795 29 10000 1.54 0 16:39 31.03.2022
4523 Clear 17 795 35 10000 0 0 15:46 31.03.2022
4524 Clear 17 873 31 10000 0 0 15:20 31.03.2022
4525 Clear 18 573 36 10000 0.93 235 14:37 31.03.2022
4526 Clear 13 1022 31 10000 0.48 120 12:19 31.03.2022
4527 Clear 14 1021 29 10000 0.64 73 11:22 31.03.2022
4528 Clear 15 1021 29 10000 0.33 88 09:47 31.03.2022
4529 Clouds 15 1022 35 10000 0.47 203 08:20 31.03.2022
4530 Clouds 19 864 34 10000 0.52 246 05:42 31.03.2022
4531 Clear 24 872 22 10000 3.09 260 23:58 30.03.2022
4532 Clear 25 1016 12 10000 2.57 240 22:44 30.03.2022
4533 Clear 24 1017 12 10000 3.19 247 21:39 30.03.2022
4534 Clear 24 1017 14 10000 3.26 245 20:54 30.03.2022
4535 Clear 23 1017 16 10000 2.99 249 20:20 30.03.2022
4536 Clear 23 1017 16 10000 2.99 249 20:20 30.03.2022
4537 Clear 22 1016 21 10000 2.06 220 19:28 30.03.2022
4538 Clear 20 1013 23 10000 2.66 257 18:28 30.03.2022
4539 Clear 18 1016 28 10000 1.54 190 17:47 30.03.2022
4540 Clear 18 795 38 10000 0 0 16:57 30.03.2022
4541 Clear 18 795 38 10000 0 0 16:33 30.03.2022
4542 Clear 18 573 38 10000 0.67 243 15:24 30.03.2022
4543 Clear 9 1016 57 10000 0 0 13:42 30.03.2022
4544 Clear 11 1022 37 10000 0.79 89 12:57 30.03.2022
4545 Clear 12 1021 38 10000 0.87 102 11:27 30.03.2022
4546 Clear 12 1021 38 10000 0.87 102 11:27 30.03.2022
4547 Clear 13 1020 43 10000 0.72 101 10:23 30.03.2022
4548 Clear 13 1022 42 10000 0.74 100 09:23 30.03.2022
4549 Clear 15 1022 44 10000 0.56 113 07:33 30.03.2022
4550 Clear 16 1023 41 10000 0.63 152 05:41 30.03.2022
4551 Clear 18 1023 37 10000 0.92 173 03:52 30.03.2022
4552 Clear 22 951 32 10000 1.97 211 00:41 30.03.2022
4553 Clear 24 1020 26 10000 3.09 0 22:25 29.03.2022
4554 Clear 23 1020 29 10000 3.09 230 21:44 29.03.2022
4555 Clear 22 1021 31 10000 3.66 235 20:52 29.03.2022
4556 Clear 22 1022 33 10000 3.26 240 20:18 29.03.2022
4557 Clear 20 937 39 10000 2.06 0 18:55 29.03.2022
4558 Clear 20 875 39 10000 2.06 0 18:19 29.03.2022
4559 Clear 19 876 42 10000 1.54 0 17:22 29.03.2022
4560 Clear 18 876 43 10000 1.54 250 16:56 29.03.2022
4561 Clear 18 876 43 10000 1.54 250 16:56 29.03.2022
4562 Clear 17 975 48 10000 0 0 15:57 29.03.2022
4563 Clear 15 1025 46 10000 1.77 231 14:50 29.03.2022
4564 Clear 13 1022 57 10000 0 0 13:56 29.03.2022
4565 Clear 14 1024 52 10000 0.08 31 12:51 29.03.2022
4566 Clear 14 1024 51 10000 0.23 207 11:43 29.03.2022
4567 Clear 14 1023 47 10000 0.59 214 10:28 29.03.2022
4568 Clear 15 1023 45 10000 0.59 214 09:33 29.03.2022
4569 Clear 17 1023 47 10000 1.15 243 06:56 29.03.2022
4570 Clear 20 951 40 10000 0.89 253 03:49 29.03.2022
4571 Clear 24 971 30 10000 4.12 240 23:54 28.03.2022
4572 Clear 25 1018 24 10000 4.12 240 23:19 28.03.2022
4573 Clear 26 1018 23 10000 4.12 144 22:47 28.03.2022
4574 Clear 26 1017 24 10000 4.12 144 22:22 28.03.2022
4575 Clear 26 1017 26 10000 3.4 246 20:54 28.03.2022
4576 Clear 25 1018 28 10000 2.06 190 19:59 28.03.2022
4577 Clear 25 1018 28 10000 2.06 190 19:41 28.03.2022
4578 Clear 24 1018 30 10000 1.54 330 18:54 28.03.2022
4579 Clear 23 1018 31 10000 1.54 330 18:20 28.03.2022
4580 Clear 22 1019 33 10000 2.57 300 17:32 28.03.2022
4581 Clear 20 864 37 10000 2.63 246 15:54 28.03.2022
4582 Clouds 19 864 40 10000 0.78 267 14:27 28.03.2022
4583 Clouds 21 697 41 10000 0.78 262 13:35 28.03.2022
4584 Clouds 17 1020 42 10000 0.36 264 11:57 28.03.2022
4585 Clouds 18 1018 39 10000 0.39 273 10:50 28.03.2022
4586 Clouds 19 863 41 10000 0.39 301 09:41 28.03.2022
4587 Clouds 19 863 41 10000 0.03 265 08:49 28.03.2022
4588 Clouds 19 863 44 10000 0.15 236 08:21 28.03.2022
4589 Clouds 19 863 44 10000 0.17 263 08:21 28.03.2022
4590 Clouds 19 863 42 10000 0.71 240 07:27 28.03.2022
4591 Clouds 21 863 46 10000 0.73 229 02:48 28.03.2022
4592 Clear 26 1015 29 10000 2.57 240 23:24 27.03.2022
4593 Clear 27 1015 26 10000 2.57 240 22:23 27.03.2022
4594 Clear 26 1016 27 10000 1.54 190 21:41 27.03.2022
4595 Clouds 25 1017 28 10000 3.29 245 20:53 27.03.2022
4596 Clear 22 1016 37 10000 1.03 0 19:44 27.03.2022
4597 Clouds 20 1017 44 6000 0 0 18:54 27.03.2022
4598 Clouds 20 1017 44 6000 0 0 18:26 27.03.2022
4599 Clouds 20 1017 44 6000 0 0 18:26 27.03.2022
4600 Clear 19 1018 47 10000 1.54 210 17:38 27.03.2022
4601 Clouds 17 858 55 10000 0 0 15:59 27.03.2022
4602 Clouds 18 697 44 10000 0.04 300 14:26 27.03.2022
4603 Clouds 15 858 61 10000 0 0 13:54 27.03.2022
4604 Clouds 15 1022 57 10000 0.28 212 11:52 27.03.2022
4605 Clouds 15 1021 56 10000 0.26 242 10:28 27.03.2022
4606 Clouds 15 1022 56 10000 0.31 262 08:21 27.03.2022
4607 Clear 17 1022 58 10000 0.34 229 05:19 27.03.2022
4608 Clear 20 914 46 10000 1.54 0 00:47 27.03.2022
4609 Clear 22 857 40 10000 2.57 240 23:30 26.03.2022
4610 Clear 23 1019 39 10000 3.09 240 22:29 26.03.2022
4611 Clear 23 1018 37 10000 3.09 240 21:32 26.03.2022
4612 Clear 22 1015 28 10000 3.75 242 19:46 26.03.2022
4613 Clear 22 1017 35 10000 2.06 0 18:58 26.03.2022
4614 Clear 19 1018 40 10000 1.54 290 17:44 26.03.2022
4615 Clear 20 1018 39 10000 1.54 290 17:22 26.03.2022
4616 Clear 19 795 43 10000 2.06 220 15:52 26.03.2022
4617 Clear 15 1016 50 10000 0 0 14:50 26.03.2022
4618 Clear 14 1016 43 10000 1.32 250 13:52 26.03.2022
4619 Clear 11 1016 60 10000 0 0 12:41 26.03.2022
4620 Clear 15 1020 40 10000 0.14 301 11:18 26.03.2022
4621 Clear 15 1019 45 10000 0.38 288 09:22 26.03.2022
4622 Clear 16 1018 43 10000 0.18 341 08:27 26.03.2022
4623 Clear 18 1018 38 10000 0.75 251 05:53 26.03.2022
4624 Clear 19 1017 40 10000 0.46 228 03:32 26.03.2022
4625 Clear 28 1013 21 10000 3.09 0 22:57 25.03.2022
4626 Clear 28 1013 16 10000 3.6 240 20:58 25.03.2022
4627 Clear 28 1013 16 10000 3.6 240 20:38 25.03.2022
4628 Clear 27 1013 17 10000 3.29 243 19:21 25.03.2022
4629 Clear 28 1013 15 10000 3.09 210 18:37 25.03.2022
4630 Clear 26 1013 17 10000 1.54 0 17:34 25.03.2022
4631 Clear 24 1013 19 10000 1.54 0 16:41 25.03.2022
4632 Clear 22 1012 21 10000 1.03 0 15:50 25.03.2022
4633 Clear 14 1011 30 10000 0.87 274 13:40 25.03.2022
4634 Clear 13 1011 34 10000 1.11 56 11:49 25.03.2022
4635 Clear 15 1016 33 10000 0.85 67 09:46 25.03.2022
4636 Clear 14 1010 32 10000 0.82 71 09:19 25.03.2022
4637 Clear 16 1017 31 10000 0.51 62 07:48 25.03.2022
4638 Clear 16 1017 32 10000 0.58 53 07:21 25.03.2022
4639 Clear 18 1018 27 10000 0.19 57 04:35 25.03.2022
4640 Clear 24 1017 20 10000 1.87 225 23:55 24.03.2022
4641 Clear 27 1016 48 10000 2.54 241 22:24 24.03.2022
4642 Clear 27 1015 17 10000 2.57 280 21:29 24.03.2022
4643 Clear 24 1012 19 10000 2.83 248 19:50 24.03.2022
4644 Clear 23 1013 25 10000 2.75 248 18:46 24.03.2022
4645 Clear 20 1016 34 10000 1.54 270 17:38 24.03.2022
4646 Clear 18 1017 41 10000 1.03 150 16:41 24.03.2022
4647 Clear 14 1017 53 10000 1.03 150 14:58 24.03.2022
4648 Clear 14 1017 54 10000 1.03 150 14:39 24.03.2022
4649 Clear 17 1015 40 10000 0.9 245 13:36 24.03.2022
4650 Clear 8 1017 77 10000 1.03 100 12:39 24.03.2022
4651 Clear 13 1023 57 10000 0.75 76 11:31 24.03.2022
4652 Clear 13 1023 56 10000 0.44 123 09:34 24.03.2022
4653 Clear 14 1022 56 10000 0.33 146 08:39 24.03.2022
4654 Clear 14 1024 56 10000 0.59 192 06:18 24.03.2022
4655 Clear 17 1024 49 10000 1.9 234 01:20 24.03.2022
4656 Clear 21 1020 32 10000 3.6 240 22:26 23.03.2022
4657 Clear 20 1020 31 10000 3.6 190 21:25 23.03.2022
4658 Clear 20 1021 31 10000 4.12 0 20:46 23.03.2022
4659 Clear 20 1022 36 10000 4.7 231 19:33 23.03.2022
4660 Clear 19 1021 40 10000 2.57 230 18:19 23.03.2022
4661 Clear 18 1021 44 10000 2.06 260 17:26 23.03.2022
4662 Clear 16 1022 52 10000 3.09 220 16:18 23.03.2022
4663 Clear 14 1021 59 10000 2.57 220 14:49 23.03.2022
4664 Clear 12 1017 52 10000 1.63 260 13:34 23.03.2022
4665 Clouds 14 1022 55 10000 0.59 330 11:38 23.03.2022
4666 Clear 14 1020 48 10000 0.37 287 08:51 23.03.2022
4667 Clear 16 1020 41 10000 0.76 277 06:26 23.03.2022
4668 Clear 18 1019 43 10000 1.45 235 03:52 23.03.2022
4669 Clear 22 1015 35 10000 2.57 270 00:28 23.03.2022
4670 Clear 22 1015 35 10000 2.57 270 00:28 23.03.2022
4671 Clear 26 1013 27 10000 3.09 230 21:56 22.03.2022
4672 Clear 27 1013 26 10000 3.09 230 21:26 22.03.2022
4673 Clear 26 1013 25 10000 3.09 0 20:30 22.03.2022
4674 Clear 25 1014 26 10000 3.21 247 19:27 22.03.2022
4675 Clear 25 1014 49 10000 2.57 250 18:50 22.03.2022
4676 Clear 22 1013 32 10000 2.06 170 17:44 22.03.2022
4677 Clear 22 1014 34 10000 2.06 170 17:18 22.03.2022
4678 Clear 18 1014 41 10000 1.54 180 15:49 22.03.2022
4679 Clear 18 1014 41 10000 1.54 180 15:21 22.03.2022
4680 Clear 17 1014 37 10000 0 0 14:45 22.03.2022
4681 Clear 18 1016 41 10000 0 0 14:24 22.03.2022
4682 Clear 10 1014 73 10000 1.54 40 12:40 22.03.2022
4683 Clear 14 1019 44 10000 0.2 160 11:26 22.03.2022
4684 Clear 14 1018 46 10000 0.23 158 09:55 22.03.2022
4685 Clear 15 1018 46 10000 0.32 214 07:48 22.03.2022
4686 Clear 18 1020 47 10000 0.64 235 04:36 22.03.2022
4687 Clouds 19 1020 50 10000 1.07 224 02:54 22.03.2022
4688 Clear 23 1017 28 10000 3.09 230 23:21 21.03.2022
4689 Clear 24 1017 24 10000 4.12 240 21:47 21.03.2022
4690 Clear 24 1018 24 10000 3.09 0 20:45 21.03.2022
4691 Clear 24 1017 23 10000 3.09 0 20:26 21.03.2022
4692 Clouds 23 1019 24 10000 3.48 244 19:53 21.03.2022
4693 Clouds 23 1019 26 10000 3.6 247 19:23 21.03.2022
4694 Clear 21 1019 29 10000 2.06 240 17:43 21.03.2022
4695 Clouds 21 1020 30 10000 2.9 254 17:00 21.03.2022
4696 Clouds 19 1019 32 10000 0 0 16:36 21.03.2022
4697 Clear 17 1020 40 10000 0 0 15:45 21.03.2022
4698 Clear 15 1017 43 10000 0 0 14:48 21.03.2022
4699 Clouds 15 1021 39 10000 1.7 250 13:35 21.03.2022
4700 Clear 10 1017 60 10000 0 0 12:31 21.03.2022
4701 Clouds 15 1021 45 10000 0.28 296 11:39 21.03.2022
4702 Clouds 15 1021 44 10000 0.43 253 09:54 21.03.2022
4703 Clouds 15 1020 42 10000 0.58 253 07:54 21.03.2022
4704 Clouds 16 1021 38 10000 0.55 260 06:31 21.03.2022
4705 Clear 20 863 33 10000 1.32 247 02:33 21.03.2022
4706 Clouds 22 913 33 10000 4.12 230 23:32 20.03.2022
4707 Clouds 23 912 32 10000 4.63 240 22:42 20.03.2022
4708 Clouds 25 1015 27 10000 4.12 230 21:44 20.03.2022
4709 Clouds 26 1015 25 10000 4.12 230 20:59 20.03.2022
4710 Clouds 26 1015 25 10000 4.12 230 20:59 20.03.2022
4711 Clouds 26 1015 24 10000 4.12 230 20:39 20.03.2022
4712 Clouds 26 1015 23 10000 4.3 240 19:56 20.03.2022
4713 Clouds 26 1015 23 10000 3.83 244 19:26 20.03.2022
4714 Clouds 25 1015 24 10000 1.54 0 17:51 20.03.2022
4715 Clouds 25 1015 24 10000 1.54 0 17:29 20.03.2022
4716 Clouds 24 1016 26 10000 1.54 0 16:46 20.03.2022
4717 Clouds 21 862 34 10000 2.26 262 14:54 20.03.2022
4718 Clouds 21 862 38 10000 1.66 258 13:46 20.03.2022
4719 Clouds 19 912 41 10000 0 0 12:21 20.03.2022
4720 Clouds 20 861 39 10000 0.38 294 10:42 20.03.2022
4721 Clouds 20 861 39 10000 0.27 251 08:37 20.03.2022
4722 Clouds 20 862 39 10000 0.34 283 06:55 20.03.2022
4723 Clouds 21 862 40 10000 0.94 240 03:59 20.03.2022
4724 Clouds 24 912 31 10000 1.03 0 00:59 20.03.2022
4725 Clouds 24 911 32 10000 1.03 0 00:36 20.03.2022
4726 Clouds 27 1015 23 10000 2.57 200 22:56 19.03.2022
4727 Clouds 27 1015 25 10000 2.57 0 21:27 19.03.2022
4728 Clouds 28 1015 22 10000 2.57 210 20:19 19.03.2022
4729 Clouds 26 1015 25 10000 1.03 0 18:44 19.03.2022
4730 Clouds 26 1012 26 10000 1.54 0 17:57 19.03.2022
4731 Clouds 26 1015 29 10000 1.54 0 17:34 19.03.2022
4732 Clouds 22 1016 37 10000 2.06 0 15:43 19.03.2022
4733 Clouds 20 912 42 10000 1.03 0 14:21 19.03.2022
4734 Clouds 19 912 43 10000 1.03 0 12:56 19.03.2022
4735 Clouds 19 912 43 10000 1.03 0 12:38 19.03.2022
4736 Clouds 20 862 38 10000 0.5 281 11:49 19.03.2022
4737 Clouds 20 862 39 10000 0.52 101 10:41 19.03.2022
4738 Clouds 20 863 38 10000 0.15 320 06:27 19.03.2022
4739 Clouds 20 863 49 10000 0.76 232 03:21 19.03.2022
4740 Clouds 22 863 38 10000 0.59 186 01:32 19.03.2022
4741 Clear 27 1017 23 10000 3.09 200 23:26 18.03.2022
4742 Clear 28 1017 23 10000 4.12 210 22:25 18.03.2022
4743 Clear 27 1017 25 10000 3.6 230 20:56 18.03.2022
4744 Clear 26 1018 27 10000 3.18 255 19:50 18.03.2022
4745 Clear 26 1018 28 10000 2.96 253 19:19 18.03.2022
4746 Haze 23 1019 42 4000 1.03 0 17:39 18.03.2022
4747 Haze 22 1020 52 4000 1.03 0 16:46 18.03.2022
4748 Haze 19 915 50 4000 0 0 14:45 18.03.2022
4749 Haze 19 915 52 4000 0 0 14:20 18.03.2022
4750 Haze 14 1022 82 4000 1.03 50 12:23 18.03.2022
4751 Clear 16 1024 68 10000 0.24 153 10:39 18.03.2022
4752 Clear 16 1023 68 10000 0.47 247 09:23 18.03.2022
4753 Clear 16 1024 69 10000 0.16 279 07:45 18.03.2022
4754 Clear 17 1023 67 10000 0.94 247 05:46 18.03.2022
4755 Clear 20 865 53 10000 0.98 250 02:50 18.03.2022
4756 Clouds 20 914 54 8000 0 0 00:22 18.03.2022
4757 Clouds 20 916 55 8000 2.57 200 23:20 17.03.2022
4758 Haze 21 1016 54 4000 2.57 260 22:23 17.03.2022
4759 Haze 21 1018 55 4000 2.57 260 21:47 17.03.2022
4760 Haze 22 1018 55 4000 2.57 260 21:19 17.03.2022
4761 Haze 22 1018 55 4000 2.06 240 20:32 17.03.2022
4762 Clouds 21 1019 55 10000 3.5 249 19:41 17.03.2022
4763 Haze 20 1019 61 4000 2.57 240 18:57 17.03.2022
4764 Haze 20 914 56 4000 2.57 230 17:56 17.03.2022
4765 Haze 19 858 55 4000 2.06 250 16:43 17.03.2022
4766 Haze 19 857 57 4000 2.57 250 15:44 17.03.2022
4767 Haze 19 857 56 4000 2.57 250 15:22 17.03.2022
4768 Clear 20 868 56 10000 1.78 253 13:50 17.03.2022
4769 Mist 16 1019 75 1500 1.54 0 12:49 17.03.2022
4770 Mist 15 1020 82 1500 1.54 0 12:21 17.03.2022
4771 Clear 16 1021 74 10000 1.05 268 11:25 17.03.2022
4772 Clear 16 1021 71 10000 1.09 239 09:48 17.03.2022
4773 Clear 16 1021 65 10000 0.65 268 08:31 17.03.2022
4774 Clear 17 1021 63 10000 0.98 276 07:32 17.03.2022
4775 Clouds 19 864 53 10000 1.06 251 05:47 17.03.2022
4776 Clear 21 913 52 8000 2.06 260 00:45 17.03.2022
4777 Clear 24 1016 45 7000 3.6 210 22:59 16.03.2022
4778 Clear 24 1016 44 7000 3.6 210 22:40 16.03.2022
4779 Clear 24 1016 44 7000 3.6 210 22:19 16.03.2022
4780 Clear 25 1016 45 7000 4.12 240 21:34 16.03.2022
4781 Clear 24 1016 43 10000 3.93 246 19:27 16.03.2022
4782 Haze 24 1016 47 4000 2.57 230 18:58 16.03.2022
4783 Haze 23 1015 49 4000 2.57 230 18:24 16.03.2022
4784 Haze 21 1016 56 4000 1.54 250 17:37 16.03.2022
4785 Haze 19 1016 60 4000 1.03 170 16:50 16.03.2022
4786 Haze 18 857 57 4000 1.54 0 15:41 16.03.2022
4787 Mist 18 913 64 3000 1.54 220 14:24 16.03.2022
4788 Clear 19 863 55 10000 1.07 252 13:22 16.03.2022
4789 Clear 19 863 53 10000 0.71 268 11:51 16.03.2022
4790 Clear 19 863 52 10000 0.61 284 11:19 16.03.2022
4791 Clear 19 862 51 10000 0.53 274 09:59 16.03.2022
4792 Clear 20 861 48 10000 0.79 255 08:37 16.03.2022
4793 Clear 21 862 48 10000 1.23 218 03:33 16.03.2022
4794 Clear 26 1017 40 10000 2.83 230 23:39 15.03.2022
4795 Clear 28 1016 33 10000 3.09 190 22:37 15.03.2022
4796 Clear 29 1016 29 10000 4.12 240 21:33 15.03.2022
4797 Clear 27 1017 30 10000 3.65 241 19:47 15.03.2022
4798 Clear 28 1017 31 7000 3.6 210 18:41 15.03.2022
4799 Clear 25 1018 39 7000 1.54 250 16:47 15.03.2022
4800 Clear 24 1018 40 7000 1.54 250 16:18 15.03.2022
4801 Clear 21 1018 46 10000 0 0 14:55 15.03.2022
4802 Clear 21 913 45 10000 0 0 14:30 15.03.2022
4803 Clear 20 863 42 10000 0.74 288 13:27 15.03.2022
4804 Clear 19 863 43 10000 0.41 281 11:56 15.03.2022
4805 Clear 19 863 43 10000 0.51 282 11:19 15.03.2022
4806 Clear 19 862 44 10000 0.32 297 09:31 15.03.2022
4807 Clouds 20 862 42 10000 0.15 291 08:32 15.03.2022
4808 Clouds 20 862 45 10000 0.33 282 07:50 15.03.2022
4809 Clouds 20 862 45 10000 0.43 255 06:35 15.03.2022
4810 Clouds 22 862 44 10000 1.15 230 02:36 15.03.2022
4811 Clear 27 1016 34 10000 2.57 260 23:36 14.03.2022
4812 Clear 27 1016 33 10000 2.57 260 23:18 14.03.2022
4813 Clear 29 1015 29 10000 4.12 230 21:59 14.03.2022
4814 Clear 30 1015 28 10000 4.12 230 21:20 14.03.2022
4815 Clear 30 1016 26 8000 3.6 230 20:34 14.03.2022
4816 Clear 29 1016 26 10000 3.77 244 19:47 14.03.2022
4817 Clear 29 1017 27 8000 2.06 0 18:23 14.03.2022
4818 Clear 27 1018 30 10000 1.54 200 17:43 14.03.2022
4819 Clear 26 1018 32 10000 1.54 0 16:54 14.03.2022
4820 Clear 24 1019 38 10000 0 0 15:20 14.03.2022
4821 Clear 21 863 39 10000 1.29 248 14:00 14.03.2022
4822 Clear 19 863 42 10000 0.4 86 11:27 14.03.2022
4823 Clear 19 863 42 10000 0.45 118 10:23 14.03.2022
4824 Clear 20 863 42 10000 0.45 118 09:38 14.03.2022
4825 Clear 20 863 43 10000 0.43 162 09:18 14.03.2022
4826 Clear 20 863 43 10000 0.43 162 08:46 14.03.2022
4827 Clear 20 864 45 10000 0.45 205 07:19 14.03.2022
4828 Clear 21 863 46 10000 0.67 222 04:22 14.03.2022
4829 Clear 22 863 43 10000 1.26 216 01:46 14.03.2022
4830 Clear 24 915 36 10000 1.54 270 00:35 14.03.2022
4831 Clear 29 1016 25 10000 3.6 230 21:55 13.03.2022
4832 Clear 29 1016 25 10000 3.6 230 21:26 13.03.2022
4833 Clear 29 1016 25 10000 3.09 0 20:46 13.03.2022
4834 Clear 29 1016 25 10000 3.09 0 20:23 13.03.2022
4835 Clear 29 1014 20 10000 3.61 243 19:42 13.03.2022
4836 Clear 28 1016 27 10000 3.41 245 19:23 13.03.2022
4837 Clear 28 1016 27 10000 3.41 245 19:23 13.03.2022
4838 Clear 28 1016 27 10000 3.41 245 19:23 13.03.2022
4839 Clear 28 1016 27 10000 1.54 0 18:45 13.03.2022
4840 Clear 28 1016 27 10000 1.54 0 18:26 13.03.2022
4841 Clear 26 1016 32 10000 2.06 210 17:39 13.03.2022
4842 Clear 24 1016 38 10000 1.54 230 16:46 13.03.2022
4843 Clear 24 1016 38 10000 1.54 230 16:25 13.03.2022
4844 Clear 22 1016 43 10000 1.54 250 15:42 13.03.2022
4845 Clear 20 1016 47 10000 0 0 14:49 13.03.2022
4846 Clear 20 697 42 10000 0.17 280 13:29 13.03.2022
4847 Clear 17 913 54 10000 1.03 60 12:25 13.03.2022
4848 Clear 18 863 46 10000 0.65 43 11:44 13.03.2022
4849 Clear 18 863 47 10000 0.42 72 10:50 13.03.2022
4850 Clear 18 863 48 10000 0.04 116 10:29 13.03.2022
4851 Clear 19 863 48 10000 0.04 116 09:42 13.03.2022
4852 Clear 18 863 48 10000 0.22 110 08:50 13.03.2022
4853 Clear 19 863 48 10000 0.22 110 08:30 13.03.2022
4854 Clear 19 863 48 10000 0.3 176 07:34 13.03.2022
4855 Clear 20 864 52 10000 0.64 205 04:59 13.03.2022
4856 Clear 21 863 45 10000 0.89 209 01:48 13.03.2022
4857 Clear 25 1017 37 10000 3.09 240 23:28 12.03.2022
4858 Clear 27 1017 32 10000 4.63 260 21:43 12.03.2022
4859 Clear 26 1017 33 10000 3.6 240 20:20 12.03.2022
4860 Clear 26 1017 31 10000 3.67 245 19:46 12.03.2022
4861 Clear 26 1017 31 8000 2.06 220 18:41 12.03.2022
4862 Clear 24 1018 32 10000 2.06 0 17:53 12.03.2022
4863 Clear 22 1018 38 10000 1.54 240 16:28 12.03.2022
4864 Clear 22 1018 38 10000 1.54 240 16:28 12.03.2022
4865 Clear 19 1017 50 10000 1.54 0 15:50 12.03.2022
4866 Clear 20 913 45 10000 1.54 0 15:21 12.03.2022
4867 Clear 20 863 40 10000 1.76 244 13:53 12.03.2022
4868 Clear 15 1018 59 10000 0.51 150 12:28 12.03.2022
4869 Clear 16 1019 46 10000 0.19 209 11:53 12.03.2022
4870 Clear 16 1019 46 10000 0.19 209 11:33 12.03.2022
4871 Clear 19 862 43 10000 0.08 343 10:24 12.03.2022
4872 Clear 19 862 43 10000 0.08 343 09:43 12.03.2022
4873 Clear 19 862 42 10000 0.85 241 07:58 12.03.2022
4874 Clear 20 862 43 10000 0.65 245 06:40 12.03.2022
4875 Clear 24 1014 29 10000 2.06 250 00:31 12.03.2022
4876 Clear 26 1014 26 10000 3.6 240 23:41 11.03.2022
4877 Clear 28 1013 24 10000 3.6 240 22:32 11.03.2022
4878 Clear 29 1013 24 10000 4.63 240 21:24 11.03.2022
4879 Clear 29 1013 24 10000 4.63 240 21:24 11.03.2022
4880 Clear 29 1013 24 10000 3.6 220 20:46 11.03.2022
4881 Clear 29 1013 24 10000 3.6 220 20:46 11.03.2022
4882 Clear 29 1013 24 10000 3.6 220 20:26 11.03.2022
4883 Clear 28 1013 22 10000 3.79 243 19:32 11.03.2022
4884 Clear 28 1014 23 10000 2.57 270 18:30 11.03.2022
4885 Clear 26 1014 25 10000 2.69 251 17:24 11.03.2022
4886 Clear 23 1015 32 10000 2.06 140 15:59 11.03.2022
4887 Clear 23 1014 33 10000 2.06 140 15:32 11.03.2022
4888 Clear 20 861 37 10000 1.43 264 13:42 11.03.2022
4889 Clear 17 855 53 10000 0 0 12:37 11.03.2022
4890 Clear 19 862 41 10000 0.65 52 11:57 11.03.2022
4891 Clear 19 861 43 10000 0.37 88 10:30 11.03.2022
4892 Clear 19 861 42 10000 0.3 141 09:34 11.03.2022
4893 Clear 19 861 42 10000 0.17 146 08:28 11.03.2022
4894 Clear 19 862 43 10000 0.17 146 07:48 11.03.2022
4895 Clear 20 862 43 10000 0.24 194 06:26 11.03.2022
4896 Clear 21 862 42 10000 0.55 224 04:28 11.03.2022
4897 Clear 23 861 37 10000 1.65 197 01:20 11.03.2022
4898 Clear 29 1014 21 10000 3.6 230 22:32 10.03.2022
4899 Clear 29 1013 22 10000 2.57 230 21:53 10.03.2022
4900 Clear 29 1014 21 10000 2.57 230 21:24 10.03.2022
4901 Clear 29 1013 21 10000 2.57 230 20:34 10.03.2022
4902 Clear 27 1015 23 10000 3.2 248 19:20 10.03.2022
4903 Clear 25 1016 30 10000 1.54 350 17:50 10.03.2022
4904 Clear 23 1017 36 10000 1.03 350 16:52 10.03.2022
4905 Clear 21 913 41 10000 2.06 0 15:27 10.03.2022
4906 Clear 20 863 43 10000 1.27 260 13:42 10.03.2022
4907 Clear 16 914 55 10000 0 0 12:38 10.03.2022
4908 Clear 16 1021 50 10000 0.24 70 11:28 10.03.2022
4909 Clear 17 1021 53 10000 0.43 225 09:28 10.03.2022
4910 Clear 17 1021 52 10000 0.34 195 07:47 10.03.2022
4911 Clear 21 697 41 10000 0.22 134 05:30 10.03.2022
4912 Clear 21 697 41 10000 1.58 221 01:56 10.03.2022
4913 Clear 24 857 32 10000 3.6 220 23:32 09.03.2022
4914 Clear 28 1016 24 10000 3.09 240 22:20 09.03.2022
4915 Clear 29 1016 26 10000 3.09 220 21:36 09.03.2022
4916 Clear 27 1015 28 10000 3.6 210 20:31 09.03.2022
4917 Clear 25 1016 33 10000 2.06 260 18:35 09.03.2022
4918 Clear 23 1016 35 10000 1.54 300 17:28 09.03.2022
4919 Clear 19 1016 24 10000 3.05 251 16:35 09.03.2022
4920 Clear 20 858 45 10000 2.06 170 15:31 09.03.2022
4921 Clear 21 697 41 10000 1.72 247 13:54 09.03.2022
4922 Clear 11 1017 76 10000 0 0 12:56 09.03.2022
4923 Clear 11 1017 76 10000 0 0 12:19 09.03.2022
4924 Clear 10 1016 44 10000 0.41 227 11:36 09.03.2022
4925 Clear 10 1015 44 10000 0.59 221 10:39 09.03.2022
4926 Clear 11 1015 44 10000 0.05 147 08:59 09.03.2022
4927 Clear 13 1016 45 10000 0.5 233 08:25 09.03.2022
4928 Clear 19 1022 44 10000 1.3 232 03:50 09.03.2022
4929 Clear 21 914 40 10000 2.57 240 00:47 09.03.2022
4930 Clear 23 914 35 10000 3.09 240 22:48 08.03.2022
4931 Clear 24 1019 31 10000 3.09 240 22:29 08.03.2022
4932 Clear 24 1020 32 10000 4.94 237 21:24 08.03.2022
4933 Clear 25 1019 32 10000 4.63 230 20:44 08.03.2022
4934 Clear 24 1021 32 10000 4.43 239 19:53 08.03.2022
4935 Clear 24 1019 30 10000 3.93 247 18:44 08.03.2022
4936 Clear 23 1019 32 10000 2.57 200 17:37 08.03.2022
4937 Clear 22 913 35 10000 2.57 0 16:26 08.03.2022
4938 Clear 20 914 40 10000 1.03 0 14:20 08.03.2022
4939 Clear 17 914 48 10000 1.54 40 12:44 08.03.2022
4940 Clear 17 1021 42 10000 0.37 263 11:45 08.03.2022
4941 Clear 17 1020 42 10000 0.31 322 10:50 08.03.2022
4942 Clear 17 1019 42 10000 0.28 311 09:57 08.03.2022
4943 Clear 18 1018 42 10000 0.54 249 07:33 08.03.2022
4944 Clear 20 863 43 10000 0.82 247 05:43 08.03.2022
4945 Clear 28 1014 19 10000 2.57 200 23:52 07.03.2022
4946 Clear 28 1014 19 10000 2.57 250 21:59 07.03.2022
4947 Clear 28 1014 20 10000 2.57 250 21:32 07.03.2022
4948 Clear 27 1014 21 10000 2.57 220 20:48 07.03.2022
4949 Clear 27 1015 21 10000 2.57 220 20:20 07.03.2022
4950 Clear 26 1016 23 10000 3.3 249 19:31 07.03.2022
4951 Clear 25 1015 24 10000 2.57 240 18:44 07.03.2022
4952 Clear 23 1015 25 10000 1.54 0 17:50 07.03.2022
4953 Clear 21 1017 30 10000 1.54 150 16:55 07.03.2022
4954 Clear 20 856 37 10000 1.54 240 15:50 07.03.2022
4955 Clear 19 697 37 10000 1.73 235 13:52 07.03.2022
4956 Clear 12 1018 55 10000 0 0 12:28 07.03.2022
4957 Clear 15 1021 45 10000 0.81 111 10:38 07.03.2022
4958 Clear 15 1021 44 10000 0.25 103 08:57 07.03.2022
4959 Clear 17 1022 38 10000 0.72 230 04:43 07.03.2022
4960 Clouds 22 913 32 10000 2.06 0 00:22 07.03.2022
4961 Clouds 22 912 32 10000 2.57 210 23:35 06.03.2022
4962 Clouds 23 912 32 10000 2.57 240 22:42 06.03.2022
4963 Clouds 23 912 33 10000 3.09 200 21:47 06.03.2022
4964 Clouds 23 1017 30 10000 4.12 220 20:38 06.03.2022
4965 Clouds 23 1017 30 10000 4.12 220 20:20 06.03.2022
4966 Clouds 23 1017 29 10000 2.06 180 18:56 06.03.2022
4967 Clouds 22 1016 29 10000 2.06 180 18:23 06.03.2022
4968 Clouds 22 913 34 10000 2.57 270 17:21 06.03.2022
4969 Clouds 21 913 34 10000 1.54 0 16:41 06.03.2022
4970 Clouds 20 913 38 10000 1.03 0 15:49 06.03.2022
4971 Clouds 19 913 40 10000 2.06 0 14:49 06.03.2022
4972 Clouds 19 913 43 10000 2.06 0 14:31 06.03.2022
4973 Clear 19 1018 41 10000 1.63 233 13:18 06.03.2022
4974 Clouds 17 1017 51 9000 0 0 12:31 06.03.2022
4975 Clear 18 1018 44 10000 0.56 342 10:53 06.03.2022
4976 Clear 18 1017 45 10000 0.58 231 10:22 06.03.2022
4977 Clear 19 1018 43 10000 1.06 273 08:29 06.03.2022
4978 Clear 19 1018 43 10000 1.06 273 08:29 06.03.2022
4979 Clear 19 1018 43 10000 1.06 273 08:29 06.03.2022
4980 Clear 19 1018 43 10000 1.06 273 08:29 06.03.2022
4981 Clear 19 1018 43 10000 1.06 273 08:29 06.03.2022
4982 Clear 19 1018 43 10000 1.06 273 07:34 06.03.2022
4983 Clear 21 862 40 10000 1.15 255 05:32 06.03.2022
4984 Clear 25 911 33 10000 3.09 240 00:49 06.03.2022
4985 Clear 25 911 33 10000 3.09 240 00:29 06.03.2022
4986 Clear 28 1014 27 10000 3.09 240 23:21 05.03.2022
4987 Clouds 28 1015 28 10000 3.09 0 22:43 05.03.2022
4988 Clouds 28 1015 28 10000 3.09 260 21:45 05.03.2022
4989 Clouds 28 1015 28 10000 3.09 260 21:20 05.03.2022
4990 Clouds 26 1017 33 10000 3.23 250 19:24 05.03.2022
4991 Clouds 25 1018 38 7000 2.06 0 18:53 05.03.2022
4992 Clouds 24 1018 39 7000 1.54 270 17:53 05.03.2022
4993 Clouds 23 1019 44 8000 1.03 0 16:32 05.03.2022
4994 Clouds 21 914 46 8000 0 0 15:31 05.03.2022
4995 Clouds 20 914 49 10000 0 0 14:44 05.03.2022
4996 Clouds 20 914 49 10000 0 0 14:26 05.03.2022
4997 Clouds 20 863 46 10000 0.9 246 13:20 05.03.2022
4998 Clouds 20 863 48 10000 0.78 261 11:46 05.03.2022
4999 Clouds 20 863 47 10000 0.65 262 11:18 05.03.2022
5000 Clouds 20 863 46 10000 0.73 255 09:58 05.03.2022
5001 Clouds 20 863 47 10000 1.05 247 08:59 05.03.2022
5002 Clouds 20 863 47 10000 0.78 268 07:37 05.03.2022
5003 Clouds 21 864 49 10000 0.82 247 05:42 05.03.2022
5004 Clouds 21 864 47 10000 2 230 02:20 05.03.2022
5005 Clouds 27 1017 35 10000 3.6 240 23:36 04.03.2022
5006 Haze 28 1017 32 4000 4.63 240 22:42 04.03.2022
5007 Clear 28 1017 29 10000 4.12 240 21:48 04.03.2022
5008 Clear 28 1017 30 10000 3.09 240 20:52 04.03.2022
5009 Clear 28 1018 31 10000 3.09 240 20:22 04.03.2022
5010 Clouds 27 1018 33 10000 3.92 242 19:35 04.03.2022
5011 Clouds 26 1018 37 9000 3.09 240 18:43 04.03.2022
5012 Clouds 26 1018 39 9000 2.57 220 17:31 04.03.2022
5013 Clear 24 1018 42 9000 1.54 240 16:43 04.03.2022
5014 Clear 22 886 45 9000 2.06 210 15:28 04.03.2022
5015 Clear 21 913 46 10000 2.06 240 14:19 04.03.2022
5016 Clear 20 863 45 10000 1.13 255 13:26 04.03.2022
5017 Clear 19 863 49 10000 0.3 306 11:41 04.03.2022
5018 Clear 19 863 49 10000 0.31 281 10:42 04.03.2022
5019 Clear 20 863 47 10000 0.39 246 09:40 04.03.2022
5020 Clear 20 863 48 10000 0.52 257 08:36 04.03.2022
5021 Clear 20 863 47 10000 0.73 243 07:23 04.03.2022
5022 Clear 21 863 44 10000 1.16 245 03:53 04.03.2022
5023 Clear 25 1016 41 10000 3.09 260 00:24 04.03.2022
5024 Clear 28 1016 31 10000 3.09 210 22:26 03.03.2022
5025 Clear 28 1016 31 10000 3.09 190 21:41 03.03.2022
5026 Clear 28 1016 31 10000 3.09 190 21:21 03.03.2022
5027 Clear 27 1017 30 10000 3.59 239 19:51 03.03.2022
5028 Clear 26 1017 34 8000 3.09 260 18:54 03.03.2022
5029 Clear 26 1017 36 8000 3.09 260 18:23 03.03.2022
5030 Clear 25 1017 38 7000 2.57 240 17:30 03.03.2022
5031 Clear 24 1017 38 8000 2.57 210 16:24 03.03.2022
5032 Clear 23 1017 42 10000 1.54 210 15:21 03.03.2022
5033 Clear 21 1017 44 10000 0 0 14:42 03.03.2022
5034 Clear 20 863 45 10000 0.81 285 13:19 03.03.2022
5035 Clouds 20 863 45 10000 0.37 309 11:54 03.03.2022
5036 Clouds 20 862 46 10000 0.26 323 10:42 03.03.2022
5037 Clouds 20 862 47 10000 0.51 278 08:57 03.03.2022
5038 Clear 20 862 47 10000 0.7 267 07:45 03.03.2022
5039 Clear 20 862 47 10000 0.68 265 06:35 03.03.2022
5040 Clear 22 861 41 10000 1.73 228 02:23 03.03.2022
5041 Clear 29 1012 28 10000 3.6 240 23:31 02.03.2022
5042 Clear 30 1012 25 10000 3.09 230 22:52 02.03.2022
5043 Clear 31 1012 21 8000 3.6 200 21:32 02.03.2022
5044 Clear 30 1011 21 10000 2.06 250 20:53 02.03.2022
5045 Clear 30 1011 21 10000 2.06 250 20:24 02.03.2022
5046 Clear 29 1012 21 10000 3.42 248 19:36 02.03.2022
5047 Clear 28 1013 21 8000 2.06 280 18:48 02.03.2022
5048 Clear 28 1013 21 8000 2.06 280 18:18 02.03.2022
5049 Clear 27 1012 21 10000 0 0 17:34 02.03.2022
5050 Clear 25 1013 23 10000 1.54 290 16:51 02.03.2022
5051 Clear 21 1013 32 10000 0 0 14:49 02.03.2022
5052 Clear 20 861 36 10000 0.47 259 13:29 02.03.2022
5053 Clear 17 855 49 10000 1.03 80 12:44 02.03.2022
5054 Clear 19 862 37 10000 0.46 74 11:53 02.03.2022
5055 Clear 19 862 40 10000 0.5 82 11:25 02.03.2022
5056 Clear 19 862 40 10000 0.15 21 09:47 02.03.2022
5057 Clear 19 862 40 10000 0.13 168 09:25 02.03.2022
5058 Clear 20 862 40 10000 0.17 163 07:52 02.03.2022
5059 Clear 20 863 41 10000 0.28 155 06:57 02.03.2022
5060 Clear 21 863 39 10000 1.06 209 03:46 02.03.2022
5061 Clear 25 1017 26 10000 1.58 217 00:39 02.03.2022
5062 Clear 30 1015 18 10000 3.6 240 22:50 01.03.2022
5063 Clear 30 1015 16 10000 3.6 240 22:31 01.03.2022
5064 Clear 30 1015 16 10000 4.12 190 21:25 01.03.2022
5065 Clear 29 1015 16 10000 3.09 240 20:33 01.03.2022
5066 Clear 28 1015 18 10000 3.76 243 19:50 01.03.2022
5067 Clear 27 1015 19 10000 2.57 180 18:51 01.03.2022
5068 Clear 27 1016 19 10000 2.57 180 18:21 01.03.2022
5069 Clear 26 1016 19 10000 2.06 280 17:37 01.03.2022
5070 Clear 24 1016 23 10000 0 0 16:35 01.03.2022
5071 Clear 22 1016 31 10000 0 0 15:47 01.03.2022
5072 Clear 19 1016 34 10000 1.54 190 14:41 01.03.2022
5073 Clear 20 857 37 10000 1.54 190 14:23 01.03.2022
5074 Clear 20 863 35 10000 0.15 227 13:26 01.03.2022
5075 Clear 16 857 50 10000 1.54 60 12:35 01.03.2022
5076 Clear 16 1019 38 10000 0.2 98 10:52 01.03.2022
5077 Clear 19 863 40 10000 0.26 152 09:27 01.03.2022
5078 Clear 19 862 39 10000 0.28 181 08:19 01.03.2022
5079 Clear 20 863 42 10000 0.41 188 06:28 01.03.2022
5080 Clear 21 863 46 10000 0.45 257 02:48 01.03.2022
5081 Clear 26 1016 23 10000 3.09 240 00:47 01.03.2022
5082 Clear 28 1016 19 10000 2.57 230 23:36 28.02.2022
5083 Clear 28 1015 18 10000 4.12 240 22:30 28.02.2022
5084 Clear 28 1015 19 10000 3.09 230 21:43 28.02.2022
5085 Clear 28 1016 21 10000 3.6 210 20:34 28.02.2022
5086 Clear 27 1016 22 10000 3.69 241 19:51 28.02.2022
5087 Clear 25 1017 28 10000 2.06 260 18:50 28.02.2022
5088 Clear 24 1016 31 10000 0 0 17:37 28.02.2022
5089 Clear 24 1017 33 10000 0 0 17:18 28.02.2022
5090 Clear 21 913 39 10000 0 0 15:59 28.02.2022
5091 Clear 19 914 43 10000 0 0 14:32 28.02.2022
5092 Clear 19 864 43 10000 1.73 236 13:52 28.02.2022
5093 Clear 19 864 43 10000 1.73 236 13:52 28.02.2022
5094 Clear 19 864 45 10000 1.33 225 13:18 28.02.2022
5095 Clear 16 1022 52 10000 0.17 174 11:59 28.02.2022
5096 Clear 16 1022 50 10000 0.18 161 11:19 28.02.2022
5097 Clear 17 1021 50 10000 0.59 207 10:22 28.02.2022
5098 Clear 17 1021 50 10000 0.59 207 09:44 28.02.2022
5099 Clear 17 1021 49 10000 0.56 207 08:54 28.02.2022
5100 Clear 17 1021 47 10000 0.58 219 07:59 28.02.2022
5101 Clear 19 1021 45 10000 0.82 221 06:31 28.02.2022
5102 Clear 20 864 42 10000 1.05 215 04:30 28.02.2022
5103 Clear 22 863 38 10000 2.93 228 00:53 28.02.2022
5104 Clear 27 1017 29 10000 3.09 210 22:53 27.02.2022
5105 Clear 27 1017 29 10000 3.09 210 22:32 27.02.2022
5106 Clear 27 1018 30 10000 3.6 230 21:42 27.02.2022
5107 Clear 26 1018 32 10000 3.09 230 20:44 27.02.2022
5108 Clear 26 1018 33 10000 3.09 230 20:18 27.02.2022
5109 Clear 25 1019 33 10000 3.89 246 19:48 27.02.2022
5110 Clear 25 1020 35 10000 3.79 246 19:21 27.02.2022
5111 Clear 24 1020 37 10000 2.06 270 18:33 27.02.2022
5112 Clear 23 1020 39 10000 1.54 240 17:49 27.02.2022
5113 Clear 21 916 44 10000 2.06 250 16:25 27.02.2022
5114 Clear 20 916 45 10000 2.06 260 15:21 27.02.2022
5115 Clear 15 1022 59 10000 2.06 240 12:37 27.02.2022
5116 Clear 16 1023 52 10000 0.5 255 11:54 27.02.2022
5117 Clear 17 1023 54 10000 0.3 214 10:37 27.02.2022
5118 Clear 17 1023 53 10000 0.99 244 09:58 27.02.2022
5119 Clear 17 1022 54 10000 0.61 251 09:24 27.02.2022
5120 Clear 17 1021 53 10000 0.61 251 08:48 27.02.2022
5121 Clear 19 1022 49 10000 1.54 249 06:30 27.02.2022
5122 Clear 21 864 44 10000 1.69 244 04:19 27.02.2022
5123 Clear 23 863 36 10000 2.56 230 00:31 27.02.2022
5124 Clear 28 1017 24 10000 4.12 230 22:48 26.02.2022
5125 Clear 27 1017 26 10000 4.12 250 21:29 26.02.2022
5126 Clear 27 1017 28 10000 4.63 260 20:43 26.02.2022
5127 Clear 27 1018 30 10000 3.86 244 19:58 26.02.2022
5128 Clear 26 1018 31 10000 3.86 244 19:33 26.02.2022
5129 Clear 26 1019 31 10000 2.06 280 18:40 26.02.2022
5130 Clear 24 1019 32 10000 1.54 0 17:38 26.02.2022
5131 Clear 23 1019 34 10000 1.54 240 16:39 26.02.2022
5132 Clear 21 858 39 10000 1.03 0 15:42 26.02.2022
5133 Clear 20 915 42 10000 1.03 0 15:19 26.02.2022
5134 Clear 19 858 42 10000 1.03 360 14:44 26.02.2022
5135 Clear 19 915 46 10000 1.03 360 14:24 26.02.2022
5136 Clear 17 915 52 10000 0 0 12:59 26.02.2022
5137 Clear 16 1022 52 10000 0.31 287 11:54 26.02.2022
5138 Clear 16 1022 52 10000 0.13 227 11:27 26.02.2022
5139 Clear 17 1022 53 10000 0.72 234 10:22 26.02.2022
5140 Clear 17 1021 50 10000 0.75 238 08:35 26.02.2022
5141 Clear 18 1022 48 10000 0.71 241 06:46 26.02.2022
5142 Clear 24 913 36 10000 4.12 240 00:26 26.02.2022
5143 Clear 28 1017 26 10000 3.6 230 22:45 25.02.2022
5144 Clear 29 1017 24 10000 3.09 230 21:37 25.02.2022
5145 Clear 29 1017 23 10000 3.09 230 21:18 25.02.2022
5146 Clear 28 1017 24 10000 3.09 240 20:31 25.02.2022
5147 Clear 26 1019 28 10000 2.57 0 18:35 25.02.2022
5148 Clear 25 1019 32 10000 2.57 0 17:23 25.02.2022
5149 Clear 22 914 37 10000 2.57 240 16:21 25.02.2022
5150 Clear 21 916 40 10000 0 0 15:42 25.02.2022
5151 Clear 21 914 39 10000 0 0 15:20 25.02.2022
5152 Clear 20 858 42 10000 1.54 0 14:41 25.02.2022
5153 Clear 19 697 40 10000 1.57 272 13:36 25.02.2022
5154 Clear 16 914 50 10000 1.54 50 12:45 25.02.2022
5155 Clear 15 1021 46 10000 0.24 319 11:28 25.02.2022
5156 Clear 15 1021 47 10000 0.26 257 10:29 25.02.2022
5157 Clear 16 1021 48 10000 0.26 257 09:53 25.02.2022
5158 Clear 16 1020 50 10000 0.37 247 08:46 25.02.2022
5159 Clear 16 1020 51 10000 0.36 246 07:37 25.02.2022
5160 Clear 19 864 46 10000 0.55 239 05:48 25.02.2022
5161 Clear 20 864 44 10000 0.9 239 03:34 25.02.2022
5162 Clear 25 1017 27 10000 3.09 210 23:42 24.02.2022
5163 Clouds 26 1017 25 10000 3.6 0 21:56 24.02.2022
5164 Clouds 26 1017 26 10000 3.6 0 21:38 24.02.2022
5165 Clouds 26 1017 26 10000 3.6 0 21:19 24.02.2022
5166 Clouds 24 1019 25 10000 3.2 250 19:38 24.02.2022
5167 Clouds 24 1019 31 10000 2.57 180 18:43 24.02.2022
5168 Clouds 23 1019 32 10000 2.57 180 18:18 24.02.2022
5169 Clouds 22 1018 38 10000 1.54 180 17:33 24.02.2022
5170 Clouds 22 1018 38 10000 1.54 180 17:33 24.02.2022
5171 Clear 20 914 45 10000 1.54 0 16:49 24.02.2022
5172 Clear 20 915 46 10000 1.54 0 16:23 24.02.2022
5173 Clouds 18 915 53 10000 0 0 14:54 24.02.2022
5174 Clouds 18 915 53 10000 0 0 14:35 24.02.2022
5175 Clear 18 865 50 10000 1.88 250 13:39 24.02.2022
5176 Clear 13 1022 74 10000 1.03 30 12:50 24.02.2022
5177 Clear 14 1024 65 10000 0.34 169 10:40 24.02.2022
5178 Clear 14 1024 68 10000 0.8 174 09:18 24.02.2022
5179 Clear 15 1024 68 10000 0.8 174 08:40 24.02.2022
5180 Clouds 16 1024 67 10000 0.88 251 05:53 24.02.2022
5181 Clouds 18 1024 57 10000 2.3 219 01:56 24.02.2022
5182 Clouds 20 917 40 10000 3.6 210 23:31 23.02.2022
5183 Clouds 21 916 38 10000 3.6 180 21:43 23.02.2022
5184 Clouds 22 916 36 10000 5.14 210 20:31 23.02.2022
5185 Clouds 22 867 35 10000 2.94 260 19:47 23.02.2022
5186 Clouds 21 914 43 10000 2.57 90 18:32 23.02.2022
5187 Clouds 21 914 43 10000 2.57 90 18:32 23.02.2022
5188 Clouds 21 1020 44 10000 0 0 17:44 23.02.2022
5189 Clouds 15 1020 58 10000 0 0 14:44 23.02.2022
5190 Clouds 14 1019 65 10000 0 0 12:50 23.02.2022
5191 Clouds 15 1021 59 10000 1.29 267 11:59 23.02.2022
5192 Clouds 15 1019 57 10000 0.85 285 10:35 23.02.2022
5193 Clouds 16 1018 57 10000 1.07 258 08:59 23.02.2022
5194 Clouds 16 1018 57 10000 1.07 258 08:59 23.02.2022
5195 Clouds 16 1018 56 10000 1.08 265 08:23 23.02.2022
5196 Clouds 17 1018 57 10000 1.06 252 05:49 23.02.2022
5197 Clouds 20 1016 45 10000 2.57 230 00:47 23.02.2022
5198 Clouds 23 1016 37 10000 3.6 250 23:39 22.02.2022
5199 Clouds 24 1016 34 10000 3.6 220 22:41 22.02.2022
5200 Clouds 25 1015 33 10000 3.6 190 21:49 22.02.2022
5201 Clouds 25 1015 32 10000 3.6 190 21:31 22.02.2022
5202 Clear 24 1016 34 10000 3.09 240 20:59 22.02.2022
5203 Clear 24 1016 34 10000 3.09 240 20:30 22.02.2022
5204 Clouds 24 1017 34 10000 3.86 242 19:47 22.02.2022
5205 Clouds 24 1017 36 10000 3.76 243 19:28 22.02.2022
5206 Clear 23 1018 39 10000 2.06 240 18:21 22.02.2022
5207 Clear 21 1018 47 10000 1.54 0 17:24 22.02.2022
5208 Clear 20 1018 49 10000 2.57 210 16:41 22.02.2022
5209 Clear 18 1018 53 10000 2.06 260 15:56 22.02.2022
5210 Clear 16 1018 58 10000 1.54 190 14:45 22.02.2022
5211 Clear 13 1018 74 10000 0 0 12:44 22.02.2022
5212 Clear 16 1019 61 10000 0.76 268 10:53 22.02.2022
5213 Clear 16 1020 61 10000 0.92 261 08:48 22.02.2022
5214 Clouds 16 1019 59 10000 0.84 264 07:27 22.02.2022
5215 Clouds 17 1019 58 10000 1.4 258 05:57 22.02.2022
5216 Clouds 19 1018 50 10000 1.72 240 02:45 22.02.2022
5217 Clear 26 1014 34 10000 3.6 240 22:53 21.02.2022
5218 Clear 26 1014 32 10000 4.12 210 21:46 21.02.2022
5219 Clear 26 1014 31 10000 3.09 210 20:36 21.02.2022
5220 Clear 25 1014 35 10000 3.09 210 18:46 21.02.2022
5221 Clear 23 1015 38 10000 2.06 240 17:39 21.02.2022
5222 Clear 20 1015 45 10000 2.06 190 15:25 21.02.2022
5223 Clouds 18 1015 50 10000 1.03 30 14:22 21.02.2022
5224 Clouds 18 1016 49 10000 1.87 259 13:30 21.02.2022
5225 Clear 14 1015 63 10000 0.51 0 12:24 21.02.2022
5226 Clouds 16 1017 52 10000 0.29 309 11:20 21.02.2022
5227 Clouds 17 1017 53 10000 0.39 322 09:50 21.02.2022
5228 Clear 18 1018 50 10000 0.92 247 05:35 21.02.2022
5229 Clouds 23 1016 34 10000 3.09 240 00:18 21.02.2022
5230 Clouds 26 1013 29 10000 4.12 240 22:27 20.02.2022
5231 Clouds 27 1013 29 10000 3.09 240 21:42 20.02.2022
5232 Clouds 27 1013 28 8000 3.09 190 20:59 20.02.2022
5233 Clouds 27 1014 28 8000 3.09 190 20:41 20.02.2022
5234 Clouds 27 1014 28 10000 4.13 241 19:36 20.02.2022
5235 Clear 27 1015 29 10000 3.09 160 18:51 20.02.2022
5236 Clear 26 1015 29 10000 3.09 160 18:31 20.02.2022
5237 Clouds 25 1015 31 8000 2.06 240 17:49 20.02.2022
5238 Clear 23 1015 36 10000 2.57 240 15:41 20.02.2022
5239 Clear 21 1018 38 10000 0 0 14:48 20.02.2022
5240 Clear 19 1018 37 10000 1.68 248 13:23 20.02.2022
5241 Clear 16 1017 52 10000 0 0 12:34 20.02.2022
5242 Clear 18 1019 39 10000 0.6 252 10:47 20.02.2022
5243 Clear 18 1018 38 10000 0.24 265 10:19 20.02.2022
5244 Clear 19 1018 36 10000 0.64 240 08:50 20.02.2022
5245 Clear 25 1017 27 10000 4.12 230 00:54 20.02.2022
5246 Clear 25 1017 25 10000 4.12 230 00:30 20.02.2022
5247 Clear 27 1014 22 10000 4.12 230 23:18 19.02.2022
5248 Clear 28 1014 19 10000 4.12 230 22:22 19.02.2022
5249 Clear 29 1013 18 10000 4.12 230 21:25 19.02.2022
5250 Clear 27 1015 22 10000 4.09 248 19:53 19.02.2022
5251 Clear 27 1015 23 10000 4.09 248 19:30 19.02.2022
5252 Clear 27 1016 25 8000 3.09 0 18:33 19.02.2022
5253 Clear 25 1016 25 8000 2.57 270 17:36 19.02.2022
5254 Clear 24 1017 27 10000 2.06 280 16:28 19.02.2022
5255 Clear 22 1017 28 10000 1.54 200 15:18 19.02.2022
5256 Clear 21 1017 31 10000 0 0 14:49 19.02.2022
5257 Clear 19 1019 33 10000 1.89 244 13:45 19.02.2022
5258 Clear 17 1020 39 10000 0.06 195 11:38 19.02.2022
5259 Clear 18 1019 37 10000 0.32 243 09:55 19.02.2022
5260 Clear 19 1020 34 10000 0.87 243 06:58 19.02.2022
5261 Clear 21 1020 32 10000 0.96 243 03:54 19.02.2022
5262 Clear 26 1016 23 10000 5.14 220 23:33 18.02.2022
5263 Clear 29 1013 23 10000 5.14 240 21:50 18.02.2022
5264 Clear 29 1012 23 10000 3.6 230 20:51 18.02.2022
5265 Clear 29 1012 24 10000 4.75 245 19:53 18.02.2022
5266 Clear 28 1013 25 8000 2.57 0 18:50 18.02.2022
5267 Clear 28 1013 26 8000 2.57 0 18:22 18.02.2022
5268 Clear 28 1013 27 7000 2.06 230 17:51 18.02.2022
5269 Clear 23 1014 32 10000 0 0 14:54 18.02.2022
5270 Clear 23 1014 32 10000 1.69 257 13:55 18.02.2022
5271 Clear 20 1013 41 10000 0 0 12:53 18.02.2022
5272 Clear 20 1013 42 10000 0 0 12:33 18.02.2022
5273 Clear 19 1016 38 10000 0.07 227 11:27 18.02.2022
5274 Clear 19 1015 34 10000 0.07 123 10:23 18.02.2022
5275 Clear 21 1015 37 10000 0.59 190 06:56 18.02.2022
5276 Clear 21 1016 38 10000 0.77 211 05:39 18.02.2022
5277 Clear 29 1012 22 10000 4.12 250 23:24 17.02.2022
5278 Clear 31 1014 20 10000 4.12 240 21:45 17.02.2022
5279 Clear 31 1012 21 10000 4.12 240 21:19 17.02.2022
5280 Clear 31 1012 22 10000 3.09 260 20:37 17.02.2022
5281 Clear 31 1012 24 10000 4.22 243 19:48 17.02.2022
5282 Clear 29 1015 26 10000 2.57 260 18:41 17.02.2022
5283 Clear 28 1015 27 10000 3.71 246 17:50 17.02.2022
5284 Clear 26 1016 31 10000 2.81 252 16:25 17.02.2022
5285 Clear 25 1014 34 10000 1.54 260 15:32 17.02.2022
5286 Clear 23 1014 38 10000 0 0 14:26 17.02.2022
5287 Clear 20 1013 49 10000 0 0 12:36 17.02.2022
5288 Clear 19 1017 33 10000 0.56 125 11:23 17.02.2022
5289 Clear 20 1017 36 10000 0.28 143 08:52 17.02.2022
5290 Clear 26 1016 36 10000 1.28 208 01:45 17.02.2022
5291 Clear 29 1015 27 10000 4.12 240 23:19 16.02.2022
5292 Clear 30 1015 26 10000 3.09 240 21:40 16.02.2022
5293 Clear 30 1014 23 10000 4.07 238 19:47 16.02.2022
5294 Clear 28 1015 28 10000 4.07 242 18:38 16.02.2022
5295 Clear 26 1017 35 6000 2.06 0 17:53 16.02.2022
5296 Clear 23 1017 45 10000 1.03 290 15:39 16.02.2022
5297 Clear 23 1017 47 10000 1.03 290 15:18 16.02.2022
5298 Clear 14 1017 73 10000 0 0 12:59 16.02.2022
5299 Clear 18 1022 65 10000 0.28 182 11:58 16.02.2022
5300 Clear 18 1022 66 10000 0.65 178 11:24 16.02.2022
5301 Clear 17 1021 64 10000 0.65 178 10:33 16.02.2022
5302 Clear 18 1021 64 10000 0.57 221 07:54 16.02.2022
5303 Clear 18 1021 63 10000 0.95 229 06:26 16.02.2022
5304 Clear 26 1017 42 10000 3.09 250 23:45 15.02.2022
5305 Clear 26 1017 37 10000 4.12 210 22:29 15.02.2022
5306 Clear 27 1017 38 7000 3.6 240 21:47 15.02.2022
5307 Clear 27 1016 35 7000 3.6 240 21:27 15.02.2022
5308 Clear 27 1016 36 7000 4.12 200 20:56 15.02.2022
5309 Clear 26 1014 34 10000 4.35 243 19:57 15.02.2022
5310 Haze 25 1017 47 5000 2.57 230 18:56 15.02.2022
5311 Haze 25 1017 44 5000 2.57 230 18:21 15.02.2022
5312 Haze 23 1017 48 5000 2.57 0 17:50 15.02.2022
5313 Haze 21 1017 54 5000 1.54 0 16:38 15.02.2022
5314 Haze 20 1019 57 5000 0 0 15:28 15.02.2022
5315 Clear 19 863 53 10000 1.15 252 13:27 15.02.2022
5316 Clear 17 913 62 10000 0 0 12:37 15.02.2022
5317 Clear 17 1020 66 10000 0.85 266 11:27 15.02.2022
5318 Clear 18 1019 63 10000 0.75 240 09:31 15.02.2022
5319 Clear 20 863 50 10000 1.06 265 06:52 15.02.2022
5320 Clear 20 863 48 10000 1.25 247 03:55 15.02.2022
5321 Clear 27 1016 38 10000 4.12 230 23:33 14.02.2022
5322 Clear 28 1016 33 10000 4.67 240 21:36 14.02.2022
5323 Clear 28 1016 34 8000 3.09 200 20:37 14.02.2022
5324 Clear 27 1017 35 10000 4.05 244 19:34 14.02.2022
5325 Clear 26 1017 38 8000 3.09 240 18:42 14.02.2022
5326 Clear 24 1016 42 8000 2.06 200 17:58 14.02.2022
5327 Clear 24 1017 43 8000 2.06 200 17:25 14.02.2022
5328 Clear 23 1017 47 8000 2.06 190 16:19 14.02.2022
5329 Clear 19 1019 55 10000 2.07 246 13:54 14.02.2022
5330 Clear 19 1019 57 10000 1.24 241 13:26 14.02.2022
5331 Clear 16 1018 69 10000 0 0 12:48 14.02.2022
5332 Clear 19 1020 61 10000 0.65 224 11:54 14.02.2022
5333 Clear 18 1019 63 10000 0.51 235 10:44 14.02.2022
5334 Clear 19 1019 60 10000 0.33 225 08:45 14.02.2022
5335 Clear 19 1019 59 10000 0.38 227 07:31 14.02.2022
5336 Clouds 22 1019 46 10000 2.49 227 01:18 14.02.2022
5337 Clouds 26 1015 38 10000 4.12 240 22:42 13.02.2022
5338 Clouds 27 1015 36 10000 4.12 240 22:24 13.02.2022
5339 Clouds 27 1015 33 10000 5.03 239 21:32 13.02.2022
5340 Clouds 28 1015 28 10000 4.12 230 20:36 13.02.2022
5341 Clear 28 1016 56 10000 4.56 240 19:45 13.02.2022
5342 Clear 26 1016 29 10000 3.6 270 18:49 13.02.2022
5343 Clear 26 1016 29 10000 3.6 270 18:28 13.02.2022
5344 Clear 22 1017 37 10000 0 0 15:54 13.02.2022
5345 Clear 22 1017 38 10000 0 0 15:24 13.02.2022
5346 Clear 20 1017 42 10000 1.03 200 14:31 13.02.2022
5347 Clear 17 1017 57 10000 0 0 12:51 13.02.2022
5348 Clear 19 1018 43 10000 0.49 274 11:44 13.02.2022
5349 Clear 19 1017 42 10000 0.39 250 10:34 13.02.2022
5350 Clear 20 1017 42 10000 0.56 260 09:46 13.02.2022
5351 Clear 20 1016 40 10000 0.72 255 07:49 13.02.2022
5352 Clear 25 1014 32 10000 3.09 240 00:35 13.02.2022
5353 Clear 28 1012 27 10000 4.12 250 23:42 12.02.2022
5354 Clouds 30 1012 25 10000 4.63 210 22:33 12.02.2022
5355 Clear 31 1012 21 10000 4.12 240 21:30 12.02.2022
5356 Clear 30 1011 42 10000 4.12 270 20:47 12.02.2022
5357 Clouds 30 1012 21 10000 4.76 238 19:35 12.02.2022
5358 Clear 29 1012 44 10000 2.06 260 18:53 12.02.2022
5359 Clear 29 1012 23 10000 2.06 260 18:35 12.02.2022
5360 Clear 27 1013 31 10000 2.57 240 17:20 12.02.2022
5361 Clear 25 1014 37 10000 2.06 0 16:29 12.02.2022
5362 Clear 25 1014 36 10000 1.54 190 15:51 12.02.2022
5363 Clear 23 1014 39 10000 1.03 230 14:44 12.02.2022
5364 Clear 22 1014 39 10000 1.03 230 14:24 12.02.2022
5365 Clouds 19 1016 41 10000 0.04 194 11:18 12.02.2022
5366 Clouds 19 1017 50 10000 0.07 306 10:23 12.02.2022
5367 Clouds 19 1016 49 10000 0.07 306 09:32 12.02.2022
5368 Clouds 19 1016 52 10000 0.17 353 08:45 12.02.2022
5369 Clouds 21 1017 51 10000 0.65 229 05:41 12.02.2022
5370 Clouds 21 1017 49 10000 0.88 231 04:36 12.02.2022
5371 Clear 23 1018 37 10000 1.27 209 02:19 12.02.2022
5372 Clouds 27 1015 36 10000 2.57 240 22:58 11.02.2022
5373 Clouds 28 1015 53 10000 2.57 240 22:20 11.02.2022
5374 Clouds 27 1015 38 7000 3.6 250 21:18 11.02.2022
5375 Clouds 26 1016 41 6000 2.57 250 20:21 11.02.2022
5376 Clouds 27 1013 34 10000 3.93 250 19:27 11.02.2022
5377 Clouds 24 1015 45 6000 2.06 240 18:29 11.02.2022
5378 Clouds 22 1016 52 6000 1.54 260 17:26 11.02.2022
5379 Clouds 20 1016 57 6000 2.06 240 16:26 11.02.2022
5380 Clear 18 1016 63 10000 0 0 14:59 11.02.2022
5381 Clear 19 1018 62 10000 0 0 14:37 11.02.2022
5382 Clear 19 1018 62 10000 0 0 14:18 11.02.2022
5383 Clouds 19 1020 58 10000 2.05 247 13:40 11.02.2022
5384 Clouds 17 1019 67 10000 1.54 190 12:37 11.02.2022
5385 Clouds 17 1021 67 10000 0.43 234 10:30 11.02.2022
5386 Clear 17 1019 65 10000 0.48 241 09:22 11.02.2022
5387 Clear 17 1019 65 10000 0.44 240 08:28 11.02.2022
5388 Clear 17 1020 64 10000 0.44 240 07:39 11.02.2022
5389 Clouds 19 1019 62 10000 1.56 238 02:40 11.02.2022
5390 Clouds 20 1020 55 10000 1.75 237 02:20 11.02.2022
5391 Clouds 22 912 48 7000 3.09 240 23:40 10.02.2022
5392 Clouds 23 1016 43 7000 3.6 200 21:55 10.02.2022
5393 Clouds 24 1014 36 7000 3.6 200 21:26 10.02.2022
5394 Clouds 25 1014 44 6000 4.12 240 20:48 10.02.2022
5395 Clouds 24 1011 39 10000 4.8 239 19:37 10.02.2022
5396 Clouds 24 1016 46 10000 4.26 242 19:18 10.02.2022
5397 Haze 21 1014 54 5000 2.06 250 17:39 10.02.2022
5398 Haze 22 1015 54 5000 2.06 250 17:19 10.02.2022
5399 Clouds 20 856 51 6000 2.57 240 16:23 10.02.2022
5400 Clouds 20 912 55 7000 1.54 0 15:34 10.02.2022
5401 Clouds 19 912 58 6000 0 0 14:49 10.02.2022
5402 Clouds 19 912 58 6000 0 0 14:30 10.02.2022
5403 Clouds 19 862 52 10000 2.31 259 13:33 10.02.2022
5404 Clouds 19 862 52 10000 2.31 259 13:33 10.02.2022
5405 Clouds 17 912 64 6000 0 0 12:51 10.02.2022
5406 Clear 19 862 52 10000 0.61 243 11:44 10.02.2022
5407 Clear 17 1017 64 10000 0.88 256 11:25 10.02.2022
5408 Clear 18 1016 60 10000 0.96 253 10:19 10.02.2022
5409 Clear 18 1016 58 10000 0.93 252 09:25 10.02.2022
5410 Clear 20 861 48 10000 0.79 262 07:57 10.02.2022
5411 Clear 20 862 48 10000 1.01 255 05:53 10.02.2022
5412 Clear 22 861 44 10000 2.1 231 01:58 10.02.2022
5413 Clear 23 910 42 10000 3.6 230 00:51 10.02.2022
5414 Clear 25 1014 39 10000 3.6 230 00:29 10.02.2022
5415 Clear 27 1013 35 10000 4.12 230 23:49 09.02.2022
5416 Clear 28 1012 29 10000 4.63 240 22:45 09.02.2022
5417 Clear 28 1012 29 10000 4.63 240 22:25 09.02.2022
5418 Clear 28 1012 29 10000 4.12 230 21:38 09.02.2022
5419 Clear 28 1012 29 10000 4.12 230 21:18 09.02.2022
5420 Clear 29 1013 27 8000 3.6 230 20:41 09.02.2022
5421 Clear 29 1012 27 8000 3.6 230 20:20 09.02.2022
5422 Clear 28 1013 27 10000 4.62 244 19:38 09.02.2022
5423 Clear 27 1014 51 8000 2.57 230 17:43 09.02.2022
5424 Clear 26 1014 33 10000 1.54 320 16:53 09.02.2022
5425 Clear 25 1014 40 10000 1.54 200 15:54 09.02.2022
5426 Clear 23 1015 41 10000 2.59 256 14:43 09.02.2022
5427 Clear 18 1015 59 10000 0 0 12:41 09.02.2022
5428 Clouds 20 1016 46 10000 0.51 237 11:19 09.02.2022
5429 Clouds 20 1016 48 10000 0.51 237 10:31 09.02.2022
5430 Clouds 20 1015 48 10000 0.14 241 09:42 09.02.2022
5431 Clouds 20 1015 48 10000 0.4 217 09:19 09.02.2022
5432 Clouds 21 1015 49 10000 0.5 213 07:56 09.02.2022
5433 Clouds 22 862 44 10000 0.62 237 05:30 09.02.2022
5434 Clouds 22 861 41 10000 0.92 234 03:50 09.02.2022
5435 Clear 25 1016 39 10000 2.16 221 01:28 09.02.2022
5436 Clear 29 1014 30 10000 3.6 240 23:39 08.02.2022
5437 Clear 30 1014 28 10000 4.63 250 22:51 08.02.2022
5438 Clear 30 1013 28 10000 4.63 250 22:22 08.02.2022
5439 Clear 31 1013 27 10000 3.6 230 21:50 08.02.2022
5440 Clear 31 1013 26 10000 3.6 230 21:21 08.02.2022
5441 Clear 31 1013 25 10000 3.6 240 20:45 08.02.2022
5442 Clear 30 1014 25 10000 3.97 246 19:52 08.02.2022
5443 Clear 29 1014 30 8000 3.09 210 18:52 08.02.2022
5444 Clear 27 1015 33 10000 2.06 270 17:50 08.02.2022
5445 Clear 26 1015 34 10000 0 0 16:34 08.02.2022
5446 Clear 23 1015 39 10000 1.03 30 15:39 08.02.2022
5447 Clear 21 1016 45 10000 1.03 250 14:44 08.02.2022
5448 Clear 21 862 44 10000 0.77 256 13:29 08.02.2022
5449 Clear 18 912 53 10000 0 0 12:18 08.02.2022
5450 Clear 19 863 46 10000 0.33 193 10:39 08.02.2022
5451 Clear 20 862 44 10000 0.37 165 09:45 08.02.2022
5452 Clear 20 863 45 10000 0.3 222 08:25 08.02.2022
5453 Clear 21 863 41 10000 0.73 224 05:41 08.02.2022
5454 Clear 21 863 41 10000 0.66 219 04:39 08.02.2022
5455 Clear 21 863 41 10000 1.2 219 04:21 08.02.2022
5456 Clear 21 863 41 10000 1.2 219 03:36 08.02.2022
5457 Clear 22 863 40 10000 1.75 232 03:18 08.02.2022
5458 Clear 22 863 41 10000 1.75 232 02:59 08.02.2022
5459 Clear 22 863 40 10000 1.75 232 02:36 08.02.2022
5460 Clear 22 863 39 10000 1.66 226 02:18 08.02.2022
5461 Clear 22 862 40 10000 1.66 226 01:44 08.02.2022
5462 Clear 24 1018 35 10000 2.57 226 01:24 08.02.2022
5463 Clear 26 1017 33 10000 3.09 280 00:55 08.02.2022
5464 Clear 28 1016 30 10000 4.12 240 23:58 07.02.2022
5465 Clear 28 1016 30 10000 4.12 240 23:40 07.02.2022
5466 Clear 28 1016 30 10000 4.12 240 23:40 07.02.2022
5467 Clear 28 1016 30 10000 4.12 240 23:18 07.02.2022
5468 Clear 29 1016 28 10000 4.63 250 22:54 07.02.2022
5469 Clear 29 1015 27 10000 4.63 250 22:18 07.02.2022
5470 Clear 29 1015 28 10000 4.12 240 21:44 07.02.2022
5471 Clear 29 1016 28 10000 4.12 240 21:25 07.02.2022
5472 Clear 30 1016 28 10000 3.09 240 20:41 07.02.2022
5473 Clear 29 1016 29 10000 4.85 240 19:56 07.02.2022
5474 Clear 28 1016 28 10000 4.85 240 19:38 07.02.2022
5475 Clear 29 1016 28 10000 3.09 250 18:21 07.02.2022
5476 Clear 26 1017 32 10000 2.06 240 16:53 07.02.2022
5477 Clear 25 1017 32 10000 2.06 240 16:20 07.02.2022
5478 Clear 24 1017 33 10000 1.54 160 15:48 07.02.2022
5479 Clear 22 1018 38 10000 1.92 259 13:37 07.02.2022
5480 Clear 21 862 39 10000 1.13 263 13:19 07.02.2022
5481 Clear 21 867 42 10000 0.45 258 11:58 07.02.2022
5482 Clear 21 867 42 10000 0.45 258 11:58 07.02.2022
5483 Clear 21 867 42 10000 0.45 258 11:58 07.02.2022
5484 Clear 21 866 42 10000 0.45 258 11:37 07.02.2022
5485 Clear 21 866 42 10000 0.32 230 10:52 07.02.2022
5486 Clear 21 866 42 10000 0.32 230 10:32 07.02.2022
5487 Clear 21 866 42 10000 0.38 225 09:53 07.02.2022
5488 Clear 21 866 41 10000 0.41 230 09:18 07.02.2022
5489 Clear 21 866 41 10000 0.41 230 08:43 07.02.2022
5490 Clear 22 866 42 10000 0.6 236 07:26 07.02.2022
5491 Clear 22 866 42 10000 0.6 238 06:34 07.02.2022
5492 Clear 22 862 44 10000 1.2 243 03:48 07.02.2022
5493 Clear 27 1015 30 10000 3.6 240 00:46 07.02.2022
5494 Clear 30 1014 26 10000 5.14 230 23:49 06.02.2022
5495 Clear 31 1014 23 10000 4.12 230 22:55 06.02.2022
5496 Clear 31 1013 22 10000 4.12 230 22:34 06.02.2022
5497 Clear 31 1013 22 10000 4.12 230 21:36 06.02.2022
5498 Clear 32 1013 22 10000 4.12 0 20:56 06.02.2022
5499 Clear 32 1013 22 10000 4.12 0 20:32 06.02.2022
5500 Clear 31 1012 21 10000 4.04 243 19:40 06.02.2022
5501 Clear 30 1013 24 10000 3.6 0 18:41 06.02.2022
5502 Clear 29 1014 28 10000 2.06 0 17:58 06.02.2022
5503 Clear 28 1014 30 10000 2.06 0 17:21 06.02.2022
5504 Clear 27 1015 32 10000 2.06 0 16:48 06.02.2022
5505 Clear 25 1016 35 10000 1.03 0 15:49 06.02.2022
5506 Clear 25 1016 36 10000 1.03 0 15:27 06.02.2022
5507 Clear 24 1016 38 10000 0 0 14:47 06.02.2022
5508 Clear 22 862 39 10000 1.16 249 13:28 06.02.2022
5509 Clear 20 912 46 10000 1.54 60 12:59 06.02.2022
5510 Clear 20 862 41 10000 0.33 175 11:38 06.02.2022
5511 Clear 20 862 43 10000 0.25 157 10:31 06.02.2022
5512 Clear 20 862 43 10000 0.25 157 10:31 06.02.2022
5513 Clear 20 862 42 10000 0.21 91 09:25 06.02.2022
5514 Clear 21 862 43 10000 0.21 91 08:40 06.02.2022
5515 Clear 22 862 42 10000 0.33 223 05:33 06.02.2022
5516 Clear 23 862 40 10000 1.41 222 03:18 06.02.2022
5517 Clear 23 862 39 10000 1.31 216 02:24 06.02.2022
5518 Clear 28 1015 30 10000 3.6 250 00:29 06.02.2022
5519 Clear 30 1014 24 10000 3.6 230 22:36 05.02.2022
5520 Clear 30 1014 23 10000 4.12 240 21:33 05.02.2022
5521 Clear 29 1015 25 10000 3.6 260 20:25 05.02.2022
5522 Clear 29 1015 25 10000 3.68 250 19:49 05.02.2022
5523 Clear 28 1016 25 10000 3.57 257 19:18 05.02.2022
5524 Clear 27 1017 32 10000 2.57 260 17:45 05.02.2022
5525 Clear 26 1017 34 10000 2.57 260 17:27 05.02.2022
5526 Clear 23 1018 41 10000 1.54 240 15:42 05.02.2022
5527 Clear 23 913 42 10000 1.54 240 15:22 05.02.2022
5528 Clear 18 914 52 10000 0 0 12:54 05.02.2022
5529 Clear 18 914 53 10000 0 0 12:33 05.02.2022
5530 Clouds 19 863 44 10000 0.39 346 10:53 05.02.2022
5531 Clouds 19 864 44 10000 0.07 305 10:25 05.02.2022
5532 Clouds 19 863 44 10000 0.07 305 09:46 05.02.2022
5533 Clear 20 863 44 10000 0.41 249 08:20 05.02.2022
5534 Clear 20 864 43 10000 0.67 223 06:57 05.02.2022
5535 Clear 21 864 45 10000 1.01 232 04:55 05.02.2022
5536 Clear 23 863 37 10000 2.49 216 01:19 05.02.2022
5537 Clear 24 914 34 10000 4.12 240 00:53 05.02.2022
5538 Clouds 25 857 33 10000 4.12 240 23:58 04.02.2022
5539 Clouds 27 1018 28 10000 4.12 240 23:30 04.02.2022
5540 Clouds 27 1018 28 10000 5.14 230 21:59 04.02.2022
5541 Clouds 28 1018 28 10000 5.14 230 21:36 04.02.2022
5542 Clouds 27 1018 29 10000 5.14 230 21:18 04.02.2022
5543 Clouds 27 1018 29 10000 4.12 200 20:20 04.02.2022
5544 Clouds 24 1019 39 10000 2.06 0 17:45 04.02.2022
5545 Clouds 21 1019 49 10000 3.09 260 15:55 04.02.2022
5546 Clouds 21 1019 49 10000 3.09 260 15:55 04.02.2022
5547 Clouds 20 913 50 10000 1.54 200 14:55 04.02.2022
5548 Clear 20 864 47 10000 2.09 253 13:55 04.02.2022
5549 Clear 18 914 59 10000 0 0 12:43 04.02.2022
5550 Clear 18 1021 61 10000 0.27 213 11:42 04.02.2022
5551 Clear 17 1021 62 10000 0.61 230 10:37 04.02.2022
5552 Clear 18 1020 60 10000 0.32 235 08:48 04.02.2022
5553 Clear 18 1021 58 10000 0.64 260 06:57 04.02.2022
5554 Clear 21 863 47 10000 1.71 247 02:48 04.02.2022
5555 Clear 21 863 46 10000 1.83 242 01:56 04.02.2022
5556 Clouds 25 1016 36 10000 3.6 210 23:29 03.02.2022
5557 Clouds 26 1016 36 10000 4.12 230 22:46 03.02.2022
5558 Clouds 26 1016 34 10000 3.6 220 21:49 03.02.2022
5559 Clouds 26 1016 33 10000 4.12 230 20:41 03.02.2022
5560 Clouds 26 1016 32 10000 4.12 230 20:19 03.02.2022
5561 Clouds 25 1017 35 10000 4.48 240 19:32 03.02.2022
5562 Clouds 25 1016 36 10000 3.6 230 18:40 03.02.2022
5563 Clouds 23 1016 41 8000 2.57 250 17:35 03.02.2022
5564 Clouds 22 1018 46 10000 2.06 250 16:35 03.02.2022
5565 Clear 20 913 50 10000 0 0 14:49 03.02.2022
5566 Clear 18 913 61 10000 0 0 12:58 03.02.2022
5567 Clear 18 1019 60 10000 0.67 244 11:23 03.02.2022
5568 Clear 19 1017 54 10000 0.86 229 08:37 03.02.2022
5569 Clear 21 862 46 10000 0.88 233 05:26 03.02.2022
5570 Clear 25 910 38 10000 4.12 240 00:32 03.02.2022
5571 Clear 25 856 37 10000 4.12 260 23:43 02.02.2022
5572 Clear 28 1015 31 10000 3.6 230 22:19 02.02.2022
5573 Clear 28 1016 31 10000 3.09 210 21:34 02.02.2022
5574 Clear 28 1016 32 10000 3.6 0 20:49 02.02.2022
5575 Clear 27 1017 31 10000 4.37 240 19:59 02.02.2022
5576 Clear 27 1017 33 10000 4.16 242 19:27 02.02.2022
5577 Clear 27 1017 35 8000 3.6 210 18:46 02.02.2022
5578 Clear 26 1018 37 8000 2.57 200 17:57 02.02.2022
5579 Clear 25 1018 38 8000 2.57 200 17:19 02.02.2022
5580 Clear 24 1018 39 8000 1.54 170 16:42 02.02.2022
5581 Clear 20 863 46 10000 1.52 256 13:28 02.02.2022
5582 Clear 18 914 58 10000 0 0 12:20 02.02.2022
5583 Clear 19 863 48 10000 0.51 262 11:34 02.02.2022
5584 Clear 18 1019 53 10000 0.6 254 10:22 02.02.2022
5585 Clear 19 1019 49 10000 0.8 243 07:37 02.02.2022
5586 Clouds 27 1016 34 8000 4.12 210 22:52 01.02.2022
5587 Clouds 27 1017 34 8000 4.12 210 21:51 01.02.2022
5588 Clouds 27 1017 33 8000 3.6 180 20:35 01.02.2022
5589 Clouds 25 1017 34 8000 2.06 260 17:44 01.02.2022
5590 Clear 24 1017 36 10000 2.06 240 16:40 01.02.2022
5591 Clouds 21 913 41 10000 0 0 14:47 01.02.2022
5592 Clear 18 913 49 10000 0 0 12:45 01.02.2022
5593 Clouds 19 862 43 10000 0.5 297 11:34 01.02.2022
5594 Clouds 21 862 44 10000 1.1 236 04:53 01.02.2022
5595 Clear 24 856 36 10000 4.12 230 23:42 31.01.2022
5596 Clear 24 856 36 10000 4.12 230 23:42 31.01.2022
5597 Clear 27 1015 30 10000 4.12 230 23:21 31.01.2022
5598 Clear 29 1015 26 10000 3.6 0 21:42 31.01.2022
5599 Clear 29 1015 25 10000 3.6 0 21:19 31.01.2022
5600 Clear 28 1016 26 10000 5.06 243 20:32 31.01.2022
5601 Clear 28 1016 28 10000 4.35 243 19:35 31.01.2022
5602 Clear 27 1016 31 10000 2.57 0 18:26 31.01.2022
5603 Clear 26 1017 34 10000 2.57 280 17:41 31.01.2022
5604 Clear 25 1018 38 10000 3.34 251 16:38 31.01.2022
5605 Clear 23 1018 44 10000 1.54 230 15:41 31.01.2022
5606 Clear 21 913 48 10000 1.54 0 14:22 31.01.2022
5607 Clear 18 913 58 10000 0 0 12:39 31.01.2022
5608 Clear 19 863 51 10000 0.44 284 11:56 31.01.2022
5609 Clear 18 1019 58 10000 0.33 252 10:50 31.01.2022
5610 Clear 18 1019 58 10000 0.33 252 10:30 31.01.2022
5611 Clear 19 1018 58 10000 0.35 246 09:27 31.01.2022
5612 Clear 19 1018 57 10000 0.34 245 08:51 31.01.2022
5613 Clear 20 862 50 10000 0.74 232 08:20 31.01.2022
5614 Clear 20 863 47 10000 0.75 229 06:18 31.01.2022
5615 Clear 22 863 46 10000 1.7 219 02:18 31.01.2022
5616 Clear 27 1017 38 10000 4.12 230 23:18 30.01.2022
5617 Clear 27 1017 35 10000 3.6 240 22:29 30.01.2022
5618 Clear 27 1018 34 10000 3.6 240 21:42 30.01.2022
5619 Clear 27 1018 33 10000 3.6 240 21:19 30.01.2022
5620 Clear 27 1018 35 10000 3.09 210 20:47 30.01.2022
5621 Clear 26 1018 36 10000 3.09 210 20:28 30.01.2022
5622 Clear 25 1019 37 10000 4.24 244 19:52 30.01.2022
5623 Clear 25 1019 44 10000 2.06 120 18:44 30.01.2022
5624 Clear 24 1019 45 10000 2.06 120 18:20 30.01.2022
5625 Clear 23 1020 50 10000 3.09 220 17:27 30.01.2022
5626 Clear 22 1020 54 10000 2.06 250 16:40 30.01.2022
5627 Clear 21 916 51 10000 2.06 250 16:22 30.01.2022
5628 Clear 21 916 53 10000 1.54 190 15:51 30.01.2022
5629 Clear 20 916 54 10000 1.54 190 15:32 30.01.2022
5630 Clear 20 917 56 10000 1.03 0 14:46 30.01.2022
5631 Clear 17 917 65 10000 1.54 230 12:47 30.01.2022
5632 Clear 15 1020 76 10000 1.54 230 12:25 30.01.2022
5633 Clear 17 1022 66 10000 0.23 286 10:36 30.01.2022
5634 Clear 16 1022 67 10000 0.48 208 09:56 30.01.2022
5635 Clear 17 1021 65 10000 1.08 224 08:58 30.01.2022
5636 Clear 17 1021 64 10000 1.02 232 07:55 30.01.2022
5637 Clear 20 864 50 10000 2.08 235 02:29 30.01.2022
5638 Clear 21 863 48 10000 2.08 235 01:39 30.01.2022
5639 Clear 24 1017 43 10000 4.12 230 23:21 29.01.2022
5640 Clear 25 1017 44 10000 4.63 240 21:59 29.01.2022
5641 Clear 25 1018 44 10000 4.63 240 21:26 29.01.2022
5642 Clear 25 1017 43 10000 4.63 240 20:36 29.01.2022
5643 Clear 26 1014 34 10000 4.63 240 19:36 29.01.2022
5644 Clear 25 1018 45 8000 3.6 240 18:59 29.01.2022
5645 Clear 25 1016 43 8000 3.6 240 18:30 29.01.2022
5646 Clear 24 1016 43 10000 3.09 240 17:41 29.01.2022
5647 Clear 21 1017 49 10000 2.06 270 16:42 29.01.2022
5648 Clear 19 914 55 10000 1.03 0 14:33 29.01.2022
5649 Clear 20 697 41 10000 2.27 248 13:45 29.01.2022
5650 Clear 19 864 52 10000 1.48 248 13:25 29.01.2022
5651 Clear 17 857 61 10000 1.03 230 12:36 29.01.2022
5652 Clear 19 868 54 10000 0.42 238 11:38 29.01.2022
5653 Clear 16 1021 63 10000 0.81 233 10:21 29.01.2022
5654 Clear 18 1019 61 10000 0.74 234 06:57 29.01.2022
5655 Clouds 23 912 44 10000 3.09 260 00:50 29.01.2022
5656 Clouds 23 912 43 10000 3.09 260 00:31 29.01.2022
5657 Clouds 26 1015 40 8000 4.12 240 22:52 28.01.2022
5658 Clouds 26 1015 39 8000 4.12 240 22:27 28.01.2022
5659 Clear 27 1015 39 10000 4.12 240 21:53 28.01.2022
5660 Clear 27 1015 39 10000 3.6 240 20:31 28.01.2022
5661 Clear 27 1013 31 10000 4.42 243 19:44 28.01.2022
5662 Clear 25 1015 43 8000 2.06 0 18:48 28.01.2022
5663 Clear 22 1016 47 8000 2.57 250 17:43 28.01.2022
5664 Clear 20 857 51 10000 1.54 230 15:28 28.01.2022
5665 Clear 19 863 51 10000 2.16 252 13:59 28.01.2022
5666 Clear 17 913 65 10000 0 0 12:32 28.01.2022
5667 Clear 19 867 53 10000 0.72 241 11:38 28.01.2022
5668 Clear 17 1019 63 10000 0.66 225 09:59 28.01.2022
5669 Clear 17 1019 63 10000 0.86 226 08:41 28.01.2022
5670 Clear 18 1019 62 10000 0.99 235 07:36 28.01.2022
5671 Clear 19 863 52 10000 1.18 250 05:23 28.01.2022
5672 Clear 20 863 50 10000 1.09 240 03:47 28.01.2022
5673 Clear 20 863 49 10000 1.99 239 02:23 28.01.2022
5674 Clear 21 863 48 10000 1.99 239 01:33 28.01.2022
5675 Clear 24 911 40 10000 3.6 250 23:30 27.01.2022
5676 Clear 26 1016 39 10000 4.63 250 21:49 27.01.2022
5677 Clear 26 1016 39 10000 4.63 250 21:29 27.01.2022
5678 Clear 27 1016 38 8000 3.6 220 20:44 27.01.2022
5679 Clear 27 1016 38 10000 4.24 243 19:21 27.01.2022
5680 Clear 24 1016 41 8000 3.09 240 17:56 27.01.2022
5681 Clear 21 913 47 10000 2.06 260 15:18 27.01.2022
5682 Clear 20 863 47 10000 2.13 249 13:36 27.01.2022
5683 Clear 18 913 59 10000 0 0 12:45 27.01.2022
5684 Clear 19 863 50 10000 0.2 244 10:24 27.01.2022
5685 Clear 19 862 49 10000 0.73 252 08:57 27.01.2022
5686 Clear 19 862 49 10000 0.73 252 08:34 27.01.2022
5687 Clear 20 863 48 10000 1.13 227 05:59 27.01.2022
5688 Clear 21 863 47 10000 1.59 236 02:43 27.01.2022
5689 Clear 28 1016 33 10000 3.6 240 23:32 26.01.2022
5690 Clear 29 1015 32 10000 4.63 240 21:59 26.01.2022
5691 Clear 29 1016 32 10000 4.63 240 21:35 26.01.2022
5692 Clear 28 1016 32 10000 4.12 230 20:36 26.01.2022
5693 Clear 28 1016 32 10000 4.12 230 20:36 26.01.2022
5694 Clear 28 1017 33 10000 4.74 239 19:59 26.01.2022
5695 Clear 28 1017 33 10000 4.03 242 19:20 26.01.2022
5696 Clear 27 1016 34 8000 3.6 0 18:45 26.01.2022
5697 Clear 25 1016 37 7000 2.06 230 17:50 26.01.2022
5698 Clear 25 1017 38 7000 2.06 230 17:23 26.01.2022
5699 Clear 23 1017 43 7000 2.06 0 16:31 26.01.2022
5700 Clear 21 1016 49 7000 2.57 250 15:49 26.01.2022
5701 Clear 20 862 45 10000 2.16 247 13:58 26.01.2022
5702 Clear 20 867 49 10000 0.38 220 11:48 26.01.2022
5703 Clear 18 1018 56 10000 0.49 243 10:28 26.01.2022
5704 Clear 18 1018 55 10000 0.49 243 09:46 26.01.2022
5705 Clear 20 862 46 10000 0.55 219 07:44 26.01.2022
5706 Clear 23 861 40 10000 1.67 237 01:54 26.01.2022
5707 Clear 27 1013 30 10000 3.6 240 23:56 25.01.2022
5708 Clear 29 1014 26 10000 5.14 230 22:57 25.01.2022
5709 Clear 29 1013 25 10000 5.14 230 22:21 25.01.2022
5710 Clear 29 1013 25 10000 4.12 230 21:58 25.01.2022
5711 Clear 29 1014 25 10000 3.6 230 20:46 25.01.2022
5712 Clear 29 1015 26 10000 3.6 230 20:23 25.01.2022
5713 Clear 29 1015 25 10000 4.09 241 19:50 25.01.2022
5714 Clear 28 1015 28 10000 2.57 0 18:32 25.01.2022
5715 Clear 26 1016 30 10000 2.57 0 17:43 25.01.2022
5716 Clear 25 1016 31 10000 2.06 0 16:35 25.01.2022
5717 Clear 24 1015 34 10000 1.54 0 15:49 25.01.2022
5718 Clear 23 1015 36 10000 1.54 0 15:31 25.01.2022
5719 Clear 23 1016 37 10000 1.03 290 14:57 25.01.2022
5720 Clear 21 861 40 10000 2.12 252 13:40 25.01.2022
5721 Clear 20 861 42 10000 0.5 224 10:42 25.01.2022
5722 Clear 20 861 42 10000 0.4 231 08:37 25.01.2022
5723 Clear 20 860 40 10000 0.63 231 07:29 25.01.2022
5724 Clear 21 861 41 10000 0.63 231 06:47 25.01.2022
5725 Clear 21 861 41 10000 0.74 244 05:22 25.01.2022
5726 Clear 30 1011 23 10000 4.63 240 23:37 24.01.2022
5727 Clear 30 1012 23 10000 4.63 240 23:18 24.01.2022
5728 Clear 31 1011 20 10000 4.63 260 22:59 24.01.2022
5729 Clear 31 1011 20 10000 4.63 260 22:41 24.01.2022
5730 Clear 31 1012 19 10000 4.12 250 21:52 24.01.2022
5731 Clear 31 1012 18 10000 4.12 250 21:28 24.01.2022
5732 Clear 30 1013 18 10000 3.6 240 20:29 24.01.2022
5733 Clear 30 1013 20 10000 4.18 242 19:44 24.01.2022
5734 Clear 30 1013 20 10000 3.71 244 19:24 24.01.2022
5735 Clear 28 1014 24 10000 2.57 200 17:59 24.01.2022
5736 Clear 27 1015 27 10000 2.57 200 17:23 24.01.2022
5737 Clear 26 1015 29 10000 0 0 16:41 24.01.2022
5738 Clear 26 1015 30 10000 0 0 16:18 24.01.2022
5739 Clear 23 1016 36 10000 0.51 120 14:35 24.01.2022
5740 Clear 19 912 46 10000 0 0 12:40 24.01.2022
5741 Clear 18 912 50 10000 0 0 12:22 24.01.2022
5742 Clear 20 862 43 10000 0.1 200 10:27 24.01.2022
5743 Clear 20 862 43 10000 0.1 200 09:48 24.01.2022
5744 Clear 20 862 43 10000 0.13 176 08:30 24.01.2022
5745 Clear 21 862 42 10000 0.68 202 06:19 24.01.2022
5746 Clear 23 862 38 10000 1.52 211 01:30 24.01.2022
5747 Clear 25 856 34 10000 0 0 00:35 24.01.2022
5748 Clear 30 1014 23 10000 4.12 240 23:49 23.01.2022
5749 Clear 30 1014 23 10000 4.12 240 23:49 23.01.2022
5750 Clear 30 1014 18 10000 3.6 250 22:28 23.01.2022
5751 Clear 30 1015 18 10000 3.09 250 21:46 23.01.2022
5752 Clear 30 1015 18 10000 3.09 250 21:25 23.01.2022
5753 Clear 30 1015 19 10000 3.6 220 20:44 23.01.2022
5754 Clear 28 1016 22 10000 4.16 242 19:43 23.01.2022
5755 Clear 27 1017 25 10000 3.09 240 18:50 23.01.2022
5756 Clear 26 1018 27 10000 1.54 240 17:34 23.01.2022
5757 Clear 24 1018 30 10000 0 0 16:47 23.01.2022
5758 Clear 21 914 41 10000 0 0 14:59 23.01.2022
5759 Clear 20 914 44 10000 0 0 14:25 23.01.2022
5760 Clear 20 914 44 10000 0 0 14:25 23.01.2022
5761 Clear 17 913 49 10000 0 0 12:54 23.01.2022
5762 Clear 17 913 49 10000 0 0 12:22 23.01.2022
5763 Clear 19 863 39 10000 0.51 251 11:52 23.01.2022
5764 Clear 17 1019 40 10000 0.51 234 11:18 23.01.2022
5765 Clear 18 1019 37 10000 0.48 218 10:27 23.01.2022
5766 Clear 18 1019 38 10000 0.48 218 09:51 23.01.2022
5767 Clear 18 1018 38 10000 0.54 228 08:53 23.01.2022
5768 Clear 20 863 40 10000 0.78 245 05:56 23.01.2022
5769 Clear 22 863 38 10000 1.77 212 01:52 23.01.2022
5770 Clear 22 862 36 10000 2.8 222 01:26 23.01.2022
5771 Clear 27 1015 21 10000 4.12 260 00:23 23.01.2022
5772 Clear 28 1015 14 10000 4.12 250 23:56 22.01.2022
5773 Clear 29 1015 16 10000 3.6 210 22:46 22.01.2022
5774 Clear 28 1015 16 10000 3.09 0 21:36 22.01.2022
5775 Clear 26 1018 21 10000 3.99 244 19:51 22.01.2022
5776 Clear 25 1018 24 10000 2.06 210 18:56 22.01.2022
5777 Clear 24 1018 26 10000 2.06 210 18:18 22.01.2022
5778 Clear 24 1018 27 10000 2.57 0 17:40 22.01.2022
5779 Clear 22 1019 31 10000 2.06 290 16:56 22.01.2022
5780 Clear 20 914 37 10000 2.57 250 15:53 22.01.2022
5781 Clear 20 914 37 10000 2.57 250 15:26 22.01.2022
5782 Clear 19 864 40 10000 2.65 243 13:46 22.01.2022
5783 Clear 17 913 44 10000 1.03 0 12:53 22.01.2022
5784 Clear 14 1018 49 10000 1.03 0 12:29 22.01.2022
5785 Clear 16 1020 43 10000 1.08 244 11:44 22.01.2022
5786 Clear 16 1020 43 10000 0.6 276 10:29 22.01.2022
5787 Clear 16 1020 41 10000 0.6 276 09:59 22.01.2022
5788 Clear 16 1019 40 10000 0.38 308 08:53 22.01.2022
5789 Clear 17 1020 39 10000 0.48 258 07:39 22.01.2022
5790 Clear 18 1020 33 10000 0.87 251 04:53 22.01.2022
5791 Clear 21 859 35 10000 2.41 236 01:49 22.01.2022
5792 Clear 25 855 32 10000 4.63 260 23:46 21.01.2022
5793 Clear 28 1013 21 10000 4.12 230 22:36 21.01.2022
5794 Clear 28 1011 19 10000 4.12 230 20:32 21.01.2022
5795 Clear 27 1014 21 10000 3.09 260 18:40 21.01.2022
5796 Clear 25 1015 23 10000 2.57 0 17:41 21.01.2022
5797 Clear 22 1015 24 10000 2.06 0 15:47 21.01.2022
5798 Clear 20 862 32 10000 2.18 256 13:55 21.01.2022
5799 Clear 14 1014 45 10000 1.03 20 12:39 21.01.2022
5800 Clear 16 1017 41 10000 0.61 262 11:28 21.01.2022
5801 Clear 16 1017 42 10000 0.49 266 10:20 21.01.2022
5802 Clear 17 1017 39 10000 0.46 260 08:25 21.01.2022
5803 Clear 17 1018 35 10000 0.81 244 07:19 21.01.2022
5804 Clear 25 912 28 10000 3.6 240 23:54 20.01.2022
5805 Clear 28 1014 17 10000 3.6 230 22:44 20.01.2022
5806 Clear 27 1016 18 10000 3.09 0 21:47 20.01.2022
5807 Clear 27 1016 20 10000 3.09 0 20:56 20.01.2022
5808 Clear 26 1017 23 10000 3.64 247 19:21 20.01.2022
5809 Clouds 25 1017 25 10000 3.6 230 18:51 20.01.2022
5810 Clouds 23 1017 25 10000 2.06 0 17:31 20.01.2022
5811 Clouds 20 857 32 10000 0 0 15:46 20.01.2022
5812 Clouds 20 913 32 10000 0 0 15:25 20.01.2022
5813 Clear 19 863 35 10000 2.29 250 13:53 20.01.2022
5814 Clear 16 913 46 10000 0 0 12:43 20.01.2022
5815 Clear 13 1018 48 10000 0 0 12:21 20.01.2022
5816 Clear 15 1020 44 10000 0.47 258 10:55 20.01.2022
5817 Clear 15 1020 38 10000 0.64 255 09:43 20.01.2022
5818 Clear 16 1020 39 10000 0.69 258 08:35 20.01.2022
5819 Clear 16 1020 39 10000 0.69 258 08:35 20.01.2022
5820 Clear 17 1020 29 10000 1.18 247 06:18 20.01.2022
5821 Clear 23 856 32 10000 4.63 240 23:52 19.01.2022
5822 Clear 26 1017 23 10000 4.12 210 22:37 19.01.2022
5823 Clear 26 1017 22 10000 4.36 241 21:24 19.01.2022
5824 Clear 26 1017 22 10000 4.63 240 20:53 19.01.2022
5825 Clear 26 1018 22 10000 4.63 240 20:24 19.01.2022
5826 Clear 25 1018 24 10000 3.6 240 18:49 19.01.2022
5827 Clear 25 1018 24 10000 3.6 240 18:49 19.01.2022
5828 Clear 24 1018 24 10000 3.6 230 17:50 19.01.2022
5829 Clear 22 913 30 10000 2.06 260 16:59 19.01.2022
5830 Clear 19 915 35 10000 1.03 210 14:43 19.01.2022
5831 Clear 17 1020 35 10000 1.9 259 13:20 19.01.2022
5832 Clear 15 1020 43 10000 0.87 281 11:54 19.01.2022
5833 Clear 14 1021 45 10000 0.71 268 10:52 19.01.2022
5834 Clear 15 1020 43 10000 0.57 266 09:35 19.01.2022
5835 Clear 17 1019 35 10000 0.92 262 07:34 19.01.2022
5836 Clear 17 1020 31 10000 1.19 253 05:19 19.01.2022
5837 Clouds 23 856 33 10000 4.12 250 23:53 18.01.2022
5838 Clouds 23 856 33 10000 4.12 250 23:53 18.01.2022
5839 Clouds 23 855 33 10000 4.12 250 23:18 18.01.2022
5840 Clouds 26 1013 26 10000 0.51 0 21:43 18.01.2022
5841 Clear 26 1015 26 10000 3.6 240 20:21 18.01.2022
5842 Clear 25 1016 28 10000 4.21 243 19:39 18.01.2022
5843 Clear 25 1016 28 10000 3.68 243 19:21 18.01.2022
5844 Clear 24 1016 31 10000 2.57 190 18:18 18.01.2022
5845 Clear 22 912 34 10000 2.06 180 17:29 18.01.2022
5846 Clear 20 912 39 10000 1.54 210 15:56 18.01.2022
5847 Clear 19 913 42 10000 1.54 210 15:24 18.01.2022
5848 Clear 18 913 44 10000 1.03 0 14:18 18.01.2022
5849 Clear 14 1020 54 10000 0.47 254 11:20 18.01.2022
5850 Clear 15 1019 53 10000 0.66 231 09:58 18.01.2022
5851 Clear 15 1019 51 10000 0.85 250 08:19 18.01.2022
5852 Clear 15 1020 48 10000 0.85 250 07:31 18.01.2022
5853 Clouds 21 857 36 10000 1.54 180 00:22 18.01.2022
5854 Clouds 22 913 39 10000 2.06 260 22:31 17.01.2022
5855 Clouds 21 914 39 10000 2.57 260 21:36 17.01.2022
5856 Smoke 21 914 44 4000 1.54 180 20:33 17.01.2022
5857 Clouds 20 915 46 10000 1.54 210 18:46 17.01.2022
5858 Clouds 20 915 46 10000 1.54 210 18:23 17.01.2022
5859 Clouds 19 915 52 10000 2.06 240 16:53 17.01.2022
5860 Haze 18 917 57 5000 1.54 210 15:31 17.01.2022
5861 Haze 16 1021 63 5000 1.54 190 14:58 17.01.2022
5862 Clouds 15 1023 65 10000 2.38 253 13:42 17.01.2022
5863 Haze 14 1021 73 1500 1.54 210 12:58 17.01.2022
5864 Clouds 15 1023 67 10000 1.54 252 11:51 17.01.2022
5865 Clouds 15 1022 66 10000 1.41 249 10:43 17.01.2022
5866 Clouds 15 1022 66 10000 1.45 253 09:35 17.01.2022
5867 Clouds 15 1022 62 10000 1.26 267 08:18 17.01.2022
5868 Clouds 15 1022 63 10000 1.2 250 07:19 17.01.2022
5869 Clouds 20 914 50 8000 3.6 250 00:57 17.01.2022
5870 Clouds 22 913 47 10000 2.57 210 22:53 16.01.2022
5871 Clouds 23 1018 48 10000 4.12 230 20:40 16.01.2022
5872 Clouds 22 1014 40 10000 4.34 242 19:44 16.01.2022
5873 Clouds 21 1017 54 8000 3.09 190 18:42 16.01.2022
5874 Clouds 20 1018 56 6000 2.06 190 17:45 16.01.2022
5875 Haze 18 1018 66 5000 1.54 190 16:48 16.01.2022
5876 Haze 18 914 59 5000 2.06 210 15:19 16.01.2022
5877 Haze 18 914 61 2000 2.06 250 14:28 16.01.2022
5878 Haze 17 914 65 1500 1.54 240 12:51 16.01.2022
5879 Clear 17 1021 67 10000 0.95 247 11:47 16.01.2022
5880 Clear 17 1020 66 10000 1.16 259 10:58 16.01.2022
5881 Clear 18 1021 65 10000 1.16 245 10:26 16.01.2022
5882 Clear 18 1020 65 10000 1.15 246 09:54 16.01.2022
5883 Clear 18 1020 65 10000 0.68 264 09:22 16.01.2022
5884 Clear 18 1021 64 10000 0.68 264 08:38 16.01.2022
5885 Clouds 20 864 50 10000 1.86 241 03:21 16.01.2022
5886 Clear 24 912 43 10000 4.12 230 23:50 15.01.2022
5887 Clear 27 1016 38 10000 4.12 230 22:19 15.01.2022
5888 Clear 27 1016 37 10000 4.63 250 21:19 15.01.2022
5889 Clear 28 1016 36 10000 4.63 230 20:40 15.01.2022
5890 Clouds 27 1017 35 10000 4.45 244 19:30 15.01.2022
5891 Clear 27 1017 37 10000 3.09 230 18:45 15.01.2022
5892 Clear 26 1018 39 10000 2.57 270 17:29 15.01.2022
5893 Clear 23 1018 46 10000 1.54 180 15:59 15.01.2022
5894 Clouds 21 862 44 10000 2.25 256 13:56 15.01.2022
5895 Clear 19 914 55 10000 0 0 12:18 15.01.2022
5896 Clouds 20 863 47 10000 0.53 298 10:38 15.01.2022
5897 Clouds 21 862 45 10000 0.84 265 08:31 15.01.2022
5898 Clear 27 1015 35 10000 4.12 230 00:28 15.01.2022
5899 Clouds 30 1014 32 10000 3.6 260 21:52 14.01.2022
5900 Clouds 29 1014 34 8000 3.09 210 20:40 14.01.2022
5901 Clouds 29 1015 34 8000 3.09 210 20:20 14.01.2022
5902 Clouds 28 1016 40 8000 3.09 260 18:49 14.01.2022
5903 Clouds 26 1016 42 8000 2.06 240 17:57 14.01.2022
5904 Clouds 23 1015 44 7000 2.06 240 16:48 14.01.2022
5905 Clouds 22 1015 44 8000 2.06 220 15:37 14.01.2022
5906 Clear 21 913 47 10000 0 0 14:42 14.01.2022
5907 Clouds 21 863 45 10000 2.49 244 13:35 14.01.2022
5908 Clear 19 913 54 10000 0 0 12:24 14.01.2022
5909 Clouds 20 862 53 10000 0.7 246 10:50 14.01.2022
5910 Clear 20 862 48 10000 0.64 234 08:54 14.01.2022
5911 Clear 20 862 48 10000 0.64 234 08:34 14.01.2022
5912 Clear 21 862 49 10000 1.06 225 05:29 14.01.2022
5913 Clouds 24 912 45 7000 3.6 260 00:59 14.01.2022
5914 Clear 27 1016 42 8000 3.6 250 22:46 13.01.2022
5915 Clear 27 1017 41 8000 4.12 240 21:31 13.01.2022
5916 Clear 27 1017 41 7000 3.6 230 20:57 13.01.2022
5917 Clear 27 1018 42 10000 4.24 242 19:40 13.01.2022
5918 Clouds 26 1018 42 10000 4.11 243 19:21 13.01.2022
5919 Clear 24 1017 46 7000 2.57 240 17:48 13.01.2022
5920 Clear 23 1019 51 7000 3.09 250 16:20 13.01.2022
5921 Clear 21 1017 55 8000 2.06 220 15:37 13.01.2022
5922 Clear 18 1017 60 8000 2.06 190 14:40 13.01.2022
5923 Clear 17 1019 67 10000 1.54 240 12:37 13.01.2022
5924 Clouds 19 1020 59 10000 0.6 243 10:23 13.01.2022
5925 Clouds 20 1019 58 10000 0.95 250 08:57 13.01.2022
5926 Clouds 20 1019 57 10000 1.03 241 08:26 13.01.2022
5927 Clear 20 1019 56 10000 0.77 243 07:22 13.01.2022
5928 Clear 21 1019 54 10000 1.3 255 05:59 13.01.2022
5929 Clear 21 1019 53 10000 1.49 250 05:19 13.01.2022
5930 Clear 23 1019 51 10000 1.9 237 01:56 13.01.2022
5931 Clear 26 1018 43 10000 3.09 250 00:49 13.01.2022
5932 Clear 28 1015 42 10000 4.12 0 23:46 12.01.2022
5933 Clear 29 1016 37 10000 4.12 240 22:59 12.01.2022
5934 Clear 29 1016 36 10000 4.12 240 21:57 12.01.2022
5935 Clear 29 1016 37 10000 4.12 240 21:22 12.01.2022
5936 Clear 29 1016 37 8000 4.12 240 20:56 12.01.2022
5937 Clear 28 1017 38 10000 4.7 241 19:41 12.01.2022
5938 Clear 27 1017 39 8000 2.57 0 18:30 12.01.2022
5939 Clear 27 1017 39 8000 2.57 0 18:30 12.01.2022
5940 Clear 26 1017 44 10000 3.09 270 16:59 12.01.2022
5941 Clear 25 1017 44 10000 3.09 270 16:26 12.01.2022
5942 Clear 23 1018 51 10000 2.06 200 14:48 12.01.2022
5943 Clear 19 1018 63 10000 0 0 12:58 12.01.2022
5944 Clear 19 1018 63 10000 0 0 12:58 12.01.2022
5945 Clear 20 1019 57 10000 0.72 228 10:38 12.01.2022
5946 Clouds 20 1019 55 10000 0.54 248 08:37 12.01.2022
5947 Clouds 21 1019 55 10000 0.8 250 07:36 12.01.2022
5948 Clouds 21 1019 54 10000 0.6 235 06:49 12.01.2022
5949 Clear 29 1015 34 10000 4.12 230 23:31 11.01.2022
5950 Clear 30 1016 32 10000 4.12 230 22:49 11.01.2022
5951 Clear 29 1016 32 10000 4.12 230 22:22 11.01.2022
5952 Clouds 29 1016 34 8000 3.09 0 20:51 11.01.2022
5953 Clouds 28 1017 33 10000 4.05 244 19:48 11.01.2022
5954 Clouds 28 1018 35 8000 2.57 220 18:31 11.01.2022
5955 Clouds 26 1018 38 8000 2.06 0 17:24 11.01.2022
5956 Clear 25 1019 41 10000 1.54 180 16:37 11.01.2022
5957 Clear 24 1019 41 10000 0 0 15:35 11.01.2022
5958 Clear 23 1019 45 10000 1.54 130 14:41 11.01.2022
5959 Clouds 22 1020 43 10000 2.33 256 13:55 11.01.2022
5960 Clouds 21 1021 48 10000 2.33 256 13:34 11.01.2022
5961 Clear 19 1020 54 10000 0 0 12:42 11.01.2022
5962 Clouds 19 1021 51 10000 0.97 241 11:40 11.01.2022
5963 Clouds 20 1020 46 10000 0.68 263 09:28 11.01.2022
5964 Clouds 21 1021 45 10000 0.84 264 06:36 11.01.2022
5965 Clear 26 1018 39 10000 3.6 230 00:31 11.01.2022
5966 Clear 27 1017 36 10000 4.12 230 23:41 10.01.2022
5967 Clear 29 1017 30 10000 3.6 240 22:51 10.01.2022
5968 Clear 29 1016 29 10000 3.6 240 22:19 10.01.2022
5969 Clear 29 1017 27 10000 3.09 230 21:52 10.01.2022
5970 Clear 29 1017 25 10000 3.09 230 21:19 10.01.2022
5971 Clear 29 1017 28 10000 3.09 210 20:56 10.01.2022
5972 Clear 29 1018 28 10000 3.09 210 20:27 10.01.2022
5973 Clouds 28 1018 29 10000 4.03 241 19:41 10.01.2022
5974 Clouds 28 1018 31 10000 4.1 243 19:20 10.01.2022
5975 Clear 28 1019 35 10000 3.09 240 18:48 10.01.2022
5976 Clear 26 1020 38 10000 3.09 0 17:40 10.01.2022
5977 Clouds 24 1020 42 10000 2.06 0 16:41 10.01.2022
5978 Clear 23 1020 47 10000 2.06 0 15:20 10.01.2022
5979 Clouds 21 1022 49 10000 2.34 257 13:41 10.01.2022
5980 Clouds 19 1022 57 10000 0.77 252 11:58 10.01.2022
5981 Clouds 18 1022 58 10000 0.11 112 11:24 10.01.2022
5982 Clouds 18 1021 56 10000 0.47 251 09:47 10.01.2022
5983 Clouds 19 1021 54 10000 0.74 237 06:47 10.01.2022
5984 Clouds 19 1021 54 10000 1.16 239 05:49 10.01.2022
5985 Clouds 23 1020 44 10000 1.94 231 01:30 10.01.2022
5986 Clear 25 1019 40 10000 3.09 230 00:24 10.01.2022
5987 Clear 27 1017 36 10000 3.09 230 23:29 09.01.2022
5988 Clouds 28 1017 34 8000 3.6 220 22:37 09.01.2022
5989 Clouds 28 1017 33 10000 3.09 220 21:46 09.01.2022
5990 Clouds 28 1017 33 10000 3.09 220 21:23 09.01.2022
5991 Clouds 28 1017 33 10000 3.09 220 21:23 09.01.2022
5992 Clouds 27 1018 35 7000 3.6 200 20:50 09.01.2022
5993 Clouds 27 1018 35 7000 3.6 200 20:32 09.01.2022
5994 Clouds 26 1018 35 10000 4.25 239 19:44 09.01.2022
5995 Clouds 26 1019 36 10000 4.01 241 19:23 09.01.2022
5996 Clouds 26 1019 41 7000 2.57 230 18:51 09.01.2022
5997 Clouds 25 1019 42 7000 2.57 230 18:33 09.01.2022
5998 Clouds 24 1020 46 7000 3.6 240 17:31 09.01.2022
5999 Clouds 22 1019 52 8000 2.57 200 16:51 09.01.2022
6000 Clear 21 1019 56 10000 2.57 240 15:57 09.01.2022
6001 Clear 20 1019 57 10000 2.57 240 15:35 09.01.2022
6002 Clear 19 1020 59 10000 2.06 240 14:40 09.01.2022
6003 Clouds 19 1023 58 10000 2.61 249 13:50 09.01.2022
6004 Clear 17 1021 68 10000 0 0 12:50 09.01.2022
6005 Clouds 19 1022 62 10000 1.23 255 11:51 09.01.2022
6006 Clouds 18 1021 57 10000 0.56 257 10:52 09.01.2022
6007 Clouds 19 1020 60 10000 0.7 285 09:42 09.01.2022
6008 Clouds 18 1021 61 10000 0.96 262 08:34 09.01.2022
6009 Clouds 19 1020 55 10000 1.34 234 05:21 09.01.2022
6010 Clouds 24 1017 44 10000 2.61 232 01:24 09.01.2022
6011 Clear 27 1015 35 10000 3.6 230 23:44 08.01.2022
6012 Clear 28 1015 34 10000 3.6 230 23:26 08.01.2022
6013 Clear 28 1015 34 10000 3.6 190 22:28 08.01.2022
6014 Clear 27 1016 36 10000 4.12 210 21:25 08.01.2022
6015 Clear 28 1016 35 10000 4.12 210 20:42 08.01.2022
6016 Clear 28 1015 34 10000 4.12 210 20:20 08.01.2022
6017 Clear 25 1016 42 10000 4.12 220 18:40 08.01.2022
6018 Clear 26 1016 39 10000 3.09 230 17:22 08.01.2022
6019 Clear 24 1016 42 10000 2.06 250 15:52 08.01.2022
6020 Clear 23 1016 44 10000 0 0 14:46 08.01.2022
6021 Clear 22 1017 46 10000 2.07 259 13:28 08.01.2022
6022 Clear 20 1016 42 10000 0.69 297 11:28 08.01.2022
6023 Clear 20 1015 47 10000 0.41 324 10:28 08.01.2022
6024 Clear 21 1015 48 10000 0.41 324 09:48 08.01.2022
6025 Clear 21 1014 48 10000 0.46 291 07:50 08.01.2022
6026 Clear 23 1016 45 10000 1.14 239 03:31 08.01.2022
6027 Clear 29 1013 26 10000 3.6 250 00:42 08.01.2022
6028 Clear 31 1012 22 10000 4.63 250 22:49 07.01.2022
6029 Clear 31 1012 22 10000 4.63 240 21:18 07.01.2022
6030 Clear 31 1013 23 10000 3.6 220 20:19 07.01.2022
6031 Clear 30 1013 25 10000 4.23 245 19:25 07.01.2022
6032 Clear 29 1013 29 10000 3.09 250 18:45 07.01.2022
6033 Clear 28 1014 33 8000 2.57 240 17:28 07.01.2022
6034 Clear 26 1014 35 10000 2.06 250 16:41 07.01.2022
6035 Clear 23 1015 43 10000 1.03 260 14:29 07.01.2022
6036 Clear 22 1017 42 10000 2.25 246 13:41 07.01.2022
6037 Clear 19 1016 60 10000 0 0 12:49 07.01.2022
6038 Clear 19 1016 60 10000 0 0 12:49 07.01.2022
6039 Clear 19 1017 52 10000 0.07 142 09:46 07.01.2022
6040 Clear 22 1017 45 10000 1.31 240 02:57 07.01.2022
6041 Clear 23 1017 43 10000 1.53 237 01:55 07.01.2022
6042 Clear 23 1016 42 10000 2.4 229 01:28 07.01.2022
6043 Clear 25 1013 38 10000 3.09 260 00:59 07.01.2022
6044 Clear 25 1013 38 10000 3.09 260 00:28 07.01.2022
6045 Clear 28 1014 33 8000 5.14 240 21:34 06.01.2022
6046 Clear 29 1014 33 8000 4.12 240 20:25 06.01.2022
6047 Clear 28 1014 34 10000 4.98 242 19:45 06.01.2022
6048 Clear 28 1015 35 8000 3.09 0 18:59 06.01.2022
6049 Clear 27 1016 38 8000 2.06 240 17:42 06.01.2022
6050 Clear 27 1016 38 8000 2.06 240 17:42 06.01.2022
6051 Clear 25 1016 40 8000 2.57 220 16:57 06.01.2022
6052 Clear 24 1016 44 10000 2.06 0 15:49 06.01.2022
6053 Clear 23 1016 47 10000 2.06 0 15:27 06.01.2022
6054 Clear 22 1016 48 10000 1.03 300 14:55 06.01.2022
6055 Clear 21 1016 52 10000 1.03 300 14:19 06.01.2022
6056 Clear 18 1016 62 10000 0 0 12:56 06.01.2022
6057 Clear 18 1017 55 10000 1.11 234 11:50 06.01.2022
6058 Clear 18 1017 56 10000 0.92 232 11:28 06.01.2022
6059 Clear 19 1016 53 10000 0.81 237 08:59 06.01.2022
6060 Clear 24 1016 44 10000 1.85 234 01:52 06.01.2022
6061 Clear 28 1012 36 10000 4.12 240 23:40 05.01.2022
6062 Clear 29 1013 33 10000 5.14 260 22:59 05.01.2022
6063 Clear 29 1013 33 10000 5.14 260 22:40 05.01.2022
6064 Clear 30 1012 30 10000 3.6 240 21:54 05.01.2022
6065 Clear 30 1013 30 10000 3.6 240 21:21 05.01.2022
6066 Clear 30 1013 30 10000 4.43 247 20:21 05.01.2022
6067 Clear 29 1013 31 10000 3.91 249 19:27 05.01.2022
6068 Clear 27 1014 36 10000 2.57 260 17:50 05.01.2022
6069 Clear 26 1015 40 10000 0 0 16:56 05.01.2022
6070 Clear 24 1016 44 10000 2.06 0 15:46 05.01.2022
6071 Clear 22 1017 45 10000 2.35 249 14:28 05.01.2022
6072 Clear 22 1017 47 10000 2.35 249 13:33 05.01.2022
6073 Clouds 20 1017 51 10000 1.03 229 11:46 05.01.2022
6074 Clouds 21 1016 50 10000 0.75 241 08:20 05.01.2022
6075 Clear 21 1017 48 10000 0.6 230 06:36 05.01.2022
6076 Clear 26 1015 38 10000 4.12 230 00:59 05.01.2022
6077 Clear 30 1012 30 10000 5.14 230 23:41 04.01.2022
6078 Clear 30 1013 28 10000 5.14 230 23:19 04.01.2022
6079 Clear 30 1013 26 10000 3.09 210 21:32 04.01.2022
6080 Clear 29 1014 28 10000 3.09 200 20:27 04.01.2022
6081 Clear 28 1014 32 10000 3.09 240 18:35 04.01.2022
6082 Clear 27 1016 35 10000 1.54 260 17:18 04.01.2022
6083 Clear 25 1015 42 10000 2.06 300 16:31 04.01.2022
6084 Clear 23 1017 45 10000 2.78 250 14:58 04.01.2022
6085 Clear 23 1018 42 10000 2.78 250 14:36 04.01.2022
6086 Clear 21 1019 48 10000 2.44 245 13:48 04.01.2022
6087 Clear 19 1020 54 10000 0.59 218 10:59 04.01.2022
6088 Clear 19 1020 52 10000 0.71 228 09:58 04.01.2022
6089 Clear 20 1019 50 10000 0.85 228 08:36 04.01.2022
6090 Clear 22 1020 43 10000 1.37 230 04:24 04.01.2022
6091 Clear 26 1017 34 10000 4.12 230 00:42 04.01.2022
6092 Clear 28 1016 28 10000 5.14 230 23:44 03.01.2022
6093 Clouds 30 1016 26 10000 4.12 240 22:21 03.01.2022
6094 Clouds 30 1017 25 10000 3.6 240 21:38 03.01.2022
6095 Clear 30 1017 23 10000 3.6 170 20:34 03.01.2022
6096 Clear 29 1018 25 10000 3.6 240 18:54 03.01.2022
6097 Clear 28 1018 26 10000 3.6 240 18:29 03.01.2022
6098 Clear 26 1019 29 10000 3.31 252 17:20 03.01.2022
6099 Clear 26 1018 32 10000 2.06 210 16:28 03.01.2022
6100 Clear 21 1020 40 10000 1.54 220 14:31 03.01.2022
6101 Clear 18 1019 49 10000 0 0 12:52 03.01.2022
6102 Clear 18 1021 37 10000 0.98 243 11:50 03.01.2022
6103 Clear 18 1021 38 10000 0.33 215 10:37 03.01.2022
6104 Clear 19 1020 39 10000 0.26 234 09:27 03.01.2022
6105 Clear 19 1020 41 10000 0.6 205 07:52 03.01.2022
6106 Clear 23 1021 36 10000 1.58 218 02:28 03.01.2022
6107 Clear 28 1015 21 10000 3.09 0 23:22 02.01.2022
6108 Clear 29 1015 20 10000 3.6 220 22:56 02.01.2022
6109 Clear 29 1016 19 10000 4.12 230 21:52 02.01.2022
6110 Clear 28 1016 20 10000 3.09 0 20:45 02.01.2022
6111 Clear 28 1016 20 10000 3.09 0 20:25 02.01.2022
6112 Clear 27 1017 23 10000 4.05 242 19:31 02.01.2022
6113 Clear 27 1017 25 10000 4.12 210 18:55 02.01.2022
6114 Clear 26 1017 29 10000 1.54 0 17:56 02.01.2022
6115 Clear 25 1017 29 10000 1.54 0 17:38 02.01.2022
6116 Clear 25 1017 29 10000 1.54 0 17:19 02.01.2022
6117 Clear 24 1017 33 10000 2.06 0 16:27 02.01.2022
6118 Clear 21 1016 35 10000 1.03 30 14:41 02.01.2022
6119 Clouds 18 1021 44 10000 1.94 250 13:25 02.01.2022
6120 Clear 16 1018 53 10000 0 0 12:31 02.01.2022
6121 Clear 17 1019 46 10000 1.11 258 11:36 02.01.2022
6122 Clear 17 1019 45 10000 0.27 312 10:50 02.01.2022
6123 Clear 17 1019 45 10000 0.28 301 09:55 02.01.2022
6124 Clear 18 1019 42 10000 0.94 242 07:29 02.01.2022
6125 Clear 21 1019 39 10000 1.68 229 02:20 02.01.2022
6126 Clear 27 1014 24 10000 4.12 240 23:41 01.01.2022
6127 Clear 27 1013 24 10000 4.12 240 23:22 01.01.2022
6128 Clear 28 1013 22 10000 4.12 240 22:24 01.01.2022
6129 Clear 28 1013 21 10000 4.63 250 21:44 01.01.2022
6130 Clear 28 1013 21 10000 4.12 0 20:56 01.01.2022
6131 Clear 28 1013 21 10000 4.12 0 20:19 01.01.2022
6132 Clear 27 1014 23 10000 4.45 241 19:32 01.01.2022
6133 Clear 26 1015 26 10000 3.09 260 18:29 01.01.2022
6134 Clear 24 1015 29 10000 1.54 270 16:51 01.01.2022
6135 Clear 24 1015 29 10000 1.54 270 16:29 01.01.2022
6136 Clear 23 1015 29 10000 2.57 0 15:33 01.01.2022
6137 Clear 21 1015 31 10000 1.54 190 14:22 01.01.2022
6138 Clear 17 1015 44 10000 0 0 12:50 01.01.2022
6139 Clear 19 1016 37 10000 0.7 290 11:59 01.01.2022
6140 Clear 17 1018 41 10000 0.58 325 11:24 01.01.2022
6141 Clear 17 1018 39 10000 0.58 325 10:43 01.01.2022
6142 Clear 17 1017 39 10000 0.18 195 09:47 01.01.2022
6143 Clear 18 1017 39 10000 1.05 235 08:27 01.01.2022
6144 Clear 18 1017 37 10000 1.05 235 07:56 01.01.2022
6145 Clear 18 1017 37 10000 1.05 235 07:37 01.01.2022
6146 Clear 19 1017 36 10000 0.46 267 06:42 01.01.2022
6147 Clear 20 1018 28 10000 0.46 251 04:38 01.01.2022
6148 Clear 20 1018 25 10000 1.92 235 03:48 01.01.2022
6149 Clear 29 1011 21 10000 4.12 260 23:53 31.12.2021
6150 Clear 29 1011 22 10000 3.6 240 21:55 31.12.2021
6151 Clear 29 1012 24 10000 4.63 220 20:49 31.12.2021
6152 Clear 28 1012 27 10000 4.75 245 19:43 31.12.2021
6153 Clear 28 1013 32 8000 3.6 230 18:47 31.12.2021
6154 Clear 26 1013 33 8000 2.06 200 17:49 31.12.2021
6155 Clear 26 1013 33 8000 2.06 200 17:22 31.12.2021
6156 Clear 26 1013 35 8000 1.54 220 16:46 31.12.2021
6157 Clear 25 1013 39 10000 1.54 280 15:59 31.12.2021
6158 Clear 24 1012 39 10000 1.54 280 15:41 31.12.2021
6159 Clear 24 1013 40 10000 1.54 280 15:19 31.12.2021
6160 Clear 23 1012 40 10000 1.54 0 14:37 31.12.2021
6161 Clear 22 1014 43 10000 2.28 247 13:45 31.12.2021
6162 Clear 20 1013 55 10000 0 0 12:50 31.12.2021
6163 Clear 19 1013 56 10000 0 0 12:19 31.12.2021
6164 Clear 20 1014 47 10000 0.94 229 11:41 31.12.2021
6165 Clear 18 1017 54 10000 0.41 136 10:48 31.12.2021
6166 Clear 18 1017 54 10000 0.47 197 10:25 31.12.2021
6167 Clear 19 1017 53 10000 0.47 197 09:34 31.12.2021
6168 Clear 19 1017 53 10000 0.22 192 08:50 31.12.2021
6169 Clear 19 1017 54 10000 0.54 203 07:53 31.12.2021
6170 Clear 23 1020 45 10000 1.86 236 02:36 31.12.2021
6171 Clear 28 1015 30 10000 4.12 230 23:18 30.12.2021
6172 Clear 29 1014 26 10000 4.63 240 22:27 30.12.2021
6173 Clear 29 1015 28 8000 4.12 250 21:39 30.12.2021
6174 Clear 29 1015 29 8000 3.6 230 20:59 30.12.2021
6175 Clear 29 1017 28 8000 3.6 230 20:38 30.12.2021
6176 Clear 28 1017 28 10000 4.14 244 19:53 30.12.2021
6177 Clear 27 1016 33 10000 4.14 244 19:31 30.12.2021
6178 Clear 27 1016 36 8000 3.09 210 18:26 30.12.2021
6179 Clear 27 1016 36 8000 3.09 210 18:26 30.12.2021
6180 Clear 24 1016 42 8000 0 0 16:53 30.12.2021
6181 Clear 23 1016 45 8000 1.54 250 15:53 30.12.2021
6182 Clear 21 1017 58 8000 0 0 14:55 30.12.2021
6183 Clear 21 1017 58 8000 0 0 14:36 30.12.2021
6184 Clear 21 1019 52 10000 1.77 252 13:25 30.12.2021
6185 Clear 19 1022 60 10000 0.27 233 11:57 30.12.2021
6186 Clear 18 1022 63 10000 0.44 165 10:35 30.12.2021
6187 Clear 18 1022 63 10000 1.15 213 09:47 30.12.2021
6188 Clear 18 1023 63 10000 0.77 239 06:58 30.12.2021
6189 Clear 17 1024 62 10000 1.6 241 05:20 30.12.2021
6190 Clear 19 1023 60 10000 1.32 241 03:40 30.12.2021
6191 Clear 19 1023 60 10000 2.2 234 02:28 30.12.2021
6192 Clear 22 1019 54 8000 3.09 210 23:37 29.12.2021
6193 Clear 25 1017 45 8000 3.09 210 22:42 29.12.2021
6194 Clear 24 1017 47 7000 3.09 210 21:56 29.12.2021
6195 Clear 23 1016 53 6000 3.6 250 20:58 29.12.2021
6196 Clear 23 1017 50 6000 3.6 250 20:29 29.12.2021
6197 Clear 25 1015 40 10000 4.9 236 19:31 29.12.2021
6198 Haze 23 1017 51 5000 3.6 250 18:42 29.12.2021
6199 Clear 25 1016 42 10000 4.81 243 17:49 29.12.2021
6200 Clear 25 1016 42 10000 4.31 245 17:26 29.12.2021
6201 Haze 22 1017 56 5000 2.57 220 16:22 29.12.2021
6202 Haze 20 1017 60 5000 2.57 210 15:21 29.12.2021
6203 Clear 22 1015 50 10000 2.6 253 13:31 29.12.2021
6204 Haze 18 1015 68 5000 0 0 12:35 29.12.2021
6205 Clear 18 1017 60 10000 0.84 243 11:25 29.12.2021
6206 Clear 18 1018 61 10000 0.98 256 09:38 29.12.2021
6207 Clear 19 1017 57 10000 0.81 243 07:47 29.12.2021
6208 Clear 20 1017 55 10000 1.04 260 06:36 29.12.2021
6209 Clear 20 1017 54 10000 1.18 254 05:57 29.12.2021
6210 Clear 20 1017 54 10000 1.18 254 05:30 29.12.2021
6211 Clear 23 1017 49 10000 1.84 237 01:45 29.12.2021
6212 Clear 26 1012 39 8000 4.63 250 23:59 28.12.2021
6213 Clear 27 1012 38 8000 4.63 250 23:18 28.12.2021
6214 Clear 28 1012 37 8000 4.63 250 22:26 28.12.2021
6215 Clear 28 1012 35 7000 4.63 210 21:57 28.12.2021
6216 Clear 28 1012 35 7000 4.63 210 21:35 28.12.2021
6217 Clear 29 1015 35 10000 3.6 190 20:33 28.12.2021
6218 Clear 28 1015 37 7000 3.09 270 18:56 28.12.2021
6219 Clear 28 1015 37 7000 3.09 270 18:29 28.12.2021
6220 Clear 27 1015 38 7000 3.09 250 17:48 28.12.2021
6221 Clear 26 1014 40 7000 2.57 240 16:29 28.12.2021
6222 Clear 25 1014 43 7000 2.06 250 15:45 28.12.2021
6223 Clear 24 1014 44 7000 2.06 250 15:19 28.12.2021
6224 Clear 24 1015 45 10000 1.54 230 14:45 28.12.2021
6225 Clear 24 1015 46 10000 1.54 230 14:20 28.12.2021
6226 Clear 24 1015 43 10000 2.55 248 13:38 28.12.2021
6227 Clear 24 1015 43 10000 2.55 248 13:38 28.12.2021
6228 Clear 20 1016 60 10000 0 0 12:57 28.12.2021
6229 Clear 19 1016 60 10000 0 0 12:38 28.12.2021
6230 Clear 20 1017 55 10000 0.3 205 10:52 28.12.2021
6231 Clear 21 1016 52 10000 0.35 307 07:39 28.12.2021
6232 Clear 21 1017 51 10000 0.41 272 06:40 28.12.2021
6233 Clouds 26 1014 38 7000 1.54 270 23:42 27.12.2021
6234 Clouds 28 1015 34 7000 2.57 270 22:53 27.12.2021
6235 Clouds 30 1015 30 7000 2.57 0 21:33 27.12.2021
6236 Clouds 30 1014 29 7000 4.12 240 20:45 27.12.2021
6237 Clear 30 1012 23 10000 4.51 244 19:57 27.12.2021
6238 Clear 29 1015 30 10000 4.51 244 19:39 27.12.2021
6239 Clear 27 1017 34 7000 3.09 0 17:55 27.12.2021
6240 Clear 27 1016 33 7000 3.09 0 17:37 27.12.2021
6241 Clear 26 1015 33 7000 2.57 210 16:36 27.12.2021
6242 Clouds 26 1015 36 7000 2.06 0 15:51 27.12.2021
6243 Clouds 24 1016 42 8000 1.03 0 14:30 27.12.2021
6244 Clouds 25 1016 38 10000 2.61 250 13:38 27.12.2021
6245 Clouds 20 1019 47 10000 0.53 275 11:41 27.12.2021
6246 Clouds 21 1018 46 10000 0.22 198 10:28 27.12.2021
6247 Clouds 21 1017 47 10000 0.22 198 09:38 27.12.2021
6248 Clouds 22 1017 41 10000 0.46 249 07:35 27.12.2021
6249 Clouds 23 1017 39 10000 0.22 204 06:38 27.12.2021
6250 Clouds 26 1016 26 10000 1.64 231 01:59 27.12.2021
6251 Clear 29 1012 25 10000 3.6 230 23:57 26.12.2021
6252 Clear 30 1012 25 10000 3.6 230 23:34 26.12.2021
6253 Clear 32 1012 19 10000 4.12 260 21:53 26.12.2021
6254 Clear 31 1013 21 10000 3.6 250 20:42 26.12.2021
6255 Clouds 31 1012 23 10000 4.58 244 19:46 26.12.2021
6256 Clear 30 1014 24 10000 3.09 260 18:23 26.12.2021
6257 Clear 28 1015 29 10000 2.06 240 15:57 26.12.2021
6258 Clear 26 1016 33 10000 0 0 14:27 26.12.2021
6259 Clouds 25 1016 31 10000 2.35 259 13:40 26.12.2021
6260 Clouds 25 1016 35 10000 1.54 268 13:18 26.12.2021
6261 Clear 22 1016 43 10000 0 0 12:27 26.12.2021
6262 Clouds 21 1017 38 10000 0.5 68 10:32 26.12.2021
6263 Clouds 21 1017 37 10000 0.06 79 09:19 26.12.2021
6264 Clouds 21 1017 38 10000 0.06 79 08:43 26.12.2021
6265 Clouds 22 1017 36 10000 0.38 61 07:34 26.12.2021
6266 Clouds 26 1016 21 10000 2.02 221 01:24 26.12.2021
6267 Clear 29 1012 26 10000 4.12 240 23:54 25.12.2021
6268 Clear 29 1012 24 10000 4.12 240 23:27 25.12.2021
6269 Clear 30 1012 24 10000 4.12 230 22:26 25.12.2021
6270 Clear 31 1012 24 10000 4.12 260 20:57 25.12.2021
6271 Clouds 30 1012 25 10000 4.07 245 19:26 25.12.2021
6272 Clear 30 1014 26 10000 3.6 250 18:55 25.12.2021
6273 Clear 29 1015 26 10000 2.57 200 17:33 25.12.2021
6274 Clear 28 1015 29 10000 1.54 200 16:36 25.12.2021
6275 Clear 26 1016 32 10000 1.03 220 15:18 25.12.2021
6276 Clouds 25 1017 35 10000 2 262 13:30 25.12.2021
6277 Clouds 22 1017 43 10000 0.41 291 11:51 25.12.2021
6278 Clouds 21 1019 49 10000 0.12 20 09:54 25.12.2021
6279 Clouds 21 1018 48 10000 0.12 20 09:34 25.12.2021
6280 Clouds 24 1017 43 10000 0.43 215 04:34 25.12.2021
6281 Clear 26 1013 33 10000 2.5 232 01:24 25.12.2021
6282 Clear 29 1012 33 10000 4.63 230 23:42 24.12.2021
6283 Clear 29 1015 28 10000 4.31 243 19:46 24.12.2021
6284 Clear 29 1016 29 10000 4.11 243 19:23 24.12.2021
6285 Clear 26 1018 38 10000 1.54 0 16:57 24.12.2021
6286 Clear 25 1016 39 10000 1.54 0 16:22 24.12.2021
6287 Clear 24 1017 40 10000 1.54 0 15:48 24.12.2021
6288 Clear 24 1017 41 10000 1.54 0 15:18 24.12.2021
6289 Clear 22 1017 46 10000 1.54 0 14:31 24.12.2021
6290 Clear 23 1018 42 10000 2.56 246 13:42 24.12.2021
6291 Clear 18 1020 61 10000 0 0 12:49 24.12.2021
6292 Clear 18 1020 61 10000 0 0 12:21 24.12.2021
6293 Clouds 18 1021 54 10000 1.12 242 11:30 24.12.2021
6294 Clouds 18 1020 52 10000 0.19 190 10:59 24.12.2021
6295 Clouds 19 1020 52 10000 0.19 190 10:33 24.12.2021
6296 Clouds 20 1020 53 10000 0.64 241 08:36 24.12.2021
6297 Clouds 20 1020 52 10000 0.43 214 07:58 24.12.2021
6298 Clouds 16 1017 52 10000 1.17 243 06:18 24.12.2021
6299 Clear 26 1017 36 10000 3.09 250 00:20 24.12.2021
6300 Clear 26 1016 34 10000 4.12 240 23:33 23.12.2021
6301 Clear 27 1017 35 10000 3.09 240 22:44 23.12.2021
6302 Clear 27 1018 34 10000 3.09 240 22:22 23.12.2021
6303 Clear 27 1017 34 10000 4.12 190 21:39 23.12.2021
6304 Clear 27 1019 33 8000 4.63 240 20:22 23.12.2021
6305 Clouds 26 1019 34 10000 4.26 244 19:28 23.12.2021
6306 Clouds 25 1017 38 8000 3.09 210 17:58 23.12.2021
6307 Clouds 25 1017 38 8000 3.09 210 17:18 23.12.2021
6308 Clouds 23 1018 41 10000 3.67 249 16:26 23.12.2021
6309 Clouds 22 1018 47 8000 1.54 180 15:32 23.12.2021
6310 Clouds 21 1018 49 8000 1.54 0 14:58 23.12.2021
6311 Clouds 20 1018 50 8000 1.54 0 14:38 23.12.2021
6312 Clouds 18 1023 56 10000 1.8 249 13:25 23.12.2021
6313 Clouds 18 1021 53 10000 0.63 233 11:27 23.12.2021
6314 Clouds 19 1020 44 10000 0.88 240 09:53 23.12.2021
6315 Clouds 19 1020 43 10000 0.88 240 09:33 23.12.2021
6316 Clear 20 1019 41 10000 0.81 260 08:28 23.12.2021
6317 Clear 22 1018 34 10000 1.04 257 05:30 23.12.2021
6318 Clear 27 1014 26 10000 3.6 260 00:40 23.12.2021
6319 Clear 28 1013 28 8000 3.6 230 22:51 22.12.2021
6320 Clear 29 1014 26 8000 4.12 230 21:59 22.12.2021
6321 Clear 29 1014 27 8000 4.12 230 21:30 22.12.2021
6322 Clear 28 1014 27 8000 4.63 240 20:59 22.12.2021
6323 Clear 28 1014 27 8000 4.63 240 20:40 22.12.2021
6324 Clear 29 1011 19 10000 4.8 240 19:50 22.12.2021
6325 Clouds 29 1014 26 8000 4.12 240 18:55 22.12.2021
6326 Clouds 28 1011 23 10000 4.42 243 17:38 22.12.2021
6327 Clouds 26 1013 34 8000 2.57 270 15:56 22.12.2021
6328 Clear 25 1014 37 10000 2.06 240 14:23 22.12.2021
6329 Clear 21 1013 46 10000 0 0 12:53 22.12.2021
6330 Clear 20 1016 42 10000 0.64 251 11:42 22.12.2021
6331 Clear 20 1015 42 10000 0.13 125 09:52 22.12.2021
6332 Clear 21 1014 47 10000 0.61 220 07:57 22.12.2021
6333 Clear 22 1014 46 10000 0.21 295 05:54 22.12.2021
6334 Clear 23 1014 47 10000 0.21 295 05:34 22.12.2021
6335 Clear 23 1015 45 10000 0.36 200 04:57 22.12.2021
6336 Clear 23 1015 43 10000 0.36 200 04:37 22.12.2021
6337 Clear 23 1015 42 10000 1.3 213 03:49 22.12.2021
6338 Clear 23 1015 41 10000 1.3 213 03:31 22.12.2021
6339 Clear 27 1011 32 10000 4.12 230 23:48 21.12.2021
6340 Clear 30 1012 25 10000 4.12 240 22:41 21.12.2021
6341 Clear 31 1012 24 10000 3.6 250 21:56 21.12.2021
6342 Clear 31 1013 25 10000 3.6 250 21:33 21.12.2021
6343 Clear 30 1013 23 8000 4.12 240 20:39 21.12.2021
6344 Clear 30 1013 23 8000 4.12 240 20:18 21.12.2021
6345 Clear 30 1013 23 10000 4.52 245 19:33 21.12.2021
6346 Clear 29 1013 22 10000 3.6 250 18:23 21.12.2021
6347 Clear 29 1013 26 8000 3.09 260 17:58 21.12.2021
6348 Clear 29 1013 28 8000 3.09 260 17:29 21.12.2021
6349 Clear 26 1013 35 8000 1.54 230 15:39 21.12.2021
6350 Clear 24 1014 43 10000 0 0 14:21 21.12.2021
6351 Clear 24 1014 41 10000 2.53 239 13:42 21.12.2021
6352 Clear 19 1015 55 10000 0 0 12:26 21.12.2021
6353 Clear 20 1016 47 10000 0.48 188 10:38 21.12.2021
6354 Clear 20 1016 48 10000 0.41 184 09:50 21.12.2021
6355 Clear 20 1016 48 10000 0.39 175 08:55 21.12.2021
6356 Clear 21 1016 48 10000 0.69 210 07:43 21.12.2021
6357 Clear 21 1016 46 10000 0.72 210 07:20 21.12.2021
6358 Clear 24 1016 38 10000 1.5 226 03:24 21.12.2021
6359 Clear 26 1014 35 10000 1.99 224 01:25 21.12.2021
6360 Clear 27 1012 33 10000 4.63 250 23:54 20.12.2021
6361 Clear 31 1012 28 10000 4.63 250 22:35 20.12.2021
6362 Clear 31 1013 25 10000 4.63 240 21:52 20.12.2021
6363 Clear 31 1013 24 10000 4.63 240 21:24 20.12.2021
6364 Clear 32 1012 24 10000 4.12 0 20:54 20.12.2021
6365 Clear 31 1013 23 10000 4.12 0 20:19 20.12.2021
6366 Clear 31 1014 23 10000 4.46 244 19:36 20.12.2021
6367 Clear 31 1014 22 10000 4.23 242 19:18 20.12.2021
6368 Clear 30 1014 21 10000 3.09 250 18:30 20.12.2021
6369 Clear 30 1015 23 10000 2.57 0 17:49 20.12.2021
6370 Clear 30 1015 23 10000 2.57 0 17:49 20.12.2021
6371 Clear 27 1015 29 10000 2.06 0 16:46 20.12.2021
6372 Clear 25 1015 35 10000 2.06 220 15:57 20.12.2021
6373 Clear 25 1015 35 10000 2.06 220 15:31 20.12.2021
6374 Clear 24 1015 38 10000 2.21 240 13:32 20.12.2021
6375 Clear 24 1015 38 10000 2.21 240 13:32 20.12.2021
6376 Clear 19 1016 57 10000 0 0 12:30 20.12.2021
6377 Clouds 20 1017 46 10000 0.47 198 10:36 20.12.2021
6378 Clouds 20 1016 47 10000 0.5 208 09:39 20.12.2021
6379 Clouds 21 1016 45 10000 0.33 166 08:49 20.12.2021
6380 Clouds 21 1016 46 10000 0.33 166 08:31 20.12.2021
6381 Clouds 21 1016 44 10000 0.4 210 07:32 20.12.2021
6382 Clear 22 1016 44 10000 0.55 226 06:39 20.12.2021
6383 Clear 28 1012 29 10000 2.57 250 00:20 20.12.2021
6384 Clear 30 1011 26 10000 4.63 250 22:56 19.12.2021
6385 Clear 30 1011 26 10000 4.63 250 22:32 19.12.2021
6386 Clear 32 1013 23 10000 4.12 220 21:32 19.12.2021
6387 Clear 32 1013 22 10000 3.6 220 20:42 19.12.2021
6388 Clear 32 1013 22 10000 3.6 220 20:23 19.12.2021
6389 Clear 30 1013 24 10000 4.33 244 19:41 19.12.2021
6390 Clear 31 1014 23 10000 2.57 260 18:37 19.12.2021
6391 Clear 30 1014 24 10000 2.06 260 17:53 19.12.2021
6392 Clear 30 1013 25 10000 2.06 260 17:28 19.12.2021
6393 Clear 27 1013 32 10000 2.06 160 16:27 19.12.2021
6394 Clear 26 1013 34 10000 2.06 240 15:51 19.12.2021
6395 Clear 26 1014 34 10000 2.06 240 15:23 19.12.2021
6396 Clear 25 1014 37 10000 1.54 220 14:45 19.12.2021
6397 Clear 23 1015 39 10000 1.34 252 13:26 19.12.2021
6398 Clear 21 1015 49 10000 0 0 12:52 19.12.2021
6399 Clear 18 1016 56 10000 0 0 12:28 19.12.2021
6400 Clear 19 1017 45 10000 0.37 246 11:33 19.12.2021
6401 Clear 19 1017 46 10000 0.16 189 10:48 19.12.2021
6402 Clear 19 1018 46 10000 0.2 191 10:21 19.12.2021
6403 Clear 20 1017 46 10000 0.19 204 08:46 19.12.2021
6404 Clear 21 1017 47 10000 0.42 226 05:37 19.12.2021
6405 Clear 25 1017 37 10000 1.4 227 01:45 19.12.2021
6406 Clear 27 1014 30 10000 2.06 250 00:54 19.12.2021
6407 Clear 29 1013 25 10000 4.63 230 22:51 18.12.2021
6408 Clear 31 1015 23 10000 4.63 230 22:24 18.12.2021
6409 Clear 30 1014 22 10000 3.09 190 21:41 18.12.2021
6410 Clear 30 1014 21 10000 3.09 190 21:22 18.12.2021
6411 Clear 30 1015 24 10000 3.6 220 20:25 18.12.2021
6412 Clear 29 1016 26 10000 3.89 246 19:27 18.12.2021
6413 Clear 28 1016 28 10000 2.57 270 18:23 18.12.2021
6414 Clear 27 1016 27 10000 2.57 210 17:49 18.12.2021
6415 Clear 25 1016 35 10000 2.57 260 16:27 18.12.2021
6416 Clear 24 1015 36 10000 2.06 250 15:48 18.12.2021
6417 Clear 22 1015 38 10000 1.03 240 14:53 18.12.2021
6418 Clear 23 1014 34 10000 2.41 246 13:42 18.12.2021
6419 Clear 18 1018 49 10000 0.71 246 11:48 18.12.2021
6420 Clear 18 1019 51 10000 0.25 229 09:53 18.12.2021
6421 Clear 18 1018 50 10000 0.25 229 09:30 18.12.2021
6422 Clear 18 1019 51 10000 0.24 178 08:35 18.12.2021
6423 Clear 19 1019 47 10000 0.73 236 06:27 18.12.2021
6424 Clear 25 1016 32 10000 3.09 270 00:42 18.12.2021
6425 Clear 27 1013 31 10000 4.12 270 23:46 17.12.2021
6426 Clear 28 1013 27 10000 3.09 230 22:18 17.12.2021
6427 Clear 28 1014 25 10000 3.6 220 21:28 17.12.2021
6428 Clear 28 1014 26 10000 4.12 210 20:42 17.12.2021
6429 Clear 27 1014 29 10000 4.23 242 19:50 17.12.2021
6430 Clear 26 1015 36 10000 2.57 0 18:39 17.12.2021
6431 Clear 25 1017 37 10000 2.06 250 17:46 17.12.2021
6432 Clear 24 1016 38 10000 1.54 210 16:50 17.12.2021
6433 Clear 23 1017 40 10000 1.54 210 16:26 17.12.2021
6434 Clear 21 1017 45 10000 1.03 270 15:25 17.12.2021
6435 Clear 20 1016 48 10000 1.54 0 14:41 17.12.2021
6436 Clear 20 1018 48 10000 2.49 251 13:30 17.12.2021
6437 Clear 14 984 70 10000 0 0 12:28 17.12.2021
6438 Clear 16 1022 61 10000 0.37 232 10:39 17.12.2021
6439 Clear 16 1021 60 10000 0.82 242 09:44 17.12.2021
6440 Clear 16 1021 59 10000 0.57 239 08:31 17.12.2021
6441 Clear 16 1021 59 10000 1.11 246 07:20 17.12.2021
6442 Clear 18 1022 54 10000 1.21 249 04:40 17.12.2021
6443 Clear 25 1014 37 10000 4.12 250 23:58 16.12.2021
6444 Clear 25 1014 36 10000 5.14 250 22:24 16.12.2021
6445 Clear 25 1014 36 10000 5.14 250 22:24 16.12.2021
6446 Clear 25 1014 36 10000 5.14 250 22:23 16.12.2021
6447 Clear 25 1014 36 10000 5.14 250 22:23 16.12.2021
6448 Clear 26 1014 33 10000 4.12 230 21:45 16.12.2021
6449 Clear 27 1014 31 10000 4.12 220 20:57 16.12.2021
6450 Clear 28 1015 28 10000 4.12 220 20:27 16.12.2021
6451 Clear 26 1015 29 10000 4.59 239 19:35 16.12.2021
6452 Clear 26 1014 32 10000 3.09 230 18:37 16.12.2021
6453 Clear 25 1014 32 10000 2.06 0 17:49 16.12.2021
6454 Clear 24 1015 34 10000 2.06 280 16:55 16.12.2021
6455 Clear 23 1015 34 10000 2.06 280 16:20 16.12.2021
6456 Clear 21 1014 38 10000 0 0 14:32 16.12.2021
6457 Clear 18 1015 50 10000 0 0 12:34 16.12.2021
6458 Clear 18 1018 52 10000 0.46 226 11:19 16.12.2021
6459 Clear 18 1018 52 10000 0.46 226 11:19 16.12.2021
6460 Clear 18 1018 51 10000 0.46 226 10:45 16.12.2021
6461 Clear 18 1018 52 10000 0.78 244 09:51 16.12.2021
6462 Clear 19 1017 46 10000 0.35 233 07:19 16.12.2021
6463 Clear 20 1017 47 10000 0.78 253 06:19 16.12.2021
6464 Clear 26 1014 31 10000 3.6 240 00:44 16.12.2021
6465 Clear 26 1013 31 10000 4.12 240 23:21 15.12.2021
6466 Clear 29 1015 25 10000 4.12 220 22:22 15.12.2021
6467 Clear 29 1014 23 10000 4.12 210 21:46 15.12.2021
6468 Clear 29 1015 23 10000 4.12 210 21:26 15.12.2021
6469 Clear 28 1016 23 10000 4.44 238 19:55 15.12.2021
6470 Clear 28 1016 25 10000 4.06 241 19:19 15.12.2021
6471 Clear 28 1016 24 10000 3.6 180 18:26 15.12.2021
6472 Clear 27 1017 25 10000 2.06 0 17:47 15.12.2021
6473 Clear 26 1015 28 10000 2.06 0 17:21 15.12.2021
6474 Clear 23 1016 33 10000 2.06 0 15:59 15.12.2021
6475 Clear 23 1017 34 10000 2.06 0 15:41 15.12.2021
6476 Clear 23 1017 35 10000 2.06 0 15:23 15.12.2021
6477 Clear 20 1017 40 10000 0 0 13:48 15.12.2021
6478 Clear 18 1020 47 10000 0.88 246 11:52 15.12.2021
6479 Clear 16 1020 51 10000 0.5 258 10:22 15.12.2021
6480 Clear 18 1019 49 10000 0.33 225 08:34 15.12.2021
6481 Clear 19 1020 45 10000 0.79 234 05:59 15.12.2021
6482 Clear 25 1016 27 10000 3.6 250 00:45 15.12.2021
6483 Clear 25 1015 29 10000 3.09 220 23:32 14.12.2021
6484 Clear 26 1015 26 10000 3.09 230 22:45 14.12.2021
6485 Clear 26 1016 28 10000 3.6 220 21:47 14.12.2021
6486 Clear 24 1017 30 10000 4.23 236 20:23 14.12.2021
6487 Clear 25 1017 28 10000 3.6 170 19:39 14.12.2021
6488 Clear 24 1018 30 10000 3.6 200 18:39 14.12.2021
6489 Clear 23 1018 33 10000 2.57 0 17:57 14.12.2021
6490 Clear 22 1019 36 10000 2.06 0 16:49 14.12.2021
6491 Clear 22 1019 36 10000 2.06 0 16:30 14.12.2021
6492 Clear 19 1020 41 10000 2.57 170 14:33 14.12.2021
6493 Clear 16 1021 47 10000 0 0 13:22 14.12.2021
6494 Clear 16 1023 51 10000 1.06 258 11:51 14.12.2021
6495 Clear 15 1023 53 10000 0.17 325 11:22 14.12.2021
6496 Clear 15 1023 53 10000 0.55 243 09:55 14.12.2021
6497 Clear 15 1023 52 10000 0.63 240 09:22 14.12.2021
6498 Clear 16 1023 51 10000 0.84 249 08:22 14.12.2021
6499 Clear 16 1022 50 10000 0.84 249 07:42 14.12.2021
6500 Clouds 21 1016 40 10000 3.6 260 00:35 14.12.2021
6501 Clouds 24 1014 34 10000 4.63 230 22:33 13.12.2021
6502 Clouds 24 1015 33 10000 4.12 230 21:49 13.12.2021
6503 Clear 24 1015 32 10000 3.6 240 20:58 13.12.2021
6504 Clear 24 1015 32 10000 3.6 240 20:29 13.12.2021
6505 Clear 23 1015 34 10000 4.55 242 19:51 13.12.2021
6506 Clear 22 1016 37 10000 2.57 200 17:55 13.12.2021
6507 Clear 22 1017 38 10000 2.57 200 17:19 13.12.2021
6508 Clear 20 1018 43 10000 2.06 210 15:49 13.12.2021
6509 Clear 18 1018 47 10000 1.54 150 14:55 13.12.2021
6510 Clear 17 1018 51 10000 0 0 13:37 13.12.2021
6511 Clear 15 1018 57 10000 0 0 12:41 13.12.2021
6512 Clear 16 1021 55 10000 1.01 260 11:54 13.12.2021
6513 Clear 15 1021 56 10000 1.01 260 11:34 13.12.2021
6514 Clear 15 1022 57 10000 0.43 280 10:41 13.12.2021
6515 Clear 15 1021 57 10000 0.71 255 08:45 13.12.2021
6516 Clear 16 1021 54 10000 0.89 257 06:56 13.12.2021
6517 Clear 16 1021 51 10000 1.16 253 05:19 13.12.2021
6518 Clouds 21 1014 39 10000 3.09 230 00:41 13.12.2021
6519 Clouds 22 1015 39 10000 3.6 240 21:59 12.12.2021
6520 Clouds 22 1015 40 10000 3.6 240 21:30 12.12.2021
6521 Clouds 21 1017 45 10000 3.6 0 19:38 12.12.2021
6522 Clouds 19 1018 49 10000 3.09 0 18:24 12.12.2021
6523 Clouds 18 1019 57 8000 3.24 254 16:47 12.12.2021
6524 Clouds 17 1019 58 8000 3.13 252 16:22 12.12.2021
6525 Clouds 16 1019 67 8000 2.06 220 15:28 12.12.2021
6526 Clouds 15 1020 71 7000 2.06 180 14:54 12.12.2021
6527 Clouds 14 1020 73 7000 2.06 180 14:22 12.12.2021
6528 Haze 14 1019 77 700 2.06 210 12:51 12.12.2021
6529 Haze 14 1019 76 700 2.06 210 12:23 12.12.2021
6530 Clouds 15 1021 70 10000 2 245 11:43 12.12.2021
6531 Clouds 15 1021 71 10000 1.58 248 10:44 12.12.2021
6532 Clouds 15 1021 72 10000 1.45 251 10:21 12.12.2021
6533 Clouds 15 1021 69 10000 1.33 255 08:50 12.12.2021
6534 Clouds 16 1020 67 9274 1.33 253 07:30 12.12.2021
6535 Clouds 15 1021 70 10000 1.35 258 05:56 12.12.2021
6536 Clouds 16 1021 64 10000 1.55 245 04:55 12.12.2021
6537 Clouds 16 1022 65 10000 2.43 240 02:52 12.12.2021
6538 Clouds 20 915 50 8000 2.57 220 23:28 11.12.2021
6539 Clouds 20 857 47 8000 3.09 220 22:21 11.12.2021
6540 Clouds 21 915 49 8000 4.63 250 21:50 11.12.2021
6541 Clouds 22 1015 48 7000 3.6 230 20:21 11.12.2021
6542 Haze 21 1016 35 5000 1.54 240 19:21 11.12.2021
6543 Haze 21 1016 35 5000 1.54 240 19:21 11.12.2021
6544 Haze 19 1016 34 5000 1.54 290 18:49 11.12.2021
6545 Haze 16 1017 34 5000 1.54 0 17:56 11.12.2021
6546 Haze 18 858 41 5000 2.06 240 16:40 11.12.2021
6547 Mist 18 858 41 4000 2.06 210 15:46 11.12.2021
6548 Mist 17 858 42 2500 1.54 230 14:54 11.12.2021
6549 Mist 15 1020 75 2000 2.06 220 12:41 11.12.2021
6550 Clear 16 1022 68 10000 0.67 258 11:24 11.12.2021
6551 Clear 16 1021 67 10000 1.32 245 09:45 11.12.2021
6552 Clear 16 1021 68 10000 1.45 251 07:30 11.12.2021
6553 Clear 21 915 51 7000 3.09 260 00:50 11.12.2021
6554 Clear 21 856 47 7000 3.6 260 23:45 10.12.2021
6555 Clear 24 1015 47 7000 3.6 260 23:18 10.12.2021
6556 Clear 25 1015 41 7000 4.12 240 21:52 10.12.2021
6557 Clear 24 1014 33 7000 4.12 240 20:56 10.12.2021
6558 Clear 23 1015 33 6000 4.63 240 19:20 10.12.2021
6559 Clear 22 1015 51 6000 4.12 240 17:54 10.12.2021
6560 Clear 21 1014 54 7000 3.6 250 16:55 10.12.2021
6561 Clear 19 1014 61 6000 3.09 0 15:47 10.12.2021
6562 Clear 21 914 52 6000 3.09 0 15:29 10.12.2021
6563 Clear 20 914 53 6000 1.54 280 14:57 10.12.2021
6564 Clear 19 913 54 8000 0 0 13:50 10.12.2021
6565 Clear 19 914 56 8000 0 0 13:20 10.12.2021
6566 Clear 19 913 57 10000 0 0 12:23 10.12.2021
6567 Clear 19 1016 57 10000 0.56 282 11:27 10.12.2021
6568 Clear 19 1015 56 10000 0.48 264 09:54 10.12.2021
6569 Clear 19 1015 56 10000 0.48 264 09:54 10.12.2021
6570 Clear 20 864 48 10000 0.58 228 08:30 10.12.2021
6571 Clear 21 864 46 10000 0.68 236 05:56 10.12.2021
6572 Clear 21 864 44 10000 1.05 229 02:47 10.12.2021
6573 Clear 25 1011 41 10000 4.12 240 23:44 09.12.2021
6574 Clear 27 1012 34 10000 4.63 240 22:59 09.12.2021
6575 Clear 28 1011 33 10000 4.63 240 22:24 09.12.2021
6576 Clear 28 1011 31 10000 4.63 250 21:49 09.12.2021
6577 Clear 28 1011 31 10000 4.63 0 20:41 09.12.2021
6578 Clear 28 1011 29 10000 4.63 0 20:20 09.12.2021
6579 Clear 28 1012 29 10000 3.6 250 19:21 09.12.2021
6580 Clear 28 1012 30 10000 3.09 220 18:35 09.12.2021
6581 Clear 27 1012 31 10000 2.57 0 17:51 09.12.2021
6582 Clear 27 1012 31 10000 2.57 0 17:25 09.12.2021
6583 Clear 27 1012 31 10000 2.57 0 17:25 09.12.2021
6584 Clear 26 1013 32 10000 2.06 0 16:53 09.12.2021
6585 Clear 24 1013 39 10000 2.06 220 15:31 09.12.2021
6586 Clear 23 1013 43 10000 0 0 14:44 09.12.2021
6587 Clear 21 912 46 10000 0 0 13:18 09.12.2021
6588 Clear 19 912 52 10000 0 0 12:34 09.12.2021
6589 Clear 20 864 45 10000 0.64 19 10:58 09.12.2021
6590 Clear 19 1014 50 10000 0.28 61 08:49 09.12.2021
6591 Clear 21 864 44 10000 0.41 233 06:19 09.12.2021
6592 Clear 21 866 42 10000 1.45 240 02:49 09.12.2021
6593 Clear 23 856 38 10000 4.12 240 23:42 08.12.2021
6594 Clear 27 1014 33 10000 4.12 240 23:20 08.12.2021
6595 Clear 27 1014 33 10000 4.63 210 22:45 08.12.2021
6596 Clear 28 1014 31 10000 4.63 220 21:40 08.12.2021
6597 Clear 29 1014 27 10000 4.12 240 20:59 08.12.2021
6598 Clear 28 1014 27 10000 1.54 220 19:58 08.12.2021
6599 Clear 28 1014 28 10000 1.54 220 19:33 08.12.2021
6600 Clear 28 1015 33 8000 3.09 220 18:31 08.12.2021
6601 Clear 26 1016 33 8000 3.09 210 17:26 08.12.2021
6602 Clear 23 1015 41 10000 2.06 240 15:47 08.12.2021
6603 Clear 23 1016 43 10000 2.06 240 15:26 08.12.2021
6604 Clear 21 914 48 10000 1.03 230 14:28 08.12.2021
6605 Clear 17 1019 56 10000 0.2 200 10:54 08.12.2021
6606 Clear 17 1020 57 10000 0.22 230 10:28 08.12.2021
6607 Clear 18 1020 55 10000 0.32 216 08:54 08.12.2021
6608 Clear 18 1019 54 10000 0.35 224 07:21 08.12.2021
6609 Clear 21 915 43 10000 3.09 230 01:40 08.12.2021
6610 Clear 26 1016 31 10000 3.09 200 23:33 07.12.2021
6611 Clear 27 1017 35 10000 3.6 210 21:40 07.12.2021
6612 Clear 26 1017 36 10000 3.6 210 21:18 07.12.2021
6613 Clear 25 1016 25 8000 2.57 190 20:19 07.12.2021
6614 Clear 22 1017 28 8000 1.54 200 18:42 07.12.2021
6615 Clear 23 1017 40 7000 3.09 240 17:27 07.12.2021
6616 Clear 20 1017 40 7000 3.09 250 16:58 07.12.2021
6617 Clear 20 1017 40 7000 3.09 250 16:28 07.12.2021
6618 Clear 18 858 41 8000 2.06 0 14:57 07.12.2021
6619 Clear 18 858 41 8000 0 0 13:49 07.12.2021
6620 Clear 21 697 41 10000 2.16 253 12:49 07.12.2021
6621 Clear 16 1021 64 10000 0.6 240 11:25 07.12.2021
6622 Clear 16 1020 61 10000 0.65 272 09:55 07.12.2021
6623 Clear 19 1018 56 10000 1.04 240 07:55 07.12.2021
6624 Clear 20 866 48 10000 0.92 273 05:59 07.12.2021
6625 Clear 20 866 48 10000 1.04 265 05:33 07.12.2021
6626 Clear 26 1013 33 10000 3.08 233 23:45 06.12.2021
6627 Clear 26 1013 35 10000 4.21 236 22:44 06.12.2021
6628 Clear 29 1014 33 10000 4.74 237 22:22 06.12.2021
6629 Clear 28 1013 35 10000 4.74 237 21:46 06.12.2021
6630 Clear 27 1015 36 10000 4.97 239 20:33 06.12.2021
6631 Clear 26 1015 37 10000 4.13 245 19:27 06.12.2021
6632 Clear 26 1015 37 10000 4.13 245 18:59 06.12.2021
6633 Clear 27 1012 32 10000 3.79 246 17:56 06.12.2021
6634 Clear 26 1012 32 10000 3.79 246 17:37 06.12.2021
6635 Clear 25 1012 36 10000 3.62 247 16:22 06.12.2021
6636 Clear 24 1012 36 10000 3.62 247 15:38 06.12.2021
6637 Clear 23 1015 41 10000 2.77 250 13:46 06.12.2021
6638 Clear 22 1015 43 10000 2.23 252 12:39 06.12.2021
6639 Clear 21 1015 44 10000 0.5 254 10:38 06.12.2021
6640 Clear 21 1014 45 10000 0.15 257 08:45 06.12.2021
6641 Clear 24 1015 38 10000 0.7 236 04:56 06.12.2021
6642 Clear 30 1011 23 10000 4.63 240 22:52 05.12.2021
6643 Clear 32 1013 18 10000 4.63 250 21:26 05.12.2021
6644 Clear 33 1013 17 10000 3.6 230 20:59 05.12.2021
6645 Clear 33 1013 17 10000 3.6 230 20:19 05.12.2021
6646 Clear 32 1013 19 10000 3.09 210 19:33 05.12.2021
6647 Clear 31 1013 20 10000 3.09 0 18:43 05.12.2021
6648 Clear 31 1014 20 10000 3.09 0 18:19 05.12.2021
6649 Clear 30 1014 21 10000 2.57 240 17:48 05.12.2021
6650 Clear 29 1014 22 10000 2.57 0 16:45 05.12.2021
6651 Clear 28 1015 25 10000 2.57 0 16:26 05.12.2021
6652 Clear 26 1015 25 10000 1.54 250 14:49 05.12.2021
6653 Clear 25 1014 27 10000 1.54 250 14:31 05.12.2021
6654 Clear 23 1013 33 10000 0 0 13:50 05.12.2021
6655 Clear 23 1014 32 10000 0 0 13:22 05.12.2021
6656 Clear 20 1013 41 10000 0 0 12:40 05.12.2021
6657 Clear 21 1014 37 10000 0 0 12:18 05.12.2021
6658 Clear 20 1017 34 10000 0.53 82 11:20 05.12.2021
6659 Clear 20 1016 33 10000 0.56 79 09:59 05.12.2021
6660 Clear 21 1016 35 10000 0.47 58 07:55 05.12.2021
6661 Clear 25 1015 30 10000 0.94 192 02:28 05.12.2021
6662 Clear 29 1012 22 10000 3.6 140 23:34 04.12.2021
6663 Clear 31 1013 17 10000 3.6 240 21:54 04.12.2021
6664 Clear 30 1014 19 10000 2.57 240 20:55 04.12.2021
6665 Clear 29 1014 21 10000 2.57 190 19:55 04.12.2021
6666 Clear 29 1015 21 10000 2.57 190 19:31 04.12.2021
6667 Clear 27 1014 25 8000 0 0 17:59 04.12.2021
6668 Clear 27 1014 25 8000 0 0 17:38 04.12.2021
6669 Clear 25 1015 28 8000 2.06 240 16:48 04.12.2021
6670 Clear 25 1014 30 8000 2.06 240 16:30 04.12.2021
6671 Clear 23 1015 33 10000 0 0 15:18 04.12.2021
6672 Clear 21 1014 34 10000 0.83 234 11:50 04.12.2021
6673 Clear 12 1014 31 10000 0.83 234 11:32 04.12.2021
6674 Clear 12 1014 31 10000 0.83 234 11:32 04.12.2021
6675 Clear 16 1020 52 10000 0.3 146 10:43 04.12.2021
6676 Clear 18 1019 47 10000 0.33 223 08:47 04.12.2021
6677 Clear 19 1019 45 10000 0.62 242 06:26 04.12.2021
6678 Clear 19 1020 39 10000 0.72 246 04:42 04.12.2021
6679 Clear 23 1016 32 10000 3.09 240 00:18 04.12.2021
6680 Clear 26 1015 31 10000 4.29 234 23:20 03.12.2021
6681 Clear 26 1015 31 10000 4.63 230 22:41 03.12.2021
6682 Clear 26 1014 30 10000 4.12 230 21:25 03.12.2021
6683 Clear 26 1015 31 10000 4.12 220 20:48 03.12.2021
6684 Clear 25 1016 33 10000 4.12 240 19:50 03.12.2021
6685 Clear 25 1016 33 10000 3.09 220 18:34 03.12.2021
6686 Clear 24 1017 35 8000 2.57 230 17:59 03.12.2021
6687 Clear 22 1017 40 10000 1.54 240 15:36 03.12.2021
6688 Clear 16 1019 58 10000 0 0 12:5